<?xml version="1.0" encoding="UTF-8" standalone="no" ?>
<gpx xmlns="http://www.topografix.com/GPX/1/1" xmlns:xsi="http://www.w3.org/2001/XMLSchema-instance" xsi:schemaLocation="http://www.topografix.com/GPX/1/1 http://www.topografix.com/GPX/1/1/gpx.xsd" version="1.1" creator="VisuGPX - https://www.visugpx.com">
  <metadata>
    <name>Val de Saâne journée 28Km47</name>
    <desc><![CDATA[Rando de 28 Km agréable et comme d'habitude pleine de trouvailles]]></desc>
  </metadata>
  <trk>
    <name><![CDATA[20110825-Saane]]></name>
    <trkseg>
      <trkpt lat="49.70595" lon="0.9659">
        <ele>77.3</ele>
        <time>2011-08-25T07:26:47Z</time>
      </trkpt>
      <trkpt lat="49.70595" lon="0.9659">
        <ele>77.3</ele>
        <time>2011-08-25T07:26:48Z</time>
      </trkpt>
      <trkpt lat="49.70594" lon="0.96575">
        <ele>82.4</ele>
        <time>2011-08-25T07:32:28Z</time>
      </trkpt>
      <trkpt lat="49.70597" lon="0.96551">
        <ele>82.9</ele>
        <time>2011-08-25T07:32:48Z</time>
      </trkpt>
      <trkpt lat="49.706" lon="0.9654">
        <ele>83.8</ele>
        <time>2011-08-25T07:32:54Z</time>
      </trkpt>
      <trkpt lat="49.70604" lon="0.96528">
        <ele>84.4</ele>
        <time>2011-08-25T07:33:01Z</time>
      </trkpt>
      <trkpt lat="49.70605" lon="0.96516">
        <ele>82.8</ele>
        <time>2011-08-25T07:33:09Z</time>
      </trkpt>
      <trkpt lat="49.70608" lon="0.96503">
        <ele>80.5</ele>
        <time>2011-08-25T07:33:15Z</time>
      </trkpt>
      <trkpt lat="49.70615" lon="0.96496">
        <ele>80</ele>
        <time>2011-08-25T07:33:21Z</time>
      </trkpt>
      <trkpt lat="49.7062" lon="0.96486">
        <ele>81.5</ele>
        <time>2011-08-25T07:33:36Z</time>
      </trkpt>
      <trkpt lat="49.70621" lon="0.96484">
        <ele>81</ele>
        <time>2011-08-25T07:33:37Z</time>
      </trkpt>
      <trkpt lat="49.70635" lon="0.96473">
        <ele>79.8</ele>
        <time>2011-08-25T07:33:51Z</time>
      </trkpt>
      <trkpt lat="49.7064" lon="0.96463">
        <ele>79.5</ele>
        <time>2011-08-25T07:34:00Z</time>
      </trkpt>
      <trkpt lat="49.70647" lon="0.96456">
        <ele>82</ele>
        <time>2011-08-25T07:34:06Z</time>
      </trkpt>
      <trkpt lat="49.70655" lon="0.9645">
        <ele>83.8</ele>
        <time>2011-08-25T07:34:12Z</time>
      </trkpt>
      <trkpt lat="49.7065" lon="0.96438">
        <ele>83.9</ele>
        <time>2011-08-25T07:34:20Z</time>
      </trkpt>
      <trkpt lat="49.70657" lon="0.96431">
        <ele>84.3</ele>
        <time>2011-08-25T07:34:26Z</time>
      </trkpt>
      <trkpt lat="49.70665" lon="0.96428">
        <ele>88</ele>
        <time>2011-08-25T07:34:34Z</time>
      </trkpt>
      <trkpt lat="49.70673" lon="0.96429">
        <ele>88.8</ele>
        <time>2011-08-25T07:34:37Z</time>
      </trkpt>
      <trkpt lat="49.70676" lon="0.96428">
        <ele>88.6</ele>
        <time>2011-08-25T07:34:38Z</time>
      </trkpt>
      <trkpt lat="49.70689" lon="0.96426">
        <ele>90</ele>
        <time>2011-08-25T07:34:43Z</time>
      </trkpt>
      <trkpt lat="49.70695" lon="0.96435">
        <ele>90.5</ele>
        <time>2011-08-25T07:34:51Z</time>
      </trkpt>
      <trkpt lat="49.70698" lon="0.96445">
        <ele>90.8</ele>
        <time>2011-08-25T07:34:56Z</time>
      </trkpt>
      <trkpt lat="49.70702" lon="0.96457">
        <ele>91</ele>
        <time>2011-08-25T07:35:02Z</time>
      </trkpt>
      <trkpt lat="49.70707" lon="0.96467">
        <ele>90.5</ele>
        <time>2011-08-25T07:35:07Z</time>
      </trkpt>
      <trkpt lat="49.70714" lon="0.96475">
        <ele>91.1</ele>
        <time>2011-08-25T07:35:12Z</time>
      </trkpt>
      <trkpt lat="49.70719" lon="0.96484">
        <ele>90.4</ele>
        <time>2011-08-25T07:35:17Z</time>
      </trkpt>
      <trkpt lat="49.70718" lon="0.96498">
        <ele>91.5</ele>
        <time>2011-08-25T07:35:26Z</time>
      </trkpt>
      <trkpt lat="49.7072" lon="0.9651">
        <ele>94.1</ele>
        <time>2011-08-25T07:35:33Z</time>
      </trkpt>
      <trkpt lat="49.70721" lon="0.96522">
        <ele>96.1</ele>
        <time>2011-08-25T07:35:41Z</time>
      </trkpt>
      <trkpt lat="49.70721" lon="0.96524">
        <ele>95.8</ele>
        <time>2011-08-25T07:35:42Z</time>
      </trkpt>
      <trkpt lat="49.70723" lon="0.96549">
        <ele>98.4</ele>
        <time>2011-08-25T07:35:55Z</time>
      </trkpt>
      <trkpt lat="49.70721" lon="0.96561">
        <ele>101.1</ele>
        <time>2011-08-25T07:36:04Z</time>
      </trkpt>
      <trkpt lat="49.70717" lon="0.96573">
        <ele>103</ele>
        <time>2011-08-25T07:36:13Z</time>
      </trkpt>
      <trkpt lat="49.7071" lon="0.96581">
        <ele>106.3</ele>
        <time>2011-08-25T07:36:23Z</time>
      </trkpt>
      <trkpt lat="49.7071" lon="0.96594">
        <ele>107.1</ele>
        <time>2011-08-25T07:36:32Z</time>
      </trkpt>
      <trkpt lat="49.70711" lon="0.96607">
        <ele>108.8</ele>
        <time>2011-08-25T07:36:39Z</time>
      </trkpt>
      <trkpt lat="49.70712" lon="0.96619">
        <ele>112.6</ele>
        <time>2011-08-25T07:36:47Z</time>
      </trkpt>
      <trkpt lat="49.70713" lon="0.96621">
        <ele>113</ele>
        <time>2011-08-25T07:36:48Z</time>
      </trkpt>
      <trkpt lat="49.70706" lon="0.96642">
        <ele>120.5</ele>
        <time>2011-08-25T07:37:15Z</time>
      </trkpt>
      <trkpt lat="49.70701" lon="0.96654">
        <ele>121.8</ele>
        <time>2011-08-25T07:37:22Z</time>
      </trkpt>
      <trkpt lat="49.70699" lon="0.96666">
        <ele>121.4</ele>
        <time>2011-08-25T07:37:29Z</time>
      </trkpt>
      <trkpt lat="49.70698" lon="0.96678">
        <ele>121.4</ele>
        <time>2011-08-25T07:37:38Z</time>
      </trkpt>
      <trkpt lat="49.70698" lon="0.96691">
        <ele>121.8</ele>
        <time>2011-08-25T07:37:44Z</time>
      </trkpt>
      <trkpt lat="49.70701" lon="0.96703">
        <ele>121</ele>
        <time>2011-08-25T07:37:49Z</time>
      </trkpt>
      <trkpt lat="49.707" lon="0.96705">
        <ele>121.4</ele>
        <time>2011-08-25T07:37:50Z</time>
      </trkpt>
      <trkpt lat="49.70704" lon="0.9673">
        <ele>123.6</ele>
        <time>2011-08-25T07:38:05Z</time>
      </trkpt>
      <trkpt lat="49.70709" lon="0.96741">
        <ele>123.9</ele>
        <time>2011-08-25T07:38:25Z</time>
      </trkpt>
      <trkpt lat="49.70715" lon="0.9675">
        <ele>123.9</ele>
        <time>2011-08-25T07:38:32Z</time>
      </trkpt>
      <trkpt lat="49.70722" lon="0.96759">
        <ele>122.5</ele>
        <time>2011-08-25T07:38:39Z</time>
      </trkpt>
      <trkpt lat="49.70729" lon="0.96767">
        <ele>121</ele>
        <time>2011-08-25T07:38:47Z</time>
      </trkpt>
      <trkpt lat="49.70736" lon="0.96775">
        <ele>123.4</ele>
        <time>2011-08-25T07:39:01Z</time>
      </trkpt>
      <trkpt lat="49.70736" lon="0.96775">
        <ele>123.3</ele>
        <time>2011-08-25T07:39:02Z</time>
      </trkpt>
      <trkpt lat="49.70747" lon="0.96795">
        <ele>125.9</ele>
        <time>2011-08-25T07:39:30Z</time>
      </trkpt>
      <trkpt lat="49.70754" lon="0.96803">
        <ele>127.1</ele>
        <time>2011-08-25T07:39:39Z</time>
      </trkpt>
      <trkpt lat="49.7076" lon="0.96813">
        <ele>126.5</ele>
        <time>2011-08-25T07:39:50Z</time>
      </trkpt>
      <trkpt lat="49.70763" lon="0.96826">
        <ele>126.1</ele>
        <time>2011-08-25T07:40:00Z</time>
      </trkpt>
      <trkpt lat="49.70767" lon="0.96834">
        <ele>126.1</ele>
        <time>2011-08-25T07:40:03Z</time>
      </trkpt>
      <trkpt lat="49.70769" lon="0.96837">
        <ele>126.5</ele>
        <time>2011-08-25T07:40:04Z</time>
      </trkpt>
      <trkpt lat="49.70779" lon="0.9685">
        <ele>129.8</ele>
        <time>2011-08-25T07:40:16Z</time>
      </trkpt>
      <trkpt lat="49.70784" lon="0.96861">
        <ele>129.3</ele>
        <time>2011-08-25T07:40:22Z</time>
      </trkpt>
      <trkpt lat="49.70789" lon="0.96871">
        <ele>128.6</ele>
        <time>2011-08-25T07:40:26Z</time>
      </trkpt>
      <trkpt lat="49.70794" lon="0.96881">
        <ele>130.1</ele>
        <time>2011-08-25T07:40:31Z</time>
      </trkpt>
      <trkpt lat="49.70799" lon="0.96891">
        <ele>130</ele>
        <time>2011-08-25T07:40:35Z</time>
      </trkpt>
      <trkpt lat="49.70803" lon="0.96902">
        <ele>131.1</ele>
        <time>2011-08-25T07:40:40Z</time>
      </trkpt>
      <trkpt lat="49.70808" lon="0.96913">
        <ele>131.6</ele>
        <time>2011-08-25T07:40:47Z</time>
      </trkpt>
      <trkpt lat="49.70813" lon="0.96924">
        <ele>132.3</ele>
        <time>2011-08-25T07:40:53Z</time>
      </trkpt>
      <trkpt lat="49.70816" lon="0.96935">
        <ele>133.5</ele>
        <time>2011-08-25T07:40:58Z</time>
      </trkpt>
      <trkpt lat="49.70819" lon="0.96946">
        <ele>132.8</ele>
        <time>2011-08-25T07:41:03Z</time>
      </trkpt>
      <trkpt lat="49.70823" lon="0.96956">
        <ele>132.1</ele>
        <time>2011-08-25T07:41:08Z</time>
      </trkpt>
      <trkpt lat="49.70824" lon="0.96958">
        <ele>131.6</ele>
        <time>2011-08-25T07:41:09Z</time>
      </trkpt>
      <trkpt lat="49.70829" lon="0.96978">
        <ele>131.6</ele>
        <time>2011-08-25T07:41:20Z</time>
      </trkpt>
      <trkpt lat="49.70833" lon="0.96991">
        <ele>132.8</ele>
        <time>2011-08-25T07:41:27Z</time>
      </trkpt>
      <trkpt lat="49.70836" lon="0.97003">
        <ele>133.1</ele>
        <time>2011-08-25T07:41:33Z</time>
      </trkpt>
      <trkpt lat="49.70839" lon="0.97014">
        <ele>134.1</ele>
        <time>2011-08-25T07:41:39Z</time>
      </trkpt>
      <trkpt lat="49.70842" lon="0.97026">
        <ele>135.1</ele>
        <time>2011-08-25T07:41:46Z</time>
      </trkpt>
      <trkpt lat="49.70846" lon="0.97037">
        <ele>135.1</ele>
        <time>2011-08-25T07:41:52Z</time>
      </trkpt>
      <trkpt lat="49.70849" lon="0.97049">
        <ele>136.1</ele>
        <time>2011-08-25T07:41:59Z</time>
      </trkpt>
      <trkpt lat="49.70853" lon="0.97061">
        <ele>137.1</ele>
        <time>2011-08-25T07:42:05Z</time>
      </trkpt>
      <trkpt lat="49.70855" lon="0.97073">
        <ele>136.8</ele>
        <time>2011-08-25T07:42:11Z</time>
      </trkpt>
      <trkpt lat="49.70856" lon="0.97075">
        <ele>136.6</ele>
        <time>2011-08-25T07:42:12Z</time>
      </trkpt>
      <trkpt lat="49.70861" lon="0.97097">
        <ele>137.3</ele>
        <time>2011-08-25T07:42:24Z</time>
      </trkpt>
      <trkpt lat="49.70863" lon="0.97109">
        <ele>137.1</ele>
        <time>2011-08-25T07:42:30Z</time>
      </trkpt>
      <trkpt lat="49.70865" lon="0.97121">
        <ele>137.8</ele>
        <time>2011-08-25T07:42:37Z</time>
      </trkpt>
      <trkpt lat="49.70869" lon="0.97133">
        <ele>138.1</ele>
        <time>2011-08-25T07:42:44Z</time>
      </trkpt>
      <trkpt lat="49.70872" lon="0.97146">
        <ele>139.1</ele>
        <time>2011-08-25T07:42:51Z</time>
      </trkpt>
      <trkpt lat="49.70876" lon="0.97157">
        <ele>139.6</ele>
        <time>2011-08-25T07:42:57Z</time>
      </trkpt>
      <trkpt lat="49.70879" lon="0.9717">
        <ele>139.6</ele>
        <time>2011-08-25T07:43:04Z</time>
      </trkpt>
      <trkpt lat="49.70883" lon="0.97182">
        <ele>140.8</ele>
        <time>2011-08-25T07:43:12Z</time>
      </trkpt>
      <trkpt lat="49.70883" lon="0.97184">
        <ele>141.1</ele>
        <time>2011-08-25T07:43:13Z</time>
      </trkpt>
      <trkpt lat="49.7089" lon="0.97207">
        <ele>142.6</ele>
        <time>2011-08-25T07:43:26Z</time>
      </trkpt>
      <trkpt lat="49.70894" lon="0.97219">
        <ele>142.3</ele>
        <time>2011-08-25T07:43:33Z</time>
      </trkpt>
      <trkpt lat="49.70897" lon="0.97232">
        <ele>142.1</ele>
        <time>2011-08-25T07:43:40Z</time>
      </trkpt>
      <trkpt lat="49.70901" lon="0.97243">
        <ele>142.3</ele>
        <time>2011-08-25T07:43:48Z</time>
      </trkpt>
      <trkpt lat="49.70905" lon="0.97254">
        <ele>142.6</ele>
        <time>2011-08-25T07:43:55Z</time>
      </trkpt>
      <trkpt lat="49.70908" lon="0.97266">
        <ele>142</ele>
        <time>2011-08-25T07:44:03Z</time>
      </trkpt>
      <trkpt lat="49.70912" lon="0.97278">
        <ele>142.8</ele>
        <time>2011-08-25T07:44:10Z</time>
      </trkpt>
      <trkpt lat="49.70915" lon="0.9729">
        <ele>143.6</ele>
        <time>2011-08-25T07:44:17Z</time>
      </trkpt>
      <trkpt lat="49.70915" lon="0.97291">
        <ele>143.6</ele>
        <time>2011-08-25T07:44:18Z</time>
      </trkpt>
      <trkpt lat="49.7092" lon="0.97315">
        <ele>144.1</ele>
        <time>2011-08-25T07:44:32Z</time>
      </trkpt>
      <trkpt lat="49.70924" lon="0.97326">
        <ele>144.3</ele>
        <time>2011-08-25T07:44:39Z</time>
      </trkpt>
      <trkpt lat="49.70928" lon="0.97337">
        <ele>144.8</ele>
        <time>2011-08-25T07:44:47Z</time>
      </trkpt>
      <trkpt lat="49.70932" lon="0.97349">
        <ele>144.3</ele>
        <time>2011-08-25T07:44:55Z</time>
      </trkpt>
      <trkpt lat="49.70936" lon="0.97359">
        <ele>144.6</ele>
        <time>2011-08-25T07:45:03Z</time>
      </trkpt>
      <trkpt lat="49.70939" lon="0.97371">
        <ele>145.6</ele>
        <time>2011-08-25T07:45:10Z</time>
      </trkpt>
      <trkpt lat="49.70944" lon="0.97382">
        <ele>145.8</ele>
        <time>2011-08-25T07:45:17Z</time>
      </trkpt>
      <trkpt lat="49.70947" lon="0.97394">
        <ele>145.6</ele>
        <time>2011-08-25T07:45:24Z</time>
      </trkpt>
      <trkpt lat="49.70947" lon="0.97396">
        <ele>145.6</ele>
        <time>2011-08-25T07:45:25Z</time>
      </trkpt>
      <trkpt lat="49.70954" lon="0.97416">
        <ele>145.1</ele>
        <time>2011-08-25T07:45:36Z</time>
      </trkpt>
      <trkpt lat="49.70958" lon="0.97428">
        <ele>145.3</ele>
        <time>2011-08-25T07:45:43Z</time>
      </trkpt>
      <trkpt lat="49.70962" lon="0.9744">
        <ele>145.6</ele>
        <time>2011-08-25T07:45:50Z</time>
      </trkpt>
      <trkpt lat="49.70966" lon="0.97451">
        <ele>144.8</ele>
        <time>2011-08-25T07:45:56Z</time>
      </trkpt>
      <trkpt lat="49.70971" lon="0.97461">
        <ele>144.1</ele>
        <time>2011-08-25T07:46:02Z</time>
      </trkpt>
      <trkpt lat="49.70974" lon="0.97473">
        <ele>143.8</ele>
        <time>2011-08-25T07:46:09Z</time>
      </trkpt>
      <trkpt lat="49.70978" lon="0.97485">
        <ele>143.6</ele>
        <time>2011-08-25T07:46:16Z</time>
      </trkpt>
      <trkpt lat="49.70981" lon="0.97497">
        <ele>142.6</ele>
        <time>2011-08-25T07:46:23Z</time>
      </trkpt>
      <trkpt lat="49.70986" lon="0.97508">
        <ele>142.3</ele>
        <time>2011-08-25T07:46:30Z</time>
      </trkpt>
      <trkpt lat="49.70986" lon="0.97509">
        <ele>142.6</ele>
        <time>2011-08-25T07:46:31Z</time>
      </trkpt>
      <trkpt lat="49.70994" lon="0.9753">
        <ele>143</ele>
        <time>2011-08-25T07:46:43Z</time>
      </trkpt>
      <trkpt lat="49.70999" lon="0.97542">
        <ele>142.1</ele>
        <time>2011-08-25T07:46:50Z</time>
      </trkpt>
      <trkpt lat="49.71002" lon="0.97553">
        <ele>142.5</ele>
        <time>2011-08-25T07:46:56Z</time>
      </trkpt>
      <trkpt lat="49.71005" lon="0.97565">
        <ele>142.1</ele>
        <time>2011-08-25T07:47:02Z</time>
      </trkpt>
      <trkpt lat="49.71009" lon="0.97577">
        <ele>141.3</ele>
        <time>2011-08-25T07:47:09Z</time>
      </trkpt>
      <trkpt lat="49.71014" lon="0.97589">
        <ele>141.8</ele>
        <time>2011-08-25T07:47:16Z</time>
      </trkpt>
      <trkpt lat="49.71018" lon="0.976">
        <ele>142</ele>
        <time>2011-08-25T07:47:23Z</time>
      </trkpt>
      <trkpt lat="49.71021" lon="0.9761">
        <ele>141.8</ele>
        <time>2011-08-25T07:47:29Z</time>
      </trkpt>
      <trkpt lat="49.71026" lon="0.97622">
        <ele>140.6</ele>
        <time>2011-08-25T07:47:36Z</time>
      </trkpt>
      <trkpt lat="49.71026" lon="0.97624">
        <ele>140.6</ele>
        <time>2011-08-25T07:47:37Z</time>
      </trkpt>
      <trkpt lat="49.71034" lon="0.97646">
        <ele>140.8</ele>
        <time>2011-08-25T07:47:50Z</time>
      </trkpt>
      <trkpt lat="49.71038" lon="0.97658">
        <ele>141.3</ele>
        <time>2011-08-25T07:47:57Z</time>
      </trkpt>
      <trkpt lat="49.71042" lon="0.9767">
        <ele>141.8</ele>
        <time>2011-08-25T07:48:04Z</time>
      </trkpt>
      <trkpt lat="49.71045" lon="0.97682">
        <ele>141.8</ele>
        <time>2011-08-25T07:48:12Z</time>
      </trkpt>
      <trkpt lat="49.71051" lon="0.97693">
        <ele>142.3</ele>
        <time>2011-08-25T07:48:18Z</time>
      </trkpt>
      <trkpt lat="49.71054" lon="0.97704">
        <ele>141.1</ele>
        <time>2011-08-25T07:48:24Z</time>
      </trkpt>
      <trkpt lat="49.71058" lon="0.97715">
        <ele>141.3</ele>
        <time>2011-08-25T07:48:30Z</time>
      </trkpt>
      <trkpt lat="49.71061" lon="0.97727">
        <ele>141.6</ele>
        <time>2011-08-25T07:48:37Z</time>
      </trkpt>
      <trkpt lat="49.71062" lon="0.97728">
        <ele>141.6</ele>
        <time>2011-08-25T07:48:38Z</time>
      </trkpt>
      <trkpt lat="49.7107" lon="0.97748">
        <ele>141.5</ele>
        <time>2011-08-25T07:48:51Z</time>
      </trkpt>
      <trkpt lat="49.71074" lon="0.9776">
        <ele>141.8</ele>
        <time>2011-08-25T07:48:59Z</time>
      </trkpt>
      <trkpt lat="49.71077" lon="0.97772">
        <ele>141.6</ele>
        <time>2011-08-25T07:49:05Z</time>
      </trkpt>
      <trkpt lat="49.71081" lon="0.97784">
        <ele>141.1</ele>
        <time>2011-08-25T07:49:12Z</time>
      </trkpt>
      <trkpt lat="49.71086" lon="0.97794">
        <ele>141.6</ele>
        <time>2011-08-25T07:49:18Z</time>
      </trkpt>
      <trkpt lat="49.7109" lon="0.97806">
        <ele>141.6</ele>
        <time>2011-08-25T07:49:25Z</time>
      </trkpt>
      <trkpt lat="49.71094" lon="0.97817">
        <ele>141.5</ele>
        <time>2011-08-25T07:49:33Z</time>
      </trkpt>
      <trkpt lat="49.71099" lon="0.97829">
        <ele>141.3</ele>
        <time>2011-08-25T07:49:42Z</time>
      </trkpt>
      <trkpt lat="49.71099" lon="0.97831">
        <ele>141.1</ele>
        <time>2011-08-25T07:49:43Z</time>
      </trkpt>
      <trkpt lat="49.71106" lon="0.97853">
        <ele>141.5</ele>
        <time>2011-08-25T07:49:59Z</time>
      </trkpt>
      <trkpt lat="49.71109" lon="0.97864">
        <ele>141.6</ele>
        <time>2011-08-25T07:50:05Z</time>
      </trkpt>
      <trkpt lat="49.71112" lon="0.97875">
        <ele>142.3</ele>
        <time>2011-08-25T07:50:11Z</time>
      </trkpt>
      <trkpt lat="49.71116" lon="0.97886">
        <ele>142.3</ele>
        <time>2011-08-25T07:50:17Z</time>
      </trkpt>
      <trkpt lat="49.7112" lon="0.97898">
        <ele>143.3</ele>
        <time>2011-08-25T07:50:23Z</time>
      </trkpt>
      <trkpt lat="49.71124" lon="0.97909">
        <ele>145.1</ele>
        <time>2011-08-25T07:50:31Z</time>
      </trkpt>
      <trkpt lat="49.71129" lon="0.9792">
        <ele>145.6</ele>
        <time>2011-08-25T07:50:38Z</time>
      </trkpt>
      <trkpt lat="49.71133" lon="0.97932">
        <ele>146.6</ele>
        <time>2011-08-25T07:50:48Z</time>
      </trkpt>
      <trkpt lat="49.71133" lon="0.97933">
        <ele>147</ele>
        <time>2011-08-25T07:50:49Z</time>
      </trkpt>
      <trkpt lat="49.71139" lon="0.97955">
        <ele>148.1</ele>
        <time>2011-08-25T07:51:02Z</time>
      </trkpt>
      <trkpt lat="49.7114" lon="0.97968">
        <ele>149.5</ele>
        <time>2011-08-25T07:51:12Z</time>
      </trkpt>
      <trkpt lat="49.71144" lon="0.97979">
        <ele>148.8</ele>
        <time>2011-08-25T07:51:19Z</time>
      </trkpt>
      <trkpt lat="49.7115" lon="0.9799">
        <ele>148.3</ele>
        <time>2011-08-25T07:51:27Z</time>
      </trkpt>
      <trkpt lat="49.71152" lon="0.98002">
        <ele>147.8</ele>
        <time>2011-08-25T07:51:34Z</time>
      </trkpt>
      <trkpt lat="49.71156" lon="0.98013">
        <ele>148.3</ele>
        <time>2011-08-25T07:51:46Z</time>
      </trkpt>
      <trkpt lat="49.7116" lon="0.98025">
        <ele>148.6</ele>
        <time>2011-08-25T07:51:52Z</time>
      </trkpt>
      <trkpt lat="49.71161" lon="0.98027">
        <ele>148.8</ele>
        <time>2011-08-25T07:51:53Z</time>
      </trkpt>
      <trkpt lat="49.71166" lon="0.98047">
        <ele>149.1</ele>
        <time>2011-08-25T07:52:13Z</time>
      </trkpt>
      <trkpt lat="49.71172" lon="0.98058">
        <ele>147.8</ele>
        <time>2011-08-25T07:52:18Z</time>
      </trkpt>
      <trkpt lat="49.71177" lon="0.98068">
        <ele>147.5</ele>
        <time>2011-08-25T07:52:23Z</time>
      </trkpt>
      <trkpt lat="49.71183" lon="0.98077">
        <ele>146.3</ele>
        <time>2011-08-25T07:52:31Z</time>
      </trkpt>
      <trkpt lat="49.71187" lon="0.98087">
        <ele>147.3</ele>
        <time>2011-08-25T07:52:37Z</time>
      </trkpt>
      <trkpt lat="49.7119" lon="0.98098">
        <ele>148</ele>
        <time>2011-08-25T07:52:44Z</time>
      </trkpt>
      <trkpt lat="49.71196" lon="0.98109">
        <ele>148.6</ele>
        <time>2011-08-25T07:52:53Z</time>
      </trkpt>
      <trkpt lat="49.71197" lon="0.98111">
        <ele>148.3</ele>
        <time>2011-08-25T07:52:54Z</time>
      </trkpt>
      <trkpt lat="49.71208" lon="0.98127">
        <ele>147</ele>
        <time>2011-08-25T07:53:06Z</time>
      </trkpt>
      <trkpt lat="49.71212" lon="0.98138">
        <ele>147.3</ele>
        <time>2011-08-25T07:53:14Z</time>
      </trkpt>
      <trkpt lat="49.71217" lon="0.98148">
        <ele>145.8</ele>
        <time>2011-08-25T07:53:20Z</time>
      </trkpt>
      <trkpt lat="49.71222" lon="0.98157">
        <ele>145.6</ele>
        <time>2011-08-25T07:53:25Z</time>
      </trkpt>
      <trkpt lat="49.71227" lon="0.98167">
        <ele>145.6</ele>
        <time>2011-08-25T07:53:30Z</time>
      </trkpt>
      <trkpt lat="49.71233" lon="0.98177">
        <ele>145</ele>
        <time>2011-08-25T07:53:35Z</time>
      </trkpt>
      <trkpt lat="49.71237" lon="0.98188">
        <ele>144.6</ele>
        <time>2011-08-25T07:53:40Z</time>
      </trkpt>
      <trkpt lat="49.71243" lon="0.98198">
        <ele>146.3</ele>
        <time>2011-08-25T07:53:51Z</time>
      </trkpt>
      <trkpt lat="49.71247" lon="0.98208">
        <ele>148.3</ele>
        <time>2011-08-25T07:53:57Z</time>
      </trkpt>
      <trkpt lat="49.71247" lon="0.9821">
        <ele>148.8</ele>
        <time>2011-08-25T07:53:58Z</time>
      </trkpt>
      <trkpt lat="49.71257" lon="0.98228">
        <ele>152.3</ele>
        <time>2011-08-25T07:54:12Z</time>
      </trkpt>
      <trkpt lat="49.71263" lon="0.98236">
        <ele>153.6</ele>
        <time>2011-08-25T07:54:19Z</time>
      </trkpt>
      <trkpt lat="49.71269" lon="0.98246">
        <ele>152.3</ele>
        <time>2011-08-25T07:54:24Z</time>
      </trkpt>
      <trkpt lat="49.71275" lon="0.98256">
        <ele>151.3</ele>
        <time>2011-08-25T07:54:31Z</time>
      </trkpt>
      <trkpt lat="49.71281" lon="0.98264">
        <ele>151.3</ele>
        <time>2011-08-25T07:54:36Z</time>
      </trkpt>
      <trkpt lat="49.71287" lon="0.98274">
        <ele>150.8</ele>
        <time>2011-08-25T07:54:43Z</time>
      </trkpt>
      <trkpt lat="49.71292" lon="0.98282">
        <ele>150.8</ele>
        <time>2011-08-25T07:54:48Z</time>
      </trkpt>
      <trkpt lat="49.71298" lon="0.98292">
        <ele>150.8</ele>
        <time>2011-08-25T07:54:54Z</time>
      </trkpt>
      <trkpt lat="49.71302" lon="0.98302">
        <ele>150.5</ele>
        <time>2011-08-25T07:54:59Z</time>
      </trkpt>
      <trkpt lat="49.71303" lon="0.98304">
        <ele>150.6</ele>
        <time>2011-08-25T07:55:00Z</time>
      </trkpt>
      <trkpt lat="49.71313" lon="0.98321">
        <ele>150.1</ele>
        <time>2011-08-25T07:55:10Z</time>
      </trkpt>
      <trkpt lat="49.71318" lon="0.9833">
        <ele>152</ele>
        <time>2011-08-25T07:55:15Z</time>
      </trkpt>
      <trkpt lat="49.71324" lon="0.98339">
        <ele>153.6</ele>
        <time>2011-08-25T07:55:20Z</time>
      </trkpt>
      <trkpt lat="49.71329" lon="0.98349">
        <ele>152.8</ele>
        <time>2011-08-25T07:55:25Z</time>
      </trkpt>
      <trkpt lat="49.71335" lon="0.98359">
        <ele>151.8</ele>
        <time>2011-08-25T07:55:30Z</time>
      </trkpt>
      <trkpt lat="49.71339" lon="0.98369">
        <ele>150.1</ele>
        <time>2011-08-25T07:55:36Z</time>
      </trkpt>
      <trkpt lat="49.71344" lon="0.98379">
        <ele>149</ele>
        <time>2011-08-25T07:55:43Z</time>
      </trkpt>
      <trkpt lat="49.71349" lon="0.98389">
        <ele>148.1</ele>
        <time>2011-08-25T07:55:49Z</time>
      </trkpt>
      <trkpt lat="49.71354" lon="0.98399">
        <ele>148</ele>
        <time>2011-08-25T07:55:57Z</time>
      </trkpt>
      <trkpt lat="49.71359" lon="0.98409">
        <ele>147.3</ele>
        <time>2011-08-25T07:56:04Z</time>
      </trkpt>
      <trkpt lat="49.7136" lon="0.98411">
        <ele>147.6</ele>
        <time>2011-08-25T07:56:05Z</time>
      </trkpt>
      <trkpt lat="49.71368" lon="0.98431">
        <ele>147.8</ele>
        <time>2011-08-25T07:56:15Z</time>
      </trkpt>
      <trkpt lat="49.71371" lon="0.98443">
        <ele>147.6</ele>
        <time>2011-08-25T07:56:21Z</time>
      </trkpt>
      <trkpt lat="49.71375" lon="0.98455">
        <ele>147.6</ele>
        <time>2011-08-25T07:56:27Z</time>
      </trkpt>
      <trkpt lat="49.71378" lon="0.98465">
        <ele>147.8</ele>
        <time>2011-08-25T07:56:32Z</time>
      </trkpt>
      <trkpt lat="49.71382" lon="0.98477">
        <ele>149.1</ele>
        <time>2011-08-25T07:56:38Z</time>
      </trkpt>
      <trkpt lat="49.71386" lon="0.98487">
        <ele>149.8</ele>
        <time>2011-08-25T07:56:44Z</time>
      </trkpt>
      <trkpt lat="49.7139" lon="0.98498">
        <ele>149.8</ele>
        <time>2011-08-25T07:56:50Z</time>
      </trkpt>
      <trkpt lat="49.71394" lon="0.98511">
        <ele>149.3</ele>
        <time>2011-08-25T07:56:58Z</time>
      </trkpt>
      <trkpt lat="49.71397" lon="0.98524">
        <ele>149</ele>
        <time>2011-08-25T07:57:06Z</time>
      </trkpt>
      <trkpt lat="49.71397" lon="0.98526">
        <ele>148.8</ele>
        <time>2011-08-25T07:57:07Z</time>
      </trkpt>
      <trkpt lat="49.71403" lon="0.98547">
        <ele>148.3</ele>
        <time>2011-08-25T07:57:17Z</time>
      </trkpt>
      <trkpt lat="49.71407" lon="0.9856">
        <ele>148.5</ele>
        <time>2011-08-25T07:57:23Z</time>
      </trkpt>
      <trkpt lat="49.7141" lon="0.98572">
        <ele>150</ele>
        <time>2011-08-25T07:57:29Z</time>
      </trkpt>
      <trkpt lat="49.71414" lon="0.98584">
        <ele>150.1</ele>
        <time>2011-08-25T07:57:35Z</time>
      </trkpt>
      <trkpt lat="49.71416" lon="0.98596">
        <ele>150.3</ele>
        <time>2011-08-25T07:57:41Z</time>
      </trkpt>
      <trkpt lat="49.71419" lon="0.98609">
        <ele>150.8</ele>
        <time>2011-08-25T07:57:47Z</time>
      </trkpt>
      <trkpt lat="49.71421" lon="0.98621">
        <ele>150.8</ele>
        <time>2011-08-25T07:57:53Z</time>
      </trkpt>
      <trkpt lat="49.71423" lon="0.98633">
        <ele>150.1</ele>
        <time>2011-08-25T07:58:00Z</time>
      </trkpt>
      <trkpt lat="49.71426" lon="0.98646">
        <ele>150.1</ele>
        <time>2011-08-25T07:58:06Z</time>
      </trkpt>
      <trkpt lat="49.71428" lon="0.98658">
        <ele>150.8</ele>
        <time>2011-08-25T07:58:11Z</time>
      </trkpt>
      <trkpt lat="49.71428" lon="0.9866">
        <ele>151.1</ele>
        <time>2011-08-25T07:58:12Z</time>
      </trkpt>
      <trkpt lat="49.71433" lon="0.98683">
        <ele>149.8</ele>
        <time>2011-08-25T07:58:24Z</time>
      </trkpt>
      <trkpt lat="49.71435" lon="0.98695">
        <ele>149.6</ele>
        <time>2011-08-25T07:58:30Z</time>
      </trkpt>
      <trkpt lat="49.71438" lon="0.98707">
        <ele>149.8</ele>
        <time>2011-08-25T07:58:36Z</time>
      </trkpt>
      <trkpt lat="49.71441" lon="0.98718">
        <ele>149.8</ele>
        <time>2011-08-25T07:58:42Z</time>
      </trkpt>
      <trkpt lat="49.71443" lon="0.98731">
        <ele>149.8</ele>
        <time>2011-08-25T07:58:48Z</time>
      </trkpt>
      <trkpt lat="49.71445" lon="0.98744">
        <ele>149.8</ele>
        <time>2011-08-25T07:58:54Z</time>
      </trkpt>
      <trkpt lat="49.71448" lon="0.98757">
        <ele>150.5</ele>
        <time>2011-08-25T07:59:01Z</time>
      </trkpt>
      <trkpt lat="49.7145" lon="0.98769">
        <ele>150.3</ele>
        <time>2011-08-25T07:59:07Z</time>
      </trkpt>
      <trkpt lat="49.71453" lon="0.98781">
        <ele>150.3</ele>
        <time>2011-08-25T07:59:13Z</time>
      </trkpt>
      <trkpt lat="49.71453" lon="0.98783">
        <ele>150.3</ele>
        <time>2011-08-25T07:59:14Z</time>
      </trkpt>
      <trkpt lat="49.71459" lon="0.98807">
        <ele>150.1</ele>
        <time>2011-08-25T07:59:27Z</time>
      </trkpt>
      <trkpt lat="49.71461" lon="0.9882">
        <ele>150.1</ele>
        <time>2011-08-25T07:59:34Z</time>
      </trkpt>
      <trkpt lat="49.71463" lon="0.98832">
        <ele>150.1</ele>
        <time>2011-08-25T07:59:40Z</time>
      </trkpt>
      <trkpt lat="49.71465" lon="0.98844">
        <ele>150.1</ele>
        <time>2011-08-25T07:59:46Z</time>
      </trkpt>
      <trkpt lat="49.71468" lon="0.98856">
        <ele>150.1</ele>
        <time>2011-08-25T07:59:53Z</time>
      </trkpt>
      <trkpt lat="49.71471" lon="0.98868">
        <ele>150.1</ele>
        <time>2011-08-25T07:59:59Z</time>
      </trkpt>
      <trkpt lat="49.71473" lon="0.98881">
        <ele>150.1</ele>
        <time>2011-08-25T08:00:05Z</time>
      </trkpt>
      <trkpt lat="49.71475" lon="0.98893">
        <ele>150.1</ele>
        <time>2011-08-25T08:00:11Z</time>
      </trkpt>
      <trkpt lat="49.71478" lon="0.98907">
        <ele>150.3</ele>
        <time>2011-08-25T08:00:18Z</time>
      </trkpt>
      <trkpt lat="49.71479" lon="0.98909">
        <ele>150.3</ele>
        <time>2011-08-25T08:00:19Z</time>
      </trkpt>
      <trkpt lat="49.71484" lon="0.98932">
        <ele>150.6</ele>
        <time>2011-08-25T08:00:32Z</time>
      </trkpt>
      <trkpt lat="49.71487" lon="0.98943">
        <ele>150.8</ele>
        <time>2011-08-25T08:00:38Z</time>
      </trkpt>
      <trkpt lat="49.7149" lon="0.98956">
        <ele>150.6</ele>
        <time>2011-08-25T08:00:45Z</time>
      </trkpt>
      <trkpt lat="49.71493" lon="0.98968">
        <ele>149.8</ele>
        <time>2011-08-25T08:00:52Z</time>
      </trkpt>
      <trkpt lat="49.71496" lon="0.9898">
        <ele>149.6</ele>
        <time>2011-08-25T08:00:58Z</time>
      </trkpt>
      <trkpt lat="49.71498" lon="0.98994">
        <ele>149.6</ele>
        <time>2011-08-25T08:01:05Z</time>
      </trkpt>
      <trkpt lat="49.71502" lon="0.99005">
        <ele>149</ele>
        <time>2011-08-25T08:01:11Z</time>
      </trkpt>
      <trkpt lat="49.71505" lon="0.99017">
        <ele>148.6</ele>
        <time>2011-08-25T08:01:17Z</time>
      </trkpt>
      <trkpt lat="49.71509" lon="0.99028">
        <ele>148.3</ele>
        <time>2011-08-25T08:01:23Z</time>
      </trkpt>
      <trkpt lat="49.71509" lon="0.9903">
        <ele>147.8</ele>
        <time>2011-08-25T08:01:24Z</time>
      </trkpt>
      <trkpt lat="49.71514" lon="0.99053">
        <ele>146.1</ele>
        <time>2011-08-25T08:01:36Z</time>
      </trkpt>
      <trkpt lat="49.71517" lon="0.99065">
        <ele>145.3</ele>
        <time>2011-08-25T08:01:44Z</time>
      </trkpt>
      <trkpt lat="49.71519" lon="0.99077">
        <ele>145.8</ele>
        <time>2011-08-25T08:01:51Z</time>
      </trkpt>
      <trkpt lat="49.71522" lon="0.99089">
        <ele>145.6</ele>
        <time>2011-08-25T08:01:57Z</time>
      </trkpt>
      <trkpt lat="49.71525" lon="0.99101">
        <ele>145.3</ele>
        <time>2011-08-25T08:02:03Z</time>
      </trkpt>
      <trkpt lat="49.71528" lon="0.99113">
        <ele>144.8</ele>
        <time>2011-08-25T08:02:09Z</time>
      </trkpt>
      <trkpt lat="49.71532" lon="0.99125">
        <ele>145.3</ele>
        <time>2011-08-25T08:02:15Z</time>
      </trkpt>
      <trkpt lat="49.71536" lon="0.99135">
        <ele>144.6</ele>
        <time>2011-08-25T08:02:20Z</time>
      </trkpt>
      <trkpt lat="49.7154" lon="0.99146">
        <ele>144.6</ele>
        <time>2011-08-25T08:02:26Z</time>
      </trkpt>
      <trkpt lat="49.7154" lon="0.99148">
        <ele>144.3</ele>
        <time>2011-08-25T08:02:27Z</time>
      </trkpt>
      <trkpt lat="49.71548" lon="0.99168">
        <ele>143.3</ele>
        <time>2011-08-25T08:02:40Z</time>
      </trkpt>
      <trkpt lat="49.71551" lon="0.9918">
        <ele>143.3</ele>
        <time>2011-08-25T08:02:46Z</time>
      </trkpt>
      <trkpt lat="49.71555" lon="0.99191">
        <ele>143</ele>
        <time>2011-08-25T08:02:52Z</time>
      </trkpt>
      <trkpt lat="49.71559" lon="0.99203">
        <ele>143.1</ele>
        <time>2011-08-25T08:02:58Z</time>
      </trkpt>
      <trkpt lat="49.71562" lon="0.99214">
        <ele>143.1</ele>
        <time>2011-08-25T08:03:04Z</time>
      </trkpt>
      <trkpt lat="49.71567" lon="0.99226">
        <ele>142.6</ele>
        <time>2011-08-25T08:03:10Z</time>
      </trkpt>
      <trkpt lat="49.71571" lon="0.99238">
        <ele>141.8</ele>
        <time>2011-08-25T08:03:16Z</time>
      </trkpt>
      <trkpt lat="49.71575" lon="0.9925">
        <ele>142.1</ele>
        <time>2011-08-25T08:03:23Z</time>
      </trkpt>
      <trkpt lat="49.71579" lon="0.9926">
        <ele>142.6</ele>
        <time>2011-08-25T08:03:29Z</time>
      </trkpt>
      <trkpt lat="49.71579" lon="0.99262">
        <ele>142.6</ele>
        <time>2011-08-25T08:03:30Z</time>
      </trkpt>
      <trkpt lat="49.71587" lon="0.99284">
        <ele>142.5</ele>
        <time>2011-08-25T08:03:43Z</time>
      </trkpt>
      <trkpt lat="49.71591" lon="0.99294">
        <ele>142.3</ele>
        <time>2011-08-25T08:03:49Z</time>
      </trkpt>
      <trkpt lat="49.71595" lon="0.99306">
        <ele>143</ele>
        <time>2011-08-25T08:03:56Z</time>
      </trkpt>
      <trkpt lat="49.716" lon="0.99317">
        <ele>143.6</ele>
        <time>2011-08-25T08:04:04Z</time>
      </trkpt>
      <trkpt lat="49.71603" lon="0.99328">
        <ele>143.1</ele>
        <time>2011-08-25T08:04:10Z</time>
      </trkpt>
      <trkpt lat="49.71607" lon="0.9934">
        <ele>142.3</ele>
        <time>2011-08-25T08:04:19Z</time>
      </trkpt>
      <trkpt lat="49.71612" lon="0.99352">
        <ele>144</ele>
        <time>2011-08-25T08:05:20Z</time>
      </trkpt>
      <trkpt lat="49.71612" lon="0.99354">
        <ele>144</ele>
        <time>2011-08-25T08:05:21Z</time>
      </trkpt>
      <trkpt lat="49.71619" lon="0.99376">
        <ele>142.6</ele>
        <time>2011-08-25T08:05:32Z</time>
      </trkpt>
      <trkpt lat="49.71623" lon="0.99388">
        <ele>142.8</ele>
        <time>2011-08-25T08:05:38Z</time>
      </trkpt>
      <trkpt lat="49.71627" lon="0.99399">
        <ele>143.3</ele>
        <time>2011-08-25T08:05:45Z</time>
      </trkpt>
      <trkpt lat="49.71631" lon="0.9941">
        <ele>142.8</ele>
        <time>2011-08-25T08:05:50Z</time>
      </trkpt>
      <trkpt lat="49.71634" lon="0.99421">
        <ele>142.8</ele>
        <time>2011-08-25T08:05:55Z</time>
      </trkpt>
      <trkpt lat="49.71637" lon="0.99434">
        <ele>142.8</ele>
        <time>2011-08-25T08:06:01Z</time>
      </trkpt>
      <trkpt lat="49.71642" lon="0.99445">
        <ele>143.3</ele>
        <time>2011-08-25T08:06:07Z</time>
      </trkpt>
      <trkpt lat="49.71646" lon="0.99457">
        <ele>143.5</ele>
        <time>2011-08-25T08:06:13Z</time>
      </trkpt>
      <trkpt lat="49.7165" lon="0.99467">
        <ele>142.5</ele>
        <time>2011-08-25T08:06:18Z</time>
      </trkpt>
      <trkpt lat="49.71654" lon="0.9948">
        <ele>142.1</ele>
        <time>2011-08-25T08:06:24Z</time>
      </trkpt>
      <trkpt lat="49.71654" lon="0.99481">
        <ele>142.3</ele>
        <time>2011-08-25T08:06:25Z</time>
      </trkpt>
      <trkpt lat="49.71661" lon="0.99501">
        <ele>142.5</ele>
        <time>2011-08-25T08:06:34Z</time>
      </trkpt>
      <trkpt lat="49.71664" lon="0.99514">
        <ele>141.8</ele>
        <time>2011-08-25T08:06:40Z</time>
      </trkpt>
      <trkpt lat="49.71668" lon="0.99524">
        <ele>140.8</ele>
        <time>2011-08-25T08:06:45Z</time>
      </trkpt>
      <trkpt lat="49.71672" lon="0.99537">
        <ele>140.1</ele>
        <time>2011-08-25T08:06:51Z</time>
      </trkpt>
      <trkpt lat="49.71676" lon="0.99547">
        <ele>140.1</ele>
        <time>2011-08-25T08:06:56Z</time>
      </trkpt>
      <trkpt lat="49.71679" lon="0.99558">
        <ele>138.6</ele>
        <time>2011-08-25T08:07:01Z</time>
      </trkpt>
      <trkpt lat="49.71682" lon="0.99569">
        <ele>139</ele>
        <time>2011-08-25T08:07:06Z</time>
      </trkpt>
      <trkpt lat="49.71686" lon="0.99579">
        <ele>138.6</ele>
        <time>2011-08-25T08:07:11Z</time>
      </trkpt>
      <trkpt lat="49.7169" lon="0.99589">
        <ele>138.3</ele>
        <time>2011-08-25T08:07:16Z</time>
      </trkpt>
      <trkpt lat="49.71695" lon="0.996">
        <ele>138.3</ele>
        <time>2011-08-25T08:07:21Z</time>
      </trkpt>
      <trkpt lat="49.71699" lon="0.9961">
        <ele>138.1</ele>
        <time>2011-08-25T08:07:26Z</time>
      </trkpt>
      <trkpt lat="49.717" lon="0.99611">
        <ele>138.1</ele>
        <time>2011-08-25T08:07:27Z</time>
      </trkpt>
      <trkpt lat="49.71709" lon="0.9963">
        <ele>137.6</ele>
        <time>2011-08-25T08:07:37Z</time>
      </trkpt>
      <trkpt lat="49.71714" lon="0.9964">
        <ele>137.8</ele>
        <time>2011-08-25T08:07:43Z</time>
      </trkpt>
      <trkpt lat="49.7172" lon="0.9965">
        <ele>138.1</ele>
        <time>2011-08-25T08:07:49Z</time>
      </trkpt>
      <trkpt lat="49.71725" lon="0.9966">
        <ele>138.8</ele>
        <time>2011-08-25T08:07:55Z</time>
      </trkpt>
      <trkpt lat="49.71731" lon="0.99669">
        <ele>138.1</ele>
        <time>2011-08-25T08:08:01Z</time>
      </trkpt>
      <trkpt lat="49.71736" lon="0.99678">
        <ele>137.8</ele>
        <time>2011-08-25T08:08:06Z</time>
      </trkpt>
      <trkpt lat="49.71743" lon="0.99686">
        <ele>137.3</ele>
        <time>2011-08-25T08:08:12Z</time>
      </trkpt>
      <trkpt lat="49.71748" lon="0.99697">
        <ele>136.5</ele>
        <time>2011-08-25T08:08:18Z</time>
      </trkpt>
      <trkpt lat="49.71753" lon="0.99707">
        <ele>135.8</ele>
        <time>2011-08-25T08:08:24Z</time>
      </trkpt>
      <trkpt lat="49.71759" lon="0.99717">
        <ele>136.3</ele>
        <time>2011-08-25T08:08:31Z</time>
      </trkpt>
      <trkpt lat="49.7176" lon="0.99719">
        <ele>136.5</ele>
        <time>2011-08-25T08:08:32Z</time>
      </trkpt>
      <trkpt lat="49.71769" lon="0.99737">
        <ele>137.1</ele>
        <time>2011-08-25T08:08:44Z</time>
      </trkpt>
      <trkpt lat="49.71774" lon="0.99747">
        <ele>136.5</ele>
        <time>2011-08-25T08:08:50Z</time>
      </trkpt>
      <trkpt lat="49.7178" lon="0.99758">
        <ele>135.6</ele>
        <time>2011-08-25T08:08:56Z</time>
      </trkpt>
      <trkpt lat="49.71786" lon="0.99767">
        <ele>134.1</ele>
        <time>2011-08-25T08:09:02Z</time>
      </trkpt>
      <trkpt lat="49.71792" lon="0.99777">
        <ele>133</ele>
        <time>2011-08-25T08:09:08Z</time>
      </trkpt>
      <trkpt lat="49.71797" lon="0.99788">
        <ele>131.5</ele>
        <time>2011-08-25T08:09:14Z</time>
      </trkpt>
      <trkpt lat="49.71803" lon="0.99799">
        <ele>130.8</ele>
        <time>2011-08-25T08:09:21Z</time>
      </trkpt>
      <trkpt lat="49.71808" lon="0.99807">
        <ele>130.6</ele>
        <time>2011-08-25T08:09:26Z</time>
      </trkpt>
      <trkpt lat="49.71813" lon="0.99816">
        <ele>130.1</ele>
        <time>2011-08-25T08:09:31Z</time>
      </trkpt>
      <trkpt lat="49.71819" lon="0.99826">
        <ele>129.8</ele>
        <time>2011-08-25T08:09:37Z</time>
      </trkpt>
      <trkpt lat="49.71819" lon="0.99828">
        <ele>129.8</ele>
        <time>2011-08-25T08:09:38Z</time>
      </trkpt>
      <trkpt lat="49.7183" lon="0.99845">
        <ele>127.5</ele>
        <time>2011-08-25T08:09:50Z</time>
      </trkpt>
      <trkpt lat="49.71837" lon="0.99854">
        <ele>127</ele>
        <time>2011-08-25T08:09:56Z</time>
      </trkpt>
      <trkpt lat="49.71843" lon="0.99861">
        <ele>126.5</ele>
        <time>2011-08-25T08:10:02Z</time>
      </trkpt>
      <trkpt lat="49.71851" lon="0.99868">
        <ele>127.4</ele>
        <time>2011-08-25T08:10:11Z</time>
      </trkpt>
      <trkpt lat="49.71857" lon="0.99874">
        <ele>129.5</ele>
        <time>2011-08-25T08:10:17Z</time>
      </trkpt>
      <trkpt lat="49.71864" lon="0.99881">
        <ele>131.1</ele>
        <time>2011-08-25T08:10:23Z</time>
      </trkpt>
      <trkpt lat="49.71871" lon="0.99889">
        <ele>132.5</ele>
        <time>2011-08-25T08:10:29Z</time>
      </trkpt>
      <trkpt lat="49.71878" lon="0.99895">
        <ele>133.3</ele>
        <time>2011-08-25T08:10:34Z</time>
      </trkpt>
      <trkpt lat="49.71885" lon="0.99902">
        <ele>133.1</ele>
        <time>2011-08-25T08:10:40Z</time>
      </trkpt>
      <trkpt lat="49.71886" lon="0.99902">
        <ele>133.3</ele>
        <time>2011-08-25T08:10:41Z</time>
      </trkpt>
      <trkpt lat="49.719" lon="0.99914">
        <ele>135</ele>
        <time>2011-08-25T08:10:52Z</time>
      </trkpt>
      <trkpt lat="49.71907" lon="0.9992">
        <ele>135.8</ele>
        <time>2011-08-25T08:10:58Z</time>
      </trkpt>
      <trkpt lat="49.71914" lon="0.99927">
        <ele>136.8</ele>
        <time>2011-08-25T08:11:04Z</time>
      </trkpt>
      <trkpt lat="49.71921" lon="0.99933">
        <ele>137.6</ele>
        <time>2011-08-25T08:11:10Z</time>
      </trkpt>
      <trkpt lat="49.71929" lon="0.99939">
        <ele>138.8</ele>
        <time>2011-08-25T08:11:17Z</time>
      </trkpt>
      <trkpt lat="49.71936" lon="0.99944">
        <ele>138.8</ele>
        <time>2011-08-25T08:11:23Z</time>
      </trkpt>
      <trkpt lat="49.71944" lon="0.9995">
        <ele>138.8</ele>
        <time>2011-08-25T08:11:29Z</time>
      </trkpt>
      <trkpt lat="49.71952" lon="0.99955">
        <ele>138.8</ele>
        <time>2011-08-25T08:11:35Z</time>
      </trkpt>
      <trkpt lat="49.71959" lon="0.9996">
        <ele>138.6</ele>
        <time>2011-08-25T08:11:41Z</time>
      </trkpt>
      <trkpt lat="49.7196" lon="0.99961">
        <ele>138.3</ele>
        <time>2011-08-25T08:11:42Z</time>
      </trkpt>
      <trkpt lat="49.71974" lon="0.99969">
        <ele>137.6</ele>
        <time>2011-08-25T08:11:53Z</time>
      </trkpt>
      <trkpt lat="49.71982" lon="0.99975">
        <ele>137.1</ele>
        <time>2011-08-25T08:11:59Z</time>
      </trkpt>
      <trkpt lat="49.71989" lon="0.99979">
        <ele>136.5</ele>
        <time>2011-08-25T08:12:05Z</time>
      </trkpt>
      <trkpt lat="49.71997" lon="0.99984">
        <ele>136.3</ele>
        <time>2011-08-25T08:12:11Z</time>
      </trkpt>
      <trkpt lat="49.72004" lon="0.99988">
        <ele>136.8</ele>
        <time>2011-08-25T08:12:17Z</time>
      </trkpt>
      <trkpt lat="49.72012" lon="0.99993">
        <ele>137.6</ele>
        <time>2011-08-25T08:12:23Z</time>
      </trkpt>
      <trkpt lat="49.72019" lon="0.99997">
        <ele>137.6</ele>
        <time>2011-08-25T08:12:29Z</time>
      </trkpt>
      <trkpt lat="49.72026" lon="1.00002">
        <ele>136.3</ele>
        <time>2011-08-25T08:12:35Z</time>
      </trkpt>
      <trkpt lat="49.72034" lon="1.00008">
        <ele>136.3</ele>
        <time>2011-08-25T08:12:41Z</time>
      </trkpt>
      <trkpt lat="49.72041" lon="1.00015">
        <ele>137</ele>
        <time>2011-08-25T08:12:47Z</time>
      </trkpt>
      <trkpt lat="49.72043" lon="1.00016">
        <ele>137</ele>
        <time>2011-08-25T08:12:48Z</time>
      </trkpt>
      <trkpt lat="49.72055" lon="1.0003">
        <ele>137</ele>
        <time>2011-08-25T08:12:59Z</time>
      </trkpt>
      <trkpt lat="49.72061" lon="1.00037">
        <ele>136.1</ele>
        <time>2011-08-25T08:13:04Z</time>
      </trkpt>
      <trkpt lat="49.72068" lon="1.00043">
        <ele>135.1</ele>
        <time>2011-08-25T08:13:10Z</time>
      </trkpt>
      <trkpt lat="49.72075" lon="1.00049">
        <ele>134.3</ele>
        <time>2011-08-25T08:13:15Z</time>
      </trkpt>
      <trkpt lat="49.72082" lon="1.00056">
        <ele>133.6</ele>
        <time>2011-08-25T08:13:21Z</time>
      </trkpt>
      <trkpt lat="49.72088" lon="1.00063">
        <ele>134</ele>
        <time>2011-08-25T08:13:26Z</time>
      </trkpt>
      <trkpt lat="49.72095" lon="1.00071">
        <ele>134.3</ele>
        <time>2011-08-25T08:13:32Z</time>
      </trkpt>
      <trkpt lat="49.72102" lon="1.00078">
        <ele>136.1</ele>
        <time>2011-08-25T08:13:38Z</time>
      </trkpt>
      <trkpt lat="49.72108" lon="1.00085">
        <ele>137</ele>
        <time>2011-08-25T08:13:44Z</time>
      </trkpt>
      <trkpt lat="49.72115" lon="1.00092">
        <ele>137.3</ele>
        <time>2011-08-25T08:13:50Z</time>
      </trkpt>
      <trkpt lat="49.72116" lon="1.00094">
        <ele>137.6</ele>
        <time>2011-08-25T08:13:51Z</time>
      </trkpt>
      <trkpt lat="49.72128" lon="1.00107">
        <ele>137.6</ele>
        <time>2011-08-25T08:14:02Z</time>
      </trkpt>
      <trkpt lat="49.72135" lon="1.00116">
        <ele>137.5</ele>
        <time>2011-08-25T08:14:09Z</time>
      </trkpt>
      <trkpt lat="49.7214" lon="1.00124">
        <ele>137.8</ele>
        <time>2011-08-25T08:14:15Z</time>
      </trkpt>
      <trkpt lat="49.72147" lon="1.00132">
        <ele>138</ele>
        <time>2011-08-25T08:14:21Z</time>
      </trkpt>
      <trkpt lat="49.72154" lon="1.0014">
        <ele>137.5</ele>
        <time>2011-08-25T08:14:27Z</time>
      </trkpt>
      <trkpt lat="49.7216" lon="1.00147">
        <ele>137.3</ele>
        <time>2011-08-25T08:14:32Z</time>
      </trkpt>
      <trkpt lat="49.72166" lon="1.00157">
        <ele>137</ele>
        <time>2011-08-25T08:14:39Z</time>
      </trkpt>
      <trkpt lat="49.72173" lon="1.00165">
        <ele>136.6</ele>
        <time>2011-08-25T08:14:47Z</time>
      </trkpt>
      <trkpt lat="49.72179" lon="1.00173">
        <ele>136.8</ele>
        <time>2011-08-25T08:14:53Z</time>
      </trkpt>
      <trkpt lat="49.7218" lon="1.00174">
        <ele>137</ele>
        <time>2011-08-25T08:14:54Z</time>
      </trkpt>
      <trkpt lat="49.72193" lon="1.00188">
        <ele>137.6</ele>
        <time>2011-08-25T08:15:06Z</time>
      </trkpt>
      <trkpt lat="49.722" lon="1.00197">
        <ele>138</ele>
        <time>2011-08-25T08:15:12Z</time>
      </trkpt>
      <trkpt lat="49.72207" lon="1.00205">
        <ele>138.3</ele>
        <time>2011-08-25T08:15:18Z</time>
      </trkpt>
      <trkpt lat="49.72214" lon="1.00213">
        <ele>139</ele>
        <time>2011-08-25T08:15:24Z</time>
      </trkpt>
      <trkpt lat="49.7222" lon="1.00221">
        <ele>139.3</ele>
        <time>2011-08-25T08:15:30Z</time>
      </trkpt>
      <trkpt lat="49.72226" lon="1.0023">
        <ele>138.8</ele>
        <time>2011-08-25T08:15:36Z</time>
      </trkpt>
      <trkpt lat="49.72232" lon="1.00238">
        <ele>139</ele>
        <time>2011-08-25T08:15:41Z</time>
      </trkpt>
      <trkpt lat="49.72239" lon="1.00246">
        <ele>139.3</ele>
        <time>2011-08-25T08:15:47Z</time>
      </trkpt>
      <trkpt lat="49.72246" lon="1.00253">
        <ele>139.5</ele>
        <time>2011-08-25T08:15:53Z</time>
      </trkpt>
      <trkpt lat="49.72251" lon="1.00261">
        <ele>139.8</ele>
        <time>2011-08-25T08:15:59Z</time>
      </trkpt>
      <trkpt lat="49.72252" lon="1.00263">
        <ele>140.1</ele>
        <time>2011-08-25T08:16:00Z</time>
      </trkpt>
      <trkpt lat="49.72264" lon="1.0028">
        <ele>140.3</ele>
        <time>2011-08-25T08:16:12Z</time>
      </trkpt>
      <trkpt lat="49.72269" lon="1.00289">
        <ele>140.3</ele>
        <time>2011-08-25T08:16:18Z</time>
      </trkpt>
      <trkpt lat="49.72276" lon="1.00298">
        <ele>140.1</ele>
        <time>2011-08-25T08:16:25Z</time>
      </trkpt>
      <trkpt lat="49.72282" lon="1.00306">
        <ele>140</ele>
        <time>2011-08-25T08:16:31Z</time>
      </trkpt>
      <trkpt lat="49.72288" lon="1.00316">
        <ele>139.6</ele>
        <time>2011-08-25T08:16:37Z</time>
      </trkpt>
      <trkpt lat="49.72294" lon="1.00326">
        <ele>139.6</ele>
        <time>2011-08-25T08:16:43Z</time>
      </trkpt>
      <trkpt lat="49.723" lon="1.00334">
        <ele>141.6</ele>
        <time>2011-08-25T08:16:50Z</time>
      </trkpt>
      <trkpt lat="49.72306" lon="1.00344">
        <ele>142.1</ele>
        <time>2011-08-25T08:16:56Z</time>
      </trkpt>
      <trkpt lat="49.72313" lon="1.00354">
        <ele>141.8</ele>
        <time>2011-08-25T08:17:03Z</time>
      </trkpt>
      <trkpt lat="49.72314" lon="1.00355">
        <ele>142.3</ele>
        <time>2011-08-25T08:17:04Z</time>
      </trkpt>
      <trkpt lat="49.72325" lon="1.0037">
        <ele>142.6</ele>
        <time>2011-08-25T08:17:15Z</time>
      </trkpt>
      <trkpt lat="49.7233" lon="1.00379">
        <ele>141.6</ele>
        <time>2011-08-25T08:17:21Z</time>
      </trkpt>
      <trkpt lat="49.72336" lon="1.00387">
        <ele>141.5</ele>
        <time>2011-08-25T08:17:27Z</time>
      </trkpt>
      <trkpt lat="49.72342" lon="1.00396">
        <ele>140.3</ele>
        <time>2011-08-25T08:17:33Z</time>
      </trkpt>
      <trkpt lat="49.72347" lon="1.00406">
        <ele>139.8</ele>
        <time>2011-08-25T08:17:40Z</time>
      </trkpt>
      <trkpt lat="49.72353" lon="1.00415">
        <ele>137.8</ele>
        <time>2011-08-25T08:17:47Z</time>
      </trkpt>
      <trkpt lat="49.72359" lon="1.00424">
        <ele>138.1</ele>
        <time>2011-08-25T08:17:53Z</time>
      </trkpt>
      <trkpt lat="49.72365" lon="1.00435">
        <ele>138.6</ele>
        <time>2011-08-25T08:17:59Z</time>
      </trkpt>
      <trkpt lat="49.72371" lon="1.00444">
        <ele>139.5</ele>
        <time>2011-08-25T08:18:06Z</time>
      </trkpt>
      <trkpt lat="49.72372" lon="1.00445">
        <ele>139.3</ele>
        <time>2011-08-25T08:18:07Z</time>
      </trkpt>
      <trkpt lat="49.72387" lon="1.00456">
        <ele>139.1</ele>
        <time>2011-08-25T08:18:18Z</time>
      </trkpt>
      <trkpt lat="49.72394" lon="1.00462">
        <ele>138.8</ele>
        <time>2011-08-25T08:18:24Z</time>
      </trkpt>
      <trkpt lat="49.72402" lon="1.00467">
        <ele>137.3</ele>
        <time>2011-08-25T08:18:30Z</time>
      </trkpt>
      <trkpt lat="49.72409" lon="1.00473">
        <ele>136.6</ele>
        <time>2011-08-25T08:18:36Z</time>
      </trkpt>
      <trkpt lat="49.72417" lon="1.00479">
        <ele>137</ele>
        <time>2011-08-25T08:18:43Z</time>
      </trkpt>
      <trkpt lat="49.72424" lon="1.00486">
        <ele>136.8</ele>
        <time>2011-08-25T08:18:49Z</time>
      </trkpt>
      <trkpt lat="49.72432" lon="1.0049">
        <ele>135.1</ele>
        <time>2011-08-25T08:18:55Z</time>
      </trkpt>
      <trkpt lat="49.7244" lon="1.00496">
        <ele>135.8</ele>
        <time>2011-08-25T08:19:01Z</time>
      </trkpt>
      <trkpt lat="49.72447" lon="1.005">
        <ele>135.8</ele>
        <time>2011-08-25T08:19:08Z</time>
      </trkpt>
      <trkpt lat="49.72448" lon="1.00501">
        <ele>135.5</ele>
        <time>2011-08-25T08:19:09Z</time>
      </trkpt>
      <trkpt lat="49.72464" lon="1.00505">
        <ele>136.1</ele>
        <time>2011-08-25T08:19:22Z</time>
      </trkpt>
      <trkpt lat="49.72473" lon="1.00508">
        <ele>137.6</ele>
        <time>2011-08-25T08:19:30Z</time>
      </trkpt>
      <trkpt lat="49.72481" lon="1.00513">
        <ele>138.1</ele>
        <time>2011-08-25T08:19:37Z</time>
      </trkpt>
      <trkpt lat="49.72487" lon="1.00522">
        <ele>137.3</ele>
        <time>2011-08-25T08:19:44Z</time>
      </trkpt>
      <trkpt lat="49.72492" lon="1.00532">
        <ele>137.5</ele>
        <time>2011-08-25T08:19:50Z</time>
      </trkpt>
      <trkpt lat="49.72496" lon="1.00541">
        <ele>137.6</ele>
        <time>2011-08-25T08:19:55Z</time>
      </trkpt>
      <trkpt lat="49.725" lon="1.00553">
        <ele>137.1</ele>
        <time>2011-08-25T08:20:02Z</time>
      </trkpt>
      <trkpt lat="49.72506" lon="1.00564">
        <ele>137.5</ele>
        <time>2011-08-25T08:20:08Z</time>
      </trkpt>
      <trkpt lat="49.7251" lon="1.00575">
        <ele>135.5</ele>
        <time>2011-08-25T08:20:15Z</time>
      </trkpt>
      <trkpt lat="49.72511" lon="1.00578">
        <ele>135.3</ele>
        <time>2011-08-25T08:20:16Z</time>
      </trkpt>
      <trkpt lat="49.7252" lon="1.00597">
        <ele>134.3</ele>
        <time>2011-08-25T08:20:26Z</time>
      </trkpt>
      <trkpt lat="49.72524" lon="1.00608">
        <ele>133.6</ele>
        <time>2011-08-25T08:20:32Z</time>
      </trkpt>
      <trkpt lat="49.7253" lon="1.00616">
        <ele>134.1</ele>
        <time>2011-08-25T08:20:37Z</time>
      </trkpt>
      <trkpt lat="49.72535" lon="1.00627">
        <ele>133.5</ele>
        <time>2011-08-25T08:20:43Z</time>
      </trkpt>
      <trkpt lat="49.72541" lon="1.00637">
        <ele>132.3</ele>
        <time>2011-08-25T08:20:49Z</time>
      </trkpt>
      <trkpt lat="49.72547" lon="1.00645">
        <ele>132.1</ele>
        <time>2011-08-25T08:20:55Z</time>
      </trkpt>
      <trkpt lat="49.72554" lon="1.00653">
        <ele>131.8</ele>
        <time>2011-08-25T08:21:00Z</time>
      </trkpt>
      <trkpt lat="49.7256" lon="1.00661">
        <ele>132</ele>
        <time>2011-08-25T08:21:06Z</time>
      </trkpt>
      <trkpt lat="49.72567" lon="1.00668">
        <ele>132.1</ele>
        <time>2011-08-25T08:21:12Z</time>
      </trkpt>
      <trkpt lat="49.72574" lon="1.00676">
        <ele>132.6</ele>
        <time>2011-08-25T08:21:18Z</time>
      </trkpt>
      <trkpt lat="49.72574" lon="1.00677">
        <ele>132.8</ele>
        <time>2011-08-25T08:21:19Z</time>
      </trkpt>
      <trkpt lat="49.72585" lon="1.00694">
        <ele>133.8</ele>
        <time>2011-08-25T08:21:31Z</time>
      </trkpt>
      <trkpt lat="49.72588" lon="1.00706">
        <ele>134.3</ele>
        <time>2011-08-25T08:21:37Z</time>
      </trkpt>
      <trkpt lat="49.72586" lon="1.00717">
        <ele>134.6</ele>
        <time>2011-08-25T08:21:43Z</time>
      </trkpt>
      <trkpt lat="49.72583" lon="1.00728">
        <ele>134.6</ele>
        <time>2011-08-25T08:21:49Z</time>
      </trkpt>
      <trkpt lat="49.72581" lon="1.0074">
        <ele>134.8</ele>
        <time>2011-08-25T08:21:55Z</time>
      </trkpt>
      <trkpt lat="49.72585" lon="1.00752">
        <ele>134.8</ele>
        <time>2011-08-25T08:22:01Z</time>
      </trkpt>
      <trkpt lat="49.7259" lon="1.00763">
        <ele>134.6</ele>
        <time>2011-08-25T08:22:07Z</time>
      </trkpt>
      <trkpt lat="49.72596" lon="1.00773">
        <ele>133.3</ele>
        <time>2011-08-25T08:22:13Z</time>
      </trkpt>
      <trkpt lat="49.72601" lon="1.00783">
        <ele>132.5</ele>
        <time>2011-08-25T08:22:19Z</time>
      </trkpt>
      <trkpt lat="49.72602" lon="1.00784">
        <ele>132.6</ele>
        <time>2011-08-25T08:22:20Z</time>
      </trkpt>
      <trkpt lat="49.72612" lon="1.00801">
        <ele>131.8</ele>
        <time>2011-08-25T08:22:30Z</time>
      </trkpt>
      <trkpt lat="49.72617" lon="1.00812">
        <ele>132.6</ele>
        <time>2011-08-25T08:22:36Z</time>
      </trkpt>
      <trkpt lat="49.72622" lon="1.00823">
        <ele>132.3</ele>
        <time>2011-08-25T08:22:43Z</time>
      </trkpt>
      <trkpt lat="49.72627" lon="1.00834">
        <ele>132.3</ele>
        <time>2011-08-25T08:22:50Z</time>
      </trkpt>
      <trkpt lat="49.72632" lon="1.00843">
        <ele>132.6</ele>
        <time>2011-08-25T08:22:56Z</time>
      </trkpt>
      <trkpt lat="49.72637" lon="1.00852">
        <ele>133</ele>
        <time>2011-08-25T08:23:02Z</time>
      </trkpt>
      <trkpt lat="49.72642" lon="1.00861">
        <ele>133.6</ele>
        <time>2011-08-25T08:23:08Z</time>
      </trkpt>
      <trkpt lat="49.72648" lon="1.00871">
        <ele>134.5</ele>
        <time>2011-08-25T08:23:14Z</time>
      </trkpt>
      <trkpt lat="49.72655" lon="1.00878">
        <ele>134.3</ele>
        <time>2011-08-25T08:23:19Z</time>
      </trkpt>
      <trkpt lat="49.72661" lon="1.00887">
        <ele>134.3</ele>
        <time>2011-08-25T08:23:25Z</time>
      </trkpt>
      <trkpt lat="49.72662" lon="1.00887">
        <ele>133.8</ele>
        <time>2011-08-25T08:23:26Z</time>
      </trkpt>
      <trkpt lat="49.72676" lon="1.00899">
        <ele>133.1</ele>
        <time>2011-08-25T08:23:38Z</time>
      </trkpt>
      <trkpt lat="49.72683" lon="1.00906">
        <ele>133.3</ele>
        <time>2011-08-25T08:23:44Z</time>
      </trkpt>
      <trkpt lat="49.7269" lon="1.00913">
        <ele>133</ele>
        <time>2011-08-25T08:23:50Z</time>
      </trkpt>
      <trkpt lat="49.72697" lon="1.0092">
        <ele>133.3</ele>
        <time>2011-08-25T08:23:56Z</time>
      </trkpt>
      <trkpt lat="49.72704" lon="1.00928">
        <ele>133.8</ele>
        <time>2011-08-25T08:24:04Z</time>
      </trkpt>
      <trkpt lat="49.7271" lon="1.00935">
        <ele>134</ele>
        <time>2011-08-25T08:24:10Z</time>
      </trkpt>
      <trkpt lat="49.72717" lon="1.00942">
        <ele>132.8</ele>
        <time>2011-08-25T08:24:16Z</time>
      </trkpt>
      <trkpt lat="49.72725" lon="1.00943">
        <ele>133.5</ele>
        <time>2011-08-25T08:24:22Z</time>
      </trkpt>
      <trkpt lat="49.72734" lon="1.00939">
        <ele>134.3</ele>
        <time>2011-08-25T08:24:29Z</time>
      </trkpt>
      <trkpt lat="49.72735" lon="1.00938">
        <ele>134.1</ele>
        <time>2011-08-25T08:24:30Z</time>
      </trkpt>
      <trkpt lat="49.72745" lon="1.00922">
        <ele>134.3</ele>
        <time>2011-08-25T08:24:44Z</time>
      </trkpt>
      <trkpt lat="49.72754" lon="1.00921">
        <ele>135.1</ele>
        <time>2011-08-25T08:24:51Z</time>
      </trkpt>
      <trkpt lat="49.72762" lon="1.00925">
        <ele>134.8</ele>
        <time>2011-08-25T08:24:59Z</time>
      </trkpt>
      <trkpt lat="49.72767" lon="1.00935">
        <ele>134.8</ele>
        <time>2011-08-25T08:25:05Z</time>
      </trkpt>
      <trkpt lat="49.72774" lon="1.00942">
        <ele>134.6</ele>
        <time>2011-08-25T08:25:11Z</time>
      </trkpt>
      <trkpt lat="49.7278" lon="1.00951">
        <ele>134.6</ele>
        <time>2011-08-25T08:25:17Z</time>
      </trkpt>
      <trkpt lat="49.72787" lon="1.00959">
        <ele>134.1</ele>
        <time>2011-08-25T08:25:22Z</time>
      </trkpt>
      <trkpt lat="49.72793" lon="1.00966">
        <ele>132.8</ele>
        <time>2011-08-25T08:25:28Z</time>
      </trkpt>
      <trkpt lat="49.72798" lon="1.00975">
        <ele>131.1</ele>
        <time>2011-08-25T08:25:36Z</time>
      </trkpt>
      <trkpt lat="49.728" lon="1.00976">
        <ele>130.8</ele>
        <time>2011-08-25T08:25:37Z</time>
      </trkpt>
      <trkpt lat="49.72813" lon="1.0099">
        <ele>129.3</ele>
        <time>2011-08-25T08:25:48Z</time>
      </trkpt>
      <trkpt lat="49.7282" lon="1.00996">
        <ele>129</ele>
        <time>2011-08-25T08:25:53Z</time>
      </trkpt>
      <trkpt lat="49.72827" lon="1.01003">
        <ele>129.1</ele>
        <time>2011-08-25T08:25:59Z</time>
      </trkpt>
      <trkpt lat="49.72833" lon="1.0101">
        <ele>128.1</ele>
        <time>2011-08-25T08:26:05Z</time>
      </trkpt>
      <trkpt lat="49.72841" lon="1.01014">
        <ele>129.6</ele>
        <time>2011-08-25T08:26:10Z</time>
      </trkpt>
      <trkpt lat="49.72849" lon="1.01019">
        <ele>129.6</ele>
        <time>2011-08-25T08:26:17Z</time>
      </trkpt>
      <trkpt lat="49.72845" lon="1.01031">
        <ele>130.8</ele>
        <time>2011-08-25T08:27:32Z</time>
      </trkpt>
      <trkpt lat="49.72845" lon="1.01032">
        <ele>130.5</ele>
        <time>2011-08-25T08:27:33Z</time>
      </trkpt>
      <trkpt lat="49.72836" lon="1.01051">
        <ele>130.8</ele>
        <time>2011-08-25T08:27:47Z</time>
      </trkpt>
      <trkpt lat="49.7283" lon="1.01061">
        <ele>130.8</ele>
        <time>2011-08-25T08:27:54Z</time>
      </trkpt>
      <trkpt lat="49.72824" lon="1.0107">
        <ele>129.1</ele>
        <time>2011-08-25T08:28:00Z</time>
      </trkpt>
      <trkpt lat="49.72819" lon="1.0108">
        <ele>129.3</ele>
        <time>2011-08-25T08:28:06Z</time>
      </trkpt>
      <trkpt lat="49.72813" lon="1.0109">
        <ele>129.1</ele>
        <time>2011-08-25T08:28:13Z</time>
      </trkpt>
      <trkpt lat="49.72809" lon="1.01102">
        <ele>128.6</ele>
        <time>2011-08-25T08:28:20Z</time>
      </trkpt>
      <trkpt lat="49.72803" lon="1.01111">
        <ele>129.3</ele>
        <time>2011-08-25T08:28:28Z</time>
      </trkpt>
      <trkpt lat="49.72799" lon="1.01123">
        <ele>128.8</ele>
        <time>2011-08-25T08:28:35Z</time>
      </trkpt>
      <trkpt lat="49.72798" lon="1.01125">
        <ele>129.1</ele>
        <time>2011-08-25T08:28:36Z</time>
      </trkpt>
      <trkpt lat="49.7279" lon="1.01144">
        <ele>128.6</ele>
        <time>2011-08-25T08:28:47Z</time>
      </trkpt>
      <trkpt lat="49.72783" lon="1.01152">
        <ele>129.1</ele>
        <time>2011-08-25T08:28:53Z</time>
      </trkpt>
      <trkpt lat="49.72777" lon="1.0116">
        <ele>128.6</ele>
        <time>2011-08-25T08:28:58Z</time>
      </trkpt>
      <trkpt lat="49.72771" lon="1.01167">
        <ele>127.4</ele>
        <time>2011-08-25T08:29:04Z</time>
      </trkpt>
      <trkpt lat="49.72763" lon="1.01174">
        <ele>126</ele>
        <time>2011-08-25T08:29:10Z</time>
      </trkpt>
      <trkpt lat="49.72756" lon="1.01182">
        <ele>125.5</ele>
        <time>2011-08-25T08:29:17Z</time>
      </trkpt>
      <trkpt lat="49.72751" lon="1.01192">
        <ele>124</ele>
        <time>2011-08-25T08:29:23Z</time>
      </trkpt>
      <trkpt lat="49.72746" lon="1.01203">
        <ele>123</ele>
        <time>2011-08-25T08:29:29Z</time>
      </trkpt>
      <trkpt lat="49.72739" lon="1.01212">
        <ele>121.5</ele>
        <time>2011-08-25T08:29:35Z</time>
      </trkpt>
      <trkpt lat="49.72734" lon="1.01221">
        <ele>119.1</ele>
        <time>2011-08-25T08:29:41Z</time>
      </trkpt>
      <trkpt lat="49.72732" lon="1.01223">
        <ele>119.5</ele>
        <time>2011-08-25T08:29:42Z</time>
      </trkpt>
      <trkpt lat="49.72722" lon="1.0124">
        <ele>116.1</ele>
        <time>2011-08-25T08:29:53Z</time>
      </trkpt>
      <trkpt lat="49.72716" lon="1.01249">
        <ele>116.5</ele>
        <time>2011-08-25T08:30:00Z</time>
      </trkpt>
      <trkpt lat="49.72709" lon="1.01256">
        <ele>116.8</ele>
        <time>2011-08-25T08:30:06Z</time>
      </trkpt>
      <trkpt lat="49.72703" lon="1.01265">
        <ele>116</ele>
        <time>2011-08-25T08:30:12Z</time>
      </trkpt>
      <trkpt lat="49.72697" lon="1.01272">
        <ele>116.8</ele>
        <time>2011-08-25T08:30:18Z</time>
      </trkpt>
      <trkpt lat="49.7269" lon="1.01279">
        <ele>116.5</ele>
        <time>2011-08-25T08:30:23Z</time>
      </trkpt>
      <trkpt lat="49.72683" lon="1.01285">
        <ele>116</ele>
        <time>2011-08-25T08:30:29Z</time>
      </trkpt>
      <trkpt lat="49.72675" lon="1.01291">
        <ele>116.5</ele>
        <time>2011-08-25T08:30:36Z</time>
      </trkpt>
      <trkpt lat="49.72668" lon="1.01294">
        <ele>116.1</ele>
        <time>2011-08-25T08:30:41Z</time>
      </trkpt>
      <trkpt lat="49.7266" lon="1.01294">
        <ele>115.8</ele>
        <time>2011-08-25T08:30:46Z</time>
      </trkpt>
      <trkpt lat="49.72659" lon="1.01293">
        <ele>115.6</ele>
        <time>2011-08-25T08:30:47Z</time>
      </trkpt>
      <trkpt lat="49.72644" lon="1.01292">
        <ele>115.5</ele>
        <time>2011-08-25T08:30:58Z</time>
      </trkpt>
      <trkpt lat="49.72635" lon="1.0129">
        <ele>116.9</ele>
        <time>2011-08-25T08:31:09Z</time>
      </trkpt>
      <trkpt lat="49.72628" lon="1.01292">
        <ele>116.5</ele>
        <time>2011-08-25T08:31:20Z</time>
      </trkpt>
      <trkpt lat="49.7262" lon="1.01288">
        <ele>117.8</ele>
        <time>2011-08-25T08:31:25Z</time>
      </trkpt>
      <trkpt lat="49.72612" lon="1.01284">
        <ele>118</ele>
        <time>2011-08-25T08:31:29Z</time>
      </trkpt>
      <trkpt lat="49.72604" lon="1.01283">
        <ele>117.5</ele>
        <time>2011-08-25T08:31:34Z</time>
      </trkpt>
      <trkpt lat="49.72596" lon="1.01281">
        <ele>118.4</ele>
        <time>2011-08-25T08:31:38Z</time>
      </trkpt>
      <trkpt lat="49.72588" lon="1.01283">
        <ele>118.8</ele>
        <time>2011-08-25T08:31:43Z</time>
      </trkpt>
      <trkpt lat="49.7258" lon="1.0129">
        <ele>120.3</ele>
        <time>2011-08-25T08:31:49Z</time>
      </trkpt>
      <trkpt lat="49.72579" lon="1.01292">
        <ele>120</ele>
        <time>2011-08-25T08:31:50Z</time>
      </trkpt>
      <trkpt lat="49.72565" lon="1.01299">
        <ele>119</ele>
        <time>2011-08-25T08:31:59Z</time>
      </trkpt>
      <trkpt lat="49.72558" lon="1.01303">
        <ele>119</ele>
        <time>2011-08-25T08:32:05Z</time>
      </trkpt>
      <trkpt lat="49.7255" lon="1.01309">
        <ele>118.1</ele>
        <time>2011-08-25T08:32:11Z</time>
      </trkpt>
      <trkpt lat="49.72542" lon="1.01314">
        <ele>117.5</ele>
        <time>2011-08-25T08:32:17Z</time>
      </trkpt>
      <trkpt lat="49.72534" lon="1.0132">
        <ele>115.8</ele>
        <time>2011-08-25T08:32:24Z</time>
      </trkpt>
      <trkpt lat="49.72527" lon="1.01328">
        <ele>115.4</ele>
        <time>2011-08-25T08:32:30Z</time>
      </trkpt>
      <trkpt lat="49.7252" lon="1.01333">
        <ele>115.1</ele>
        <time>2011-08-25T08:32:35Z</time>
      </trkpt>
      <trkpt lat="49.72513" lon="1.0134">
        <ele>114.9</ele>
        <time>2011-08-25T08:32:41Z</time>
      </trkpt>
      <trkpt lat="49.72505" lon="1.01347">
        <ele>115.3</ele>
        <time>2011-08-25T08:32:47Z</time>
      </trkpt>
      <trkpt lat="49.72499" lon="1.01355">
        <ele>116</ele>
        <time>2011-08-25T08:32:53Z</time>
      </trkpt>
      <trkpt lat="49.72498" lon="1.01357">
        <ele>116</ele>
        <time>2011-08-25T08:32:54Z</time>
      </trkpt>
      <trkpt lat="49.72486" lon="1.01373">
        <ele>117</ele>
        <time>2011-08-25T08:33:06Z</time>
      </trkpt>
      <trkpt lat="49.7248" lon="1.01383">
        <ele>119</ele>
        <time>2011-08-25T08:33:13Z</time>
      </trkpt>
      <trkpt lat="49.72474" lon="1.01391">
        <ele>120.8</ele>
        <time>2011-08-25T08:33:20Z</time>
      </trkpt>
      <trkpt lat="49.72469" lon="1.01401">
        <ele>122.3</ele>
        <time>2011-08-25T08:33:27Z</time>
      </trkpt>
      <trkpt lat="49.72465" lon="1.01411">
        <ele>123.5</ele>
        <time>2011-08-25T08:33:34Z</time>
      </trkpt>
      <trkpt lat="49.72459" lon="1.0142">
        <ele>122</ele>
        <time>2011-08-25T08:33:41Z</time>
      </trkpt>
      <trkpt lat="49.72453" lon="1.0143">
        <ele>123.6</ele>
        <time>2011-08-25T08:33:48Z</time>
      </trkpt>
      <trkpt lat="49.72448" lon="1.0144">
        <ele>123.8</ele>
        <time>2011-08-25T08:33:54Z</time>
      </trkpt>
      <trkpt lat="49.72448" lon="1.01442">
        <ele>124</ele>
        <time>2011-08-25T08:33:55Z</time>
      </trkpt>
      <trkpt lat="49.72437" lon="1.01459">
        <ele>127</ele>
        <time>2011-08-25T08:34:08Z</time>
      </trkpt>
      <trkpt lat="49.72431" lon="1.01468">
        <ele>128</ele>
        <time>2011-08-25T08:34:15Z</time>
      </trkpt>
      <trkpt lat="49.72425" lon="1.01476">
        <ele>129.5</ele>
        <time>2011-08-25T08:34:22Z</time>
      </trkpt>
      <trkpt lat="49.7242" lon="1.01486">
        <ele>131.8</ele>
        <time>2011-08-25T08:34:35Z</time>
      </trkpt>
      <trkpt lat="49.72415" lon="1.01497">
        <ele>132.3</ele>
        <time>2011-08-25T08:36:53Z</time>
      </trkpt>
      <trkpt lat="49.72414" lon="1.01498">
        <ele>132.3</ele>
        <time>2011-08-25T08:36:54Z</time>
      </trkpt>
      <trkpt lat="49.72404" lon="1.01515">
        <ele>134.1</ele>
        <time>2011-08-25T08:37:05Z</time>
      </trkpt>
      <trkpt lat="49.72399" lon="1.01523">
        <ele>135.3</ele>
        <time>2011-08-25T08:37:11Z</time>
      </trkpt>
      <trkpt lat="49.72393" lon="1.01532">
        <ele>135.8</ele>
        <time>2011-08-25T08:37:17Z</time>
      </trkpt>
      <trkpt lat="49.72386" lon="1.01538">
        <ele>137</ele>
        <time>2011-08-25T08:37:23Z</time>
      </trkpt>
      <trkpt lat="49.72379" lon="1.01547">
        <ele>137.8</ele>
        <time>2011-08-25T08:37:31Z</time>
      </trkpt>
      <trkpt lat="49.72372" lon="1.01555">
        <ele>138</ele>
        <time>2011-08-25T08:37:37Z</time>
      </trkpt>
      <trkpt lat="49.72367" lon="1.01565">
        <ele>137.8</ele>
        <time>2011-08-25T08:37:43Z</time>
      </trkpt>
      <trkpt lat="49.72362" lon="1.01573">
        <ele>138.3</ele>
        <time>2011-08-25T08:37:48Z</time>
      </trkpt>
      <trkpt lat="49.72355" lon="1.01582">
        <ele>139</ele>
        <time>2011-08-25T08:37:54Z</time>
      </trkpt>
      <trkpt lat="49.72354" lon="1.01583">
        <ele>139</ele>
        <time>2011-08-25T08:37:55Z</time>
      </trkpt>
      <trkpt lat="49.72343" lon="1.016">
        <ele>138.8</ele>
        <time>2011-08-25T08:38:08Z</time>
      </trkpt>
      <trkpt lat="49.72336" lon="1.01609">
        <ele>139</ele>
        <time>2011-08-25T08:38:15Z</time>
      </trkpt>
      <trkpt lat="49.7233" lon="1.01618">
        <ele>139.6</ele>
        <time>2011-08-25T08:38:21Z</time>
      </trkpt>
      <trkpt lat="49.72324" lon="1.01627">
        <ele>140.3</ele>
        <time>2011-08-25T08:38:27Z</time>
      </trkpt>
      <trkpt lat="49.72318" lon="1.01637">
        <ele>140.1</ele>
        <time>2011-08-25T08:38:33Z</time>
      </trkpt>
      <trkpt lat="49.72312" lon="1.01646">
        <ele>140.3</ele>
        <time>2011-08-25T08:38:39Z</time>
      </trkpt>
      <trkpt lat="49.72306" lon="1.01654">
        <ele>141</ele>
        <time>2011-08-25T08:38:46Z</time>
      </trkpt>
      <trkpt lat="49.723" lon="1.01663">
        <ele>141.8</ele>
        <time>2011-08-25T08:38:52Z</time>
      </trkpt>
      <trkpt lat="49.72294" lon="1.01672">
        <ele>142</ele>
        <time>2011-08-25T08:38:58Z</time>
      </trkpt>
      <trkpt lat="49.72293" lon="1.01674">
        <ele>142</ele>
        <time>2011-08-25T08:38:59Z</time>
      </trkpt>
      <trkpt lat="49.72283" lon="1.01692">
        <ele>140.8</ele>
        <time>2011-08-25T08:39:10Z</time>
      </trkpt>
      <trkpt lat="49.72276" lon="1.017">
        <ele>141.1</ele>
        <time>2011-08-25T08:39:17Z</time>
      </trkpt>
      <trkpt lat="49.7227" lon="1.01709">
        <ele>141</ele>
        <time>2011-08-25T08:39:24Z</time>
      </trkpt>
      <trkpt lat="49.72263" lon="1.01715">
        <ele>141.1</ele>
        <time>2011-08-25T08:39:29Z</time>
      </trkpt>
      <trkpt lat="49.72257" lon="1.01723">
        <ele>141.1</ele>
        <time>2011-08-25T08:39:35Z</time>
      </trkpt>
      <trkpt lat="49.72251" lon="1.01733">
        <ele>141.3</ele>
        <time>2011-08-25T08:39:41Z</time>
      </trkpt>
      <trkpt lat="49.72245" lon="1.01742">
        <ele>140.8</ele>
        <time>2011-08-25T08:39:47Z</time>
      </trkpt>
      <trkpt lat="49.72238" lon="1.0175">
        <ele>141.1</ele>
        <time>2011-08-25T08:39:53Z</time>
      </trkpt>
      <trkpt lat="49.72231" lon="1.01759">
        <ele>141</ele>
        <time>2011-08-25T08:39:59Z</time>
      </trkpt>
      <trkpt lat="49.7223" lon="1.0176">
        <ele>141.6</ele>
        <time>2011-08-25T08:40:00Z</time>
      </trkpt>
      <trkpt lat="49.72218" lon="1.01778">
        <ele>141.1</ele>
        <time>2011-08-25T08:40:13Z</time>
      </trkpt>
      <trkpt lat="49.72212" lon="1.01786">
        <ele>141</ele>
        <time>2011-08-25T08:40:19Z</time>
      </trkpt>
      <trkpt lat="49.72206" lon="1.01795">
        <ele>140.6</ele>
        <time>2011-08-25T08:40:25Z</time>
      </trkpt>
      <trkpt lat="49.722" lon="1.01804">
        <ele>140.8</ele>
        <time>2011-08-25T08:40:31Z</time>
      </trkpt>
      <trkpt lat="49.72194" lon="1.01812">
        <ele>141.6</ele>
        <time>2011-08-25T08:40:37Z</time>
      </trkpt>
      <trkpt lat="49.72188" lon="1.01821">
        <ele>141.6</ele>
        <time>2011-08-25T08:40:45Z</time>
      </trkpt>
      <trkpt lat="49.72183" lon="1.0183">
        <ele>141.3</ele>
        <time>2011-08-25T08:40:50Z</time>
      </trkpt>
      <trkpt lat="49.72175" lon="1.01839">
        <ele>141.6</ele>
        <time>2011-08-25T08:40:58Z</time>
      </trkpt>
      <trkpt lat="49.72168" lon="1.01846">
        <ele>141.8</ele>
        <time>2011-08-25T08:41:04Z</time>
      </trkpt>
      <trkpt lat="49.72167" lon="1.01848">
        <ele>142</ele>
        <time>2011-08-25T08:41:05Z</time>
      </trkpt>
      <trkpt lat="49.72158" lon="1.01867">
        <ele>139.6</ele>
        <time>2011-08-25T08:41:16Z</time>
      </trkpt>
      <trkpt lat="49.72154" lon="1.01879">
        <ele>139.1</ele>
        <time>2011-08-25T08:41:22Z</time>
      </trkpt>
      <trkpt lat="49.72148" lon="1.01888">
        <ele>141.5</ele>
        <time>2011-08-25T08:41:29Z</time>
      </trkpt>
      <trkpt lat="49.72142" lon="1.01897">
        <ele>142.6</ele>
        <time>2011-08-25T08:41:36Z</time>
      </trkpt>
      <trkpt lat="49.72137" lon="1.01908">
        <ele>142.5</ele>
        <time>2011-08-25T08:41:41Z</time>
      </trkpt>
      <trkpt lat="49.72133" lon="1.0192">
        <ele>142.3</ele>
        <time>2011-08-25T08:41:48Z</time>
      </trkpt>
      <trkpt lat="49.72128" lon="1.01931">
        <ele>141.8</ele>
        <time>2011-08-25T08:41:54Z</time>
      </trkpt>
      <trkpt lat="49.72122" lon="1.01942">
        <ele>140.6</ele>
        <time>2011-08-25T08:42:00Z</time>
      </trkpt>
      <trkpt lat="49.72117" lon="1.01951">
        <ele>140.1</ele>
        <time>2011-08-25T08:42:06Z</time>
      </trkpt>
      <trkpt lat="49.72116" lon="1.01953">
        <ele>139.8</ele>
        <time>2011-08-25T08:42:07Z</time>
      </trkpt>
      <trkpt lat="49.72105" lon="1.01969">
        <ele>140.1</ele>
        <time>2011-08-25T08:42:19Z</time>
      </trkpt>
      <trkpt lat="49.72099" lon="1.01978">
        <ele>140.6</ele>
        <time>2011-08-25T08:42:25Z</time>
      </trkpt>
      <trkpt lat="49.72093" lon="1.01988">
        <ele>140.3</ele>
        <time>2011-08-25T08:42:31Z</time>
      </trkpt>
      <trkpt lat="49.72088" lon="1.01998">
        <ele>141.1</ele>
        <time>2011-08-25T08:42:37Z</time>
      </trkpt>
      <trkpt lat="49.72082" lon="1.02005">
        <ele>141.1</ele>
        <time>2011-08-25T08:42:44Z</time>
      </trkpt>
      <trkpt lat="49.72075" lon="1.02013">
        <ele>141</ele>
        <time>2011-08-25T08:42:54Z</time>
      </trkpt>
      <trkpt lat="49.72069" lon="1.02023">
        <ele>141.5</ele>
        <time>2011-08-25T08:43:01Z</time>
      </trkpt>
      <trkpt lat="49.72062" lon="1.0203">
        <ele>141.6</ele>
        <time>2011-08-25T08:43:08Z</time>
      </trkpt>
      <trkpt lat="49.72061" lon="1.0203">
        <ele>141.6</ele>
        <time>2011-08-25T08:43:09Z</time>
      </trkpt>
      <trkpt lat="49.72045" lon="1.02027">
        <ele>137.1</ele>
        <time>2011-08-25T08:43:22Z</time>
      </trkpt>
      <trkpt lat="49.72037" lon="1.02024">
        <ele>136.6</ele>
        <time>2011-08-25T08:43:28Z</time>
      </trkpt>
      <trkpt lat="49.72028" lon="1.02019">
        <ele>137</ele>
        <time>2011-08-25T08:43:35Z</time>
      </trkpt>
      <trkpt lat="49.72021" lon="1.02015">
        <ele>137</ele>
        <time>2011-08-25T08:43:41Z</time>
      </trkpt>
      <trkpt lat="49.72013" lon="1.02015">
        <ele>137.5</ele>
        <time>2011-08-25T08:43:54Z</time>
      </trkpt>
      <trkpt lat="49.72007" lon="1.02025">
        <ele>137.3</ele>
        <time>2011-08-25T08:44:08Z</time>
      </trkpt>
      <trkpt lat="49.72003" lon="1.02036">
        <ele>137.3</ele>
        <time>2011-08-25T08:44:17Z</time>
      </trkpt>
      <trkpt lat="49.72003" lon="1.02037">
        <ele>137.1</ele>
        <time>2011-08-25T08:44:18Z</time>
      </trkpt>
      <trkpt lat="49.71996" lon="1.0206">
        <ele>137.5</ele>
        <time>2011-08-25T08:44:32Z</time>
      </trkpt>
      <trkpt lat="49.71992" lon="1.02072">
        <ele>137.5</ele>
        <time>2011-08-25T08:44:39Z</time>
      </trkpt>
      <trkpt lat="49.7199" lon="1.02083">
        <ele>138</ele>
        <time>2011-08-25T08:44:46Z</time>
      </trkpt>
      <trkpt lat="49.71987" lon="1.02095">
        <ele>138</ele>
        <time>2011-08-25T08:44:52Z</time>
      </trkpt>
      <trkpt lat="49.71984" lon="1.02107">
        <ele>137.6</ele>
        <time>2011-08-25T08:44:59Z</time>
      </trkpt>
      <trkpt lat="49.71981" lon="1.0212">
        <ele>138.1</ele>
        <time>2011-08-25T08:45:06Z</time>
      </trkpt>
      <trkpt lat="49.71978" lon="1.0213">
        <ele>137.8</ele>
        <time>2011-08-25T08:45:11Z</time>
      </trkpt>
      <trkpt lat="49.71975" lon="1.02141">
        <ele>137</ele>
        <time>2011-08-25T08:45:16Z</time>
      </trkpt>
      <trkpt lat="49.71971" lon="1.02153">
        <ele>139.1</ele>
        <time>2011-08-25T08:45:24Z</time>
      </trkpt>
      <trkpt lat="49.71971" lon="1.02155">
        <ele>139.5</ele>
        <time>2011-08-25T08:45:25Z</time>
      </trkpt>
      <trkpt lat="49.71967" lon="1.02178">
        <ele>138.3</ele>
        <time>2011-08-25T08:45:38Z</time>
      </trkpt>
      <trkpt lat="49.71963" lon="1.02189">
        <ele>137.8</ele>
        <time>2011-08-25T08:45:46Z</time>
      </trkpt>
      <trkpt lat="49.71958" lon="1.02199">
        <ele>137.1</ele>
        <time>2011-08-25T08:45:52Z</time>
      </trkpt>
      <trkpt lat="49.71954" lon="1.02211">
        <ele>136.8</ele>
        <time>2011-08-25T08:45:59Z</time>
      </trkpt>
      <trkpt lat="49.7195" lon="1.02224">
        <ele>137.1</ele>
        <time>2011-08-25T08:46:05Z</time>
      </trkpt>
      <trkpt lat="49.71948" lon="1.02236">
        <ele>139.6</ele>
        <time>2011-08-25T08:46:11Z</time>
      </trkpt>
      <trkpt lat="49.71944" lon="1.02248">
        <ele>140.3</ele>
        <time>2011-08-25T08:46:17Z</time>
      </trkpt>
      <trkpt lat="49.71939" lon="1.02258">
        <ele>141.5</ele>
        <time>2011-08-25T08:46:24Z</time>
      </trkpt>
      <trkpt lat="49.71935" lon="1.02269">
        <ele>142.6</ele>
        <time>2011-08-25T08:46:30Z</time>
      </trkpt>
      <trkpt lat="49.71935" lon="1.02271">
        <ele>142.8</ele>
        <time>2011-08-25T08:46:31Z</time>
      </trkpt>
      <trkpt lat="49.71934" lon="1.02294">
        <ele>142.6</ele>
        <time>2011-08-25T08:46:41Z</time>
      </trkpt>
      <trkpt lat="49.71934" lon="1.02307">
        <ele>142.1</ele>
        <time>2011-08-25T08:46:48Z</time>
      </trkpt>
      <trkpt lat="49.71935" lon="1.02319">
        <ele>141.1</ele>
        <time>2011-08-25T08:46:54Z</time>
      </trkpt>
      <trkpt lat="49.71936" lon="1.02331">
        <ele>140.8</ele>
        <time>2011-08-25T08:47:00Z</time>
      </trkpt>
      <trkpt lat="49.71938" lon="1.02343">
        <ele>140.1</ele>
        <time>2011-08-25T08:47:06Z</time>
      </trkpt>
      <trkpt lat="49.71939" lon="1.02355">
        <ele>139.6</ele>
        <time>2011-08-25T08:47:13Z</time>
      </trkpt>
      <trkpt lat="49.71941" lon="1.02368">
        <ele>138.8</ele>
        <time>2011-08-25T08:47:19Z</time>
      </trkpt>
      <trkpt lat="49.71943" lon="1.02382">
        <ele>138.3</ele>
        <time>2011-08-25T08:47:25Z</time>
      </trkpt>
      <trkpt lat="49.71944" lon="1.02395">
        <ele>137.6</ele>
        <time>2011-08-25T08:47:31Z</time>
      </trkpt>
      <trkpt lat="49.71945" lon="1.02397">
        <ele>137.6</ele>
        <time>2011-08-25T08:47:32Z</time>
      </trkpt>
      <trkpt lat="49.71947" lon="1.0242">
        <ele>138.1</ele>
        <time>2011-08-25T08:47:42Z</time>
      </trkpt>
      <trkpt lat="49.71948" lon="1.02432">
        <ele>138.6</ele>
        <time>2011-08-25T08:47:48Z</time>
      </trkpt>
      <trkpt lat="49.71949" lon="1.02445">
        <ele>138.6</ele>
        <time>2011-08-25T08:47:54Z</time>
      </trkpt>
      <trkpt lat="49.7195" lon="1.02458">
        <ele>138.3</ele>
        <time>2011-08-25T08:48:00Z</time>
      </trkpt>
      <trkpt lat="49.7195" lon="1.02471">
        <ele>139.5</ele>
        <time>2011-08-25T08:48:06Z</time>
      </trkpt>
      <trkpt lat="49.71951" lon="1.02484">
        <ele>139.5</ele>
        <time>2011-08-25T08:48:12Z</time>
      </trkpt>
      <trkpt lat="49.71952" lon="1.02497">
        <ele>139.6</ele>
        <time>2011-08-25T08:48:18Z</time>
      </trkpt>
      <trkpt lat="49.71955" lon="1.0251">
        <ele>139.8</ele>
        <time>2011-08-25T08:48:24Z</time>
      </trkpt>
      <trkpt lat="49.71956" lon="1.02523">
        <ele>139.5</ele>
        <time>2011-08-25T08:48:31Z</time>
      </trkpt>
      <trkpt lat="49.71957" lon="1.02537">
        <ele>139.8</ele>
        <time>2011-08-25T08:48:39Z</time>
      </trkpt>
      <trkpt lat="49.71957" lon="1.02539">
        <ele>139.8</ele>
        <time>2011-08-25T08:48:40Z</time>
      </trkpt>
      <trkpt lat="49.71959" lon="1.02563">
        <ele>140.6</ele>
        <time>2011-08-25T08:48:51Z</time>
      </trkpt>
      <trkpt lat="49.7196" lon="1.02576">
        <ele>140.1</ele>
        <time>2011-08-25T08:48:57Z</time>
      </trkpt>
      <trkpt lat="49.71962" lon="1.02587">
        <ele>139.1</ele>
        <time>2011-08-25T08:49:02Z</time>
      </trkpt>
      <trkpt lat="49.71965" lon="1.02599">
        <ele>138.5</ele>
        <time>2011-08-25T08:49:07Z</time>
      </trkpt>
      <trkpt lat="49.71967" lon="1.0261">
        <ele>137.5</ele>
        <time>2011-08-25T08:49:13Z</time>
      </trkpt>
      <trkpt lat="49.71969" lon="1.02623">
        <ele>136.6</ele>
        <time>2011-08-25T08:49:19Z</time>
      </trkpt>
      <trkpt lat="49.71972" lon="1.02636">
        <ele>136.6</ele>
        <time>2011-08-25T08:49:26Z</time>
      </trkpt>
      <trkpt lat="49.71975" lon="1.02648">
        <ele>135.3</ele>
        <time>2011-08-25T08:49:32Z</time>
      </trkpt>
      <trkpt lat="49.71978" lon="1.0266">
        <ele>134.8</ele>
        <time>2011-08-25T08:49:38Z</time>
      </trkpt>
      <trkpt lat="49.71981" lon="1.02674">
        <ele>134.1</ele>
        <time>2011-08-25T08:49:44Z</time>
      </trkpt>
      <trkpt lat="49.71981" lon="1.02676">
        <ele>134.1</ele>
        <time>2011-08-25T08:49:45Z</time>
      </trkpt>
      <trkpt lat="49.71985" lon="1.02698">
        <ele>134.3</ele>
        <time>2011-08-25T08:49:56Z</time>
      </trkpt>
      <trkpt lat="49.71987" lon="1.0271">
        <ele>134.1</ele>
        <time>2011-08-25T08:50:02Z</time>
      </trkpt>
      <trkpt lat="49.71988" lon="1.02722">
        <ele>134.6</ele>
        <time>2011-08-25T08:50:08Z</time>
      </trkpt>
      <trkpt lat="49.71989" lon="1.02736">
        <ele>134.8</ele>
        <time>2011-08-25T08:50:15Z</time>
      </trkpt>
      <trkpt lat="49.7199" lon="1.02748">
        <ele>135.1</ele>
        <time>2011-08-25T08:50:21Z</time>
      </trkpt>
      <trkpt lat="49.7199" lon="1.02761">
        <ele>136.3</ele>
        <time>2011-08-25T08:50:28Z</time>
      </trkpt>
      <trkpt lat="49.71989" lon="1.02774">
        <ele>137.3</ele>
        <time>2011-08-25T08:50:35Z</time>
      </trkpt>
      <trkpt lat="49.71989" lon="1.02786">
        <ele>137.8</ele>
        <time>2011-08-25T08:50:41Z</time>
      </trkpt>
      <trkpt lat="49.7199" lon="1.02798">
        <ele>138.5</ele>
        <time>2011-08-25T08:50:47Z</time>
      </trkpt>
      <trkpt lat="49.7199" lon="1.028">
        <ele>138.5</ele>
        <time>2011-08-25T08:50:48Z</time>
      </trkpt>
      <trkpt lat="49.71989" lon="1.02825">
        <ele>140.1</ele>
        <time>2011-08-25T08:51:03Z</time>
      </trkpt>
      <trkpt lat="49.7199" lon="1.02838">
        <ele>140.1</ele>
        <time>2011-08-25T08:51:12Z</time>
      </trkpt>
      <trkpt lat="49.7199" lon="1.02851">
        <ele>140.1</ele>
        <time>2011-08-25T08:51:20Z</time>
      </trkpt>
      <trkpt lat="49.7199" lon="1.02864">
        <ele>140.5</ele>
        <time>2011-08-25T08:51:28Z</time>
      </trkpt>
      <trkpt lat="49.7199" lon="1.02878">
        <ele>140</ele>
        <time>2011-08-25T08:51:36Z</time>
      </trkpt>
      <trkpt lat="49.7199" lon="1.02891">
        <ele>140.3</ele>
        <time>2011-08-25T08:51:44Z</time>
      </trkpt>
      <trkpt lat="49.71991" lon="1.02905">
        <ele>140.3</ele>
        <time>2011-08-25T08:51:52Z</time>
      </trkpt>
      <trkpt lat="49.71991" lon="1.02906">
        <ele>140.3</ele>
        <time>2011-08-25T08:51:53Z</time>
      </trkpt>
      <trkpt lat="49.7199" lon="1.02931">
        <ele>141.1</ele>
        <time>2011-08-25T08:52:07Z</time>
      </trkpt>
      <trkpt lat="49.7199" lon="1.02943">
        <ele>142.1</ele>
        <time>2011-08-25T08:52:15Z</time>
      </trkpt>
      <trkpt lat="49.71996" lon="1.02953">
        <ele>142.3</ele>
        <time>2011-08-25T08:52:45Z</time>
      </trkpt>
      <trkpt lat="49.72004" lon="1.02955">
        <ele>142.8</ele>
        <time>2011-08-25T08:52:54Z</time>
      </trkpt>
      <trkpt lat="49.72006" lon="1.02955">
        <ele>142.6</ele>
        <time>2011-08-25T08:52:55Z</time>
      </trkpt>
      <trkpt lat="49.72019" lon="1.02961">
        <ele>141.3</ele>
        <time>2011-08-25T08:53:04Z</time>
      </trkpt>
      <trkpt lat="49.72027" lon="1.02963">
        <ele>140.6</ele>
        <time>2011-08-25T08:53:09Z</time>
      </trkpt>
      <trkpt lat="49.72034" lon="1.02966">
        <ele>139.8</ele>
        <time>2011-08-25T08:53:14Z</time>
      </trkpt>
      <trkpt lat="49.72043" lon="1.02969">
        <ele>138.3</ele>
        <time>2011-08-25T08:53:20Z</time>
      </trkpt>
      <trkpt lat="49.72051" lon="1.0297">
        <ele>137.6</ele>
        <time>2011-08-25T08:53:26Z</time>
      </trkpt>
      <trkpt lat="49.7206" lon="1.02972">
        <ele>137.1</ele>
        <time>2011-08-25T08:53:33Z</time>
      </trkpt>
      <trkpt lat="49.72069" lon="1.02973">
        <ele>137.1</ele>
        <time>2011-08-25T08:53:40Z</time>
      </trkpt>
      <trkpt lat="49.72077" lon="1.02976">
        <ele>137.1</ele>
        <time>2011-08-25T08:53:47Z</time>
      </trkpt>
      <trkpt lat="49.72085" lon="1.02979">
        <ele>137.5</ele>
        <time>2011-08-25T08:53:54Z</time>
      </trkpt>
      <trkpt lat="49.72093" lon="1.02981">
        <ele>137.6</ele>
        <time>2011-08-25T08:54:01Z</time>
      </trkpt>
      <trkpt lat="49.72094" lon="1.02982">
        <ele>137.5</ele>
        <time>2011-08-25T08:54:02Z</time>
      </trkpt>
      <trkpt lat="49.7211" lon="1.0299">
        <ele>137.6</ele>
        <time>2011-08-25T08:54:16Z</time>
      </trkpt>
      <trkpt lat="49.72118" lon="1.02993">
        <ele>137.5</ele>
        <time>2011-08-25T08:54:22Z</time>
      </trkpt>
      <trkpt lat="49.72125" lon="1.02997">
        <ele>137.1</ele>
        <time>2011-08-25T08:54:28Z</time>
      </trkpt>
      <trkpt lat="49.72133" lon="1.03001">
        <ele>137.3</ele>
        <time>2011-08-25T08:54:35Z</time>
      </trkpt>
      <trkpt lat="49.72142" lon="1.03002">
        <ele>136.8</ele>
        <time>2011-08-25T08:54:43Z</time>
      </trkpt>
      <trkpt lat="49.7215" lon="1.03003">
        <ele>136.8</ele>
        <time>2011-08-25T08:54:49Z</time>
      </trkpt>
      <trkpt lat="49.72159" lon="1.03003">
        <ele>137.6</ele>
        <time>2011-08-25T08:54:56Z</time>
      </trkpt>
      <trkpt lat="49.72167" lon="1.03001">
        <ele>137.8</ele>
        <time>2011-08-25T08:55:02Z</time>
      </trkpt>
      <trkpt lat="49.72168" lon="1.03">
        <ele>137.6</ele>
        <time>2011-08-25T08:55:03Z</time>
      </trkpt>
      <trkpt lat="49.72183" lon="1.02998">
        <ele>137.6</ele>
        <time>2011-08-25T08:55:16Z</time>
      </trkpt>
      <trkpt lat="49.72191" lon="1.02994">
        <ele>137.6</ele>
        <time>2011-08-25T08:55:22Z</time>
      </trkpt>
      <trkpt lat="49.72199" lon="1.02991">
        <ele>138.1</ele>
        <time>2011-08-25T08:55:28Z</time>
      </trkpt>
      <trkpt lat="49.72207" lon="1.02987">
        <ele>138</ele>
        <time>2011-08-25T08:55:35Z</time>
      </trkpt>
      <trkpt lat="49.72215" lon="1.02983">
        <ele>138.6</ele>
        <time>2011-08-25T08:55:44Z</time>
      </trkpt>
      <trkpt lat="49.72222" lon="1.02979">
        <ele>137.8</ele>
        <time>2011-08-25T08:55:50Z</time>
      </trkpt>
      <trkpt lat="49.7223" lon="1.02975">
        <ele>137.3</ele>
        <time>2011-08-25T08:55:56Z</time>
      </trkpt>
      <trkpt lat="49.72238" lon="1.02971">
        <ele>134.3</ele>
        <time>2011-08-25T09:02:26Z</time>
      </trkpt>
      <trkpt lat="49.72239" lon="1.02972">
        <ele>134.3</ele>
        <time>2011-08-25T09:02:27Z</time>
      </trkpt>
      <trkpt lat="49.72255" lon="1.02965">
        <ele>137</ele>
        <time>2011-08-25T09:02:42Z</time>
      </trkpt>
      <trkpt lat="49.72263" lon="1.02961">
        <ele>138</ele>
        <time>2011-08-25T09:02:49Z</time>
      </trkpt>
      <trkpt lat="49.72271" lon="1.02956">
        <ele>138.5</ele>
        <time>2011-08-25T09:02:56Z</time>
      </trkpt>
      <trkpt lat="49.72279" lon="1.02951">
        <ele>138.1</ele>
        <time>2011-08-25T09:03:05Z</time>
      </trkpt>
      <trkpt lat="49.72288" lon="1.02949">
        <ele>138.6</ele>
        <time>2011-08-25T09:03:13Z</time>
      </trkpt>
      <trkpt lat="49.72296" lon="1.02945">
        <ele>139.3</ele>
        <time>2011-08-25T09:03:21Z</time>
      </trkpt>
      <trkpt lat="49.72304" lon="1.02942">
        <ele>140</ele>
        <time>2011-08-25T09:03:28Z</time>
      </trkpt>
      <trkpt lat="49.72306" lon="1.02942">
        <ele>140.1</ele>
        <time>2011-08-25T09:03:29Z</time>
      </trkpt>
      <trkpt lat="49.72321" lon="1.02941">
        <ele>140.6</ele>
        <time>2011-08-25T09:03:41Z</time>
      </trkpt>
      <trkpt lat="49.7233" lon="1.0294">
        <ele>141</ele>
        <time>2011-08-25T09:03:48Z</time>
      </trkpt>
      <trkpt lat="49.72338" lon="1.02941">
        <ele>141.3</ele>
        <time>2011-08-25T09:03:54Z</time>
      </trkpt>
      <trkpt lat="49.72346" lon="1.0294">
        <ele>142.1</ele>
        <time>2011-08-25T09:04:01Z</time>
      </trkpt>
      <trkpt lat="49.72355" lon="1.02941">
        <ele>142.1</ele>
        <time>2011-08-25T09:04:08Z</time>
      </trkpt>
      <trkpt lat="49.72363" lon="1.0294">
        <ele>143.3</ele>
        <time>2011-08-25T09:04:14Z</time>
      </trkpt>
      <trkpt lat="49.72371" lon="1.02939">
        <ele>144.3</ele>
        <time>2011-08-25T09:04:20Z</time>
      </trkpt>
      <trkpt lat="49.72379" lon="1.02939">
        <ele>144.8</ele>
        <time>2011-08-25T09:04:26Z</time>
      </trkpt>
      <trkpt lat="49.72388" lon="1.02936">
        <ele>144.8</ele>
        <time>2011-08-25T09:04:33Z</time>
      </trkpt>
      <trkpt lat="49.72389" lon="1.02936">
        <ele>145</ele>
        <time>2011-08-25T09:04:34Z</time>
      </trkpt>
      <trkpt lat="49.72403" lon="1.02934">
        <ele>144.3</ele>
        <time>2011-08-25T09:04:45Z</time>
      </trkpt>
      <trkpt lat="49.72412" lon="1.02932">
        <ele>144.6</ele>
        <time>2011-08-25T09:04:52Z</time>
      </trkpt>
      <trkpt lat="49.7242" lon="1.0293">
        <ele>145.1</ele>
        <time>2011-08-25T09:04:59Z</time>
      </trkpt>
      <trkpt lat="49.72428" lon="1.02929">
        <ele>145.3</ele>
        <time>2011-08-25T09:05:05Z</time>
      </trkpt>
      <trkpt lat="49.72436" lon="1.02928">
        <ele>145.3</ele>
        <time>2011-08-25T09:05:11Z</time>
      </trkpt>
      <trkpt lat="49.72445" lon="1.02927">
        <ele>146</ele>
        <time>2011-08-25T09:05:18Z</time>
      </trkpt>
      <trkpt lat="49.72454" lon="1.02925">
        <ele>145.8</ele>
        <time>2011-08-25T09:05:25Z</time>
      </trkpt>
      <trkpt lat="49.72462" lon="1.02923">
        <ele>146.1</ele>
        <time>2011-08-25T09:05:31Z</time>
      </trkpt>
      <trkpt lat="49.7247" lon="1.02922">
        <ele>145.8</ele>
        <time>2011-08-25T09:05:37Z</time>
      </trkpt>
      <trkpt lat="49.72472" lon="1.02922">
        <ele>145.8</ele>
        <time>2011-08-25T09:05:38Z</time>
      </trkpt>
      <trkpt lat="49.72488" lon="1.02921">
        <ele>145.3</ele>
        <time>2011-08-25T09:05:52Z</time>
      </trkpt>
      <trkpt lat="49.72497" lon="1.02919">
        <ele>145</ele>
        <time>2011-08-25T09:05:58Z</time>
      </trkpt>
      <trkpt lat="49.72505" lon="1.02917">
        <ele>143.8</ele>
        <time>2011-08-25T09:06:05Z</time>
      </trkpt>
      <trkpt lat="49.72513" lon="1.02917">
        <ele>142.8</ele>
        <time>2011-08-25T09:06:12Z</time>
      </trkpt>
      <trkpt lat="49.72522" lon="1.02916">
        <ele>142.6</ele>
        <time>2011-08-25T09:06:23Z</time>
      </trkpt>
      <trkpt lat="49.72531" lon="1.02919">
        <ele>142.3</ele>
        <time>2011-08-25T09:06:31Z</time>
      </trkpt>
      <trkpt lat="49.72539" lon="1.02921">
        <ele>141.1</ele>
        <time>2011-08-25T09:06:37Z</time>
      </trkpt>
      <trkpt lat="49.72547" lon="1.02921">
        <ele>141.5</ele>
        <time>2011-08-25T09:06:44Z</time>
      </trkpt>
      <trkpt lat="49.72549" lon="1.02921">
        <ele>141.3</ele>
        <time>2011-08-25T09:06:45Z</time>
      </trkpt>
      <trkpt lat="49.72565" lon="1.02922">
        <ele>140.1</ele>
        <time>2011-08-25T09:06:57Z</time>
      </trkpt>
      <trkpt lat="49.72572" lon="1.02922">
        <ele>139.8</ele>
        <time>2011-08-25T09:07:03Z</time>
      </trkpt>
      <trkpt lat="49.72581" lon="1.02919">
        <ele>138.6</ele>
        <time>2011-08-25T09:07:11Z</time>
      </trkpt>
      <trkpt lat="49.72589" lon="1.02917">
        <ele>138</ele>
        <time>2011-08-25T09:07:19Z</time>
      </trkpt>
      <trkpt lat="49.72598" lon="1.02915">
        <ele>138.5</ele>
        <time>2011-08-25T09:07:26Z</time>
      </trkpt>
      <trkpt lat="49.72605" lon="1.02915">
        <ele>138.1</ele>
        <time>2011-08-25T09:07:31Z</time>
      </trkpt>
      <trkpt lat="49.72614" lon="1.02914">
        <ele>137.1</ele>
        <time>2011-08-25T09:07:37Z</time>
      </trkpt>
      <trkpt lat="49.72622" lon="1.02914">
        <ele>136.3</ele>
        <time>2011-08-25T09:07:43Z</time>
      </trkpt>
      <trkpt lat="49.7263" lon="1.02914">
        <ele>135.8</ele>
        <time>2011-08-25T09:07:48Z</time>
      </trkpt>
      <trkpt lat="49.72631" lon="1.02914">
        <ele>135.8</ele>
        <time>2011-08-25T09:07:49Z</time>
      </trkpt>
      <trkpt lat="49.72646" lon="1.02912">
        <ele>133.6</ele>
        <time>2011-08-25T09:08:00Z</time>
      </trkpt>
      <trkpt lat="49.72654" lon="1.02912">
        <ele>132.8</ele>
        <time>2011-08-25T09:08:06Z</time>
      </trkpt>
      <trkpt lat="49.72663" lon="1.02912">
        <ele>131.6</ele>
        <time>2011-08-25T09:08:13Z</time>
      </trkpt>
      <trkpt lat="49.72671" lon="1.02914">
        <ele>131.3</ele>
        <time>2011-08-25T09:08:19Z</time>
      </trkpt>
      <trkpt lat="49.7268" lon="1.02913">
        <ele>131.1</ele>
        <time>2011-08-25T09:08:26Z</time>
      </trkpt>
      <trkpt lat="49.72688" lon="1.02913">
        <ele>131.6</ele>
        <time>2011-08-25T09:08:33Z</time>
      </trkpt>
      <trkpt lat="49.72696" lon="1.02913">
        <ele>132</ele>
        <time>2011-08-25T09:08:44Z</time>
      </trkpt>
      <trkpt lat="49.72704" lon="1.02916">
        <ele>132.6</ele>
        <time>2011-08-25T09:08:50Z</time>
      </trkpt>
      <trkpt lat="49.72706" lon="1.02915">
        <ele>132.3</ele>
        <time>2011-08-25T09:08:51Z</time>
      </trkpt>
      <trkpt lat="49.7272" lon="1.02911">
        <ele>131.5</ele>
        <time>2011-08-25T09:09:01Z</time>
      </trkpt>
      <trkpt lat="49.72728" lon="1.02914">
        <ele>131.6</ele>
        <time>2011-08-25T09:09:07Z</time>
      </trkpt>
      <trkpt lat="49.72735" lon="1.02915">
        <ele>132</ele>
        <time>2011-08-25T09:09:14Z</time>
      </trkpt>
      <trkpt lat="49.72743" lon="1.02916">
        <ele>132.1</ele>
        <time>2011-08-25T09:09:20Z</time>
      </trkpt>
      <trkpt lat="49.72751" lon="1.02916">
        <ele>131.3</ele>
        <time>2011-08-25T09:09:26Z</time>
      </trkpt>
      <trkpt lat="49.72759" lon="1.02917">
        <ele>131.8</ele>
        <time>2011-08-25T09:09:33Z</time>
      </trkpt>
      <trkpt lat="49.72767" lon="1.02917">
        <ele>132</ele>
        <time>2011-08-25T09:09:39Z</time>
      </trkpt>
      <trkpt lat="49.72776" lon="1.02917">
        <ele>131.8</ele>
        <time>2011-08-25T09:09:46Z</time>
      </trkpt>
      <trkpt lat="49.72783" lon="1.02915">
        <ele>131.5</ele>
        <time>2011-08-25T09:09:52Z</time>
      </trkpt>
      <trkpt lat="49.72785" lon="1.02915">
        <ele>131.1</ele>
        <time>2011-08-25T09:09:53Z</time>
      </trkpt>
      <trkpt lat="49.72799" lon="1.02916">
        <ele>132.6</ele>
        <time>2011-08-25T09:10:04Z</time>
      </trkpt>
      <trkpt lat="49.72807" lon="1.02915">
        <ele>132</ele>
        <time>2011-08-25T09:10:10Z</time>
      </trkpt>
      <trkpt lat="49.72815" lon="1.02916">
        <ele>132.3</ele>
        <time>2011-08-25T09:10:16Z</time>
      </trkpt>
      <trkpt lat="49.72823" lon="1.02917">
        <ele>131.8</ele>
        <time>2011-08-25T09:10:22Z</time>
      </trkpt>
      <trkpt lat="49.72831" lon="1.02922">
        <ele>132.3</ele>
        <time>2011-08-25T09:10:28Z</time>
      </trkpt>
      <trkpt lat="49.72839" lon="1.02926">
        <ele>132.6</ele>
        <time>2011-08-25T09:10:34Z</time>
      </trkpt>
      <trkpt lat="49.72846" lon="1.02932">
        <ele>134.1</ele>
        <time>2011-08-25T09:10:40Z</time>
      </trkpt>
      <trkpt lat="49.72854" lon="1.02938">
        <ele>135.3</ele>
        <time>2011-08-25T09:10:47Z</time>
      </trkpt>
      <trkpt lat="49.72861" lon="1.02943">
        <ele>134.3</ele>
        <time>2011-08-25T09:10:53Z</time>
      </trkpt>
      <trkpt lat="49.72863" lon="1.02944">
        <ele>134.5</ele>
        <time>2011-08-25T09:10:54Z</time>
      </trkpt>
      <trkpt lat="49.72876" lon="1.02953">
        <ele>135.3</ele>
        <time>2011-08-25T09:11:05Z</time>
      </trkpt>
      <trkpt lat="49.72884" lon="1.02958">
        <ele>135.6</ele>
        <time>2011-08-25T09:11:11Z</time>
      </trkpt>
      <trkpt lat="49.72891" lon="1.02963">
        <ele>136.3</ele>
        <time>2011-08-25T09:11:17Z</time>
      </trkpt>
      <trkpt lat="49.72899" lon="1.02968">
        <ele>138.1</ele>
        <time>2011-08-25T09:11:24Z</time>
      </trkpt>
      <trkpt lat="49.72908" lon="1.02971">
        <ele>139.8</ele>
        <time>2011-08-25T09:11:34Z</time>
      </trkpt>
      <trkpt lat="49.72916" lon="1.02976">
        <ele>140</ele>
        <time>2011-08-25T09:11:41Z</time>
      </trkpt>
      <trkpt lat="49.72922" lon="1.02986">
        <ele>140</ele>
        <time>2011-08-25T09:11:48Z</time>
      </trkpt>
      <trkpt lat="49.72927" lon="1.02998">
        <ele>138.3</ele>
        <time>2011-08-25T09:11:54Z</time>
      </trkpt>
      <trkpt lat="49.72927" lon="1.03">
        <ele>138.3</ele>
        <time>2011-08-25T09:11:55Z</time>
      </trkpt>
      <trkpt lat="49.7293" lon="1.03023">
        <ele>138.6</ele>
        <time>2011-08-25T09:12:07Z</time>
      </trkpt>
      <trkpt lat="49.7293" lon="1.03035">
        <ele>137.5</ele>
        <time>2011-08-25T09:12:13Z</time>
      </trkpt>
      <trkpt lat="49.72931" lon="1.03048">
        <ele>137.1</ele>
        <time>2011-08-25T09:12:19Z</time>
      </trkpt>
      <trkpt lat="49.72931" lon="1.03061">
        <ele>136.8</ele>
        <time>2011-08-25T09:12:25Z</time>
      </trkpt>
      <trkpt lat="49.72932" lon="1.03074">
        <ele>136</ele>
        <time>2011-08-25T09:12:31Z</time>
      </trkpt>
      <trkpt lat="49.72932" lon="1.03086">
        <ele>135.8</ele>
        <time>2011-08-25T09:12:37Z</time>
      </trkpt>
      <trkpt lat="49.72932" lon="1.03099">
        <ele>135.8</ele>
        <time>2011-08-25T09:12:43Z</time>
      </trkpt>
      <trkpt lat="49.72933" lon="1.03112">
        <ele>135.6</ele>
        <time>2011-08-25T09:12:49Z</time>
      </trkpt>
      <trkpt lat="49.72933" lon="1.03124">
        <ele>136</ele>
        <time>2011-08-25T09:12:55Z</time>
      </trkpt>
      <trkpt lat="49.72934" lon="1.03126">
        <ele>136.1</ele>
        <time>2011-08-25T09:12:56Z</time>
      </trkpt>
      <trkpt lat="49.72934" lon="1.0315">
        <ele>136.6</ele>
        <time>2011-08-25T09:13:08Z</time>
      </trkpt>
      <trkpt lat="49.72935" lon="1.03162">
        <ele>137.1</ele>
        <time>2011-08-25T09:13:14Z</time>
      </trkpt>
      <trkpt lat="49.72935" lon="1.03174">
        <ele>138.1</ele>
        <time>2011-08-25T09:13:20Z</time>
      </trkpt>
      <trkpt lat="49.72936" lon="1.03186">
        <ele>139</ele>
        <time>2011-08-25T09:13:26Z</time>
      </trkpt>
      <trkpt lat="49.72937" lon="1.03199">
        <ele>139.5</ele>
        <time>2011-08-25T09:13:32Z</time>
      </trkpt>
      <trkpt lat="49.72939" lon="1.0321">
        <ele>138.5</ele>
        <time>2011-08-25T09:13:38Z</time>
      </trkpt>
      <trkpt lat="49.7294" lon="1.03223">
        <ele>137.8</ele>
        <time>2011-08-25T09:13:44Z</time>
      </trkpt>
      <trkpt lat="49.7294" lon="1.03237">
        <ele>137</ele>
        <time>2011-08-25T09:13:50Z</time>
      </trkpt>
      <trkpt lat="49.7294" lon="1.0325">
        <ele>136</ele>
        <time>2011-08-25T09:13:56Z</time>
      </trkpt>
      <trkpt lat="49.7294" lon="1.03251">
        <ele>136</ele>
        <time>2011-08-25T09:13:57Z</time>
      </trkpt>
      <trkpt lat="49.7294" lon="1.03274">
        <ele>136.1</ele>
        <time>2011-08-25T09:14:08Z</time>
      </trkpt>
      <trkpt lat="49.7294" lon="1.03287">
        <ele>136</ele>
        <time>2011-08-25T09:14:14Z</time>
      </trkpt>
      <trkpt lat="49.72941" lon="1.03299">
        <ele>136.1</ele>
        <time>2011-08-25T09:14:20Z</time>
      </trkpt>
      <trkpt lat="49.72941" lon="1.03312">
        <ele>135.5</ele>
        <time>2011-08-25T09:14:26Z</time>
      </trkpt>
      <trkpt lat="49.72942" lon="1.03324">
        <ele>134.8</ele>
        <time>2011-08-25T09:14:32Z</time>
      </trkpt>
      <trkpt lat="49.72943" lon="1.03337">
        <ele>136</ele>
        <time>2011-08-25T09:14:39Z</time>
      </trkpt>
      <trkpt lat="49.72943" lon="1.0335">
        <ele>135</ele>
        <time>2011-08-25T09:14:45Z</time>
      </trkpt>
      <trkpt lat="49.72942" lon="1.03362">
        <ele>134.5</ele>
        <time>2011-08-25T09:14:51Z</time>
      </trkpt>
      <trkpt lat="49.72943" lon="1.03375">
        <ele>134.3</ele>
        <time>2011-08-25T09:14:57Z</time>
      </trkpt>
      <trkpt lat="49.72943" lon="1.03377">
        <ele>134.6</ele>
        <time>2011-08-25T09:14:58Z</time>
      </trkpt>
      <trkpt lat="49.72944" lon="1.034">
        <ele>133.1</ele>
        <time>2011-08-25T09:15:09Z</time>
      </trkpt>
      <trkpt lat="49.72944" lon="1.03413">
        <ele>132.5</ele>
        <time>2011-08-25T09:15:15Z</time>
      </trkpt>
      <trkpt lat="49.72945" lon="1.03426">
        <ele>132.3</ele>
        <time>2011-08-25T09:15:22Z</time>
      </trkpt>
      <trkpt lat="49.72946" lon="1.03438">
        <ele>131.8</ele>
        <time>2011-08-25T09:15:28Z</time>
      </trkpt>
      <trkpt lat="49.72946" lon="1.03451">
        <ele>131.8</ele>
        <time>2011-08-25T09:15:34Z</time>
      </trkpt>
      <trkpt lat="49.72947" lon="1.03464">
        <ele>131.5</ele>
        <time>2011-08-25T09:15:40Z</time>
      </trkpt>
      <trkpt lat="49.72947" lon="1.03476">
        <ele>131</ele>
        <time>2011-08-25T09:15:46Z</time>
      </trkpt>
      <trkpt lat="49.72947" lon="1.03489">
        <ele>130.3</ele>
        <time>2011-08-25T09:15:52Z</time>
      </trkpt>
      <trkpt lat="49.72947" lon="1.03502">
        <ele>130.8</ele>
        <time>2011-08-25T09:15:59Z</time>
      </trkpt>
      <trkpt lat="49.72947" lon="1.03504">
        <ele>130.8</ele>
        <time>2011-08-25T09:16:00Z</time>
      </trkpt>
      <trkpt lat="49.72947" lon="1.03527">
        <ele>129.5</ele>
        <time>2011-08-25T09:16:12Z</time>
      </trkpt>
      <trkpt lat="49.72947" lon="1.0354">
        <ele>128.6</ele>
        <time>2011-08-25T09:16:18Z</time>
      </trkpt>
      <trkpt lat="49.72947" lon="1.03553">
        <ele>128.5</ele>
        <time>2011-08-25T09:16:25Z</time>
      </trkpt>
      <trkpt lat="49.72947" lon="1.03566">
        <ele>127.9</ele>
        <time>2011-08-25T09:16:31Z</time>
      </trkpt>
      <trkpt lat="49.72946" lon="1.03578">
        <ele>127.5</ele>
        <time>2011-08-25T09:16:37Z</time>
      </trkpt>
      <trkpt lat="49.72946" lon="1.0359">
        <ele>126.5</ele>
        <time>2011-08-25T09:16:43Z</time>
      </trkpt>
      <trkpt lat="49.72945" lon="1.03603">
        <ele>126</ele>
        <time>2011-08-25T09:16:49Z</time>
      </trkpt>
      <trkpt lat="49.72945" lon="1.03616">
        <ele>125.4</ele>
        <time>2011-08-25T09:16:55Z</time>
      </trkpt>
      <trkpt lat="49.72944" lon="1.03629">
        <ele>125.3</ele>
        <time>2011-08-25T09:17:01Z</time>
      </trkpt>
      <trkpt lat="49.72944" lon="1.03631">
        <ele>125</ele>
        <time>2011-08-25T09:17:02Z</time>
      </trkpt>
      <trkpt lat="49.72943" lon="1.03656">
        <ele>124.5</ele>
        <time>2011-08-25T09:17:15Z</time>
      </trkpt>
      <trkpt lat="49.72942" lon="1.03668">
        <ele>123.9</ele>
        <time>2011-08-25T09:17:21Z</time>
      </trkpt>
      <trkpt lat="49.7294" lon="1.03681">
        <ele>124.3</ele>
        <time>2011-08-25T09:17:28Z</time>
      </trkpt>
      <trkpt lat="49.72938" lon="1.03694">
        <ele>124.5</ele>
        <time>2011-08-25T09:17:37Z</time>
      </trkpt>
      <trkpt lat="49.72938" lon="1.03707">
        <ele>126.5</ele>
        <time>2011-08-25T09:17:49Z</time>
      </trkpt>
      <trkpt lat="49.72936" lon="1.03719">
        <ele>126.4</ele>
        <time>2011-08-25T09:17:56Z</time>
      </trkpt>
      <trkpt lat="49.72936" lon="1.03732">
        <ele>127</ele>
        <time>2011-08-25T09:18:03Z</time>
      </trkpt>
      <trkpt lat="49.72936" lon="1.03734">
        <ele>126.9</ele>
        <time>2011-08-25T09:18:04Z</time>
      </trkpt>
      <trkpt lat="49.72933" lon="1.03757">
        <ele>126.8</ele>
        <time>2011-08-25T09:18:16Z</time>
      </trkpt>
      <trkpt lat="49.72932" lon="1.03769">
        <ele>127</ele>
        <time>2011-08-25T09:18:22Z</time>
      </trkpt>
      <trkpt lat="49.72929" lon="1.03782">
        <ele>126.8</ele>
        <time>2011-08-25T09:18:30Z</time>
      </trkpt>
      <trkpt lat="49.72928" lon="1.03794">
        <ele>126.5</ele>
        <time>2011-08-25T09:18:36Z</time>
      </trkpt>
      <trkpt lat="49.72927" lon="1.03807">
        <ele>126.9</ele>
        <time>2011-08-25T09:18:42Z</time>
      </trkpt>
      <trkpt lat="49.72924" lon="1.03819">
        <ele>127.3</ele>
        <time>2011-08-25T09:18:48Z</time>
      </trkpt>
      <trkpt lat="49.72923" lon="1.03832">
        <ele>127</ele>
        <time>2011-08-25T09:18:54Z</time>
      </trkpt>
      <trkpt lat="49.7292" lon="1.03843">
        <ele>128</ele>
        <time>2011-08-25T09:19:00Z</time>
      </trkpt>
      <trkpt lat="49.72919" lon="1.03856">
        <ele>127.6</ele>
        <time>2011-08-25T09:19:06Z</time>
      </trkpt>
      <trkpt lat="49.72918" lon="1.03857">
        <ele>127.5</ele>
        <time>2011-08-25T09:19:07Z</time>
      </trkpt>
      <trkpt lat="49.72914" lon="1.03879">
        <ele>127.8</ele>
        <time>2011-08-25T09:19:18Z</time>
      </trkpt>
      <trkpt lat="49.72911" lon="1.03891">
        <ele>128.6</ele>
        <time>2011-08-25T09:19:24Z</time>
      </trkpt>
      <trkpt lat="49.72907" lon="1.03904">
        <ele>128.8</ele>
        <time>2011-08-25T09:19:30Z</time>
      </trkpt>
      <trkpt lat="49.72905" lon="1.03915">
        <ele>127.8</ele>
        <time>2011-08-25T09:19:36Z</time>
      </trkpt>
      <trkpt lat="49.72902" lon="1.03928">
        <ele>127.4</ele>
        <time>2011-08-25T09:19:43Z</time>
      </trkpt>
      <trkpt lat="49.72899" lon="1.0394">
        <ele>127.5</ele>
        <time>2011-08-25T09:19:49Z</time>
      </trkpt>
      <trkpt lat="49.72896" lon="1.03953">
        <ele>128.5</ele>
        <time>2011-08-25T09:19:56Z</time>
      </trkpt>
      <trkpt lat="49.72892" lon="1.03964">
        <ele>128.6</ele>
        <time>2011-08-25T09:20:02Z</time>
      </trkpt>
      <trkpt lat="49.72888" lon="1.03976">
        <ele>127.9</ele>
        <time>2011-08-25T09:20:08Z</time>
      </trkpt>
      <trkpt lat="49.72887" lon="1.03978">
        <ele>128.1</ele>
        <time>2011-08-25T09:20:09Z</time>
      </trkpt>
      <trkpt lat="49.72882" lon="1.04">
        <ele>128.1</ele>
        <time>2011-08-25T09:20:20Z</time>
      </trkpt>
      <trkpt lat="49.72879" lon="1.04011">
        <ele>129.6</ele>
        <time>2011-08-25T09:20:26Z</time>
      </trkpt>
      <trkpt lat="49.72876" lon="1.04023">
        <ele>128.3</ele>
        <time>2011-08-25T09:20:32Z</time>
      </trkpt>
      <trkpt lat="49.72874" lon="1.04035">
        <ele>128.6</ele>
        <time>2011-08-25T09:20:38Z</time>
      </trkpt>
      <trkpt lat="49.72871" lon="1.04047">
        <ele>128.8</ele>
        <time>2011-08-25T09:20:44Z</time>
      </trkpt>
      <trkpt lat="49.72868" lon="1.04059">
        <ele>128.3</ele>
        <time>2011-08-25T09:20:51Z</time>
      </trkpt>
      <trkpt lat="49.72865" lon="1.0407">
        <ele>127.8</ele>
        <time>2011-08-25T09:20:57Z</time>
      </trkpt>
      <trkpt lat="49.72862" lon="1.04082">
        <ele>126.1</ele>
        <time>2011-08-25T09:21:03Z</time>
      </trkpt>
      <trkpt lat="49.72859" lon="1.04095">
        <ele>126.1</ele>
        <time>2011-08-25T09:21:09Z</time>
      </trkpt>
      <trkpt lat="49.72858" lon="1.04097">
        <ele>125.6</ele>
        <time>2011-08-25T09:21:10Z</time>
      </trkpt>
      <trkpt lat="49.72853" lon="1.04117">
        <ele>125.4</ele>
        <time>2011-08-25T09:21:21Z</time>
      </trkpt>
      <trkpt lat="49.72849" lon="1.0413">
        <ele>126.5</ele>
        <time>2011-08-25T09:21:27Z</time>
      </trkpt>
      <trkpt lat="49.72845" lon="1.04141">
        <ele>127.5</ele>
        <time>2011-08-25T09:21:33Z</time>
      </trkpt>
      <trkpt lat="49.72842" lon="1.04152">
        <ele>128.3</ele>
        <time>2011-08-25T09:21:39Z</time>
      </trkpt>
      <trkpt lat="49.72838" lon="1.04165">
        <ele>128.3</ele>
        <time>2011-08-25T09:21:46Z</time>
      </trkpt>
      <trkpt lat="49.72835" lon="1.04176">
        <ele>128.6</ele>
        <time>2011-08-25T09:21:52Z</time>
      </trkpt>
      <trkpt lat="49.72831" lon="1.04187">
        <ele>128.6</ele>
        <time>2011-08-25T09:21:58Z</time>
      </trkpt>
      <trkpt lat="49.72828" lon="1.04198">
        <ele>129.1</ele>
        <time>2011-08-25T09:22:04Z</time>
      </trkpt>
      <trkpt lat="49.72825" lon="1.04211">
        <ele>127.8</ele>
        <time>2011-08-25T09:22:10Z</time>
      </trkpt>
      <trkpt lat="49.72824" lon="1.04212">
        <ele>127.5</ele>
        <time>2011-08-25T09:22:11Z</time>
      </trkpt>
      <trkpt lat="49.72816" lon="1.04234">
        <ele>125.1</ele>
        <time>2011-08-25T09:22:26Z</time>
      </trkpt>
      <trkpt lat="49.72812" lon="1.04245">
        <ele>125.9</ele>
        <time>2011-08-25T09:22:32Z</time>
      </trkpt>
      <trkpt lat="49.72809" lon="1.04256">
        <ele>125.9</ele>
        <time>2011-08-25T09:22:38Z</time>
      </trkpt>
      <trkpt lat="49.72805" lon="1.04268">
        <ele>125.4</ele>
        <time>2011-08-25T09:22:45Z</time>
      </trkpt>
      <trkpt lat="49.72801" lon="1.04279">
        <ele>125.8</ele>
        <time>2011-08-25T09:22:51Z</time>
      </trkpt>
      <trkpt lat="49.72798" lon="1.0429">
        <ele>125.5</ele>
        <time>2011-08-25T09:22:57Z</time>
      </trkpt>
      <trkpt lat="49.72794" lon="1.04302">
        <ele>125.1</ele>
        <time>2011-08-25T09:23:04Z</time>
      </trkpt>
      <trkpt lat="49.7279" lon="1.04312">
        <ele>125.1</ele>
        <time>2011-08-25T09:23:10Z</time>
      </trkpt>
      <trkpt lat="49.72786" lon="1.04324">
        <ele>125.4</ele>
        <time>2011-08-25T09:23:17Z</time>
      </trkpt>
      <trkpt lat="49.72785" lon="1.04326">
        <ele>125.5</ele>
        <time>2011-08-25T09:23:18Z</time>
      </trkpt>
      <trkpt lat="49.72777" lon="1.04347">
        <ele>123.5</ele>
        <time>2011-08-25T09:23:31Z</time>
      </trkpt>
      <trkpt lat="49.72773" lon="1.04358">
        <ele>123.5</ele>
        <time>2011-08-25T09:23:38Z</time>
      </trkpt>
      <trkpt lat="49.72768" lon="1.0437">
        <ele>124</ele>
        <time>2011-08-25T09:23:45Z</time>
      </trkpt>
      <trkpt lat="49.72764" lon="1.04382">
        <ele>124.5</ele>
        <time>2011-08-25T09:23:51Z</time>
      </trkpt>
      <trkpt lat="49.7276" lon="1.04392">
        <ele>123.1</ele>
        <time>2011-08-25T09:23:57Z</time>
      </trkpt>
      <trkpt lat="49.72757" lon="1.04404">
        <ele>122.5</ele>
        <time>2011-08-25T09:24:03Z</time>
      </trkpt>
      <trkpt lat="49.72753" lon="1.04415">
        <ele>122.5</ele>
        <time>2011-08-25T09:24:09Z</time>
      </trkpt>
      <trkpt lat="49.72749" lon="1.04426">
        <ele>121.8</ele>
        <time>2011-08-25T09:24:15Z</time>
      </trkpt>
      <trkpt lat="49.72745" lon="1.04438">
        <ele>121.3</ele>
        <time>2011-08-25T09:24:22Z</time>
      </trkpt>
      <trkpt lat="49.72745" lon="1.0444">
        <ele>121.1</ele>
        <time>2011-08-25T09:24:23Z</time>
      </trkpt>
      <trkpt lat="49.72737" lon="1.0446">
        <ele>119.9</ele>
        <time>2011-08-25T09:24:34Z</time>
      </trkpt>
      <trkpt lat="49.72733" lon="1.04472">
        <ele>118.6</ele>
        <time>2011-08-25T09:24:41Z</time>
      </trkpt>
      <trkpt lat="49.72728" lon="1.04481">
        <ele>118</ele>
        <time>2011-08-25T09:24:47Z</time>
      </trkpt>
      <trkpt lat="49.72724" lon="1.04492">
        <ele>118</ele>
        <time>2011-08-25T09:24:53Z</time>
      </trkpt>
      <trkpt lat="49.7272" lon="1.04504">
        <ele>116.5</ele>
        <time>2011-08-25T09:25:00Z</time>
      </trkpt>
      <trkpt lat="49.72716" lon="1.04516">
        <ele>115.9</ele>
        <time>2011-08-25T09:25:07Z</time>
      </trkpt>
      <trkpt lat="49.72713" lon="1.04528">
        <ele>115</ele>
        <time>2011-08-25T09:25:13Z</time>
      </trkpt>
      <trkpt lat="49.72709" lon="1.04538">
        <ele>114.4</ele>
        <time>2011-08-25T09:25:19Z</time>
      </trkpt>
      <trkpt lat="49.72705" lon="1.0455">
        <ele>114.3</ele>
        <time>2011-08-25T09:25:26Z</time>
      </trkpt>
      <trkpt lat="49.72704" lon="1.04552">
        <ele>114.4</ele>
        <time>2011-08-25T09:25:27Z</time>
      </trkpt>
      <trkpt lat="49.72697" lon="1.04573">
        <ele>115.5</ele>
        <time>2011-08-25T09:25:39Z</time>
      </trkpt>
      <trkpt lat="49.72692" lon="1.04585">
        <ele>115.6</ele>
        <time>2011-08-25T09:25:46Z</time>
      </trkpt>
      <trkpt lat="49.72688" lon="1.04596">
        <ele>115.3</ele>
        <time>2011-08-25T09:25:53Z</time>
      </trkpt>
      <trkpt lat="49.72683" lon="1.04606">
        <ele>116</ele>
        <time>2011-08-25T09:26:00Z</time>
      </trkpt>
      <trkpt lat="49.72679" lon="1.04616">
        <ele>115.1</ele>
        <time>2011-08-25T09:26:07Z</time>
      </trkpt>
      <trkpt lat="49.72673" lon="1.04627">
        <ele>115.5</ele>
        <time>2011-08-25T09:26:14Z</time>
      </trkpt>
      <trkpt lat="49.72667" lon="1.04636">
        <ele>115.9</ele>
        <time>2011-08-25T09:26:20Z</time>
      </trkpt>
      <trkpt lat="49.72662" lon="1.04647">
        <ele>115.5</ele>
        <time>2011-08-25T09:26:27Z</time>
      </trkpt>
      <trkpt lat="49.72661" lon="1.04648">
        <ele>115.9</ele>
        <time>2011-08-25T09:26:28Z</time>
      </trkpt>
      <trkpt lat="49.72652" lon="1.04667">
        <ele>116.8</ele>
        <time>2011-08-25T09:26:39Z</time>
      </trkpt>
      <trkpt lat="49.72647" lon="1.04676">
        <ele>116.5</ele>
        <time>2011-08-25T09:26:45Z</time>
      </trkpt>
      <trkpt lat="49.72642" lon="1.04686">
        <ele>116.5</ele>
        <time>2011-08-25T09:26:51Z</time>
      </trkpt>
      <trkpt lat="49.72638" lon="1.04697">
        <ele>117.6</ele>
        <time>2011-08-25T09:26:58Z</time>
      </trkpt>
      <trkpt lat="49.72632" lon="1.04707">
        <ele>118</ele>
        <time>2011-08-25T09:27:05Z</time>
      </trkpt>
      <trkpt lat="49.72627" lon="1.04717">
        <ele>118.4</ele>
        <time>2011-08-25T09:27:12Z</time>
      </trkpt>
      <trkpt lat="49.7262" lon="1.04726">
        <ele>118.6</ele>
        <time>2011-08-25T09:27:19Z</time>
      </trkpt>
      <trkpt lat="49.72615" lon="1.04735">
        <ele>118.9</ele>
        <time>2011-08-25T09:27:25Z</time>
      </trkpt>
      <trkpt lat="49.72611" lon="1.04747">
        <ele>118</ele>
        <time>2011-08-25T09:27:32Z</time>
      </trkpt>
      <trkpt lat="49.7261" lon="1.04749">
        <ele>118.4</ele>
        <time>2011-08-25T09:27:33Z</time>
      </trkpt>
      <trkpt lat="49.72602" lon="1.04771">
        <ele>120.5</ele>
        <time>2011-08-25T09:27:46Z</time>
      </trkpt>
      <trkpt lat="49.72598" lon="1.04782">
        <ele>119.9</ele>
        <time>2011-08-25T09:27:53Z</time>
      </trkpt>
      <trkpt lat="49.72594" lon="1.04793">
        <ele>120</ele>
        <time>2011-08-25T09:27:59Z</time>
      </trkpt>
      <trkpt lat="49.72589" lon="1.04804">
        <ele>120</ele>
        <time>2011-08-25T09:28:06Z</time>
      </trkpt>
      <trkpt lat="49.72585" lon="1.04816">
        <ele>120</ele>
        <time>2011-08-25T09:28:13Z</time>
      </trkpt>
      <trkpt lat="49.72587" lon="1.04802">
        <ele>123</ele>
        <time>2011-08-25T09:37:01Z</time>
      </trkpt>
      <trkpt lat="49.72587" lon="1.04801">
        <ele>122.8</ele>
        <time>2011-08-25T09:37:02Z</time>
      </trkpt>
      <trkpt lat="49.72595" lon="1.04781">
        <ele>122.5</ele>
        <time>2011-08-25T09:37:18Z</time>
      </trkpt>
      <trkpt lat="49.72599" lon="1.04771">
        <ele>122.5</ele>
        <time>2011-08-25T09:37:23Z</time>
      </trkpt>
      <trkpt lat="49.72603" lon="1.0476">
        <ele>122.3</ele>
        <time>2011-08-25T09:37:29Z</time>
      </trkpt>
      <trkpt lat="49.72607" lon="1.04749">
        <ele>123</ele>
        <time>2011-08-25T09:37:35Z</time>
      </trkpt>
      <trkpt lat="49.72612" lon="1.04738">
        <ele>123.5</ele>
        <time>2011-08-25T09:37:41Z</time>
      </trkpt>
      <trkpt lat="49.72615" lon="1.04725">
        <ele>123.3</ele>
        <time>2011-08-25T09:37:47Z</time>
      </trkpt>
      <trkpt lat="49.72621" lon="1.04715">
        <ele>122.6</ele>
        <time>2011-08-25T09:37:57Z</time>
      </trkpt>
      <trkpt lat="49.72628" lon="1.04707">
        <ele>124</ele>
        <time>2011-08-25T09:38:02Z</time>
      </trkpt>
      <trkpt lat="49.72629" lon="1.04706">
        <ele>123.6</ele>
        <time>2011-08-25T09:38:03Z</time>
      </trkpt>
      <trkpt lat="49.72638" lon="1.04688">
        <ele>121.4</ele>
        <time>2011-08-25T09:38:14Z</time>
      </trkpt>
      <trkpt lat="49.72644" lon="1.04677">
        <ele>119.6</ele>
        <time>2011-08-25T09:38:20Z</time>
      </trkpt>
      <trkpt lat="49.7265" lon="1.04668">
        <ele>119.1</ele>
        <time>2011-08-25T09:38:26Z</time>
      </trkpt>
      <trkpt lat="49.72655" lon="1.04657">
        <ele>119.5</ele>
        <time>2011-08-25T09:38:32Z</time>
      </trkpt>
      <trkpt lat="49.72661" lon="1.04647">
        <ele>119.1</ele>
        <time>2011-08-25T09:38:37Z</time>
      </trkpt>
      <trkpt lat="49.72665" lon="1.04636">
        <ele>118.5</ele>
        <time>2011-08-25T09:38:48Z</time>
      </trkpt>
      <trkpt lat="49.7267" lon="1.04626">
        <ele>118</ele>
        <time>2011-08-25T09:38:54Z</time>
      </trkpt>
      <trkpt lat="49.72675" lon="1.04617">
        <ele>118.3</ele>
        <time>2011-08-25T09:39:00Z</time>
      </trkpt>
      <trkpt lat="49.7268" lon="1.04607">
        <ele>117.8</ele>
        <time>2011-08-25T09:39:06Z</time>
      </trkpt>
      <trkpt lat="49.72681" lon="1.04605">
        <ele>117.5</ele>
        <time>2011-08-25T09:39:07Z</time>
      </trkpt>
      <trkpt lat="49.72691" lon="1.04586">
        <ele>117.4</ele>
        <time>2011-08-25T09:39:19Z</time>
      </trkpt>
      <trkpt lat="49.72696" lon="1.04576">
        <ele>117.4</ele>
        <time>2011-08-25T09:39:25Z</time>
      </trkpt>
      <trkpt lat="49.727" lon="1.04564">
        <ele>117.4</ele>
        <time>2011-08-25T09:39:31Z</time>
      </trkpt>
      <trkpt lat="49.72705" lon="1.04555">
        <ele>116.8</ele>
        <time>2011-08-25T09:39:36Z</time>
      </trkpt>
      <trkpt lat="49.7271" lon="1.04546">
        <ele>116.9</ele>
        <time>2011-08-25T09:39:42Z</time>
      </trkpt>
      <trkpt lat="49.72715" lon="1.04534">
        <ele>115.6</ele>
        <time>2011-08-25T09:39:48Z</time>
      </trkpt>
      <trkpt lat="49.72719" lon="1.04523">
        <ele>113.5</ele>
        <time>2011-08-25T09:39:54Z</time>
      </trkpt>
      <trkpt lat="49.72723" lon="1.04512">
        <ele>110.5</ele>
        <time>2011-08-25T09:40:00Z</time>
      </trkpt>
      <trkpt lat="49.72727" lon="1.04502">
        <ele>109.5</ele>
        <time>2011-08-25T09:40:05Z</time>
      </trkpt>
      <trkpt lat="49.72731" lon="1.04491">
        <ele>108.4</ele>
        <time>2011-08-25T09:40:10Z</time>
      </trkpt>
      <trkpt lat="49.72732" lon="1.04489">
        <ele>108.1</ele>
        <time>2011-08-25T09:40:11Z</time>
      </trkpt>
      <trkpt lat="49.72738" lon="1.04469">
        <ele>108.1</ele>
        <time>2011-08-25T09:40:21Z</time>
      </trkpt>
      <trkpt lat="49.72741" lon="1.04456">
        <ele>107.4</ele>
        <time>2011-08-25T09:40:27Z</time>
      </trkpt>
      <trkpt lat="49.72744" lon="1.04444">
        <ele>107</ele>
        <time>2011-08-25T09:40:33Z</time>
      </trkpt>
      <trkpt lat="49.72747" lon="1.04433">
        <ele>106.4</ele>
        <time>2011-08-25T09:40:38Z</time>
      </trkpt>
      <trkpt lat="49.7275" lon="1.04423">
        <ele>106.3</ele>
        <time>2011-08-25T09:40:43Z</time>
      </trkpt>
      <trkpt lat="49.72754" lon="1.04411">
        <ele>107.6</ele>
        <time>2011-08-25T09:40:49Z</time>
      </trkpt>
      <trkpt lat="49.72759" lon="1.044">
        <ele>108</ele>
        <time>2011-08-25T09:40:55Z</time>
      </trkpt>
      <trkpt lat="49.72763" lon="1.04389">
        <ele>108.6</ele>
        <time>2011-08-25T09:41:01Z</time>
      </trkpt>
      <trkpt lat="49.72766" lon="1.04377">
        <ele>109.1</ele>
        <time>2011-08-25T09:41:07Z</time>
      </trkpt>
      <trkpt lat="49.7277" lon="1.04367">
        <ele>109.6</ele>
        <time>2011-08-25T09:41:13Z</time>
      </trkpt>
      <trkpt lat="49.72771" lon="1.04365">
        <ele>109.9</ele>
        <time>2011-08-25T09:41:14Z</time>
      </trkpt>
      <trkpt lat="49.72779" lon="1.04343">
        <ele>109.5</ele>
        <time>2011-08-25T09:41:26Z</time>
      </trkpt>
      <trkpt lat="49.72783" lon="1.04332">
        <ele>109.5</ele>
        <time>2011-08-25T09:41:32Z</time>
      </trkpt>
      <trkpt lat="49.72787" lon="1.04322">
        <ele>110</ele>
        <time>2011-08-25T09:41:38Z</time>
      </trkpt>
      <trkpt lat="49.72791" lon="1.0431">
        <ele>111</ele>
        <time>2011-08-25T09:41:45Z</time>
      </trkpt>
      <trkpt lat="49.72795" lon="1.04298">
        <ele>111.1</ele>
        <time>2011-08-25T09:41:52Z</time>
      </trkpt>
      <trkpt lat="49.72799" lon="1.04287">
        <ele>111.1</ele>
        <time>2011-08-25T09:41:58Z</time>
      </trkpt>
      <trkpt lat="49.72802" lon="1.04276">
        <ele>111.1</ele>
        <time>2011-08-25T09:42:04Z</time>
      </trkpt>
      <trkpt lat="49.72806" lon="1.04264">
        <ele>111.9</ele>
        <time>2011-08-25T09:42:10Z</time>
      </trkpt>
      <trkpt lat="49.7281" lon="1.04254">
        <ele>112.5</ele>
        <time>2011-08-25T09:42:16Z</time>
      </trkpt>
      <trkpt lat="49.72811" lon="1.04252">
        <ele>112.6</ele>
        <time>2011-08-25T09:42:17Z</time>
      </trkpt>
      <trkpt lat="49.72819" lon="1.04231">
        <ele>114.3</ele>
        <time>2011-08-25T09:42:29Z</time>
      </trkpt>
      <trkpt lat="49.72823" lon="1.0422">
        <ele>114.3</ele>
        <time>2011-08-25T09:42:35Z</time>
      </trkpt>
      <trkpt lat="49.72826" lon="1.04209">
        <ele>113.9</ele>
        <time>2011-08-25T09:42:40Z</time>
      </trkpt>
      <trkpt lat="49.7283" lon="1.04196">
        <ele>113.8</ele>
        <time>2011-08-25T09:42:46Z</time>
      </trkpt>
      <trkpt lat="49.72833" lon="1.04184">
        <ele>113.3</ele>
        <time>2011-08-25T09:42:52Z</time>
      </trkpt>
      <trkpt lat="49.72837" lon="1.04173">
        <ele>113.5</ele>
        <time>2011-08-25T09:42:58Z</time>
      </trkpt>
      <trkpt lat="49.72841" lon="1.04162">
        <ele>113.3</ele>
        <time>2011-08-25T09:43:04Z</time>
      </trkpt>
      <trkpt lat="49.72844" lon="1.0415">
        <ele>114.1</ele>
        <time>2011-08-25T09:43:10Z</time>
      </trkpt>
      <trkpt lat="49.72848" lon="1.04138">
        <ele>114.4</ele>
        <time>2011-08-25T09:43:16Z</time>
      </trkpt>
      <trkpt lat="49.72851" lon="1.04126">
        <ele>115.5</ele>
        <time>2011-08-25T09:43:22Z</time>
      </trkpt>
      <trkpt lat="49.72852" lon="1.04125">
        <ele>115.8</ele>
        <time>2011-08-25T09:43:23Z</time>
      </trkpt>
      <trkpt lat="49.72858" lon="1.04103">
        <ele>117</ele>
        <time>2011-08-25T09:43:34Z</time>
      </trkpt>
      <trkpt lat="49.7286" lon="1.0409">
        <ele>117.9</ele>
        <time>2011-08-25T09:43:41Z</time>
      </trkpt>
      <trkpt lat="49.72863" lon="1.04079">
        <ele>117.6</ele>
        <time>2011-08-25T09:43:47Z</time>
      </trkpt>
      <trkpt lat="49.72865" lon="1.04067">
        <ele>117.4</ele>
        <time>2011-08-25T09:43:53Z</time>
      </trkpt>
      <trkpt lat="49.72868" lon="1.04056">
        <ele>117.4</ele>
        <time>2011-08-25T09:43:59Z</time>
      </trkpt>
      <trkpt lat="49.72871" lon="1.04045">
        <ele>117</ele>
        <time>2011-08-25T09:44:04Z</time>
      </trkpt>
      <trkpt lat="49.72874" lon="1.04034">
        <ele>117</ele>
        <time>2011-08-25T09:44:10Z</time>
      </trkpt>
      <trkpt lat="49.72877" lon="1.04023">
        <ele>117</ele>
        <time>2011-08-25T09:44:15Z</time>
      </trkpt>
      <trkpt lat="49.72882" lon="1.04011">
        <ele>116.4</ele>
        <time>2011-08-25T09:44:21Z</time>
      </trkpt>
      <trkpt lat="49.72885" lon="1.04001">
        <ele>116.1</ele>
        <time>2011-08-25T09:44:26Z</time>
      </trkpt>
      <trkpt lat="49.72885" lon="1.03999">
        <ele>116.1</ele>
        <time>2011-08-25T09:44:27Z</time>
      </trkpt>
      <trkpt lat="49.72891" lon="1.03976">
        <ele>115.9</ele>
        <time>2011-08-25T09:44:38Z</time>
      </trkpt>
      <trkpt lat="49.72894" lon="1.03963">
        <ele>116.5</ele>
        <time>2011-08-25T09:44:45Z</time>
      </trkpt>
      <trkpt lat="49.72897" lon="1.03951">
        <ele>117.3</ele>
        <time>2011-08-25T09:44:51Z</time>
      </trkpt>
      <trkpt lat="49.72899" lon="1.0394">
        <ele>117.5</ele>
        <time>2011-08-25T09:44:57Z</time>
      </trkpt>
      <trkpt lat="49.72902" lon="1.03929">
        <ele>118</ele>
        <time>2011-08-25T09:45:02Z</time>
      </trkpt>
      <trkpt lat="49.72904" lon="1.03915">
        <ele>118.1</ele>
        <time>2011-08-25T09:45:08Z</time>
      </trkpt>
      <trkpt lat="49.72906" lon="1.03904">
        <ele>118.8</ele>
        <time>2011-08-25T09:45:14Z</time>
      </trkpt>
      <trkpt lat="49.72909" lon="1.03892">
        <ele>119.5</ele>
        <time>2011-08-25T09:45:19Z</time>
      </trkpt>
      <trkpt lat="49.72912" lon="1.0388">
        <ele>120</ele>
        <time>2011-08-25T09:45:24Z</time>
      </trkpt>
      <trkpt lat="49.72915" lon="1.03868">
        <ele>119.8</ele>
        <time>2011-08-25T09:45:30Z</time>
      </trkpt>
      <trkpt lat="49.72915" lon="1.03866">
        <ele>119.6</ele>
        <time>2011-08-25T09:45:31Z</time>
      </trkpt>
      <trkpt lat="49.72919" lon="1.03845">
        <ele>118.5</ele>
        <time>2011-08-25T09:45:41Z</time>
      </trkpt>
      <trkpt lat="49.72921" lon="1.03833">
        <ele>118.5</ele>
        <time>2011-08-25T09:45:46Z</time>
      </trkpt>
      <trkpt lat="49.72924" lon="1.03822">
        <ele>118.4</ele>
        <time>2011-08-25T09:45:52Z</time>
      </trkpt>
      <trkpt lat="49.72927" lon="1.03809">
        <ele>118.5</ele>
        <time>2011-08-25T09:45:58Z</time>
      </trkpt>
      <trkpt lat="49.72928" lon="1.03797">
        <ele>118.6</ele>
        <time>2011-08-25T09:46:04Z</time>
      </trkpt>
      <trkpt lat="49.7293" lon="1.03784">
        <ele>118.6</ele>
        <time>2011-08-25T09:46:10Z</time>
      </trkpt>
      <trkpt lat="49.72931" lon="1.03771">
        <ele>118.5</ele>
        <time>2011-08-25T09:46:16Z</time>
      </trkpt>
      <trkpt lat="49.72933" lon="1.03758">
        <ele>118.5</ele>
        <time>2011-08-25T09:46:22Z</time>
      </trkpt>
      <trkpt lat="49.72935" lon="1.03746">
        <ele>117.9</ele>
        <time>2011-08-25T09:46:28Z</time>
      </trkpt>
      <trkpt lat="49.72936" lon="1.03734">
        <ele>118</ele>
        <time>2011-08-25T09:46:33Z</time>
      </trkpt>
      <trkpt lat="49.72936" lon="1.03732">
        <ele>118</ele>
        <time>2011-08-25T09:46:34Z</time>
      </trkpt>
      <trkpt lat="49.72938" lon="1.0371">
        <ele>118.1</ele>
        <time>2011-08-25T09:46:43Z</time>
      </trkpt>
      <trkpt lat="49.72939" lon="1.03698">
        <ele>117.8</ele>
        <time>2011-08-25T09:46:48Z</time>
      </trkpt>
      <trkpt lat="49.7294" lon="1.03685">
        <ele>117.4</ele>
        <time>2011-08-25T09:46:54Z</time>
      </trkpt>
      <trkpt lat="49.72941" lon="1.03673">
        <ele>117.1</ele>
        <time>2011-08-25T09:47:00Z</time>
      </trkpt>
      <trkpt lat="49.72942" lon="1.03659">
        <ele>116.8</ele>
        <time>2011-08-25T09:47:07Z</time>
      </trkpt>
      <trkpt lat="49.72943" lon="1.03646">
        <ele>117</ele>
        <time>2011-08-25T09:47:13Z</time>
      </trkpt>
      <trkpt lat="49.72944" lon="1.03634">
        <ele>116.5</ele>
        <time>2011-08-25T09:47:19Z</time>
      </trkpt>
      <trkpt lat="49.72944" lon="1.0362">
        <ele>116.8</ele>
        <time>2011-08-25T09:47:25Z</time>
      </trkpt>
      <trkpt lat="49.72945" lon="1.03608">
        <ele>116.3</ele>
        <time>2011-08-25T09:47:30Z</time>
      </trkpt>
      <trkpt lat="49.72946" lon="1.03594">
        <ele>116.5</ele>
        <time>2011-08-25T09:47:36Z</time>
      </trkpt>
      <trkpt lat="49.72946" lon="1.03592">
        <ele>116.1</ele>
        <time>2011-08-25T09:47:37Z</time>
      </trkpt>
      <trkpt lat="49.72947" lon="1.03569">
        <ele>116.3</ele>
        <time>2011-08-25T09:47:48Z</time>
      </trkpt>
      <trkpt lat="49.72948" lon="1.03555">
        <ele>116.8</ele>
        <time>2011-08-25T09:47:55Z</time>
      </trkpt>
      <trkpt lat="49.72948" lon="1.03543">
        <ele>116.5</ele>
        <time>2011-08-25T09:48:01Z</time>
      </trkpt>
      <trkpt lat="49.72947" lon="1.0353">
        <ele>116.3</ele>
        <time>2011-08-25T09:48:07Z</time>
      </trkpt>
      <trkpt lat="49.72947" lon="1.03517">
        <ele>115.9</ele>
        <time>2011-08-25T09:48:12Z</time>
      </trkpt>
      <trkpt lat="49.72947" lon="1.03505">
        <ele>116.1</ele>
        <time>2011-08-25T09:48:18Z</time>
      </trkpt>
      <trkpt lat="49.72946" lon="1.03492">
        <ele>116.5</ele>
        <time>2011-08-25T09:48:24Z</time>
      </trkpt>
      <trkpt lat="49.72947" lon="1.03479">
        <ele>116</ele>
        <time>2011-08-25T09:48:30Z</time>
      </trkpt>
      <trkpt lat="49.72946" lon="1.03467">
        <ele>115.5</ele>
        <time>2011-08-25T09:48:36Z</time>
      </trkpt>
      <trkpt lat="49.72946" lon="1.03454">
        <ele>116.3</ele>
        <time>2011-08-25T09:48:42Z</time>
      </trkpt>
      <trkpt lat="49.72946" lon="1.03452">
        <ele>115.9</ele>
        <time>2011-08-25T09:48:43Z</time>
      </trkpt>
      <trkpt lat="49.72945" lon="1.03429">
        <ele>116.5</ele>
        <time>2011-08-25T09:48:54Z</time>
      </trkpt>
      <trkpt lat="49.72945" lon="1.03415">
        <ele>116.6</ele>
        <time>2011-08-25T09:49:00Z</time>
      </trkpt>
      <trkpt lat="49.72946" lon="1.03403">
        <ele>116.9</ele>
        <time>2011-08-25T09:49:06Z</time>
      </trkpt>
      <trkpt lat="49.72944" lon="1.03389">
        <ele>117.1</ele>
        <time>2011-08-25T09:49:12Z</time>
      </trkpt>
      <trkpt lat="49.72944" lon="1.03377">
        <ele>117.3</ele>
        <time>2011-08-25T09:49:18Z</time>
      </trkpt>
      <trkpt lat="49.72944" lon="1.03364">
        <ele>117.5</ele>
        <time>2011-08-25T09:49:24Z</time>
      </trkpt>
      <trkpt lat="49.72945" lon="1.0335">
        <ele>117.5</ele>
        <time>2011-08-25T09:49:31Z</time>
      </trkpt>
      <trkpt lat="49.72948" lon="1.03339">
        <ele>117.1</ele>
        <time>2011-08-25T09:49:37Z</time>
      </trkpt>
      <trkpt lat="49.72953" lon="1.03328">
        <ele>117.9</ele>
        <time>2011-08-25T09:49:45Z</time>
      </trkpt>
      <trkpt lat="49.72954" lon="1.03328">
        <ele>118.1</ele>
        <time>2011-08-25T09:49:46Z</time>
      </trkpt>
      <trkpt lat="49.72968" lon="1.03316">
        <ele>120.5</ele>
        <time>2011-08-25T09:50:21Z</time>
      </trkpt>
      <trkpt lat="49.72976" lon="1.0331">
        <ele>120.9</ele>
        <time>2011-08-25T09:50:27Z</time>
      </trkpt>
      <trkpt lat="49.72982" lon="1.03304">
        <ele>121</ele>
        <time>2011-08-25T09:50:33Z</time>
      </trkpt>
      <trkpt lat="49.7299" lon="1.03297">
        <ele>121.5</ele>
        <time>2011-08-25T09:50:43Z</time>
      </trkpt>
      <trkpt lat="49.72997" lon="1.03291">
        <ele>122</ele>
        <time>2011-08-25T09:50:49Z</time>
      </trkpt>
      <trkpt lat="49.72998" lon="1.0329">
        <ele>121.9</ele>
        <time>2011-08-25T09:50:50Z</time>
      </trkpt>
      <trkpt lat="49.73011" lon="1.03278">
        <ele>122.5</ele>
        <time>2011-08-25T09:51:01Z</time>
      </trkpt>
      <trkpt lat="49.73018" lon="1.0327">
        <ele>122.3</ele>
        <time>2011-08-25T09:51:09Z</time>
      </trkpt>
      <trkpt lat="49.73025" lon="1.03262">
        <ele>123.3</ele>
        <time>2011-08-25T09:51:15Z</time>
      </trkpt>
      <trkpt lat="49.73033" lon="1.03256">
        <ele>123.8</ele>
        <time>2011-08-25T09:51:21Z</time>
      </trkpt>
      <trkpt lat="49.73039" lon="1.03248">
        <ele>125.5</ele>
        <time>2011-08-25T09:51:28Z</time>
      </trkpt>
      <trkpt lat="49.73047" lon="1.03243">
        <ele>121.5</ele>
        <time>2011-08-25T09:51:36Z</time>
      </trkpt>
      <trkpt lat="49.73055" lon="1.03242">
        <ele>112</ele>
        <time>2011-08-25T09:51:43Z</time>
      </trkpt>
      <trkpt lat="49.73063" lon="1.03237">
        <ele>107.4</ele>
        <time>2011-08-25T09:51:50Z</time>
      </trkpt>
      <trkpt lat="49.73065" lon="1.03235">
        <ele>107</ele>
        <time>2011-08-25T09:51:51Z</time>
      </trkpt>
      <trkpt lat="49.73076" lon="1.03224">
        <ele>109.1</ele>
        <time>2011-08-25T09:52:01Z</time>
      </trkpt>
      <trkpt lat="49.73082" lon="1.03216">
        <ele>110</ele>
        <time>2011-08-25T09:52:06Z</time>
      </trkpt>
      <trkpt lat="49.73089" lon="1.03208">
        <ele>110.1</ele>
        <time>2011-08-25T09:52:11Z</time>
      </trkpt>
      <trkpt lat="49.73095" lon="1.03202">
        <ele>111</ele>
        <time>2011-08-25T09:52:16Z</time>
      </trkpt>
      <trkpt lat="49.73102" lon="1.03195">
        <ele>111</ele>
        <time>2011-08-25T09:52:21Z</time>
      </trkpt>
      <trkpt lat="49.73109" lon="1.03189">
        <ele>111.3</ele>
        <time>2011-08-25T09:52:26Z</time>
      </trkpt>
      <trkpt lat="49.73116" lon="1.03182">
        <ele>111.1</ele>
        <time>2011-08-25T09:52:31Z</time>
      </trkpt>
      <trkpt lat="49.73123" lon="1.03176">
        <ele>111.5</ele>
        <time>2011-08-25T09:52:36Z</time>
      </trkpt>
      <trkpt lat="49.7313" lon="1.0317">
        <ele>111.9</ele>
        <time>2011-08-25T09:52:42Z</time>
      </trkpt>
      <trkpt lat="49.73138" lon="1.03165">
        <ele>111.8</ele>
        <time>2011-08-25T09:52:47Z</time>
      </trkpt>
      <trkpt lat="49.73146" lon="1.03158">
        <ele>111.1</ele>
        <time>2011-08-25T09:52:53Z</time>
      </trkpt>
      <trkpt lat="49.73147" lon="1.03158">
        <ele>111.4</ele>
        <time>2011-08-25T09:52:54Z</time>
      </trkpt>
      <trkpt lat="49.73162" lon="1.03151">
        <ele>112.9</ele>
        <time>2011-08-25T09:53:06Z</time>
      </trkpt>
      <trkpt lat="49.7317" lon="1.03148">
        <ele>113</ele>
        <time>2011-08-25T09:53:11Z</time>
      </trkpt>
      <trkpt lat="49.73177" lon="1.03145">
        <ele>113.5</ele>
        <time>2011-08-25T09:53:17Z</time>
      </trkpt>
      <trkpt lat="49.73185" lon="1.03142">
        <ele>114.4</ele>
        <time>2011-08-25T09:53:23Z</time>
      </trkpt>
      <trkpt lat="49.73193" lon="1.03138">
        <ele>114.3</ele>
        <time>2011-08-25T09:53:29Z</time>
      </trkpt>
      <trkpt lat="49.73201" lon="1.03134">
        <ele>114</ele>
        <time>2011-08-25T09:53:35Z</time>
      </trkpt>
      <trkpt lat="49.73209" lon="1.03129">
        <ele>113.8</ele>
        <time>2011-08-25T09:53:41Z</time>
      </trkpt>
      <trkpt lat="49.73217" lon="1.03126">
        <ele>114.1</ele>
        <time>2011-08-25T09:53:47Z</time>
      </trkpt>
      <trkpt lat="49.73225" lon="1.03123">
        <ele>114.1</ele>
        <time>2011-08-25T09:53:53Z</time>
      </trkpt>
      <trkpt lat="49.73234" lon="1.03119">
        <ele>114.4</ele>
        <time>2011-08-25T09:53:59Z</time>
      </trkpt>
      <trkpt lat="49.73235" lon="1.03118">
        <ele>114.4</ele>
        <time>2011-08-25T09:54:00Z</time>
      </trkpt>
      <trkpt lat="49.7325" lon="1.03112">
        <ele>115.5</ele>
        <time>2011-08-25T09:54:12Z</time>
      </trkpt>
      <trkpt lat="49.73259" lon="1.03111">
        <ele>115.3</ele>
        <time>2011-08-25T09:54:19Z</time>
      </trkpt>
      <trkpt lat="49.73268" lon="1.03114">
        <ele>115.1</ele>
        <time>2011-08-25T09:54:25Z</time>
      </trkpt>
      <trkpt lat="49.73275" lon="1.03119">
        <ele>115.5</ele>
        <time>2011-08-25T09:54:31Z</time>
      </trkpt>
      <trkpt lat="49.73284" lon="1.03123">
        <ele>115</ele>
        <time>2011-08-25T09:54:38Z</time>
      </trkpt>
      <trkpt lat="49.73292" lon="1.03128">
        <ele>115.1</ele>
        <time>2011-08-25T09:54:51Z</time>
      </trkpt>
      <trkpt lat="49.733" lon="1.03133">
        <ele>114.9</ele>
        <time>2011-08-25T09:54:58Z</time>
      </trkpt>
      <trkpt lat="49.73308" lon="1.03136">
        <ele>114</ele>
        <time>2011-08-25T09:55:04Z</time>
      </trkpt>
      <trkpt lat="49.7331" lon="1.03137">
        <ele>113.6</ele>
        <time>2011-08-25T09:55:05Z</time>
      </trkpt>
      <trkpt lat="49.73323" lon="1.03144">
        <ele>113.4</ele>
        <time>2011-08-25T09:55:16Z</time>
      </trkpt>
      <trkpt lat="49.73331" lon="1.03148">
        <ele>114</ele>
        <time>2011-08-25T09:55:23Z</time>
      </trkpt>
      <trkpt lat="49.73339" lon="1.03153">
        <ele>114</ele>
        <time>2011-08-25T09:55:29Z</time>
      </trkpt>
      <trkpt lat="49.73347" lon="1.03156">
        <ele>113.9</ele>
        <time>2011-08-25T09:55:36Z</time>
      </trkpt>
      <trkpt lat="49.73355" lon="1.03161">
        <ele>113.8</ele>
        <time>2011-08-25T09:55:42Z</time>
      </trkpt>
      <trkpt lat="49.73363" lon="1.03164">
        <ele>113.3</ele>
        <time>2011-08-25T09:55:48Z</time>
      </trkpt>
      <trkpt lat="49.73371" lon="1.03167">
        <ele>112.6</ele>
        <time>2011-08-25T09:55:54Z</time>
      </trkpt>
      <trkpt lat="49.73379" lon="1.03171">
        <ele>112.9</ele>
        <time>2011-08-25T09:56:01Z</time>
      </trkpt>
      <trkpt lat="49.73387" lon="1.03175">
        <ele>112.4</ele>
        <time>2011-08-25T09:56:08Z</time>
      </trkpt>
      <trkpt lat="49.73389" lon="1.03175">
        <ele>111.9</ele>
        <time>2011-08-25T09:56:09Z</time>
      </trkpt>
      <trkpt lat="49.73404" lon="1.0318">
        <ele>111.5</ele>
        <time>2011-08-25T09:56:24Z</time>
      </trkpt>
      <trkpt lat="49.73412" lon="1.03183">
        <ele>111.5</ele>
        <time>2011-08-25T09:56:31Z</time>
      </trkpt>
      <trkpt lat="49.7342" lon="1.03186">
        <ele>112.1</ele>
        <time>2011-08-25T09:56:37Z</time>
      </trkpt>
      <trkpt lat="49.73428" lon="1.03189">
        <ele>112.1</ele>
        <time>2011-08-25T09:56:45Z</time>
      </trkpt>
      <trkpt lat="49.73436" lon="1.03192">
        <ele>111.6</ele>
        <time>2011-08-25T09:56:53Z</time>
      </trkpt>
      <trkpt lat="49.73444" lon="1.03195">
        <ele>111</ele>
        <time>2011-08-25T09:57:00Z</time>
      </trkpt>
      <trkpt lat="49.73452" lon="1.03199">
        <ele>110.6</ele>
        <time>2011-08-25T09:57:07Z</time>
      </trkpt>
      <trkpt lat="49.7346" lon="1.03202">
        <ele>109.5</ele>
        <time>2011-08-25T09:57:13Z</time>
      </trkpt>
      <trkpt lat="49.73462" lon="1.03202">
        <ele>108.6</ele>
        <time>2011-08-25T09:57:14Z</time>
      </trkpt>
      <trkpt lat="49.73477" lon="1.03206">
        <ele>109.1</ele>
        <time>2011-08-25T09:57:33Z</time>
      </trkpt>
      <trkpt lat="49.73484" lon="1.03208">
        <ele>108.5</ele>
        <time>2011-08-25T09:57:39Z</time>
      </trkpt>
      <trkpt lat="49.73492" lon="1.03211">
        <ele>106.9</ele>
        <time>2011-08-25T09:57:46Z</time>
      </trkpt>
      <trkpt lat="49.735" lon="1.03215">
        <ele>105.9</ele>
        <time>2011-08-25T09:57:52Z</time>
      </trkpt>
      <trkpt lat="49.73508" lon="1.03219">
        <ele>105.5</ele>
        <time>2011-08-25T09:57:57Z</time>
      </trkpt>
      <trkpt lat="49.73516" lon="1.03221">
        <ele>104.3</ele>
        <time>2011-08-25T09:58:03Z</time>
      </trkpt>
      <trkpt lat="49.73524" lon="1.03224">
        <ele>104</ele>
        <time>2011-08-25T09:58:09Z</time>
      </trkpt>
      <trkpt lat="49.73532" lon="1.03226">
        <ele>104.5</ele>
        <time>2011-08-25T09:58:25Z</time>
      </trkpt>
      <trkpt lat="49.73534" lon="1.03227">
        <ele>104.5</ele>
        <time>2011-08-25T09:58:26Z</time>
      </trkpt>
      <trkpt lat="49.73548" lon="1.0323">
        <ele>104.9</ele>
        <time>2011-08-25T09:58:39Z</time>
      </trkpt>
      <trkpt lat="49.73556" lon="1.03232">
        <ele>104.6</ele>
        <time>2011-08-25T09:58:48Z</time>
      </trkpt>
      <trkpt lat="49.73564" lon="1.03235">
        <ele>105</ele>
        <time>2011-08-25T09:59:04Z</time>
      </trkpt>
      <trkpt lat="49.73573" lon="1.03237">
        <ele>104.3</ele>
        <time>2011-08-25T09:59:11Z</time>
      </trkpt>
      <trkpt lat="49.73581" lon="1.03241">
        <ele>106.6</ele>
        <time>2011-08-25T09:59:24Z</time>
      </trkpt>
      <trkpt lat="49.73588" lon="1.03244">
        <ele>108.8</ele>
        <time>2011-08-25T09:59:30Z</time>
      </trkpt>
      <trkpt lat="49.7359" lon="1.03245">
        <ele>109.1</ele>
        <time>2011-08-25T09:59:31Z</time>
      </trkpt>
      <trkpt lat="49.73605" lon="1.03254">
        <ele>111.5</ele>
        <time>2011-08-25T09:59:44Z</time>
      </trkpt>
      <trkpt lat="49.73611" lon="1.03262">
        <ele>113</ele>
        <time>2011-08-25T09:59:51Z</time>
      </trkpt>
      <trkpt lat="49.73618" lon="1.03269">
        <ele>114.5</ele>
        <time>2011-08-25T09:59:58Z</time>
      </trkpt>
      <trkpt lat="49.73623" lon="1.03279">
        <ele>116.3</ele>
        <time>2011-08-25T10:00:05Z</time>
      </trkpt>
      <trkpt lat="49.7363" lon="1.03288">
        <ele>118.8</ele>
        <time>2011-08-25T10:00:12Z</time>
      </trkpt>
      <trkpt lat="49.73636" lon="1.03297">
        <ele>121.6</ele>
        <time>2011-08-25T10:00:24Z</time>
      </trkpt>
      <trkpt lat="49.73645" lon="1.03298">
        <ele>120.1</ele>
        <time>2011-08-25T10:00:36Z</time>
      </trkpt>
      <trkpt lat="49.73645" lon="1.03298">
        <ele>119.9</ele>
        <time>2011-08-25T10:00:37Z</time>
      </trkpt>
      <trkpt lat="49.73653" lon="1.03276">
        <ele>118.5</ele>
        <time>2011-08-25T10:01:10Z</time>
      </trkpt>
      <trkpt lat="49.73659" lon="1.03267">
        <ele>119.3</ele>
        <time>2011-08-25T10:01:30Z</time>
      </trkpt>
      <trkpt lat="49.73664" lon="1.03256">
        <ele>120.4</ele>
        <time>2011-08-25T10:01:35Z</time>
      </trkpt>
      <trkpt lat="49.73668" lon="1.03244">
        <ele>122.5</ele>
        <time>2011-08-25T10:01:41Z</time>
      </trkpt>
      <trkpt lat="49.73668" lon="1.03242">
        <ele>123</ele>
        <time>2011-08-25T10:01:42Z</time>
      </trkpt>
      <trkpt lat="49.73662" lon="1.03219">
        <ele>124.6</ele>
        <time>2011-08-25T10:02:02Z</time>
      </trkpt>
      <trkpt lat="49.73661" lon="1.03207">
        <ele>124</ele>
        <time>2011-08-25T10:02:08Z</time>
      </trkpt>
      <trkpt lat="49.73663" lon="1.03195">
        <ele>122.8</ele>
        <time>2011-08-25T10:02:14Z</time>
      </trkpt>
      <trkpt lat="49.73664" lon="1.03182">
        <ele>121</ele>
        <time>2011-08-25T10:02:25Z</time>
      </trkpt>
      <trkpt lat="49.73666" lon="1.03168">
        <ele>120.4</ele>
        <time>2011-08-25T10:02:30Z</time>
      </trkpt>
      <trkpt lat="49.73671" lon="1.03157">
        <ele>120.8</ele>
        <time>2011-08-25T10:02:40Z</time>
      </trkpt>
      <trkpt lat="49.73673" lon="1.03143">
        <ele>121</ele>
        <time>2011-08-25T10:02:47Z</time>
      </trkpt>
      <trkpt lat="49.73672" lon="1.03141">
        <ele>121.5</ele>
        <time>2011-08-25T10:02:48Z</time>
      </trkpt>
      <trkpt lat="49.73674" lon="1.03119">
        <ele>120.6</ele>
        <time>2011-08-25T10:02:57Z</time>
      </trkpt>
      <trkpt lat="49.73674" lon="1.03107">
        <ele>120.6</ele>
        <time>2011-08-25T10:03:01Z</time>
      </trkpt>
      <trkpt lat="49.73674" lon="1.03094">
        <ele>120.8</ele>
        <time>2011-08-25T10:03:07Z</time>
      </trkpt>
      <trkpt lat="49.73676" lon="1.03081">
        <ele>119.4</ele>
        <time>2011-08-25T10:03:13Z</time>
      </trkpt>
      <trkpt lat="49.73679" lon="1.03068">
        <ele>118.1</ele>
        <time>2011-08-25T10:03:18Z</time>
      </trkpt>
      <trkpt lat="49.73679" lon="1.03055">
        <ele>119.3</ele>
        <time>2011-08-25T10:03:25Z</time>
      </trkpt>
      <trkpt lat="49.73681" lon="1.03043">
        <ele>119.3</ele>
        <time>2011-08-25T10:03:31Z</time>
      </trkpt>
      <trkpt lat="49.73686" lon="1.03035">
        <ele>119.8</ele>
        <time>2011-08-25T10:03:34Z</time>
      </trkpt>
      <trkpt lat="49.73691" lon="1.03026">
        <ele>120</ele>
        <time>2011-08-25T10:03:37Z</time>
      </trkpt>
      <trkpt lat="49.73695" lon="1.03015">
        <ele>120.3</ele>
        <time>2011-08-25T10:03:41Z</time>
      </trkpt>
      <trkpt lat="49.73696" lon="1.03003">
        <ele>122</ele>
        <time>2011-08-25T10:03:46Z</time>
      </trkpt>
      <trkpt lat="49.73703" lon="1.02994">
        <ele>125</ele>
        <time>2011-08-25T10:03:54Z</time>
      </trkpt>
      <trkpt lat="49.73704" lon="1.02993">
        <ele>125.5</ele>
        <time>2011-08-25T10:03:55Z</time>
      </trkpt>
      <trkpt lat="49.73695" lon="1.02972">
        <ele>120</ele>
        <time>2011-08-25T10:04:10Z</time>
      </trkpt>
      <trkpt lat="49.73696" lon="1.02959">
        <ele>119.8</ele>
        <time>2011-08-25T10:04:18Z</time>
      </trkpt>
      <trkpt lat="49.73693" lon="1.02947">
        <ele>120.1</ele>
        <time>2011-08-25T10:04:25Z</time>
      </trkpt>
      <trkpt lat="49.73691" lon="1.02933">
        <ele>118.1</ele>
        <time>2011-08-25T10:04:43Z</time>
      </trkpt>
      <trkpt lat="49.73695" lon="1.02922">
        <ele>118.3</ele>
        <time>2011-08-25T10:04:51Z</time>
      </trkpt>
      <trkpt lat="49.73699" lon="1.02911">
        <ele>119.1</ele>
        <time>2011-08-25T10:04:59Z</time>
      </trkpt>
      <trkpt lat="49.737" lon="1.02909">
        <ele>119.3</ele>
        <time>2011-08-25T10:05:00Z</time>
      </trkpt>
      <trkpt lat="49.73705" lon="1.02892">
        <ele>116.5</ele>
        <time>2011-08-25T10:05:11Z</time>
      </trkpt>
      <trkpt lat="49.73705" lon="1.02879">
        <ele>115.4</ele>
        <time>2011-08-25T10:05:23Z</time>
      </trkpt>
      <trkpt lat="49.73703" lon="1.02866">
        <ele>117</ele>
        <time>2011-08-25T10:05:30Z</time>
      </trkpt>
      <trkpt lat="49.737" lon="1.02855">
        <ele>117.3</ele>
        <time>2011-08-25T10:05:36Z</time>
      </trkpt>
      <trkpt lat="49.73703" lon="1.02843">
        <ele>113.8</ele>
        <time>2011-08-25T10:06:16Z</time>
      </trkpt>
      <trkpt lat="49.73703" lon="1.02842">
        <ele>113.5</ele>
        <time>2011-08-25T10:06:17Z</time>
      </trkpt>
      <trkpt lat="49.73715" lon="1.02825">
        <ele>110.3</ele>
        <time>2011-08-25T10:06:38Z</time>
      </trkpt>
      <trkpt lat="49.7372" lon="1.02815">
        <ele>107.4</ele>
        <time>2011-08-25T10:06:43Z</time>
      </trkpt>
      <trkpt lat="49.73726" lon="1.02806">
        <ele>105.5</ele>
        <time>2011-08-25T10:06:50Z</time>
      </trkpt>
      <trkpt lat="49.73733" lon="1.028">
        <ele>102.9</ele>
        <time>2011-08-25T10:06:55Z</time>
      </trkpt>
      <trkpt lat="49.7374" lon="1.02793">
        <ele>100.8</ele>
        <time>2011-08-25T10:07:01Z</time>
      </trkpt>
      <trkpt lat="49.73748" lon="1.0279">
        <ele>96.9</ele>
        <time>2011-08-25T10:07:09Z</time>
      </trkpt>
      <trkpt lat="49.73755" lon="1.02785">
        <ele>95</ele>
        <time>2011-08-25T10:07:14Z</time>
      </trkpt>
      <trkpt lat="49.73762" lon="1.02777">
        <ele>91.5</ele>
        <time>2011-08-25T10:07:24Z</time>
      </trkpt>
      <trkpt lat="49.73763" lon="1.02777">
        <ele>91.3</ele>
        <time>2011-08-25T10:07:25Z</time>
      </trkpt>
      <trkpt lat="49.73772" lon="1.02757">
        <ele>89.1</ele>
        <time>2011-08-25T10:07:36Z</time>
      </trkpt>
      <trkpt lat="49.73778" lon="1.02748">
        <ele>87.6</ele>
        <time>2011-08-25T10:07:42Z</time>
      </trkpt>
      <trkpt lat="49.73784" lon="1.02741">
        <ele>85.5</ele>
        <time>2011-08-25T10:07:49Z</time>
      </trkpt>
      <trkpt lat="49.73789" lon="1.02732">
        <ele>84.3</ele>
        <time>2011-08-25T10:07:55Z</time>
      </trkpt>
      <trkpt lat="49.73795" lon="1.02723">
        <ele>83</ele>
        <time>2011-08-25T10:08:02Z</time>
      </trkpt>
      <trkpt lat="49.73802" lon="1.02716">
        <ele>83.5</ele>
        <time>2011-08-25T10:08:07Z</time>
      </trkpt>
      <trkpt lat="49.73808" lon="1.02707">
        <ele>83</ele>
        <time>2011-08-25T10:08:12Z</time>
      </trkpt>
      <trkpt lat="49.73814" lon="1.02696">
        <ele>82.4</ele>
        <time>2011-08-25T10:08:21Z</time>
      </trkpt>
      <trkpt lat="49.73821" lon="1.0269">
        <ele>82.4</ele>
        <time>2011-08-25T10:08:36Z</time>
      </trkpt>
      <trkpt lat="49.73822" lon="1.02687">
        <ele>82.3</ele>
        <time>2011-08-25T10:08:37Z</time>
      </trkpt>
      <trkpt lat="49.7383" lon="1.02669">
        <ele>82.8</ele>
        <time>2011-08-25T10:08:51Z</time>
      </trkpt>
      <trkpt lat="49.73836" lon="1.02659">
        <ele>83.5</ele>
        <time>2011-08-25T10:08:57Z</time>
      </trkpt>
      <trkpt lat="49.7384" lon="1.02648">
        <ele>82.9</ele>
        <time>2011-08-25T10:09:03Z</time>
      </trkpt>
      <trkpt lat="49.73846" lon="1.02639">
        <ele>82</ele>
        <time>2011-08-25T10:09:10Z</time>
      </trkpt>
      <trkpt lat="49.73853" lon="1.0263">
        <ele>81.5</ele>
        <time>2011-08-25T10:09:17Z</time>
      </trkpt>
      <trkpt lat="49.73858" lon="1.02622">
        <ele>81.4</ele>
        <time>2011-08-25T10:09:22Z</time>
      </trkpt>
      <trkpt lat="49.73863" lon="1.02613">
        <ele>79.6</ele>
        <time>2011-08-25T10:09:28Z</time>
      </trkpt>
      <trkpt lat="49.73868" lon="1.02601">
        <ele>78.4</ele>
        <time>2011-08-25T10:09:35Z</time>
      </trkpt>
      <trkpt lat="49.73874" lon="1.02594">
        <ele>79.5</ele>
        <time>2011-08-25T10:09:40Z</time>
      </trkpt>
      <trkpt lat="49.73875" lon="1.02592">
        <ele>79.6</ele>
        <time>2011-08-25T10:09:41Z</time>
      </trkpt>
      <trkpt lat="49.73887" lon="1.02575">
        <ele>81.6</ele>
        <time>2011-08-25T10:09:53Z</time>
      </trkpt>
      <trkpt lat="49.73893" lon="1.02566">
        <ele>81.5</ele>
        <time>2011-08-25T10:10:00Z</time>
      </trkpt>
      <trkpt lat="49.73898" lon="1.02555">
        <ele>81.5</ele>
        <time>2011-08-25T10:10:06Z</time>
      </trkpt>
      <trkpt lat="49.73904" lon="1.02546">
        <ele>82</ele>
        <time>2011-08-25T10:10:15Z</time>
      </trkpt>
      <trkpt lat="49.73911" lon="1.02538">
        <ele>83.3</ele>
        <time>2011-08-25T10:10:23Z</time>
      </trkpt>
      <trkpt lat="49.73915" lon="1.02527">
        <ele>82.5</ele>
        <time>2011-08-25T10:10:30Z</time>
      </trkpt>
      <trkpt lat="49.7392" lon="1.02517">
        <ele>82.5</ele>
        <time>2011-08-25T10:10:39Z</time>
      </trkpt>
      <trkpt lat="49.73927" lon="1.02509">
        <ele>82.6</ele>
        <time>2011-08-25T10:10:43Z</time>
      </trkpt>
      <trkpt lat="49.73927" lon="1.02506">
        <ele>82.8</ele>
        <time>2011-08-25T10:10:44Z</time>
      </trkpt>
      <trkpt lat="49.73934" lon="1.02487">
        <ele>83.5</ele>
        <time>2011-08-25T10:10:56Z</time>
      </trkpt>
      <trkpt lat="49.73936" lon="1.02475">
        <ele>81.8</ele>
        <time>2011-08-25T10:11:04Z</time>
      </trkpt>
      <trkpt lat="49.73939" lon="1.02463">
        <ele>82.4</ele>
        <time>2011-08-25T10:11:11Z</time>
      </trkpt>
      <trkpt lat="49.73945" lon="1.02456">
        <ele>82.8</ele>
        <time>2011-08-25T10:11:16Z</time>
      </trkpt>
      <trkpt lat="49.73952" lon="1.02451">
        <ele>82.5</ele>
        <time>2011-08-25T10:11:20Z</time>
      </trkpt>
      <trkpt lat="49.73958" lon="1.02441">
        <ele>81.9</ele>
        <time>2011-08-25T10:11:26Z</time>
      </trkpt>
      <trkpt lat="49.73963" lon="1.0243">
        <ele>79.6</ele>
        <time>2011-08-25T10:11:35Z</time>
      </trkpt>
      <trkpt lat="49.73971" lon="1.02428">
        <ele>79</ele>
        <time>2011-08-25T10:11:39Z</time>
      </trkpt>
      <trkpt lat="49.73978" lon="1.02422">
        <ele>80</ele>
        <time>2011-08-25T10:11:43Z</time>
      </trkpt>
      <trkpt lat="49.73985" lon="1.0242">
        <ele>80</ele>
        <time>2011-08-25T10:11:46Z</time>
      </trkpt>
      <trkpt lat="49.73987" lon="1.02419">
        <ele>79.8</ele>
        <time>2011-08-25T10:11:47Z</time>
      </trkpt>
      <trkpt lat="49.73988" lon="1.02397">
        <ele>78.5</ele>
        <time>2011-08-25T10:12:05Z</time>
      </trkpt>
      <trkpt lat="49.73994" lon="1.02389">
        <ele>79</ele>
        <time>2011-08-25T10:12:12Z</time>
      </trkpt>
      <trkpt lat="49.74" lon="1.02382">
        <ele>81.4</ele>
        <time>2011-08-25T10:12:17Z</time>
      </trkpt>
      <trkpt lat="49.74005" lon="1.0237">
        <ele>85.4</ele>
        <time>2011-08-25T10:12:28Z</time>
      </trkpt>
      <trkpt lat="49.74009" lon="1.02358">
        <ele>88.8</ele>
        <time>2011-08-25T10:12:36Z</time>
      </trkpt>
      <trkpt lat="49.74017" lon="1.02353">
        <ele>91.5</ele>
        <time>2011-08-25T10:12:43Z</time>
      </trkpt>
      <trkpt lat="49.74022" lon="1.02344">
        <ele>93.5</ele>
        <time>2011-08-25T10:12:53Z</time>
      </trkpt>
      <trkpt lat="49.74024" lon="1.02342">
        <ele>93.3</ele>
        <time>2011-08-25T10:12:54Z</time>
      </trkpt>
      <trkpt lat="49.74038" lon="1.02339">
        <ele>89.5</ele>
        <time>2011-08-25T10:13:01Z</time>
      </trkpt>
      <trkpt lat="49.74045" lon="1.02338">
        <ele>85.5</ele>
        <time>2011-08-25T10:13:05Z</time>
      </trkpt>
      <trkpt lat="49.74052" lon="1.02336">
        <ele>85</ele>
        <time>2011-08-25T10:13:08Z</time>
      </trkpt>
      <trkpt lat="49.7406" lon="1.02332">
        <ele>84.4</ele>
        <time>2011-08-25T10:13:12Z</time>
      </trkpt>
      <trkpt lat="49.74068" lon="1.02329">
        <ele>85</ele>
        <time>2011-08-25T10:13:19Z</time>
      </trkpt>
      <trkpt lat="49.74077" lon="1.02327">
        <ele>86.5</ele>
        <time>2011-08-25T10:13:32Z</time>
      </trkpt>
      <trkpt lat="49.74085" lon="1.02324">
        <ele>87.1</ele>
        <time>2011-08-25T10:13:38Z</time>
      </trkpt>
      <trkpt lat="49.74094" lon="1.02321">
        <ele>86.8</ele>
        <time>2011-08-25T10:13:46Z</time>
      </trkpt>
      <trkpt lat="49.74102" lon="1.02316">
        <ele>87.6</ele>
        <time>2011-08-25T10:13:52Z</time>
      </trkpt>
      <trkpt lat="49.7411" lon="1.02311">
        <ele>88</ele>
        <time>2011-08-25T10:13:58Z</time>
      </trkpt>
      <trkpt lat="49.74111" lon="1.0231">
        <ele>87.9</ele>
        <time>2011-08-25T10:13:59Z</time>
      </trkpt>
      <trkpt lat="49.74124" lon="1.02299">
        <ele>87.5</ele>
        <time>2011-08-25T10:14:09Z</time>
      </trkpt>
      <trkpt lat="49.74132" lon="1.02293">
        <ele>87.9</ele>
        <time>2011-08-25T10:14:14Z</time>
      </trkpt>
      <trkpt lat="49.74139" lon="1.02286">
        <ele>87</ele>
        <time>2011-08-25T10:14:20Z</time>
      </trkpt>
      <trkpt lat="49.74147" lon="1.02279">
        <ele>86.6</ele>
        <time>2011-08-25T10:14:30Z</time>
      </trkpt>
      <trkpt lat="49.74153" lon="1.02272">
        <ele>84.5</ele>
        <time>2011-08-25T10:14:37Z</time>
      </trkpt>
      <trkpt lat="49.74161" lon="1.02266">
        <ele>84.3</ele>
        <time>2011-08-25T10:14:43Z</time>
      </trkpt>
      <trkpt lat="49.7417" lon="1.02263">
        <ele>84.5</ele>
        <time>2011-08-25T10:14:50Z</time>
      </trkpt>
      <trkpt lat="49.74178" lon="1.02259">
        <ele>84.6</ele>
        <time>2011-08-25T10:14:56Z</time>
      </trkpt>
      <trkpt lat="49.74186" lon="1.02255">
        <ele>84.8</ele>
        <time>2011-08-25T10:15:02Z</time>
      </trkpt>
      <trkpt lat="49.74187" lon="1.02255">
        <ele>85</ele>
        <time>2011-08-25T10:15:03Z</time>
      </trkpt>
      <trkpt lat="49.74203" lon="1.0225">
        <ele>84.3</ele>
        <time>2011-08-25T10:15:14Z</time>
      </trkpt>
      <trkpt lat="49.7421" lon="1.02245">
        <ele>83.1</ele>
        <time>2011-08-25T10:15:21Z</time>
      </trkpt>
      <trkpt lat="49.74218" lon="1.02241">
        <ele>82.6</ele>
        <time>2011-08-25T10:15:30Z</time>
      </trkpt>
      <trkpt lat="49.74225" lon="1.02237">
        <ele>82.6</ele>
        <time>2011-08-25T10:15:36Z</time>
      </trkpt>
      <trkpt lat="49.74233" lon="1.02235">
        <ele>82.9</ele>
        <time>2011-08-25T10:15:42Z</time>
      </trkpt>
      <trkpt lat="49.74242" lon="1.02234">
        <ele>83.8</ele>
        <time>2011-08-25T10:15:48Z</time>
      </trkpt>
      <trkpt lat="49.74249" lon="1.02232">
        <ele>83.4</ele>
        <time>2011-08-25T10:15:54Z</time>
      </trkpt>
      <trkpt lat="49.74257" lon="1.02228">
        <ele>82.9</ele>
        <time>2011-08-25T10:16:03Z</time>
      </trkpt>
      <trkpt lat="49.74259" lon="1.02227">
        <ele>82.9</ele>
        <time>2011-08-25T10:16:04Z</time>
      </trkpt>
      <trkpt lat="49.7427" lon="1.02223">
        <ele>83.1</ele>
        <time>2011-08-25T10:16:09Z</time>
      </trkpt>
      <trkpt lat="49.74277" lon="1.02221">
        <ele>83.4</ele>
        <time>2011-08-25T10:16:12Z</time>
      </trkpt>
      <trkpt lat="49.74286" lon="1.02219">
        <ele>83.5</ele>
        <time>2011-08-25T10:16:19Z</time>
      </trkpt>
      <trkpt lat="49.74295" lon="1.02217">
        <ele>83.6</ele>
        <time>2011-08-25T10:16:26Z</time>
      </trkpt>
      <trkpt lat="49.743" lon="1.0221">
        <ele>83.6</ele>
        <time>2011-08-25T10:16:36Z</time>
      </trkpt>
      <trkpt lat="49.74307" lon="1.02209">
        <ele>83.1</ele>
        <time>2011-08-25T10:16:40Z</time>
      </trkpt>
      <trkpt lat="49.74316" lon="1.02205">
        <ele>83.5</ele>
        <time>2011-08-25T10:16:44Z</time>
      </trkpt>
      <trkpt lat="49.74324" lon="1.02203">
        <ele>83.1</ele>
        <time>2011-08-25T10:16:49Z</time>
      </trkpt>
      <trkpt lat="49.7433" lon="1.02197">
        <ele>82.3</ele>
        <time>2011-08-25T10:16:55Z</time>
      </trkpt>
      <trkpt lat="49.74338" lon="1.02193">
        <ele>81</ele>
        <time>2011-08-25T10:17:01Z</time>
      </trkpt>
      <trkpt lat="49.74346" lon="1.02188">
        <ele>77</ele>
        <time>2011-08-25T10:17:08Z</time>
      </trkpt>
      <trkpt lat="49.74347" lon="1.02187">
        <ele>76.5</ele>
        <time>2011-08-25T10:17:09Z</time>
      </trkpt>
      <trkpt lat="49.74362" lon="1.02178">
        <ele>71.5</ele>
        <time>2011-08-25T10:19:29Z</time>
      </trkpt>
      <trkpt lat="49.74363" lon="1.02178">
        <ele>71.5</ele>
        <time>2011-08-25T10:19:30Z</time>
      </trkpt>
      <trkpt lat="49.74379" lon="1.02172">
        <ele>72.5</ele>
        <time>2011-08-25T10:19:52Z</time>
      </trkpt>
      <trkpt lat="49.74387" lon="1.02168">
        <ele>73.4</ele>
        <time>2011-08-25T10:20:02Z</time>
      </trkpt>
      <trkpt lat="49.74395" lon="1.02163">
        <ele>73.9</ele>
        <time>2011-08-25T10:20:09Z</time>
      </trkpt>
      <trkpt lat="49.74403" lon="1.02159">
        <ele>75.1</ele>
        <time>2011-08-25T10:20:16Z</time>
      </trkpt>
      <trkpt lat="49.7441" lon="1.02153">
        <ele>76.5</ele>
        <time>2011-08-25T10:20:23Z</time>
      </trkpt>
      <trkpt lat="49.74419" lon="1.02151">
        <ele>82</ele>
        <time>2011-08-25T10:20:31Z</time>
      </trkpt>
      <trkpt lat="49.7442" lon="1.0215">
        <ele>82.1</ele>
        <time>2011-08-25T10:20:32Z</time>
      </trkpt>
      <trkpt lat="49.74433" lon="1.02144">
        <ele>88</ele>
        <time>2011-08-25T10:20:46Z</time>
      </trkpt>
      <trkpt lat="49.74441" lon="1.02143">
        <ele>91.4</ele>
        <time>2011-08-25T10:20:54Z</time>
      </trkpt>
      <trkpt lat="49.74449" lon="1.02141">
        <ele>92.9</ele>
        <time>2011-08-25T10:20:59Z</time>
      </trkpt>
      <trkpt lat="49.74457" lon="1.02134">
        <ele>93</ele>
        <time>2011-08-25T10:21:07Z</time>
      </trkpt>
      <trkpt lat="49.74464" lon="1.02133">
        <ele>93</ele>
        <time>2011-08-25T10:21:13Z</time>
      </trkpt>
      <trkpt lat="49.74472" lon="1.02127">
        <ele>94.5</ele>
        <time>2011-08-25T10:21:18Z</time>
      </trkpt>
      <trkpt lat="49.7448" lon="1.02123">
        <ele>96.1</ele>
        <time>2011-08-25T10:21:25Z</time>
      </trkpt>
      <trkpt lat="49.74487" lon="1.02118">
        <ele>96.4</ele>
        <time>2011-08-25T10:21:31Z</time>
      </trkpt>
      <trkpt lat="49.74496" lon="1.02115">
        <ele>96.5</ele>
        <time>2011-08-25T10:21:38Z</time>
      </trkpt>
      <trkpt lat="49.74497" lon="1.02115">
        <ele>96.5</ele>
        <time>2011-08-25T10:21:39Z</time>
      </trkpt>
      <trkpt lat="49.74511" lon="1.02105">
        <ele>97.6</ele>
        <time>2011-08-25T10:21:50Z</time>
      </trkpt>
      <trkpt lat="49.74519" lon="1.02102">
        <ele>98.4</ele>
        <time>2011-08-25T10:21:56Z</time>
      </trkpt>
      <trkpt lat="49.74527" lon="1.021">
        <ele>99</ele>
        <time>2011-08-25T10:22:01Z</time>
      </trkpt>
      <trkpt lat="49.74534" lon="1.02099">
        <ele>101.5</ele>
        <time>2011-08-25T10:22:06Z</time>
      </trkpt>
      <trkpt lat="49.74542" lon="1.02098">
        <ele>104</ele>
        <time>2011-08-25T10:22:11Z</time>
      </trkpt>
      <trkpt lat="49.74551" lon="1.021">
        <ele>105.8</ele>
        <time>2011-08-25T10:22:21Z</time>
      </trkpt>
      <trkpt lat="49.74558" lon="1.02106">
        <ele>105</ele>
        <time>2011-08-25T10:22:29Z</time>
      </trkpt>
      <trkpt lat="49.74564" lon="1.02114">
        <ele>106.8</ele>
        <time>2011-08-25T10:22:36Z</time>
      </trkpt>
      <trkpt lat="49.7457" lon="1.02124">
        <ele>107.5</ele>
        <time>2011-08-25T10:22:43Z</time>
      </trkpt>
      <trkpt lat="49.74571" lon="1.02125">
        <ele>107.5</ele>
        <time>2011-08-25T10:22:44Z</time>
      </trkpt>
      <trkpt lat="49.74587" lon="1.02127">
        <ele>109.5</ele>
        <time>2011-08-25T10:22:58Z</time>
      </trkpt>
      <trkpt lat="49.74596" lon="1.02129">
        <ele>110</ele>
        <time>2011-08-25T10:23:06Z</time>
      </trkpt>
      <trkpt lat="49.74604" lon="1.02128">
        <ele>110.4</ele>
        <time>2011-08-25T10:23:13Z</time>
      </trkpt>
      <trkpt lat="49.74612" lon="1.02126">
        <ele>111.3</ele>
        <time>2011-08-25T10:23:20Z</time>
      </trkpt>
      <trkpt lat="49.7462" lon="1.02123">
        <ele>111.8</ele>
        <time>2011-08-25T10:23:27Z</time>
      </trkpt>
      <trkpt lat="49.74628" lon="1.0212">
        <ele>112.5</ele>
        <time>2011-08-25T10:23:45Z</time>
      </trkpt>
      <trkpt lat="49.7463" lon="1.0212">
        <ele>112.4</ele>
        <time>2011-08-25T10:23:46Z</time>
      </trkpt>
      <trkpt lat="49.74644" lon="1.02115">
        <ele>112.1</ele>
        <time>2011-08-25T10:24:00Z</time>
      </trkpt>
      <trkpt lat="49.74653" lon="1.02112">
        <ele>111.9</ele>
        <time>2011-08-25T10:24:07Z</time>
      </trkpt>
      <trkpt lat="49.74661" lon="1.0211">
        <ele>113.1</ele>
        <time>2011-08-25T10:24:13Z</time>
      </trkpt>
      <trkpt lat="49.74669" lon="1.02107">
        <ele>112.9</ele>
        <time>2011-08-25T10:24:19Z</time>
      </trkpt>
      <trkpt lat="49.74677" lon="1.02103">
        <ele>112.8</ele>
        <time>2011-08-25T10:24:26Z</time>
      </trkpt>
      <trkpt lat="49.74685" lon="1.02098">
        <ele>113</ele>
        <time>2011-08-25T10:24:34Z</time>
      </trkpt>
      <trkpt lat="49.74693" lon="1.02093">
        <ele>112.5</ele>
        <time>2011-08-25T10:24:40Z</time>
      </trkpt>
      <trkpt lat="49.747" lon="1.02088">
        <ele>113</ele>
        <time>2011-08-25T10:24:46Z</time>
      </trkpt>
      <trkpt lat="49.74701" lon="1.02087">
        <ele>113</ele>
        <time>2011-08-25T10:24:47Z</time>
      </trkpt>
      <trkpt lat="49.74714" lon="1.02078">
        <ele>112.8</ele>
        <time>2011-08-25T10:24:58Z</time>
      </trkpt>
      <trkpt lat="49.74722" lon="1.02073">
        <ele>113</ele>
        <time>2011-08-25T10:25:05Z</time>
      </trkpt>
      <trkpt lat="49.7473" lon="1.02069">
        <ele>113</ele>
        <time>2011-08-25T10:25:12Z</time>
      </trkpt>
      <trkpt lat="49.74737" lon="1.02064">
        <ele>113.1</ele>
        <time>2011-08-25T10:25:23Z</time>
      </trkpt>
      <trkpt lat="49.74745" lon="1.02059">
        <ele>112.9</ele>
        <time>2011-08-25T10:25:30Z</time>
      </trkpt>
      <trkpt lat="49.74752" lon="1.02055">
        <ele>113.4</ele>
        <time>2011-08-25T10:25:36Z</time>
      </trkpt>
      <trkpt lat="49.7476" lon="1.02051">
        <ele>114.5</ele>
        <time>2011-08-25T10:25:42Z</time>
      </trkpt>
      <trkpt lat="49.74768" lon="1.02046">
        <ele>114.8</ele>
        <time>2011-08-25T10:25:49Z</time>
      </trkpt>
      <trkpt lat="49.74769" lon="1.02045">
        <ele>114.6</ele>
        <time>2011-08-25T10:25:50Z</time>
      </trkpt>
      <trkpt lat="49.74782" lon="1.02037">
        <ele>114.9</ele>
        <time>2011-08-25T10:26:01Z</time>
      </trkpt>
      <trkpt lat="49.7479" lon="1.02032">
        <ele>114</ele>
        <time>2011-08-25T10:26:07Z</time>
      </trkpt>
      <trkpt lat="49.74798" lon="1.02027">
        <ele>114</ele>
        <time>2011-08-25T10:26:13Z</time>
      </trkpt>
      <trkpt lat="49.74806" lon="1.02023">
        <ele>113.8</ele>
        <time>2011-08-25T10:26:19Z</time>
      </trkpt>
      <trkpt lat="49.74814" lon="1.02021">
        <ele>114.1</ele>
        <time>2011-08-25T10:26:26Z</time>
      </trkpt>
      <trkpt lat="49.74823" lon="1.02019">
        <ele>114.6</ele>
        <time>2011-08-25T10:26:33Z</time>
      </trkpt>
      <trkpt lat="49.74831" lon="1.02015">
        <ele>114.8</ele>
        <time>2011-08-25T10:26:39Z</time>
      </trkpt>
      <trkpt lat="49.74838" lon="1.02013">
        <ele>115</ele>
        <time>2011-08-25T10:26:45Z</time>
      </trkpt>
      <trkpt lat="49.74846" lon="1.0201">
        <ele>114.5</ele>
        <time>2011-08-25T10:26:51Z</time>
      </trkpt>
      <trkpt lat="49.74847" lon="1.02009">
        <ele>114.8</ele>
        <time>2011-08-25T10:26:52Z</time>
      </trkpt>
      <trkpt lat="49.74862" lon="1.02002">
        <ele>115.3</ele>
        <time>2011-08-25T10:27:04Z</time>
      </trkpt>
      <trkpt lat="49.74871" lon="1.01999">
        <ele>115</ele>
        <time>2011-08-25T10:27:10Z</time>
      </trkpt>
      <trkpt lat="49.74878" lon="1.01996">
        <ele>115.6</ele>
        <time>2011-08-25T10:27:16Z</time>
      </trkpt>
      <trkpt lat="49.74886" lon="1.01993">
        <ele>116</ele>
        <time>2011-08-25T10:27:23Z</time>
      </trkpt>
      <trkpt lat="49.74895" lon="1.01989">
        <ele>116.5</ele>
        <time>2011-08-25T10:27:30Z</time>
      </trkpt>
      <trkpt lat="49.74903" lon="1.01991">
        <ele>116.3</ele>
        <time>2011-08-25T10:27:36Z</time>
      </trkpt>
      <trkpt lat="49.74911" lon="1.01988">
        <ele>117.5</ele>
        <time>2011-08-25T10:27:43Z</time>
      </trkpt>
      <trkpt lat="49.7492" lon="1.01985">
        <ele>117</ele>
        <time>2011-08-25T10:27:50Z</time>
      </trkpt>
      <trkpt lat="49.74927" lon="1.01983">
        <ele>116.1</ele>
        <time>2011-08-25T10:27:56Z</time>
      </trkpt>
      <trkpt lat="49.74929" lon="1.01982">
        <ele>116.3</ele>
        <time>2011-08-25T10:27:57Z</time>
      </trkpt>
      <trkpt lat="49.74942" lon="1.01973">
        <ele>115.3</ele>
        <time>2011-08-25T10:28:08Z</time>
      </trkpt>
      <trkpt lat="49.74948" lon="1.01963">
        <ele>114.9</ele>
        <time>2011-08-25T10:28:15Z</time>
      </trkpt>
      <trkpt lat="49.74952" lon="1.01953">
        <ele>115.3</ele>
        <time>2011-08-25T10:28:21Z</time>
      </trkpt>
      <trkpt lat="49.74958" lon="1.01943">
        <ele>115.3</ele>
        <time>2011-08-25T10:28:28Z</time>
      </trkpt>
      <trkpt lat="49.74965" lon="1.01936">
        <ele>115.6</ele>
        <time>2011-08-25T10:28:34Z</time>
      </trkpt>
      <trkpt lat="49.74972" lon="1.0193">
        <ele>116</ele>
        <time>2011-08-25T10:28:40Z</time>
      </trkpt>
      <trkpt lat="49.7498" lon="1.01928">
        <ele>115.8</ele>
        <time>2011-08-25T10:28:46Z</time>
      </trkpt>
      <trkpt lat="49.74988" lon="1.01926">
        <ele>115.9</ele>
        <time>2011-08-25T10:28:52Z</time>
      </trkpt>
      <trkpt lat="49.74996" lon="1.01923">
        <ele>115.1</ele>
        <time>2011-08-25T10:28:58Z</time>
      </trkpt>
      <trkpt lat="49.74997" lon="1.01923">
        <ele>115.1</ele>
        <time>2011-08-25T10:28:59Z</time>
      </trkpt>
      <trkpt lat="49.75011" lon="1.01915">
        <ele>113.3</ele>
        <time>2011-08-25T10:29:13Z</time>
      </trkpt>
      <trkpt lat="49.75019" lon="1.01911">
        <ele>112.3</ele>
        <time>2011-08-25T10:29:20Z</time>
      </trkpt>
      <trkpt lat="49.75027" lon="1.0191">
        <ele>112.3</ele>
        <time>2011-08-25T10:29:26Z</time>
      </trkpt>
      <trkpt lat="49.75035" lon="1.01907">
        <ele>111.6</ele>
        <time>2011-08-25T10:29:32Z</time>
      </trkpt>
      <trkpt lat="49.75042" lon="1.01904">
        <ele>111.6</ele>
        <time>2011-08-25T10:29:38Z</time>
      </trkpt>
      <trkpt lat="49.7505" lon="1.01902">
        <ele>111.6</ele>
        <time>2011-08-25T10:29:44Z</time>
      </trkpt>
      <trkpt lat="49.75059" lon="1.01899">
        <ele>110.8</ele>
        <time>2011-08-25T10:29:51Z</time>
      </trkpt>
      <trkpt lat="49.75068" lon="1.01897">
        <ele>110</ele>
        <time>2011-08-25T10:29:58Z</time>
      </trkpt>
      <trkpt lat="49.75076" lon="1.01895">
        <ele>109.3</ele>
        <time>2011-08-25T10:30:04Z</time>
      </trkpt>
      <trkpt lat="49.75077" lon="1.01896">
        <ele>109.3</ele>
        <time>2011-08-25T10:30:05Z</time>
      </trkpt>
      <trkpt lat="49.75091" lon="1.01894">
        <ele>107.5</ele>
        <time>2011-08-25T10:30:16Z</time>
      </trkpt>
      <trkpt lat="49.75099" lon="1.01893">
        <ele>107</ele>
        <time>2011-08-25T10:30:22Z</time>
      </trkpt>
      <trkpt lat="49.75108" lon="1.0189">
        <ele>106</ele>
        <time>2011-08-25T10:30:32Z</time>
      </trkpt>
      <trkpt lat="49.75117" lon="1.01887">
        <ele>104.4</ele>
        <time>2011-08-25T10:34:46Z</time>
      </trkpt>
      <trkpt lat="49.75118" lon="1.01886">
        <ele>104.4</ele>
        <time>2011-08-25T10:34:47Z</time>
      </trkpt>
      <trkpt lat="49.75133" lon="1.01881">
        <ele>103.8</ele>
        <time>2011-08-25T10:35:02Z</time>
      </trkpt>
      <trkpt lat="49.75141" lon="1.01877">
        <ele>104.9</ele>
        <time>2011-08-25T10:35:10Z</time>
      </trkpt>
      <trkpt lat="49.75149" lon="1.01871">
        <ele>105.3</ele>
        <time>2011-08-25T10:35:18Z</time>
      </trkpt>
      <trkpt lat="49.75157" lon="1.01865">
        <ele>103.8</ele>
        <time>2011-08-25T10:35:26Z</time>
      </trkpt>
      <trkpt lat="49.75165" lon="1.01859">
        <ele>104.3</ele>
        <time>2011-08-25T10:35:33Z</time>
      </trkpt>
      <trkpt lat="49.75173" lon="1.01853">
        <ele>104.3</ele>
        <time>2011-08-25T10:35:40Z</time>
      </trkpt>
      <trkpt lat="49.75181" lon="1.01847">
        <ele>104.9</ele>
        <time>2011-08-25T10:35:51Z</time>
      </trkpt>
      <trkpt lat="49.75182" lon="1.01846">
        <ele>105</ele>
        <time>2011-08-25T10:35:52Z</time>
      </trkpt>
      <trkpt lat="49.75194" lon="1.01834">
        <ele>104.5</ele>
        <time>2011-08-25T10:36:03Z</time>
      </trkpt>
      <trkpt lat="49.752" lon="1.01827">
        <ele>104</ele>
        <time>2011-08-25T10:36:09Z</time>
      </trkpt>
      <trkpt lat="49.75208" lon="1.01821">
        <ele>103.4</ele>
        <time>2011-08-25T10:36:17Z</time>
      </trkpt>
      <trkpt lat="49.75215" lon="1.01814">
        <ele>102.5</ele>
        <time>2011-08-25T10:36:24Z</time>
      </trkpt>
      <trkpt lat="49.75223" lon="1.01809">
        <ele>102.5</ele>
        <time>2011-08-25T10:36:30Z</time>
      </trkpt>
      <trkpt lat="49.7523" lon="1.01805">
        <ele>102.4</ele>
        <time>2011-08-25T10:36:36Z</time>
      </trkpt>
      <trkpt lat="49.75238" lon="1.018">
        <ele>100.9</ele>
        <time>2011-08-25T10:36:42Z</time>
      </trkpt>
      <trkpt lat="49.75246" lon="1.01796">
        <ele>100</ele>
        <time>2011-08-25T10:36:48Z</time>
      </trkpt>
      <trkpt lat="49.75255" lon="1.01794">
        <ele>101.3</ele>
        <time>2011-08-25T10:36:55Z</time>
      </trkpt>
      <trkpt lat="49.75256" lon="1.01793">
        <ele>101.1</ele>
        <time>2011-08-25T10:36:56Z</time>
      </trkpt>
      <trkpt lat="49.7527" lon="1.01786">
        <ele>101.9</ele>
        <time>2011-08-25T10:37:07Z</time>
      </trkpt>
      <trkpt lat="49.75278" lon="1.01781">
        <ele>102.9</ele>
        <time>2011-08-25T10:37:13Z</time>
      </trkpt>
      <trkpt lat="49.75286" lon="1.01777">
        <ele>103.8</ele>
        <time>2011-08-25T10:37:20Z</time>
      </trkpt>
      <trkpt lat="49.75294" lon="1.01772">
        <ele>102.8</ele>
        <time>2011-08-25T10:37:27Z</time>
      </trkpt>
      <trkpt lat="49.75301" lon="1.01769">
        <ele>102.9</ele>
        <time>2011-08-25T10:37:33Z</time>
      </trkpt>
      <trkpt lat="49.75309" lon="1.01768">
        <ele>104.4</ele>
        <time>2011-08-25T10:37:39Z</time>
      </trkpt>
      <trkpt lat="49.75317" lon="1.01765">
        <ele>104.6</ele>
        <time>2011-08-25T10:37:45Z</time>
      </trkpt>
      <trkpt lat="49.75325" lon="1.0176">
        <ele>103.1</ele>
        <time>2011-08-25T10:37:51Z</time>
      </trkpt>
      <trkpt lat="49.75332" lon="1.01756">
        <ele>102</ele>
        <time>2011-08-25T10:37:57Z</time>
      </trkpt>
      <trkpt lat="49.75333" lon="1.01756">
        <ele>102</ele>
        <time>2011-08-25T10:37:58Z</time>
      </trkpt>
      <trkpt lat="49.7535" lon="1.0175">
        <ele>102.9</ele>
        <time>2011-08-25T10:38:13Z</time>
      </trkpt>
      <trkpt lat="49.75358" lon="1.01749">
        <ele>102.3</ele>
        <time>2011-08-25T10:38:20Z</time>
      </trkpt>
      <trkpt lat="49.75366" lon="1.01748">
        <ele>102.1</ele>
        <time>2011-08-25T10:38:27Z</time>
      </trkpt>
      <trkpt lat="49.75374" lon="1.01744">
        <ele>101</ele>
        <time>2011-08-25T10:38:34Z</time>
      </trkpt>
      <trkpt lat="49.75382" lon="1.01743">
        <ele>101.8</ele>
        <time>2011-08-25T10:38:41Z</time>
      </trkpt>
      <trkpt lat="49.7539" lon="1.0174">
        <ele>102.3</ele>
        <time>2011-08-25T10:38:48Z</time>
      </trkpt>
      <trkpt lat="49.75397" lon="1.01738">
        <ele>102.5</ele>
        <time>2011-08-25T10:38:53Z</time>
      </trkpt>
      <trkpt lat="49.75406" lon="1.01736">
        <ele>103.3</ele>
        <time>2011-08-25T10:38:59Z</time>
      </trkpt>
      <trkpt lat="49.75407" lon="1.01736">
        <ele>103.5</ele>
        <time>2011-08-25T10:39:00Z</time>
      </trkpt>
      <trkpt lat="49.75422" lon="1.01733">
        <ele>105.1</ele>
        <time>2011-08-25T10:39:14Z</time>
      </trkpt>
      <trkpt lat="49.7543" lon="1.01729">
        <ele>105</ele>
        <time>2011-08-25T10:39:21Z</time>
      </trkpt>
      <trkpt lat="49.75439" lon="1.01727">
        <ele>105.1</ele>
        <time>2011-08-25T10:39:28Z</time>
      </trkpt>
      <trkpt lat="49.75447" lon="1.01722">
        <ele>104.4</ele>
        <time>2011-08-25T10:39:34Z</time>
      </trkpt>
      <trkpt lat="49.75456" lon="1.01719">
        <ele>104</ele>
        <time>2011-08-25T10:39:42Z</time>
      </trkpt>
      <trkpt lat="49.75464" lon="1.01715">
        <ele>102.4</ele>
        <time>2011-08-25T10:39:55Z</time>
      </trkpt>
      <trkpt lat="49.75472" lon="1.0171">
        <ele>101.9</ele>
        <time>2011-08-25T10:40:09Z</time>
      </trkpt>
      <trkpt lat="49.75473" lon="1.01709">
        <ele>101.8</ele>
        <time>2011-08-25T10:40:10Z</time>
      </trkpt>
      <trkpt lat="49.75487" lon="1.01701">
        <ele>103.5</ele>
        <time>2011-08-25T10:40:39Z</time>
      </trkpt>
      <trkpt lat="49.75496" lon="1.01697">
        <ele>104.9</ele>
        <time>2011-08-25T10:40:46Z</time>
      </trkpt>
      <trkpt lat="49.75504" lon="1.01694">
        <ele>104.1</ele>
        <time>2011-08-25T10:40:52Z</time>
      </trkpt>
      <trkpt lat="49.75513" lon="1.01692">
        <ele>103.5</ele>
        <time>2011-08-25T10:40:58Z</time>
      </trkpt>
      <trkpt lat="49.7552" lon="1.0169">
        <ele>103</ele>
        <time>2011-08-25T10:41:03Z</time>
      </trkpt>
      <trkpt lat="49.75528" lon="1.01686">
        <ele>101</ele>
        <time>2011-08-25T10:41:09Z</time>
      </trkpt>
      <trkpt lat="49.75536" lon="1.01683">
        <ele>100.6</ele>
        <time>2011-08-25T10:41:15Z</time>
      </trkpt>
      <trkpt lat="49.75537" lon="1.01683">
        <ele>100.6</ele>
        <time>2011-08-25T10:41:16Z</time>
      </trkpt>
      <trkpt lat="49.75553" lon="1.01679">
        <ele>100.1</ele>
        <time>2011-08-25T10:41:30Z</time>
      </trkpt>
      <trkpt lat="49.75561" lon="1.01679">
        <ele>100.6</ele>
        <time>2011-08-25T10:41:38Z</time>
      </trkpt>
      <trkpt lat="49.75569" lon="1.01675">
        <ele>101</ele>
        <time>2011-08-25T10:41:44Z</time>
      </trkpt>
      <trkpt lat="49.75577" lon="1.01672">
        <ele>100.5</ele>
        <time>2011-08-25T10:41:50Z</time>
      </trkpt>
      <trkpt lat="49.75584" lon="1.01668">
        <ele>100.5</ele>
        <time>2011-08-25T10:41:55Z</time>
      </trkpt>
      <trkpt lat="49.75593" lon="1.01666">
        <ele>100.4</ele>
        <time>2011-08-25T10:42:01Z</time>
      </trkpt>
      <trkpt lat="49.75601" lon="1.01663">
        <ele>99</ele>
        <time>2011-08-25T10:42:08Z</time>
      </trkpt>
      <trkpt lat="49.75608" lon="1.01658">
        <ele>99.3</ele>
        <time>2011-08-25T10:42:27Z</time>
      </trkpt>
      <trkpt lat="49.75609" lon="1.01658">
        <ele>99.9</ele>
        <time>2011-08-25T10:42:28Z</time>
      </trkpt>
      <trkpt lat="49.75625" lon="1.01651">
        <ele>101.6</ele>
        <time>2011-08-25T10:42:41Z</time>
      </trkpt>
      <trkpt lat="49.75633" lon="1.01648">
        <ele>100.5</ele>
        <time>2011-08-25T10:42:47Z</time>
      </trkpt>
      <trkpt lat="49.75641" lon="1.01646">
        <ele>101.9</ele>
        <time>2011-08-25T10:42:53Z</time>
      </trkpt>
      <trkpt lat="49.7565" lon="1.01644">
        <ele>103.4</ele>
        <time>2011-08-25T10:42:59Z</time>
      </trkpt>
      <trkpt lat="49.75658" lon="1.01642">
        <ele>104.9</ele>
        <time>2011-08-25T10:43:05Z</time>
      </trkpt>
      <trkpt lat="49.75666" lon="1.01643">
        <ele>105</ele>
        <time>2011-08-25T10:43:11Z</time>
      </trkpt>
      <trkpt lat="49.75674" lon="1.01642">
        <ele>106</ele>
        <time>2011-08-25T10:43:17Z</time>
      </trkpt>
      <trkpt lat="49.75683" lon="1.0164">
        <ele>106.6</ele>
        <time>2011-08-25T10:43:24Z</time>
      </trkpt>
      <trkpt lat="49.75691" lon="1.01636">
        <ele>105.9</ele>
        <time>2011-08-25T10:43:31Z</time>
      </trkpt>
      <trkpt lat="49.75692" lon="1.01635">
        <ele>105.8</ele>
        <time>2011-08-25T10:43:32Z</time>
      </trkpt>
      <trkpt lat="49.75708" lon="1.01631">
        <ele>104.1</ele>
        <time>2011-08-25T10:43:44Z</time>
      </trkpt>
      <trkpt lat="49.75716" lon="1.01628">
        <ele>103</ele>
        <time>2011-08-25T10:43:50Z</time>
      </trkpt>
      <trkpt lat="49.75724" lon="1.01627">
        <ele>103</ele>
        <time>2011-08-25T10:43:56Z</time>
      </trkpt>
      <trkpt lat="49.75732" lon="1.01625">
        <ele>102.4</ele>
        <time>2011-08-25T10:44:03Z</time>
      </trkpt>
      <trkpt lat="49.7574" lon="1.01623">
        <ele>101.5</ele>
        <time>2011-08-25T10:44:09Z</time>
      </trkpt>
      <trkpt lat="49.75748" lon="1.01622">
        <ele>101.5</ele>
        <time>2011-08-25T10:44:16Z</time>
      </trkpt>
      <trkpt lat="49.75756" lon="1.0162">
        <ele>99.9</ele>
        <time>2011-08-25T10:44:22Z</time>
      </trkpt>
      <trkpt lat="49.75764" lon="1.01622">
        <ele>99.8</ele>
        <time>2011-08-25T10:44:28Z</time>
      </trkpt>
      <trkpt lat="49.75772" lon="1.01621">
        <ele>98.1</ele>
        <time>2011-08-25T10:44:35Z</time>
      </trkpt>
      <trkpt lat="49.75773" lon="1.01621">
        <ele>98.4</ele>
        <time>2011-08-25T10:44:36Z</time>
      </trkpt>
      <trkpt lat="49.7579" lon="1.0162">
        <ele>96.8</ele>
        <time>2011-08-25T10:44:48Z</time>
      </trkpt>
      <trkpt lat="49.75798" lon="1.01619">
        <ele>96</ele>
        <time>2011-08-25T10:44:54Z</time>
      </trkpt>
      <trkpt lat="49.75806" lon="1.01619">
        <ele>96.8</ele>
        <time>2011-08-25T10:44:59Z</time>
      </trkpt>
      <trkpt lat="49.75814" lon="1.01616">
        <ele>95.9</ele>
        <time>2011-08-25T10:45:05Z</time>
      </trkpt>
      <trkpt lat="49.75822" lon="1.01617">
        <ele>96.6</ele>
        <time>2011-08-25T10:45:11Z</time>
      </trkpt>
      <trkpt lat="49.75831" lon="1.01617">
        <ele>95.3</ele>
        <time>2011-08-25T10:45:18Z</time>
      </trkpt>
      <trkpt lat="49.75839" lon="1.01616">
        <ele>93.9</ele>
        <time>2011-08-25T10:45:25Z</time>
      </trkpt>
      <trkpt lat="49.75848" lon="1.01616">
        <ele>93.5</ele>
        <time>2011-08-25T10:45:32Z</time>
      </trkpt>
      <trkpt lat="49.75856" lon="1.01616">
        <ele>93</ele>
        <time>2011-08-25T10:45:45Z</time>
      </trkpt>
      <trkpt lat="49.75857" lon="1.01617">
        <ele>93</ele>
        <time>2011-08-25T10:45:46Z</time>
      </trkpt>
      <trkpt lat="49.75874" lon="1.01618">
        <ele>92</ele>
        <time>2011-08-25T10:46:01Z</time>
      </trkpt>
      <trkpt lat="49.75882" lon="1.0162">
        <ele>91.9</ele>
        <time>2011-08-25T10:46:09Z</time>
      </trkpt>
      <trkpt lat="49.75891" lon="1.01621">
        <ele>92.9</ele>
        <time>2011-08-25T10:46:20Z</time>
      </trkpt>
      <trkpt lat="49.75899" lon="1.01624">
        <ele>92.5</ele>
        <time>2011-08-25T10:46:28Z</time>
      </trkpt>
      <trkpt lat="49.75908" lon="1.01625">
        <ele>91.6</ele>
        <time>2011-08-25T10:46:34Z</time>
      </trkpt>
      <trkpt lat="49.75915" lon="1.01625">
        <ele>92.1</ele>
        <time>2011-08-25T10:46:38Z</time>
      </trkpt>
      <trkpt lat="49.75923" lon="1.01624">
        <ele>92.4</ele>
        <time>2011-08-25T10:46:43Z</time>
      </trkpt>
      <trkpt lat="49.75932" lon="1.01622">
        <ele>91.8</ele>
        <time>2011-08-25T10:46:49Z</time>
      </trkpt>
      <trkpt lat="49.75933" lon="1.01621">
        <ele>91.9</ele>
        <time>2011-08-25T10:46:50Z</time>
      </trkpt>
      <trkpt lat="49.75946" lon="1.01606">
        <ele>89.5</ele>
        <time>2011-08-25T10:47:10Z</time>
      </trkpt>
      <trkpt lat="49.75953" lon="1.01598">
        <ele>86.3</ele>
        <time>2011-08-25T10:47:51Z</time>
      </trkpt>
      <trkpt lat="49.75953" lon="1.01597">
        <ele>85.8</ele>
        <time>2011-08-25T10:47:52Z</time>
      </trkpt>
      <trkpt lat="49.7597" lon="1.01591">
        <ele>83.8</ele>
        <time>2011-08-25T10:48:04Z</time>
      </trkpt>
      <trkpt lat="49.75978" lon="1.01592">
        <ele>83.6</ele>
        <time>2011-08-25T10:48:10Z</time>
      </trkpt>
      <trkpt lat="49.75985" lon="1.01592">
        <ele>82.6</ele>
        <time>2011-08-25T10:48:17Z</time>
      </trkpt>
      <trkpt lat="49.75993" lon="1.01596">
        <ele>81.5</ele>
        <time>2011-08-25T10:48:23Z</time>
      </trkpt>
      <trkpt lat="49.76001" lon="1.016">
        <ele>80.5</ele>
        <time>2011-08-25T10:48:29Z</time>
      </trkpt>
      <trkpt lat="49.76008" lon="1.01604">
        <ele>79.8</ele>
        <time>2011-08-25T10:48:38Z</time>
      </trkpt>
      <trkpt lat="49.76016" lon="1.01603">
        <ele>79.5</ele>
        <time>2011-08-25T10:48:48Z</time>
      </trkpt>
      <trkpt lat="49.76024" lon="1.016">
        <ele>78.5</ele>
        <time>2011-08-25T10:48:54Z</time>
      </trkpt>
      <trkpt lat="49.76026" lon="1.016">
        <ele>79</ele>
        <time>2011-08-25T10:48:55Z</time>
      </trkpt>
      <trkpt lat="49.7604" lon="1.01592">
        <ele>80.6</ele>
        <time>2011-08-25T10:49:06Z</time>
      </trkpt>
      <trkpt lat="49.76045" lon="1.01582">
        <ele>79.5</ele>
        <time>2011-08-25T10:49:13Z</time>
      </trkpt>
      <trkpt lat="49.76048" lon="1.01569">
        <ele>74.5</ele>
        <time>2011-08-25T11:34:19Z</time>
      </trkpt>
      <trkpt lat="49.76048" lon="1.01568">
        <ele>74.5</ele>
        <time>2011-08-25T11:34:20Z</time>
      </trkpt>
      <trkpt lat="49.76062" lon="1.01559">
        <ele>74.9</ele>
        <time>2011-08-25T11:35:03Z</time>
      </trkpt>
      <trkpt lat="49.7607" lon="1.01558">
        <ele>73.1</ele>
        <time>2011-08-25T11:35:15Z</time>
      </trkpt>
      <trkpt lat="49.76078" lon="1.01556">
        <ele>73.4</ele>
        <time>2011-08-25T11:35:21Z</time>
      </trkpt>
      <trkpt lat="49.76079" lon="1.01556">
        <ele>73.4</ele>
        <time>2011-08-25T11:35:22Z</time>
      </trkpt>
      <trkpt lat="49.76095" lon="1.01552">
        <ele>74</ele>
        <time>2011-08-25T11:35:37Z</time>
      </trkpt>
      <trkpt lat="49.76103" lon="1.01548">
        <ele>74.5</ele>
        <time>2011-08-25T11:35:44Z</time>
      </trkpt>
      <trkpt lat="49.7611" lon="1.01544">
        <ele>75</ele>
        <time>2011-08-25T11:36:07Z</time>
      </trkpt>
      <trkpt lat="49.76117" lon="1.01537">
        <ele>75.6</ele>
        <time>2011-08-25T11:36:13Z</time>
      </trkpt>
      <trkpt lat="49.76124" lon="1.0153">
        <ele>76.5</ele>
        <time>2011-08-25T11:36:19Z</time>
      </trkpt>
      <trkpt lat="49.76132" lon="1.01525">
        <ele>77.5</ele>
        <time>2011-08-25T11:36:38Z</time>
      </trkpt>
      <trkpt lat="49.76133" lon="1.01525">
        <ele>77.6</ele>
        <time>2011-08-25T11:36:39Z</time>
      </trkpt>
      <trkpt lat="49.76146" lon="1.01511">
        <ele>79.5</ele>
        <time>2011-08-25T11:37:01Z</time>
      </trkpt>
      <trkpt lat="49.76154" lon="1.01504">
        <ele>79.6</ele>
        <time>2011-08-25T11:37:10Z</time>
      </trkpt>
      <trkpt lat="49.76161" lon="1.01497">
        <ele>80.3</ele>
        <time>2011-08-25T11:37:17Z</time>
      </trkpt>
      <trkpt lat="49.76169" lon="1.01491">
        <ele>80.8</ele>
        <time>2011-08-25T11:37:24Z</time>
      </trkpt>
      <trkpt lat="49.76176" lon="1.01484">
        <ele>81</ele>
        <time>2011-08-25T11:37:31Z</time>
      </trkpt>
      <trkpt lat="49.76183" lon="1.01477">
        <ele>81.8</ele>
        <time>2011-08-25T11:37:38Z</time>
      </trkpt>
      <trkpt lat="49.7619" lon="1.01469">
        <ele>82.5</ele>
        <time>2011-08-25T11:37:45Z</time>
      </trkpt>
      <trkpt lat="49.76191" lon="1.01468">
        <ele>82.5</ele>
        <time>2011-08-25T11:37:46Z</time>
      </trkpt>
      <trkpt lat="49.76203" lon="1.01452">
        <ele>82.5</ele>
        <time>2011-08-25T11:37:59Z</time>
      </trkpt>
      <trkpt lat="49.76208" lon="1.01443">
        <ele>83.8</ele>
        <time>2011-08-25T11:38:05Z</time>
      </trkpt>
      <trkpt lat="49.76212" lon="1.01432">
        <ele>84.5</ele>
        <time>2011-08-25T11:38:12Z</time>
      </trkpt>
      <trkpt lat="49.76218" lon="1.01423">
        <ele>85.5</ele>
        <time>2011-08-25T11:38:19Z</time>
      </trkpt>
      <trkpt lat="49.76224" lon="1.01415">
        <ele>86.6</ele>
        <time>2011-08-25T11:38:25Z</time>
      </trkpt>
      <trkpt lat="49.7623" lon="1.01405">
        <ele>87</ele>
        <time>2011-08-25T11:38:31Z</time>
      </trkpt>
      <trkpt lat="49.76236" lon="1.01395">
        <ele>86.9</ele>
        <time>2011-08-25T11:38:37Z</time>
      </trkpt>
      <trkpt lat="49.76241" lon="1.01386">
        <ele>87.4</ele>
        <time>2011-08-25T11:38:43Z</time>
      </trkpt>
      <trkpt lat="49.76248" lon="1.01377">
        <ele>87</ele>
        <time>2011-08-25T11:38:50Z</time>
      </trkpt>
      <trkpt lat="49.76249" lon="1.01376">
        <ele>86.9</ele>
        <time>2011-08-25T11:38:51Z</time>
      </trkpt>
      <trkpt lat="49.76263" lon="1.01365">
        <ele>88.4</ele>
        <time>2011-08-25T11:39:04Z</time>
      </trkpt>
      <trkpt lat="49.7627" lon="1.01359">
        <ele>89.8</ele>
        <time>2011-08-25T11:39:11Z</time>
      </trkpt>
      <trkpt lat="49.76278" lon="1.01353">
        <ele>92</ele>
        <time>2011-08-25T11:39:17Z</time>
      </trkpt>
      <trkpt lat="49.76286" lon="1.01347">
        <ele>91.1</ele>
        <time>2011-08-25T11:39:24Z</time>
      </trkpt>
      <trkpt lat="49.76293" lon="1.01344">
        <ele>91.5</ele>
        <time>2011-08-25T11:39:31Z</time>
      </trkpt>
      <trkpt lat="49.76302" lon="1.01341">
        <ele>93.3</ele>
        <time>2011-08-25T11:39:38Z</time>
      </trkpt>
      <trkpt lat="49.7631" lon="1.01338">
        <ele>96.3</ele>
        <time>2011-08-25T11:39:46Z</time>
      </trkpt>
      <trkpt lat="49.76317" lon="1.01331">
        <ele>96.9</ele>
        <time>2011-08-25T11:39:54Z</time>
      </trkpt>
      <trkpt lat="49.76318" lon="1.0133">
        <ele>96.6</ele>
        <time>2011-08-25T11:39:55Z</time>
      </trkpt>
      <trkpt lat="49.76329" lon="1.01316">
        <ele>97.8</ele>
        <time>2011-08-25T11:40:11Z</time>
      </trkpt>
      <trkpt lat="49.76335" lon="1.01306">
        <ele>99</ele>
        <time>2011-08-25T11:40:20Z</time>
      </trkpt>
      <trkpt lat="49.76342" lon="1.01298">
        <ele>98.9</ele>
        <time>2011-08-25T11:40:29Z</time>
      </trkpt>
      <trkpt lat="49.76349" lon="1.01291">
        <ele>99.3</ele>
        <time>2011-08-25T11:40:35Z</time>
      </trkpt>
      <trkpt lat="49.76357" lon="1.01284">
        <ele>99.9</ele>
        <time>2011-08-25T11:40:46Z</time>
      </trkpt>
      <trkpt lat="49.76364" lon="1.01277">
        <ele>98.6</ele>
        <time>2011-08-25T11:40:55Z</time>
      </trkpt>
      <trkpt lat="49.76364" lon="1.01276">
        <ele>98.4</ele>
        <time>2011-08-25T11:40:56Z</time>
      </trkpt>
      <trkpt lat="49.76378" lon="1.01263">
        <ele>97</ele>
        <time>2011-08-25T11:41:08Z</time>
      </trkpt>
      <trkpt lat="49.76387" lon="1.0126">
        <ele>95.8</ele>
        <time>2011-08-25T11:41:17Z</time>
      </trkpt>
      <trkpt lat="49.76391" lon="1.01249">
        <ele>96.9</ele>
        <time>2011-08-25T11:41:24Z</time>
      </trkpt>
      <trkpt lat="49.76398" lon="1.0124">
        <ele>95.3</ele>
        <time>2011-08-25T11:41:31Z</time>
      </trkpt>
      <trkpt lat="49.76403" lon="1.0123">
        <ele>96.1</ele>
        <time>2011-08-25T11:41:40Z</time>
      </trkpt>
      <trkpt lat="49.76407" lon="1.01218">
        <ele>97.5</ele>
        <time>2011-08-25T11:41:52Z</time>
      </trkpt>
      <trkpt lat="49.76412" lon="1.01207">
        <ele>97.9</ele>
        <time>2011-08-25T11:42:01Z</time>
      </trkpt>
      <trkpt lat="49.76413" lon="1.01205">
        <ele>97.6</ele>
        <time>2011-08-25T11:42:02Z</time>
      </trkpt>
      <trkpt lat="49.76423" lon="1.01188">
        <ele>96.5</ele>
        <time>2011-08-25T11:42:14Z</time>
      </trkpt>
      <trkpt lat="49.7643" lon="1.0118">
        <ele>94.5</ele>
        <time>2011-08-25T11:42:22Z</time>
      </trkpt>
      <trkpt lat="49.76437" lon="1.01174">
        <ele>91.6</ele>
        <time>2011-08-25T11:42:27Z</time>
      </trkpt>
      <trkpt lat="49.76444" lon="1.01169">
        <ele>92.1</ele>
        <time>2011-08-25T11:42:33Z</time>
      </trkpt>
      <trkpt lat="49.7645" lon="1.01159">
        <ele>90.1</ele>
        <time>2011-08-25T11:42:41Z</time>
      </trkpt>
      <trkpt lat="49.76457" lon="1.01155">
        <ele>89.1</ele>
        <time>2011-08-25T11:42:47Z</time>
      </trkpt>
      <trkpt lat="49.76465" lon="1.01151">
        <ele>88</ele>
        <time>2011-08-25T11:42:54Z</time>
      </trkpt>
      <trkpt lat="49.76473" lon="1.01145">
        <ele>85.9</ele>
        <time>2011-08-25T11:43:03Z</time>
      </trkpt>
      <trkpt lat="49.76473" lon="1.01144">
        <ele>85.5</ele>
        <time>2011-08-25T11:43:04Z</time>
      </trkpt>
      <trkpt lat="49.76486" lon="1.01129">
        <ele>86</ele>
        <time>2011-08-25T11:43:21Z</time>
      </trkpt>
      <trkpt lat="49.76493" lon="1.01123">
        <ele>86.9</ele>
        <time>2011-08-25T11:43:28Z</time>
      </trkpt>
      <trkpt lat="49.765" lon="1.01117">
        <ele>87.4</ele>
        <time>2011-08-25T11:43:35Z</time>
      </trkpt>
      <trkpt lat="49.76507" lon="1.01112">
        <ele>87.5</ele>
        <time>2011-08-25T11:43:43Z</time>
      </trkpt>
      <trkpt lat="49.76516" lon="1.0111">
        <ele>85.5</ele>
        <time>2011-08-25T11:43:49Z</time>
      </trkpt>
      <trkpt lat="49.76523" lon="1.01107">
        <ele>86.6</ele>
        <time>2011-08-25T11:43:54Z</time>
      </trkpt>
      <trkpt lat="49.76531" lon="1.01103">
        <ele>87.1</ele>
        <time>2011-08-25T11:43:59Z</time>
      </trkpt>
      <trkpt lat="49.76539" lon="1.01103">
        <ele>84.5</ele>
        <time>2011-08-25T11:44:04Z</time>
      </trkpt>
      <trkpt lat="49.7654" lon="1.01102">
        <ele>84.5</ele>
        <time>2011-08-25T11:44:05Z</time>
      </trkpt>
      <trkpt lat="49.76555" lon="1.01098">
        <ele>84.5</ele>
        <time>2011-08-25T11:44:19Z</time>
      </trkpt>
      <trkpt lat="49.76563" lon="1.01093">
        <ele>85</ele>
        <time>2011-08-25T11:44:28Z</time>
      </trkpt>
      <trkpt lat="49.76571" lon="1.0109">
        <ele>85</ele>
        <time>2011-08-25T11:44:33Z</time>
      </trkpt>
      <trkpt lat="49.76579" lon="1.01088">
        <ele>85.5</ele>
        <time>2011-08-25T11:44:42Z</time>
      </trkpt>
      <trkpt lat="49.76587" lon="1.01086">
        <ele>85</ele>
        <time>2011-08-25T11:44:48Z</time>
      </trkpt>
      <trkpt lat="49.76594" lon="1.01082">
        <ele>84.5</ele>
        <time>2011-08-25T11:44:53Z</time>
      </trkpt>
      <trkpt lat="49.76602" lon="1.0108">
        <ele>82.6</ele>
        <time>2011-08-25T11:45:00Z</time>
      </trkpt>
      <trkpt lat="49.76609" lon="1.01076">
        <ele>82.9</ele>
        <time>2011-08-25T11:45:05Z</time>
      </trkpt>
      <trkpt lat="49.7661" lon="1.01075">
        <ele>82.8</ele>
        <time>2011-08-25T11:45:06Z</time>
      </trkpt>
      <trkpt lat="49.76624" lon="1.01067">
        <ele>85.1</ele>
        <time>2011-08-25T11:45:19Z</time>
      </trkpt>
      <trkpt lat="49.76632" lon="1.01059">
        <ele>84.5</ele>
        <time>2011-08-25T11:45:25Z</time>
      </trkpt>
      <trkpt lat="49.76639" lon="1.01053">
        <ele>82.4</ele>
        <time>2011-08-25T11:45:31Z</time>
      </trkpt>
      <trkpt lat="49.76646" lon="1.01046">
        <ele>80.5</ele>
        <time>2011-08-25T11:45:38Z</time>
      </trkpt>
      <trkpt lat="49.76653" lon="1.01036">
        <ele>80.5</ele>
        <time>2011-08-25T11:45:45Z</time>
      </trkpt>
      <trkpt lat="49.76659" lon="1.01028">
        <ele>80.3</ele>
        <time>2011-08-25T11:45:50Z</time>
      </trkpt>
      <trkpt lat="49.76665" lon="1.01017">
        <ele>80.5</ele>
        <time>2011-08-25T11:45:56Z</time>
      </trkpt>
      <trkpt lat="49.76671" lon="1.0101">
        <ele>79.6</ele>
        <time>2011-08-25T11:46:02Z</time>
      </trkpt>
      <trkpt lat="49.76678" lon="1.01002">
        <ele>78.5</ele>
        <time>2011-08-25T11:46:11Z</time>
      </trkpt>
      <trkpt lat="49.76679" lon="1.01002">
        <ele>78.5</ele>
        <time>2011-08-25T11:46:12Z</time>
      </trkpt>
      <trkpt lat="49.7669" lon="1.00985">
        <ele>78.9</ele>
        <time>2011-08-25T11:46:24Z</time>
      </trkpt>
      <trkpt lat="49.76697" lon="1.00976">
        <ele>78.8</ele>
        <time>2011-08-25T11:46:30Z</time>
      </trkpt>
      <trkpt lat="49.76705" lon="1.00968">
        <ele>77.5</ele>
        <time>2011-08-25T11:46:37Z</time>
      </trkpt>
      <trkpt lat="49.76711" lon="1.00961">
        <ele>75.6</ele>
        <time>2011-08-25T11:46:43Z</time>
      </trkpt>
      <trkpt lat="49.76717" lon="1.00952">
        <ele>76.5</ele>
        <time>2011-08-25T11:46:50Z</time>
      </trkpt>
      <trkpt lat="49.76721" lon="1.0094">
        <ele>75.8</ele>
        <time>2011-08-25T11:46:58Z</time>
      </trkpt>
      <trkpt lat="49.76729" lon="1.00935">
        <ele>75.8</ele>
        <time>2011-08-25T11:47:13Z</time>
      </trkpt>
      <trkpt lat="49.76729" lon="1.00936">
        <ele>75.8</ele>
        <time>2011-08-25T11:47:14Z</time>
      </trkpt>
      <trkpt lat="49.76745" lon="1.00937">
        <ele>77</ele>
        <time>2011-08-25T11:47:33Z</time>
      </trkpt>
      <trkpt lat="49.76753" lon="1.00935">
        <ele>77.9</ele>
        <time>2011-08-25T11:47:42Z</time>
      </trkpt>
      <trkpt lat="49.76761" lon="1.0093">
        <ele>78.5</ele>
        <time>2011-08-25T11:47:51Z</time>
      </trkpt>
      <trkpt lat="49.76769" lon="1.00925">
        <ele>79.5</ele>
        <time>2011-08-25T11:47:59Z</time>
      </trkpt>
      <trkpt lat="49.76777" lon="1.00918">
        <ele>80</ele>
        <time>2011-08-25T11:48:06Z</time>
      </trkpt>
      <trkpt lat="49.76784" lon="1.00915">
        <ele>81.4</ele>
        <time>2011-08-25T11:48:16Z</time>
      </trkpt>
      <trkpt lat="49.76785" lon="1.00914">
        <ele>81.5</ele>
        <time>2011-08-25T11:48:17Z</time>
      </trkpt>
      <trkpt lat="49.76799" lon="1.00907">
        <ele>82</ele>
        <time>2011-08-25T11:48:35Z</time>
      </trkpt>
      <trkpt lat="49.76807" lon="1.00902">
        <ele>82.1</ele>
        <time>2011-08-25T11:48:44Z</time>
      </trkpt>
      <trkpt lat="49.76814" lon="1.00893">
        <ele>82.4</ele>
        <time>2011-08-25T11:48:53Z</time>
      </trkpt>
      <trkpt lat="49.7682" lon="1.00884">
        <ele>82.9</ele>
        <time>2011-08-25T11:49:00Z</time>
      </trkpt>
      <trkpt lat="49.76828" lon="1.00877">
        <ele>84</ele>
        <time>2011-08-25T11:49:08Z</time>
      </trkpt>
      <trkpt lat="49.76834" lon="1.00871">
        <ele>84.5</ele>
        <time>2011-08-25T11:49:16Z</time>
      </trkpt>
      <trkpt lat="49.7684" lon="1.00861">
        <ele>87</ele>
        <time>2011-08-25T11:49:33Z</time>
      </trkpt>
      <trkpt lat="49.76841" lon="1.0086">
        <ele>87.5</ele>
        <time>2011-08-25T11:49:34Z</time>
      </trkpt>
      <trkpt lat="49.76852" lon="1.00843">
        <ele>90.1</ele>
        <time>2011-08-25T11:49:50Z</time>
      </trkpt>
      <trkpt lat="49.76859" lon="1.00835">
        <ele>89.4</ele>
        <time>2011-08-25T11:49:55Z</time>
      </trkpt>
      <trkpt lat="49.76866" lon="1.00828">
        <ele>86.1</ele>
        <time>2011-08-25T11:49:59Z</time>
      </trkpt>
      <trkpt lat="49.76872" lon="1.0082">
        <ele>84.5</ele>
        <time>2011-08-25T11:50:03Z</time>
      </trkpt>
      <trkpt lat="49.76876" lon="1.0081">
        <ele>84.1</ele>
        <time>2011-08-25T11:50:08Z</time>
      </trkpt>
      <trkpt lat="49.7688" lon="1.00798">
        <ele>84.1</ele>
        <time>2011-08-25T11:50:13Z</time>
      </trkpt>
      <trkpt lat="49.76884" lon="1.00788">
        <ele>86.5</ele>
        <time>2011-08-25T11:50:20Z</time>
      </trkpt>
      <trkpt lat="49.7689" lon="1.00776">
        <ele>88</ele>
        <time>2011-08-25T11:50:26Z</time>
      </trkpt>
      <trkpt lat="49.76896" lon="1.00768">
        <ele>88.8</ele>
        <time>2011-08-25T11:50:33Z</time>
      </trkpt>
      <trkpt lat="49.76902" lon="1.00759">
        <ele>90.1</ele>
        <time>2011-08-25T11:50:39Z</time>
      </trkpt>
      <trkpt lat="49.76903" lon="1.00757">
        <ele>90.4</ele>
        <time>2011-08-25T11:50:40Z</time>
      </trkpt>
      <trkpt lat="49.76912" lon="1.00737">
        <ele>90.4</ele>
        <time>2011-08-25T11:50:51Z</time>
      </trkpt>
      <trkpt lat="49.76917" lon="1.00727">
        <ele>90.9</ele>
        <time>2011-08-25T11:50:57Z</time>
      </trkpt>
      <trkpt lat="49.76923" lon="1.00716">
        <ele>92.5</ele>
        <time>2011-08-25T11:51:03Z</time>
      </trkpt>
      <trkpt lat="49.76927" lon="1.00706">
        <ele>92.5</ele>
        <time>2011-08-25T11:51:10Z</time>
      </trkpt>
      <trkpt lat="49.76932" lon="1.00695">
        <ele>91.4</ele>
        <time>2011-08-25T11:51:17Z</time>
      </trkpt>
      <trkpt lat="49.76938" lon="1.00685">
        <ele>91.4</ele>
        <time>2011-08-25T11:51:22Z</time>
      </trkpt>
      <trkpt lat="49.76944" lon="1.00675">
        <ele>90</ele>
        <time>2011-08-25T11:51:29Z</time>
      </trkpt>
      <trkpt lat="49.76948" lon="1.00665">
        <ele>90.1</ele>
        <time>2011-08-25T11:51:34Z</time>
      </trkpt>
      <trkpt lat="49.76953" lon="1.00656">
        <ele>90.5</ele>
        <time>2011-08-25T11:51:39Z</time>
      </trkpt>
      <trkpt lat="49.76958" lon="1.00648">
        <ele>89.5</ele>
        <time>2011-08-25T11:51:44Z</time>
      </trkpt>
      <trkpt lat="49.7696" lon="1.00646">
        <ele>89.1</ele>
        <time>2011-08-25T11:51:45Z</time>
      </trkpt>
      <trkpt lat="49.76967" lon="1.00629">
        <ele>90.9</ele>
        <time>2011-08-25T11:51:55Z</time>
      </trkpt>
      <trkpt lat="49.76972" lon="1.00618">
        <ele>90.3</ele>
        <time>2011-08-25T11:52:01Z</time>
      </trkpt>
      <trkpt lat="49.76978" lon="1.00609">
        <ele>88.6</ele>
        <time>2011-08-25T11:52:10Z</time>
      </trkpt>
      <trkpt lat="49.76981" lon="1.00599">
        <ele>89.4</ele>
        <time>2011-08-25T11:52:16Z</time>
      </trkpt>
      <trkpt lat="49.76985" lon="1.00586">
        <ele>88.1</ele>
        <time>2011-08-25T11:52:22Z</time>
      </trkpt>
      <trkpt lat="49.7699" lon="1.00576">
        <ele>89.5</ele>
        <time>2011-08-25T11:52:28Z</time>
      </trkpt>
      <trkpt lat="49.76995" lon="1.00566">
        <ele>90.4</ele>
        <time>2011-08-25T11:52:35Z</time>
      </trkpt>
      <trkpt lat="49.77001" lon="1.00555">
        <ele>89.8</ele>
        <time>2011-08-25T11:52:42Z</time>
      </trkpt>
      <trkpt lat="49.77007" lon="1.00544">
        <ele>90.5</ele>
        <time>2011-08-25T11:52:49Z</time>
      </trkpt>
      <trkpt lat="49.77007" lon="1.00542">
        <ele>90.4</ele>
        <time>2011-08-25T11:52:50Z</time>
      </trkpt>
      <trkpt lat="49.77017" lon="1.00526">
        <ele>89</ele>
        <time>2011-08-25T11:53:01Z</time>
      </trkpt>
      <trkpt lat="49.77022" lon="1.00517">
        <ele>88.3</ele>
        <time>2011-08-25T11:53:07Z</time>
      </trkpt>
      <trkpt lat="49.77027" lon="1.00508">
        <ele>88.3</ele>
        <time>2011-08-25T11:53:11Z</time>
      </trkpt>
      <trkpt lat="49.77033" lon="1.005">
        <ele>87.5</ele>
        <time>2011-08-25T11:53:16Z</time>
      </trkpt>
      <trkpt lat="49.77038" lon="1.0049">
        <ele>85.8</ele>
        <time>2011-08-25T11:53:24Z</time>
      </trkpt>
      <trkpt lat="49.77044" lon="1.00479">
        <ele>85.5</ele>
        <time>2011-08-25T11:53:33Z</time>
      </trkpt>
      <trkpt lat="49.77048" lon="1.00469">
        <ele>86.1</ele>
        <time>2011-08-25T11:53:40Z</time>
      </trkpt>
      <trkpt lat="49.77054" lon="1.0046">
        <ele>86.5</ele>
        <time>2011-08-25T11:53:47Z</time>
      </trkpt>
      <trkpt lat="49.77061" lon="1.00451">
        <ele>85.9</ele>
        <time>2011-08-25T11:53:52Z</time>
      </trkpt>
      <trkpt lat="49.77062" lon="1.00449">
        <ele>86</ele>
        <time>2011-08-25T11:53:53Z</time>
      </trkpt>
      <trkpt lat="49.77075" lon="1.00435">
        <ele>87.5</ele>
        <time>2011-08-25T11:54:06Z</time>
      </trkpt>
      <trkpt lat="49.77082" lon="1.00428">
        <ele>88.3</ele>
        <time>2011-08-25T11:54:53Z</time>
      </trkpt>
      <trkpt lat="49.77083" lon="1.00426">
        <ele>87.6</ele>
        <time>2011-08-25T11:54:54Z</time>
      </trkpt>
      <trkpt lat="49.7709" lon="1.00419">
        <ele>85.9</ele>
        <time>2011-08-25T11:57:00Z</time>
      </trkpt>
      <trkpt lat="49.77105" lon="1.0041">
        <ele>85</ele>
        <time>2011-08-25T11:57:08Z</time>
      </trkpt>
      <trkpt lat="49.77111" lon="1.00409">
        <ele>84.9</ele>
        <time>2011-08-25T11:57:13Z</time>
      </trkpt>
      <trkpt lat="49.77119" lon="1.00403">
        <ele>84.5</ele>
        <time>2011-08-25T11:57:17Z</time>
      </trkpt>
      <trkpt lat="49.77125" lon="1.00397">
        <ele>84.9</ele>
        <time>2011-08-25T11:57:24Z</time>
      </trkpt>
      <trkpt lat="49.77132" lon="1.00393">
        <ele>83.5</ele>
        <time>2011-08-25T11:57:33Z</time>
      </trkpt>
      <trkpt lat="49.77139" lon="1.00389">
        <ele>82.5</ele>
        <time>2011-08-25T11:57:39Z</time>
      </trkpt>
      <trkpt lat="49.77147" lon="1.00383">
        <ele>79.9</ele>
        <time>2011-08-25T11:57:48Z</time>
      </trkpt>
      <trkpt lat="49.77155" lon="1.00377">
        <ele>78.6</ele>
        <time>2011-08-25T11:57:54Z</time>
      </trkpt>
      <trkpt lat="49.77161" lon="1.00369">
        <ele>78.1</ele>
        <time>2011-08-25T11:57:59Z</time>
      </trkpt>
      <trkpt lat="49.77168" lon="1.00364">
        <ele>78.3</ele>
        <time>2011-08-25T11:58:03Z</time>
      </trkpt>
      <trkpt lat="49.7717" lon="1.00363">
        <ele>78.3</ele>
        <time>2011-08-25T11:58:04Z</time>
      </trkpt>
      <trkpt lat="49.77183" lon="1.00351">
        <ele>81.8</ele>
        <time>2011-08-25T11:58:13Z</time>
      </trkpt>
      <trkpt lat="49.7719" lon="1.00347">
        <ele>81.3</ele>
        <time>2011-08-25T11:58:17Z</time>
      </trkpt>
      <trkpt lat="49.77199" lon="1.00343">
        <ele>79.4</ele>
        <time>2011-08-25T11:58:23Z</time>
      </trkpt>
      <trkpt lat="49.77207" lon="1.00342">
        <ele>76.6</ele>
        <time>2011-08-25T11:58:28Z</time>
      </trkpt>
      <trkpt lat="49.77214" lon="1.00337">
        <ele>76</ele>
        <time>2011-08-25T11:58:33Z</time>
      </trkpt>
      <trkpt lat="49.77221" lon="1.00333">
        <ele>75.1</ele>
        <time>2011-08-25T11:58:44Z</time>
      </trkpt>
      <trkpt lat="49.77228" lon="1.00328">
        <ele>74.4</ele>
        <time>2011-08-25T11:58:50Z</time>
      </trkpt>
      <trkpt lat="49.77234" lon="1.00323">
        <ele>73.6</ele>
        <time>2011-08-25T11:58:55Z</time>
      </trkpt>
      <trkpt lat="49.77242" lon="1.00319">
        <ele>74.3</ele>
        <time>2011-08-25T11:59:05Z</time>
      </trkpt>
      <trkpt lat="49.77244" lon="1.00317">
        <ele>73.6</ele>
        <time>2011-08-25T11:59:06Z</time>
      </trkpt>
      <trkpt lat="49.77258" lon="1.00307">
        <ele>73.3</ele>
        <time>2011-08-25T11:59:14Z</time>
      </trkpt>
      <trkpt lat="49.77265" lon="1.00302">
        <ele>73.4</ele>
        <time>2011-08-25T11:59:20Z</time>
      </trkpt>
      <trkpt lat="49.77272" lon="1.00297">
        <ele>73</ele>
        <time>2011-08-25T11:59:26Z</time>
      </trkpt>
      <trkpt lat="49.77278" lon="1.00292">
        <ele>72.9</ele>
        <time>2011-08-25T11:59:30Z</time>
      </trkpt>
      <trkpt lat="49.77286" lon="1.00286">
        <ele>72.6</ele>
        <time>2011-08-25T11:59:35Z</time>
      </trkpt>
      <trkpt lat="49.77293" lon="1.0028">
        <ele>74</ele>
        <time>2011-08-25T11:59:43Z</time>
      </trkpt>
      <trkpt lat="49.77301" lon="1.00274">
        <ele>75.5</ele>
        <time>2011-08-25T11:59:50Z</time>
      </trkpt>
      <trkpt lat="49.77309" lon="1.00267">
        <ele>75.9</ele>
        <time>2011-08-25T11:59:57Z</time>
      </trkpt>
      <trkpt lat="49.77315" lon="1.00259">
        <ele>76</ele>
        <time>2011-08-25T12:00:04Z</time>
      </trkpt>
      <trkpt lat="49.77322" lon="1.00251">
        <ele>76.1</ele>
        <time>2011-08-25T12:00:18Z</time>
      </trkpt>
      <trkpt lat="49.77323" lon="1.00249">
        <ele>76</ele>
        <time>2011-08-25T12:00:19Z</time>
      </trkpt>
      <trkpt lat="49.77337" lon="1.00236">
        <ele>75.4</ele>
        <time>2011-08-25T12:00:32Z</time>
      </trkpt>
      <trkpt lat="49.77344" lon="1.0023">
        <ele>75.8</ele>
        <time>2011-08-25T12:00:37Z</time>
      </trkpt>
      <trkpt lat="49.77352" lon="1.00223">
        <ele>75</ele>
        <time>2011-08-25T12:00:43Z</time>
      </trkpt>
      <trkpt lat="49.77358" lon="1.00214">
        <ele>74.6</ele>
        <time>2011-08-25T12:00:51Z</time>
      </trkpt>
      <trkpt lat="49.77366" lon="1.00209">
        <ele>74.1</ele>
        <time>2011-08-25T12:00:59Z</time>
      </trkpt>
      <trkpt lat="49.77373" lon="1.00203">
        <ele>74.3</ele>
        <time>2011-08-25T12:01:05Z</time>
      </trkpt>
      <trkpt lat="49.77381" lon="1.00196">
        <ele>73.9</ele>
        <time>2011-08-25T12:01:15Z</time>
      </trkpt>
      <trkpt lat="49.77388" lon="1.00192">
        <ele>73.8</ele>
        <time>2011-08-25T12:01:24Z</time>
      </trkpt>
      <trkpt lat="49.77389" lon="1.00191">
        <ele>73.6</ele>
        <time>2011-08-25T12:01:25Z</time>
      </trkpt>
      <trkpt lat="49.77404" lon="1.00191">
        <ele>73.6</ele>
        <time>2011-08-25T12:01:35Z</time>
      </trkpt>
      <trkpt lat="49.77412" lon="1.00191">
        <ele>74</ele>
        <time>2011-08-25T12:01:40Z</time>
      </trkpt>
      <trkpt lat="49.77421" lon="1.00193">
        <ele>73.9</ele>
        <time>2011-08-25T12:01:46Z</time>
      </trkpt>
      <trkpt lat="49.77429" lon="1.00197">
        <ele>74.5</ele>
        <time>2011-08-25T12:01:52Z</time>
      </trkpt>
      <trkpt lat="49.77437" lon="1.00197">
        <ele>74.3</ele>
        <time>2011-08-25T12:01:57Z</time>
      </trkpt>
      <trkpt lat="49.77445" lon="1.002">
        <ele>75.1</ele>
        <time>2011-08-25T12:02:03Z</time>
      </trkpt>
      <trkpt lat="49.77452" lon="1.00194">
        <ele>75.8</ele>
        <time>2011-08-25T12:02:42Z</time>
      </trkpt>
      <trkpt lat="49.77453" lon="1.00193">
        <ele>75.9</ele>
        <time>2011-08-25T12:02:43Z</time>
      </trkpt>
      <trkpt lat="49.77464" lon="1.00176">
        <ele>76.4</ele>
        <time>2011-08-25T12:03:15Z</time>
      </trkpt>
      <trkpt lat="49.7747" lon="1.00167">
        <ele>76</ele>
        <time>2011-08-25T12:03:24Z</time>
      </trkpt>
      <trkpt lat="49.77477" lon="1.0016">
        <ele>75</ele>
        <time>2011-08-25T12:03:29Z</time>
      </trkpt>
      <trkpt lat="49.77484" lon="1.00154">
        <ele>74.6</ele>
        <time>2011-08-25T12:03:36Z</time>
      </trkpt>
      <trkpt lat="49.7749" lon="1.00145">
        <ele>74.3</ele>
        <time>2011-08-25T12:03:53Z</time>
      </trkpt>
      <trkpt lat="49.7749" lon="1.00144">
        <ele>74</ele>
        <time>2011-08-25T12:03:54Z</time>
      </trkpt>
      <trkpt lat="49.77496" lon="1.00121">
        <ele>73.4</ele>
        <time>2011-08-25T12:04:08Z</time>
      </trkpt>
      <trkpt lat="49.77495" lon="1.00108">
        <ele>74.8</ele>
        <time>2011-08-25T12:04:16Z</time>
      </trkpt>
      <trkpt lat="49.77495" lon="1.00096">
        <ele>75.6</ele>
        <time>2011-08-25T12:04:22Z</time>
      </trkpt>
      <trkpt lat="49.77498" lon="1.00084">
        <ele>76.5</ele>
        <time>2011-08-25T12:04:30Z</time>
      </trkpt>
      <trkpt lat="49.775" lon="1.00071">
        <ele>77.8</ele>
        <time>2011-08-25T12:04:39Z</time>
      </trkpt>
      <trkpt lat="49.77502" lon="1.00059">
        <ele>78.1</ele>
        <time>2011-08-25T12:04:49Z</time>
      </trkpt>
      <trkpt lat="49.77506" lon="1.00046">
        <ele>78.3</ele>
        <time>2011-08-25T12:04:57Z</time>
      </trkpt>
      <trkpt lat="49.77506" lon="1.00045">
        <ele>77.4</ele>
        <time>2011-08-25T12:04:58Z</time>
      </trkpt>
      <trkpt lat="49.77508" lon="1.00019">
        <ele>74.5</ele>
        <time>2011-08-25T12:05:28Z</time>
      </trkpt>
      <trkpt lat="49.77507" lon="1.00007">
        <ele>73</ele>
        <time>2011-08-25T12:05:34Z</time>
      </trkpt>
      <trkpt lat="49.77506" lon="0.99994">
        <ele>71.4</ele>
        <time>2011-08-25T12:05:40Z</time>
      </trkpt>
      <trkpt lat="49.775" lon="0.99984">
        <ele>72</ele>
        <time>2011-08-25T12:05:59Z</time>
      </trkpt>
      <trkpt lat="49.77498" lon="0.99983">
        <ele>71.5</ele>
        <time>2011-08-25T12:06:00Z</time>
      </trkpt>
      <trkpt lat="49.77494" lon="0.99963">
        <ele>71.8</ele>
        <time>2011-08-25T12:06:10Z</time>
      </trkpt>
      <trkpt lat="49.77495" lon="0.9995">
        <ele>70.9</ele>
        <time>2011-08-25T12:06:16Z</time>
      </trkpt>
      <trkpt lat="49.77496" lon="0.99938">
        <ele>72</ele>
        <time>2011-08-25T12:06:21Z</time>
      </trkpt>
      <trkpt lat="49.77496" lon="0.99925">
        <ele>71.9</ele>
        <time>2011-08-25T12:06:32Z</time>
      </trkpt>
      <trkpt lat="49.77492" lon="0.99913">
        <ele>69</ele>
        <time>2011-08-25T12:06:49Z</time>
      </trkpt>
      <trkpt lat="49.77484" lon="0.99909">
        <ele>65.9</ele>
        <time>2011-08-25T12:07:24Z</time>
      </trkpt>
      <trkpt lat="49.77483" lon="0.99908">
        <ele>66</ele>
        <time>2011-08-25T12:07:25Z</time>
      </trkpt>
      <trkpt lat="49.77477" lon="0.99899">
        <ele>73.4</ele>
        <time>2011-08-25T12:08:49Z</time>
      </trkpt>
      <trkpt lat="49.77473" lon="0.99875">
        <ele>70.5</ele>
        <time>2011-08-25T12:09:02Z</time>
      </trkpt>
      <trkpt lat="49.77471" lon="0.99863">
        <ele>70.1</ele>
        <time>2011-08-25T12:09:07Z</time>
      </trkpt>
      <trkpt lat="49.7747" lon="0.9985">
        <ele>70.5</ele>
        <time>2011-08-25T12:09:13Z</time>
      </trkpt>
      <trkpt lat="49.77468" lon="0.99838">
        <ele>68.3</ele>
        <time>2011-08-25T12:09:19Z</time>
      </trkpt>
      <trkpt lat="49.77466" lon="0.99826">
        <ele>67.9</ele>
        <time>2011-08-25T12:09:25Z</time>
      </trkpt>
      <trkpt lat="49.77462" lon="0.99815">
        <ele>69.1</ele>
        <time>2011-08-25T12:09:31Z</time>
      </trkpt>
      <trkpt lat="49.77454" lon="0.99813">
        <ele>69</ele>
        <time>2011-08-25T12:09:38Z</time>
      </trkpt>
      <trkpt lat="49.77446" lon="0.9982">
        <ele>69</ele>
        <time>2011-08-25T12:09:47Z</time>
      </trkpt>
      <trkpt lat="49.7744" lon="0.99829">
        <ele>70.8</ele>
        <time>2011-08-25T12:09:54Z</time>
      </trkpt>
      <trkpt lat="49.77439" lon="0.9983">
        <ele>70.8</ele>
        <time>2011-08-25T12:09:55Z</time>
      </trkpt>
      <trkpt lat="49.77424" lon="0.9984">
        <ele>69.1</ele>
        <time>2011-08-25T12:10:21Z</time>
      </trkpt>
      <trkpt lat="49.77416" lon="0.99846">
        <ele>68.4</ele>
        <time>2011-08-25T12:10:27Z</time>
      </trkpt>
      <trkpt lat="49.77409" lon="0.99851">
        <ele>67</ele>
        <time>2011-08-25T12:10:32Z</time>
      </trkpt>
      <trkpt lat="49.77402" lon="0.99857">
        <ele>67.5</ele>
        <time>2011-08-25T12:10:37Z</time>
      </trkpt>
      <trkpt lat="49.77394" lon="0.99864">
        <ele>68</ele>
        <time>2011-08-25T12:10:43Z</time>
      </trkpt>
      <trkpt lat="49.77387" lon="0.9987">
        <ele>67</ele>
        <time>2011-08-25T12:10:48Z</time>
      </trkpt>
      <trkpt lat="49.77379" lon="0.99877">
        <ele>66.8</ele>
        <time>2011-08-25T12:10:56Z</time>
      </trkpt>
      <trkpt lat="49.77378" lon="0.99878">
        <ele>66.3</ele>
        <time>2011-08-25T12:10:57Z</time>
      </trkpt>
      <trkpt lat="49.77364" lon="0.99885">
        <ele>65</ele>
        <time>2011-08-25T12:11:07Z</time>
      </trkpt>
      <trkpt lat="49.77357" lon="0.99889">
        <ele>65</ele>
        <time>2011-08-25T12:11:12Z</time>
      </trkpt>
      <trkpt lat="49.77348" lon="0.99892">
        <ele>66</ele>
        <time>2011-08-25T12:11:18Z</time>
      </trkpt>
      <trkpt lat="49.7734" lon="0.99893">
        <ele>66.5</ele>
        <time>2011-08-25T12:11:28Z</time>
      </trkpt>
      <trkpt lat="49.77333" lon="0.99892">
        <ele>67.1</ele>
        <time>2011-08-25T12:11:34Z</time>
      </trkpt>
      <trkpt lat="49.77324" lon="0.99892">
        <ele>67</ele>
        <time>2011-08-25T12:11:39Z</time>
      </trkpt>
      <trkpt lat="49.77316" lon="0.99894">
        <ele>66.5</ele>
        <time>2011-08-25T12:11:46Z</time>
      </trkpt>
      <trkpt lat="49.77308" lon="0.99892">
        <ele>67</ele>
        <time>2011-08-25T12:11:52Z</time>
      </trkpt>
      <trkpt lat="49.773" lon="0.99894">
        <ele>67.6</ele>
        <time>2011-08-25T12:12:02Z</time>
      </trkpt>
      <trkpt lat="49.77298" lon="0.99894">
        <ele>68.5</ele>
        <time>2011-08-25T12:12:03Z</time>
      </trkpt>
      <trkpt lat="49.77286" lon="0.99905">
        <ele>69.9</ele>
        <time>2011-08-25T12:12:12Z</time>
      </trkpt>
      <trkpt lat="49.7728" lon="0.99912">
        <ele>69.4</ele>
        <time>2011-08-25T12:12:19Z</time>
      </trkpt>
      <trkpt lat="49.77274" lon="0.99923">
        <ele>69.5</ele>
        <time>2011-08-25T12:12:25Z</time>
      </trkpt>
      <trkpt lat="49.77269" lon="0.99935">
        <ele>68.5</ele>
        <time>2011-08-25T12:12:32Z</time>
      </trkpt>
      <trkpt lat="49.77263" lon="0.99944">
        <ele>69.4</ele>
        <time>2011-08-25T12:12:39Z</time>
      </trkpt>
      <trkpt lat="49.77256" lon="0.9995">
        <ele>69</ele>
        <time>2011-08-25T12:12:47Z</time>
      </trkpt>
      <trkpt lat="49.77248" lon="0.99954">
        <ele>69</ele>
        <time>2011-08-25T12:12:52Z</time>
      </trkpt>
      <trkpt lat="49.7724" lon="0.99959">
        <ele>69.5</ele>
        <time>2011-08-25T12:13:00Z</time>
      </trkpt>
      <trkpt lat="49.77233" lon="0.99965">
        <ele>68.5</ele>
        <time>2011-08-25T12:13:07Z</time>
      </trkpt>
      <trkpt lat="49.77231" lon="0.99966">
        <ele>68.5</ele>
        <time>2011-08-25T12:13:08Z</time>
      </trkpt>
      <trkpt lat="49.77219" lon="0.99973">
        <ele>66.3</ele>
        <time>2011-08-25T12:13:18Z</time>
      </trkpt>
      <trkpt lat="49.77212" lon="0.9998">
        <ele>67.1</ele>
        <time>2011-08-25T12:13:25Z</time>
      </trkpt>
      <trkpt lat="49.77206" lon="0.99988">
        <ele>67.9</ele>
        <time>2011-08-25T12:13:34Z</time>
      </trkpt>
      <trkpt lat="49.772" lon="0.99996">
        <ele>68.1</ele>
        <time>2011-08-25T12:13:42Z</time>
      </trkpt>
      <trkpt lat="49.77193" lon="1.00001">
        <ele>68.5</ele>
        <time>2011-08-25T12:13:46Z</time>
      </trkpt>
      <trkpt lat="49.77186" lon="1.00006">
        <ele>70.3</ele>
        <time>2011-08-25T12:13:51Z</time>
      </trkpt>
      <trkpt lat="49.77178" lon="1.00012">
        <ele>71</ele>
        <time>2011-08-25T12:13:58Z</time>
      </trkpt>
      <trkpt lat="49.77169" lon="1.00015">
        <ele>71.3</ele>
        <time>2011-08-25T12:14:03Z</time>
      </trkpt>
      <trkpt lat="49.77161" lon="1.00017">
        <ele>71.9</ele>
        <time>2011-08-25T12:14:08Z</time>
      </trkpt>
      <trkpt lat="49.7716" lon="1.00017">
        <ele>71</ele>
        <time>2011-08-25T12:14:09Z</time>
      </trkpt>
      <trkpt lat="49.77144" lon="1.00016">
        <ele>70.5</ele>
        <time>2011-08-25T12:14:19Z</time>
      </trkpt>
      <trkpt lat="49.77136" lon="1.00015">
        <ele>70</ele>
        <time>2011-08-25T12:14:24Z</time>
      </trkpt>
      <trkpt lat="49.77127" lon="1.00016">
        <ele>69.6</ele>
        <time>2011-08-25T12:14:32Z</time>
      </trkpt>
      <trkpt lat="49.77119" lon="1.00017">
        <ele>69.8</ele>
        <time>2011-08-25T12:14:42Z</time>
      </trkpt>
      <trkpt lat="49.77111" lon="1.00017">
        <ele>71.3</ele>
        <time>2011-08-25T12:14:54Z</time>
      </trkpt>
      <trkpt lat="49.77103" lon="1.00016">
        <ele>71.9</ele>
        <time>2011-08-25T12:15:01Z</time>
      </trkpt>
      <trkpt lat="49.77094" lon="1.00015">
        <ele>72.1</ele>
        <time>2011-08-25T12:15:06Z</time>
      </trkpt>
      <trkpt lat="49.77087" lon="1.00012">
        <ele>72.4</ele>
        <time>2011-08-25T12:15:12Z</time>
      </trkpt>
      <trkpt lat="49.77084" lon="1.00012">
        <ele>71.9</ele>
        <time>2011-08-25T12:15:13Z</time>
      </trkpt>
      <trkpt lat="49.7707" lon="1.00015">
        <ele>69.9</ele>
        <time>2011-08-25T12:16:00Z</time>
      </trkpt>
      <trkpt lat="49.77061" lon="1.00015">
        <ele>74.8</ele>
        <time>2011-08-25T12:16:49Z</time>
      </trkpt>
      <trkpt lat="49.7706" lon="1.00015">
        <ele>74.5</ele>
        <time>2011-08-25T12:16:50Z</time>
      </trkpt>
      <trkpt lat="49.77045" lon="1.00012">
        <ele>74</ele>
        <time>2011-08-25T12:17:32Z</time>
      </trkpt>
      <trkpt lat="49.77036" lon="1.00013">
        <ele>72.8</ele>
        <time>2011-08-25T12:17:40Z</time>
      </trkpt>
      <trkpt lat="49.77028" lon="1.00014">
        <ele>72.1</ele>
        <time>2011-08-25T12:17:44Z</time>
      </trkpt>
      <trkpt lat="49.7702" lon="1.00012">
        <ele>71.1</ele>
        <time>2011-08-25T12:17:53Z</time>
      </trkpt>
      <trkpt lat="49.77019" lon="1.00012">
        <ele>71.4</ele>
        <time>2011-08-25T12:17:54Z</time>
      </trkpt>
      <trkpt lat="49.77003" lon="1.00015">
        <ele>73.4</ele>
        <time>2011-08-25T12:18:18Z</time>
      </trkpt>
      <trkpt lat="49.76996" lon="1.00016">
        <ele>72.6</ele>
        <time>2011-08-25T12:18:25Z</time>
      </trkpt>
      <trkpt lat="49.76988" lon="1.00015">
        <ele>72</ele>
        <time>2011-08-25T12:18:31Z</time>
      </trkpt>
      <trkpt lat="49.76981" lon="1.00015">
        <ele>71.8</ele>
        <time>2011-08-25T12:18:36Z</time>
      </trkpt>
      <trkpt lat="49.76973" lon="1.00014">
        <ele>72.1</ele>
        <time>2011-08-25T12:18:43Z</time>
      </trkpt>
      <trkpt lat="49.76964" lon="1.00015">
        <ele>72.5</ele>
        <time>2011-08-25T12:18:50Z</time>
      </trkpt>
      <trkpt lat="49.76956" lon="1.00016">
        <ele>73.3</ele>
        <time>2011-08-25T12:18:56Z</time>
      </trkpt>
      <trkpt lat="49.76954" lon="1.00015">
        <ele>73.5</ele>
        <time>2011-08-25T12:18:57Z</time>
      </trkpt>
      <trkpt lat="49.76941" lon="1.00012">
        <ele>74</ele>
        <time>2011-08-25T12:19:06Z</time>
      </trkpt>
      <trkpt lat="49.76933" lon="1.00007">
        <ele>75</ele>
        <time>2011-08-25T12:19:12Z</time>
      </trkpt>
      <trkpt lat="49.76924" lon="1.00003">
        <ele>74.9</ele>
        <time>2011-08-25T12:19:20Z</time>
      </trkpt>
      <trkpt lat="49.76916" lon="0.99999">
        <ele>75.9</ele>
        <time>2011-08-25T12:19:26Z</time>
      </trkpt>
      <trkpt lat="49.76909" lon="0.99993">
        <ele>76.9</ele>
        <time>2011-08-25T12:19:33Z</time>
      </trkpt>
      <trkpt lat="49.76901" lon="0.99987">
        <ele>76</ele>
        <time>2011-08-25T12:19:38Z</time>
      </trkpt>
      <trkpt lat="49.76892" lon="0.99982">
        <ele>76.5</ele>
        <time>2011-08-25T12:19:46Z</time>
      </trkpt>
      <trkpt lat="49.76885" lon="0.99975">
        <ele>75.5</ele>
        <time>2011-08-25T12:19:53Z</time>
      </trkpt>
      <trkpt lat="49.76878" lon="0.9997">
        <ele>74.3</ele>
        <time>2011-08-25T12:19:58Z</time>
      </trkpt>
      <trkpt lat="49.76876" lon="0.99969">
        <ele>74</ele>
        <time>2011-08-25T12:19:59Z</time>
      </trkpt>
      <trkpt lat="49.76862" lon="0.99959">
        <ele>72</ele>
        <time>2011-08-25T12:20:09Z</time>
      </trkpt>
      <trkpt lat="49.76855" lon="0.99953">
        <ele>72.6</ele>
        <time>2011-08-25T12:20:18Z</time>
      </trkpt>
      <trkpt lat="49.7685" lon="0.99944">
        <ele>73.5</ele>
        <time>2011-08-25T12:20:27Z</time>
      </trkpt>
      <trkpt lat="49.76843" lon="0.9994">
        <ele>73.9</ele>
        <time>2011-08-25T12:20:31Z</time>
      </trkpt>
      <trkpt lat="49.76835" lon="0.99935">
        <ele>73.9</ele>
        <time>2011-08-25T12:20:36Z</time>
      </trkpt>
      <trkpt lat="49.76826" lon="0.99932">
        <ele>72.6</ele>
        <time>2011-08-25T12:20:40Z</time>
      </trkpt>
      <trkpt lat="49.76819" lon="0.99931">
        <ele>73</ele>
        <time>2011-08-25T12:20:45Z</time>
      </trkpt>
      <trkpt lat="49.76811" lon="0.99928">
        <ele>71.6</ele>
        <time>2011-08-25T12:20:50Z</time>
      </trkpt>
      <trkpt lat="49.76803" lon="0.99926">
        <ele>70.6</ele>
        <time>2011-08-25T12:20:56Z</time>
      </trkpt>
      <trkpt lat="49.76794" lon="0.99928">
        <ele>68.1</ele>
        <time>2011-08-25T12:21:02Z</time>
      </trkpt>
      <trkpt lat="49.76793" lon="0.99928">
        <ele>67.9</ele>
        <time>2011-08-25T12:21:03Z</time>
      </trkpt>
      <trkpt lat="49.76778" lon="0.99932">
        <ele>69.8</ele>
        <time>2011-08-25T12:21:17Z</time>
      </trkpt>
      <trkpt lat="49.76769" lon="0.99933">
        <ele>71.8</ele>
        <time>2011-08-25T12:21:29Z</time>
      </trkpt>
      <trkpt lat="49.76761" lon="0.99929">
        <ele>71.9</ele>
        <time>2011-08-25T12:21:40Z</time>
      </trkpt>
      <trkpt lat="49.76755" lon="0.99921">
        <ele>74</ele>
        <time>2011-08-25T12:21:48Z</time>
      </trkpt>
      <trkpt lat="49.7675" lon="0.99911">
        <ele>74.5</ele>
        <time>2011-08-25T12:21:54Z</time>
      </trkpt>
      <trkpt lat="49.76747" lon="0.99898">
        <ele>75.5</ele>
        <time>2011-08-25T12:22:03Z</time>
      </trkpt>
      <trkpt lat="49.76747" lon="0.99897">
        <ele>75.5</ele>
        <time>2011-08-25T12:22:04Z</time>
      </trkpt>
      <trkpt lat="49.76736" lon="0.99881">
        <ele>76.9</ele>
        <time>2011-08-25T12:22:16Z</time>
      </trkpt>
      <trkpt lat="49.76729" lon="0.99873">
        <ele>76.5</ele>
        <time>2011-08-25T12:22:21Z</time>
      </trkpt>
      <trkpt lat="49.76723" lon="0.99868">
        <ele>75.3</ele>
        <time>2011-08-25T12:22:25Z</time>
      </trkpt>
      <trkpt lat="49.76717" lon="0.9986">
        <ele>75.6</ele>
        <time>2011-08-25T12:22:30Z</time>
      </trkpt>
      <trkpt lat="49.7671" lon="0.99854">
        <ele>76</ele>
        <time>2011-08-25T12:22:34Z</time>
      </trkpt>
      <trkpt lat="49.76705" lon="0.99846">
        <ele>75.3</ele>
        <time>2011-08-25T12:22:38Z</time>
      </trkpt>
      <trkpt lat="49.767" lon="0.99837">
        <ele>74</ele>
        <time>2011-08-25T12:22:42Z</time>
      </trkpt>
      <trkpt lat="49.76695" lon="0.99828">
        <ele>72.5</ele>
        <time>2011-08-25T12:22:47Z</time>
      </trkpt>
      <trkpt lat="49.76688" lon="0.99821">
        <ele>71.4</ele>
        <time>2011-08-25T12:22:52Z</time>
      </trkpt>
      <trkpt lat="49.76683" lon="0.9981">
        <ele>71</ele>
        <time>2011-08-25T12:22:58Z</time>
      </trkpt>
      <trkpt lat="49.76678" lon="0.998">
        <ele>71.4</ele>
        <time>2011-08-25T12:23:05Z</time>
      </trkpt>
      <trkpt lat="49.76678" lon="0.99798">
        <ele>71.9</ele>
        <time>2011-08-25T12:23:06Z</time>
      </trkpt>
      <trkpt lat="49.76666" lon="0.99783">
        <ele>72.6</ele>
        <time>2011-08-25T12:23:16Z</time>
      </trkpt>
      <trkpt lat="49.7666" lon="0.99773">
        <ele>73</ele>
        <time>2011-08-25T12:23:22Z</time>
      </trkpt>
      <trkpt lat="49.76654" lon="0.99764">
        <ele>74.1</ele>
        <time>2011-08-25T12:23:29Z</time>
      </trkpt>
      <trkpt lat="49.76648" lon="0.99757">
        <ele>73.6</ele>
        <time>2011-08-25T12:23:34Z</time>
      </trkpt>
      <trkpt lat="49.76641" lon="0.99751">
        <ele>74.6</ele>
        <time>2011-08-25T12:23:39Z</time>
      </trkpt>
      <trkpt lat="49.76635" lon="0.99743">
        <ele>76</ele>
        <time>2011-08-25T12:23:44Z</time>
      </trkpt>
      <trkpt lat="49.76629" lon="0.99735">
        <ele>75.9</ele>
        <time>2011-08-25T12:23:50Z</time>
      </trkpt>
      <trkpt lat="49.76622" lon="0.99729">
        <ele>75.5</ele>
        <time>2011-08-25T12:23:55Z</time>
      </trkpt>
      <trkpt lat="49.76616" lon="0.99721">
        <ele>77.5</ele>
        <time>2011-08-25T12:24:01Z</time>
      </trkpt>
      <trkpt lat="49.76609" lon="0.99712">
        <ele>78</ele>
        <time>2011-08-25T12:24:08Z</time>
      </trkpt>
      <trkpt lat="49.76607" lon="0.99711">
        <ele>77.3</ele>
        <time>2011-08-25T12:24:09Z</time>
      </trkpt>
      <trkpt lat="49.76595" lon="0.99697">
        <ele>75.1</ele>
        <time>2011-08-25T12:24:20Z</time>
      </trkpt>
      <trkpt lat="49.76589" lon="0.9969">
        <ele>75.3</ele>
        <time>2011-08-25T12:24:26Z</time>
      </trkpt>
      <trkpt lat="49.76582" lon="0.99681">
        <ele>74.6</ele>
        <time>2011-08-25T12:24:32Z</time>
      </trkpt>
      <trkpt lat="49.76575" lon="0.99674">
        <ele>73.9</ele>
        <time>2011-08-25T12:24:39Z</time>
      </trkpt>
      <trkpt lat="49.76568" lon="0.99666">
        <ele>73.5</ele>
        <time>2011-08-25T12:24:45Z</time>
      </trkpt>
      <trkpt lat="49.76561" lon="0.99658">
        <ele>74</ele>
        <time>2011-08-25T12:24:53Z</time>
      </trkpt>
      <trkpt lat="49.76554" lon="0.9965">
        <ele>74.9</ele>
        <time>2011-08-25T12:24:59Z</time>
      </trkpt>
      <trkpt lat="49.76548" lon="0.99643">
        <ele>73.9</ele>
        <time>2011-08-25T12:25:04Z</time>
      </trkpt>
      <trkpt lat="49.7654" lon="0.99635">
        <ele>74</ele>
        <time>2011-08-25T12:25:10Z</time>
      </trkpt>
      <trkpt lat="49.76539" lon="0.99635">
        <ele>73.5</ele>
        <time>2011-08-25T12:25:11Z</time>
      </trkpt>
      <trkpt lat="49.76526" lon="0.9962">
        <ele>75.1</ele>
        <time>2011-08-25T12:25:25Z</time>
      </trkpt>
      <trkpt lat="49.76519" lon="0.99612">
        <ele>77.9</ele>
        <time>2011-08-25T12:25:35Z</time>
      </trkpt>
      <trkpt lat="49.76513" lon="0.99601">
        <ele>79.9</ele>
        <time>2011-08-25T12:25:47Z</time>
      </trkpt>
      <trkpt lat="49.76507" lon="0.99591">
        <ele>80</ele>
        <time>2011-08-25T12:25:55Z</time>
      </trkpt>
      <trkpt lat="49.765" lon="0.99584">
        <ele>80.5</ele>
        <time>2011-08-25T12:26:01Z</time>
      </trkpt>
      <trkpt lat="49.76495" lon="0.99574">
        <ele>80.4</ele>
        <time>2011-08-25T12:26:07Z</time>
      </trkpt>
      <trkpt lat="49.76491" lon="0.99563">
        <ele>81</ele>
        <time>2011-08-25T12:26:13Z</time>
      </trkpt>
      <trkpt lat="49.7649" lon="0.99561">
        <ele>81.3</ele>
        <time>2011-08-25T12:26:14Z</time>
      </trkpt>
      <trkpt lat="49.76479" lon="0.99545">
        <ele>82.5</ele>
        <time>2011-08-25T12:26:27Z</time>
      </trkpt>
      <trkpt lat="49.76474" lon="0.99535">
        <ele>85.8</ele>
        <time>2011-08-25T12:26:35Z</time>
      </trkpt>
      <trkpt lat="49.76468" lon="0.99526">
        <ele>87.5</ele>
        <time>2011-08-25T12:26:42Z</time>
      </trkpt>
      <trkpt lat="49.76465" lon="0.99514">
        <ele>89.3</ele>
        <time>2011-08-25T12:26:49Z</time>
      </trkpt>
      <trkpt lat="49.76462" lon="0.99503">
        <ele>90.3</ele>
        <time>2011-08-25T12:26:56Z</time>
      </trkpt>
      <trkpt lat="49.76456" lon="0.99494">
        <ele>92.8</ele>
        <time>2011-08-25T12:27:02Z</time>
      </trkpt>
      <trkpt lat="49.76451" lon="0.99484">
        <ele>92.4</ele>
        <time>2011-08-25T12:27:08Z</time>
      </trkpt>
      <trkpt lat="49.76445" lon="0.99476">
        <ele>93</ele>
        <time>2011-08-25T12:27:13Z</time>
      </trkpt>
      <trkpt lat="49.76439" lon="0.99469">
        <ele>92.5</ele>
        <time>2011-08-25T12:27:18Z</time>
      </trkpt>
      <trkpt lat="49.76438" lon="0.99467">
        <ele>92</ele>
        <time>2011-08-25T12:27:19Z</time>
      </trkpt>
      <trkpt lat="49.76426" lon="0.99451">
        <ele>90</ele>
        <time>2011-08-25T12:27:32Z</time>
      </trkpt>
      <trkpt lat="49.76421" lon="0.99442">
        <ele>90.3</ele>
        <time>2011-08-25T12:27:38Z</time>
      </trkpt>
      <trkpt lat="49.76413" lon="0.99435">
        <ele>90.1</ele>
        <time>2011-08-25T12:27:44Z</time>
      </trkpt>
      <trkpt lat="49.76408" lon="0.99425">
        <ele>90.6</ele>
        <time>2011-08-25T12:27:51Z</time>
      </trkpt>
      <trkpt lat="49.76402" lon="0.99416">
        <ele>90.9</ele>
        <time>2011-08-25T12:27:57Z</time>
      </trkpt>
      <trkpt lat="49.76393" lon="0.99412">
        <ele>91</ele>
        <time>2011-08-25T12:28:02Z</time>
      </trkpt>
      <trkpt lat="49.76386" lon="0.99405">
        <ele>93</ele>
        <time>2011-08-25T12:28:10Z</time>
      </trkpt>
      <trkpt lat="49.7638" lon="0.99395">
        <ele>95</ele>
        <time>2011-08-25T12:28:17Z</time>
      </trkpt>
      <trkpt lat="49.76377" lon="0.99384">
        <ele>96.3</ele>
        <time>2011-08-25T12:28:28Z</time>
      </trkpt>
      <trkpt lat="49.76376" lon="0.99383">
        <ele>96.4</ele>
        <time>2011-08-25T12:28:29Z</time>
      </trkpt>
      <trkpt lat="49.76366" lon="0.99365">
        <ele>99.8</ele>
        <time>2011-08-25T12:28:42Z</time>
      </trkpt>
      <trkpt lat="49.76362" lon="0.99355">
        <ele>99</ele>
        <time>2011-08-25T12:28:49Z</time>
      </trkpt>
      <trkpt lat="49.76355" lon="0.99348">
        <ele>98</ele>
        <time>2011-08-25T12:28:54Z</time>
      </trkpt>
      <trkpt lat="49.76349" lon="0.9934">
        <ele>98.5</ele>
        <time>2011-08-25T12:28:59Z</time>
      </trkpt>
      <trkpt lat="49.76341" lon="0.99333">
        <ele>99.5</ele>
        <time>2011-08-25T12:29:06Z</time>
      </trkpt>
      <trkpt lat="49.76335" lon="0.99325">
        <ele>101.3</ele>
        <time>2011-08-25T12:29:13Z</time>
      </trkpt>
      <trkpt lat="49.76328" lon="0.99318">
        <ele>102.3</ele>
        <time>2011-08-25T12:29:20Z</time>
      </trkpt>
      <trkpt lat="49.76321" lon="0.99312">
        <ele>99.6</ele>
        <time>2011-08-25T12:29:37Z</time>
      </trkpt>
      <trkpt lat="49.7632" lon="0.99312">
        <ele>99</ele>
        <time>2011-08-25T12:29:38Z</time>
      </trkpt>
      <trkpt lat="49.76307" lon="0.99299">
        <ele>97.6</ele>
        <time>2011-08-25T12:29:49Z</time>
      </trkpt>
      <trkpt lat="49.763" lon="0.9929">
        <ele>99</ele>
        <time>2011-08-25T12:29:55Z</time>
      </trkpt>
      <trkpt lat="49.76293" lon="0.99283">
        <ele>99.3</ele>
        <time>2011-08-25T12:30:01Z</time>
      </trkpt>
      <trkpt lat="49.76286" lon="0.99278">
        <ele>99.8</ele>
        <time>2011-08-25T12:30:06Z</time>
      </trkpt>
      <trkpt lat="49.7628" lon="0.99271">
        <ele>99.6</ele>
        <time>2011-08-25T12:30:11Z</time>
      </trkpt>
      <trkpt lat="49.76273" lon="0.99264">
        <ele>99.1</ele>
        <time>2011-08-25T12:30:17Z</time>
      </trkpt>
      <trkpt lat="49.76267" lon="0.99257">
        <ele>99.6</ele>
        <time>2011-08-25T12:30:23Z</time>
      </trkpt>
      <trkpt lat="49.76259" lon="0.9925">
        <ele>99</ele>
        <time>2011-08-25T12:30:29Z</time>
      </trkpt>
      <trkpt lat="49.76253" lon="0.99241">
        <ele>99</ele>
        <time>2011-08-25T12:30:35Z</time>
      </trkpt>
      <trkpt lat="49.76247" lon="0.99234">
        <ele>98.5</ele>
        <time>2011-08-25T12:30:41Z</time>
      </trkpt>
      <trkpt lat="49.76245" lon="0.99233">
        <ele>97.8</ele>
        <time>2011-08-25T12:30:42Z</time>
      </trkpt>
      <trkpt lat="49.76235" lon="0.99217">
        <ele>96.5</ele>
        <time>2011-08-25T12:30:53Z</time>
      </trkpt>
      <trkpt lat="49.76229" lon="0.99208">
        <ele>95</ele>
        <time>2011-08-25T12:31:00Z</time>
      </trkpt>
      <trkpt lat="49.76223" lon="0.99199">
        <ele>94.5</ele>
        <time>2011-08-25T12:31:06Z</time>
      </trkpt>
      <trkpt lat="49.76218" lon="0.99188">
        <ele>94.3</ele>
        <time>2011-08-25T12:31:13Z</time>
      </trkpt>
      <trkpt lat="49.76213" lon="0.99178">
        <ele>95.1</ele>
        <time>2011-08-25T12:31:19Z</time>
      </trkpt>
      <trkpt lat="49.76206" lon="0.9917">
        <ele>96.6</ele>
        <time>2011-08-25T12:31:25Z</time>
      </trkpt>
      <trkpt lat="49.76201" lon="0.9916">
        <ele>97.9</ele>
        <time>2011-08-25T12:31:31Z</time>
      </trkpt>
      <trkpt lat="49.76196" lon="0.99149">
        <ele>99</ele>
        <time>2011-08-25T12:31:55Z</time>
      </trkpt>
      <trkpt lat="49.76196" lon="0.99147">
        <ele>98.9</ele>
        <time>2011-08-25T12:31:56Z</time>
      </trkpt>
      <trkpt lat="49.76188" lon="0.99127">
        <ele>100.5</ele>
        <time>2011-08-25T12:32:12Z</time>
      </trkpt>
      <trkpt lat="49.76184" lon="0.99116">
        <ele>101.5</ele>
        <time>2011-08-25T12:32:20Z</time>
      </trkpt>
      <trkpt lat="49.7618" lon="0.99104">
        <ele>101.4</ele>
        <time>2011-08-25T12:32:28Z</time>
      </trkpt>
      <trkpt lat="49.76176" lon="0.99093">
        <ele>102.5</ele>
        <time>2011-08-25T12:32:36Z</time>
      </trkpt>
      <trkpt lat="49.76172" lon="0.99083">
        <ele>103.9</ele>
        <time>2011-08-25T12:32:42Z</time>
      </trkpt>
      <trkpt lat="49.76167" lon="0.99072">
        <ele>104.6</ele>
        <time>2011-08-25T12:32:49Z</time>
      </trkpt>
      <trkpt lat="49.76163" lon="0.99062">
        <ele>105.9</ele>
        <time>2011-08-25T12:32:55Z</time>
      </trkpt>
      <trkpt lat="49.76159" lon="0.99051">
        <ele>105.8</ele>
        <time>2011-08-25T12:33:01Z</time>
      </trkpt>
      <trkpt lat="49.76159" lon="0.99049">
        <ele>106.1</ele>
        <time>2011-08-25T12:33:02Z</time>
      </trkpt>
      <trkpt lat="49.7615" lon="0.99029">
        <ele>105.3</ele>
        <time>2011-08-25T12:33:14Z</time>
      </trkpt>
      <trkpt lat="49.76146" lon="0.99018">
        <ele>105</ele>
        <time>2011-08-25T12:33:21Z</time>
      </trkpt>
      <trkpt lat="49.76142" lon="0.99006">
        <ele>105.1</ele>
        <time>2011-08-25T12:33:30Z</time>
      </trkpt>
      <trkpt lat="49.76138" lon="0.98995">
        <ele>104.6</ele>
        <time>2011-08-25T12:33:37Z</time>
      </trkpt>
      <trkpt lat="49.76133" lon="0.98985">
        <ele>104.1</ele>
        <time>2011-08-25T12:33:43Z</time>
      </trkpt>
      <trkpt lat="49.76129" lon="0.98974">
        <ele>103.5</ele>
        <time>2011-08-25T12:33:49Z</time>
      </trkpt>
      <trkpt lat="49.76125" lon="0.98963">
        <ele>103.6</ele>
        <time>2011-08-25T12:34:09Z</time>
      </trkpt>
      <trkpt lat="49.76124" lon="0.98961">
        <ele>103.5</ele>
        <time>2011-08-25T12:34:10Z</time>
      </trkpt>
      <trkpt lat="49.76118" lon="0.9894">
        <ele>102.1</ele>
        <time>2011-08-25T12:34:23Z</time>
      </trkpt>
      <trkpt lat="49.76113" lon="0.98929">
        <ele>102.1</ele>
        <time>2011-08-25T12:34:30Z</time>
      </trkpt>
      <trkpt lat="49.76109" lon="0.98917">
        <ele>101.8</ele>
        <time>2011-08-25T12:34:37Z</time>
      </trkpt>
      <trkpt lat="49.76105" lon="0.98905">
        <ele>101.8</ele>
        <time>2011-08-25T12:34:44Z</time>
      </trkpt>
      <trkpt lat="49.76101" lon="0.98895">
        <ele>101</ele>
        <time>2011-08-25T12:34:50Z</time>
      </trkpt>
      <trkpt lat="49.76096" lon="0.98884">
        <ele>101.6</ele>
        <time>2011-08-25T12:34:56Z</time>
      </trkpt>
      <trkpt lat="49.76091" lon="0.98873">
        <ele>102.5</ele>
        <time>2011-08-25T12:35:03Z</time>
      </trkpt>
      <trkpt lat="49.76087" lon="0.98861">
        <ele>103.5</ele>
        <time>2011-08-25T12:35:10Z</time>
      </trkpt>
      <trkpt lat="49.76086" lon="0.9886">
        <ele>103.9</ele>
        <time>2011-08-25T12:35:11Z</time>
      </trkpt>
      <trkpt lat="49.76077" lon="0.9884">
        <ele>105</ele>
        <time>2011-08-25T12:35:24Z</time>
      </trkpt>
      <trkpt lat="49.76072" lon="0.98831">
        <ele>104.6</ele>
        <time>2011-08-25T12:35:30Z</time>
      </trkpt>
      <trkpt lat="49.76067" lon="0.98821">
        <ele>105.1</ele>
        <time>2011-08-25T12:35:36Z</time>
      </trkpt>
      <trkpt lat="49.76062" lon="0.9881">
        <ele>105.5</ele>
        <time>2011-08-25T12:35:43Z</time>
      </trkpt>
      <trkpt lat="49.76056" lon="0.98801">
        <ele>105.4</ele>
        <time>2011-08-25T12:35:49Z</time>
      </trkpt>
      <trkpt lat="49.76052" lon="0.9879">
        <ele>104.5</ele>
        <time>2011-08-25T12:35:56Z</time>
      </trkpt>
      <trkpt lat="49.76047" lon="0.98778">
        <ele>105.8</ele>
        <time>2011-08-25T12:36:03Z</time>
      </trkpt>
      <trkpt lat="49.76042" lon="0.98767">
        <ele>105.5</ele>
        <time>2011-08-25T12:36:10Z</time>
      </trkpt>
      <trkpt lat="49.76037" lon="0.98756">
        <ele>104.8</ele>
        <time>2011-08-25T12:36:18Z</time>
      </trkpt>
      <trkpt lat="49.76036" lon="0.98755">
        <ele>104.9</ele>
        <time>2011-08-25T12:36:19Z</time>
      </trkpt>
      <trkpt lat="49.76027" lon="0.98735">
        <ele>104.9</ele>
        <time>2011-08-25T12:36:34Z</time>
      </trkpt>
      <trkpt lat="49.76021" lon="0.98725">
        <ele>105.3</ele>
        <time>2011-08-25T12:36:43Z</time>
      </trkpt>
      <trkpt lat="49.76015" lon="0.98716">
        <ele>106.3</ele>
        <time>2011-08-25T12:36:50Z</time>
      </trkpt>
      <trkpt lat="49.7601" lon="0.98707">
        <ele>106.6</ele>
        <time>2011-08-25T12:36:57Z</time>
      </trkpt>
      <trkpt lat="49.76003" lon="0.98699">
        <ele>106.8</ele>
        <time>2011-08-25T12:37:05Z</time>
      </trkpt>
      <trkpt lat="49.75997" lon="0.98689">
        <ele>107.6</ele>
        <time>2011-08-25T12:37:13Z</time>
      </trkpt>
      <trkpt lat="49.75992" lon="0.98679">
        <ele>108.3</ele>
        <time>2011-08-25T12:37:20Z</time>
      </trkpt>
      <trkpt lat="49.75991" lon="0.98677">
        <ele>108.5</ele>
        <time>2011-08-25T12:37:21Z</time>
      </trkpt>
      <trkpt lat="49.75982" lon="0.98658">
        <ele>108.9</ele>
        <time>2011-08-25T12:37:35Z</time>
      </trkpt>
      <trkpt lat="49.75977" lon="0.98646">
        <ele>109.1</ele>
        <time>2011-08-25T12:37:43Z</time>
      </trkpt>
      <trkpt lat="49.75972" lon="0.98637">
        <ele>110.3</ele>
        <time>2011-08-25T12:37:50Z</time>
      </trkpt>
      <trkpt lat="49.75967" lon="0.98628">
        <ele>109.5</ele>
        <time>2011-08-25T12:37:57Z</time>
      </trkpt>
      <trkpt lat="49.75962" lon="0.98619">
        <ele>109.5</ele>
        <time>2011-08-25T12:38:03Z</time>
      </trkpt>
      <trkpt lat="49.75956" lon="0.9861">
        <ele>110.3</ele>
        <time>2011-08-25T12:38:10Z</time>
      </trkpt>
      <trkpt lat="49.75951" lon="0.98601">
        <ele>110.3</ele>
        <time>2011-08-25T12:38:17Z</time>
      </trkpt>
      <trkpt lat="49.75944" lon="0.98592">
        <ele>112</ele>
        <time>2011-08-25T12:38:27Z</time>
      </trkpt>
      <trkpt lat="49.75943" lon="0.98591">
        <ele>112.5</ele>
        <time>2011-08-25T12:38:28Z</time>
      </trkpt>
      <trkpt lat="49.75932" lon="0.98574">
        <ele>113.9</ele>
        <time>2011-08-25T12:38:41Z</time>
      </trkpt>
      <trkpt lat="49.75928" lon="0.98563">
        <ele>115.1</ele>
        <time>2011-08-25T12:38:49Z</time>
      </trkpt>
      <trkpt lat="49.75922" lon="0.98553">
        <ele>114.4</ele>
        <time>2011-08-25T12:38:56Z</time>
      </trkpt>
      <trkpt lat="49.75916" lon="0.98543">
        <ele>114.8</ele>
        <time>2011-08-25T12:39:03Z</time>
      </trkpt>
      <trkpt lat="49.75913" lon="0.98532">
        <ele>115.3</ele>
        <time>2011-08-25T12:39:10Z</time>
      </trkpt>
      <trkpt lat="49.75908" lon="0.98523">
        <ele>117</ele>
        <time>2011-08-25T12:39:16Z</time>
      </trkpt>
      <trkpt lat="49.75902" lon="0.98514">
        <ele>116.5</ele>
        <time>2011-08-25T12:39:22Z</time>
      </trkpt>
      <trkpt lat="49.75896" lon="0.98505">
        <ele>116.9</ele>
        <time>2011-08-25T12:39:29Z</time>
      </trkpt>
      <trkpt lat="49.75896" lon="0.98503">
        <ele>117</ele>
        <time>2011-08-25T12:39:30Z</time>
      </trkpt>
      <trkpt lat="49.75887" lon="0.98484">
        <ele>116.6</ele>
        <time>2011-08-25T12:39:43Z</time>
      </trkpt>
      <trkpt lat="49.75882" lon="0.98474">
        <ele>116.4</ele>
        <time>2011-08-25T12:39:50Z</time>
      </trkpt>
      <trkpt lat="49.75876" lon="0.98465">
        <ele>116.1</ele>
        <time>2011-08-25T12:39:57Z</time>
      </trkpt>
      <trkpt lat="49.75871" lon="0.98454">
        <ele>116</ele>
        <time>2011-08-25T12:40:05Z</time>
      </trkpt>
      <trkpt lat="49.75866" lon="0.98444">
        <ele>115.9</ele>
        <time>2011-08-25T12:40:13Z</time>
      </trkpt>
      <trkpt lat="49.7586" lon="0.98435">
        <ele>116</ele>
        <time>2011-08-25T12:40:20Z</time>
      </trkpt>
      <trkpt lat="49.75855" lon="0.98425">
        <ele>116.9</ele>
        <time>2011-08-25T12:40:27Z</time>
      </trkpt>
      <trkpt lat="49.7585" lon="0.98415">
        <ele>117.1</ele>
        <time>2011-08-25T12:40:34Z</time>
      </trkpt>
      <trkpt lat="49.75849" lon="0.98413">
        <ele>117</ele>
        <time>2011-08-25T12:40:35Z</time>
      </trkpt>
      <trkpt lat="49.75838" lon="0.98396">
        <ele>118</ele>
        <time>2011-08-25T12:40:48Z</time>
      </trkpt>
      <trkpt lat="49.75832" lon="0.98387">
        <ele>119.3</ele>
        <time>2011-08-25T12:40:55Z</time>
      </trkpt>
      <trkpt lat="49.75825" lon="0.98379">
        <ele>119.4</ele>
        <time>2011-08-25T12:41:02Z</time>
      </trkpt>
      <trkpt lat="49.75819" lon="0.9837">
        <ele>119.5</ele>
        <time>2011-08-25T12:41:10Z</time>
      </trkpt>
      <trkpt lat="49.75813" lon="0.98361">
        <ele>119.3</ele>
        <time>2011-08-25T12:41:17Z</time>
      </trkpt>
      <trkpt lat="49.75806" lon="0.98352">
        <ele>118.3</ele>
        <time>2011-08-25T12:41:24Z</time>
      </trkpt>
      <trkpt lat="49.75801" lon="0.98343">
        <ele>117.9</ele>
        <time>2011-08-25T12:41:32Z</time>
      </trkpt>
      <trkpt lat="49.75795" lon="0.98333">
        <ele>117.3</ele>
        <time>2011-08-25T12:41:39Z</time>
      </trkpt>
      <trkpt lat="49.75794" lon="0.98332">
        <ele>117.3</ele>
        <time>2011-08-25T12:41:40Z</time>
      </trkpt>
      <trkpt lat="49.75784" lon="0.98314">
        <ele>116.8</ele>
        <time>2011-08-25T12:41:54Z</time>
      </trkpt>
      <trkpt lat="49.75778" lon="0.98305">
        <ele>114.9</ele>
        <time>2011-08-25T12:42:01Z</time>
      </trkpt>
      <trkpt lat="49.75773" lon="0.98295">
        <ele>115.3</ele>
        <time>2011-08-25T12:42:09Z</time>
      </trkpt>
      <trkpt lat="49.75767" lon="0.98284">
        <ele>115.5</ele>
        <time>2011-08-25T12:42:16Z</time>
      </trkpt>
      <trkpt lat="49.75762" lon="0.98276">
        <ele>117.3</ele>
        <time>2011-08-25T12:42:23Z</time>
      </trkpt>
      <trkpt lat="49.75756" lon="0.98268">
        <ele>117.6</ele>
        <time>2011-08-25T12:42:29Z</time>
      </trkpt>
      <trkpt lat="49.7575" lon="0.98258">
        <ele>116.9</ele>
        <time>2011-08-25T12:42:36Z</time>
      </trkpt>
      <trkpt lat="49.75743" lon="0.98248">
        <ele>117</ele>
        <time>2011-08-25T12:42:44Z</time>
      </trkpt>
      <trkpt lat="49.75742" lon="0.98247">
        <ele>117</ele>
        <time>2011-08-25T12:42:45Z</time>
      </trkpt>
      <trkpt lat="49.75732" lon="0.98231">
        <ele>117.5</ele>
        <time>2011-08-25T12:42:57Z</time>
      </trkpt>
      <trkpt lat="49.75725" lon="0.98222">
        <ele>117.8</ele>
        <time>2011-08-25T12:43:04Z</time>
      </trkpt>
      <trkpt lat="49.75718" lon="0.98214">
        <ele>117.5</ele>
        <time>2011-08-25T12:43:10Z</time>
      </trkpt>
      <trkpt lat="49.75712" lon="0.98207">
        <ele>119.3</ele>
        <time>2011-08-25T12:45:17Z</time>
      </trkpt>
      <trkpt lat="49.75711" lon="0.98206">
        <ele>119.3</ele>
        <time>2011-08-25T12:45:18Z</time>
      </trkpt>
      <trkpt lat="49.75699" lon="0.98188">
        <ele>120.3</ele>
        <time>2011-08-25T12:45:30Z</time>
      </trkpt>
      <trkpt lat="49.75694" lon="0.9818">
        <ele>120.3</ele>
        <time>2011-08-25T12:45:36Z</time>
      </trkpt>
      <trkpt lat="49.75688" lon="0.9817">
        <ele>121</ele>
        <time>2011-08-25T12:45:42Z</time>
      </trkpt>
      <trkpt lat="49.75683" lon="0.98161">
        <ele>120</ele>
        <time>2011-08-25T12:45:48Z</time>
      </trkpt>
      <trkpt lat="49.75675" lon="0.98153">
        <ele>120</ele>
        <time>2011-08-25T12:45:54Z</time>
      </trkpt>
      <trkpt lat="49.75669" lon="0.98146">
        <ele>120.4</ele>
        <time>2011-08-25T12:46:00Z</time>
      </trkpt>
      <trkpt lat="49.75663" lon="0.98138">
        <ele>121</ele>
        <time>2011-08-25T12:46:06Z</time>
      </trkpt>
      <trkpt lat="49.75656" lon="0.98131">
        <ele>120.1</ele>
        <time>2011-08-25T12:46:12Z</time>
      </trkpt>
      <trkpt lat="49.75649" lon="0.98123">
        <ele>120.1</ele>
        <time>2011-08-25T12:46:18Z</time>
      </trkpt>
      <trkpt lat="49.75648" lon="0.98122">
        <ele>120.3</ele>
        <time>2011-08-25T12:46:19Z</time>
      </trkpt>
      <trkpt lat="49.75636" lon="0.98109">
        <ele>119.5</ele>
        <time>2011-08-25T12:46:30Z</time>
      </trkpt>
      <trkpt lat="49.75629" lon="0.98102">
        <ele>119.9</ele>
        <time>2011-08-25T12:46:37Z</time>
      </trkpt>
      <trkpt lat="49.75622" lon="0.98092">
        <ele>120.3</ele>
        <time>2011-08-25T12:46:46Z</time>
      </trkpt>
      <trkpt lat="49.75614" lon="0.98088">
        <ele>118.4</ele>
        <time>2011-08-25T12:47:00Z</time>
      </trkpt>
      <trkpt lat="49.75608" lon="0.9808">
        <ele>118.5</ele>
        <time>2011-08-25T12:47:14Z</time>
      </trkpt>
      <trkpt lat="49.756" lon="0.98072">
        <ele>118.6</ele>
        <time>2011-08-25T12:47:21Z</time>
      </trkpt>
      <trkpt lat="49.75599" lon="0.98071">
        <ele>118.8</ele>
        <time>2011-08-25T12:47:22Z</time>
      </trkpt>
      <trkpt lat="49.75587" lon="0.98057">
        <ele>117.5</ele>
        <time>2011-08-25T12:47:36Z</time>
      </trkpt>
      <trkpt lat="49.7558" lon="0.98051">
        <ele>117.9</ele>
        <time>2011-08-25T12:47:44Z</time>
      </trkpt>
      <trkpt lat="49.75573" lon="0.98044">
        <ele>116.4</ele>
        <time>2011-08-25T12:47:51Z</time>
      </trkpt>
      <trkpt lat="49.75566" lon="0.98036">
        <ele>115.9</ele>
        <time>2011-08-25T12:48:05Z</time>
      </trkpt>
      <trkpt lat="49.75559" lon="0.98032">
        <ele>116.9</ele>
        <time>2011-08-25T12:48:12Z</time>
      </trkpt>
      <trkpt lat="49.75552" lon="0.98025">
        <ele>117</ele>
        <time>2011-08-25T12:48:18Z</time>
      </trkpt>
      <trkpt lat="49.75545" lon="0.9802">
        <ele>117</ele>
        <time>2011-08-25T12:48:24Z</time>
      </trkpt>
      <trkpt lat="49.75544" lon="0.98019">
        <ele>117</ele>
        <time>2011-08-25T12:48:25Z</time>
      </trkpt>
      <trkpt lat="49.75543" lon="0.97995">
        <ele>116.3</ele>
        <time>2011-08-25T12:48:41Z</time>
      </trkpt>
      <trkpt lat="49.75538" lon="0.97985">
        <ele>117</ele>
        <time>2011-08-25T12:48:51Z</time>
      </trkpt>
      <trkpt lat="49.75533" lon="0.97975">
        <ele>117.5</ele>
        <time>2011-08-25T12:48:58Z</time>
      </trkpt>
      <trkpt lat="49.75528" lon="0.97966">
        <ele>118.3</ele>
        <time>2011-08-25T12:49:05Z</time>
      </trkpt>
      <trkpt lat="49.75524" lon="0.97953">
        <ele>118.3</ele>
        <time>2011-08-25T12:49:22Z</time>
      </trkpt>
      <trkpt lat="49.75521" lon="0.97942">
        <ele>117.5</ele>
        <time>2011-08-25T12:49:28Z</time>
      </trkpt>
      <trkpt lat="49.75521" lon="0.9794">
        <ele>117.5</ele>
        <time>2011-08-25T12:49:29Z</time>
      </trkpt>
      <trkpt lat="49.75514" lon="0.97917">
        <ele>117.4</ele>
        <time>2011-08-25T12:49:42Z</time>
      </trkpt>
      <trkpt lat="49.75511" lon="0.97904">
        <ele>116.1</ele>
        <time>2011-08-25T12:49:50Z</time>
      </trkpt>
      <trkpt lat="49.75508" lon="0.97891">
        <ele>116.9</ele>
        <time>2011-08-25T12:50:00Z</time>
      </trkpt>
      <trkpt lat="49.75504" lon="0.97878">
        <ele>118.3</ele>
        <time>2011-08-25T12:50:07Z</time>
      </trkpt>
      <trkpt lat="49.755" lon="0.97868">
        <ele>119.1</ele>
        <time>2011-08-25T12:50:13Z</time>
      </trkpt>
      <trkpt lat="49.75496" lon="0.97855">
        <ele>120.1</ele>
        <time>2011-08-25T12:50:20Z</time>
      </trkpt>
      <trkpt lat="49.75494" lon="0.97843">
        <ele>120.9</ele>
        <time>2011-08-25T12:50:28Z</time>
      </trkpt>
      <trkpt lat="49.75491" lon="0.97831">
        <ele>120.5</ele>
        <time>2011-08-25T12:50:39Z</time>
      </trkpt>
      <trkpt lat="49.7549" lon="0.97829">
        <ele>120.6</ele>
        <time>2011-08-25T12:50:40Z</time>
      </trkpt>
      <trkpt lat="49.75485" lon="0.97807">
        <ele>120.1</ele>
        <time>2011-08-25T12:50:54Z</time>
      </trkpt>
      <trkpt lat="49.75483" lon="0.97796">
        <ele>119.5</ele>
        <time>2011-08-25T12:51:01Z</time>
      </trkpt>
      <trkpt lat="49.75481" lon="0.97783">
        <ele>119.1</ele>
        <time>2011-08-25T12:51:08Z</time>
      </trkpt>
      <trkpt lat="49.75478" lon="0.97771">
        <ele>118.6</ele>
        <time>2011-08-25T12:51:15Z</time>
      </trkpt>
      <trkpt lat="49.75476" lon="0.9776">
        <ele>119</ele>
        <time>2011-08-25T12:51:21Z</time>
      </trkpt>
      <trkpt lat="49.75473" lon="0.97748">
        <ele>119.6</ele>
        <time>2011-08-25T12:51:34Z</time>
      </trkpt>
      <trkpt lat="49.75471" lon="0.97735">
        <ele>120.4</ele>
        <time>2011-08-25T12:51:40Z</time>
      </trkpt>
      <trkpt lat="49.7547" lon="0.97733">
        <ele>120.4</ele>
        <time>2011-08-25T12:51:41Z</time>
      </trkpt>
      <trkpt lat="49.75468" lon="0.9771">
        <ele>120.3</ele>
        <time>2011-08-25T12:51:54Z</time>
      </trkpt>
      <trkpt lat="49.75467" lon="0.97697">
        <ele>119.8</ele>
        <time>2011-08-25T12:51:59Z</time>
      </trkpt>
      <trkpt lat="49.75465" lon="0.97685">
        <ele>119.8</ele>
        <time>2011-08-25T12:52:05Z</time>
      </trkpt>
      <trkpt lat="49.75464" lon="0.97672">
        <ele>119.9</ele>
        <time>2011-08-25T12:52:12Z</time>
      </trkpt>
      <trkpt lat="49.75461" lon="0.97659">
        <ele>120.3</ele>
        <time>2011-08-25T12:52:19Z</time>
      </trkpt>
      <trkpt lat="49.75459" lon="0.97647">
        <ele>119.9</ele>
        <time>2011-08-25T12:52:25Z</time>
      </trkpt>
      <trkpt lat="49.75457" lon="0.97634">
        <ele>120.6</ele>
        <time>2011-08-25T12:52:31Z</time>
      </trkpt>
      <trkpt lat="49.75455" lon="0.97621">
        <ele>120.3</ele>
        <time>2011-08-25T12:52:38Z</time>
      </trkpt>
      <trkpt lat="49.75454" lon="0.97607">
        <ele>120.3</ele>
        <time>2011-08-25T12:52:45Z</time>
      </trkpt>
      <trkpt lat="49.75454" lon="0.97605">
        <ele>120.5</ele>
        <time>2011-08-25T12:52:46Z</time>
      </trkpt>
      <trkpt lat="49.75451" lon="0.97581">
        <ele>120.4</ele>
        <time>2011-08-25T12:52:58Z</time>
      </trkpt>
      <trkpt lat="49.75448" lon="0.97569">
        <ele>120.1</ele>
        <time>2011-08-25T12:53:05Z</time>
      </trkpt>
      <trkpt lat="49.75446" lon="0.97556">
        <ele>121.5</ele>
        <time>2011-08-25T12:53:12Z</time>
      </trkpt>
      <trkpt lat="49.75444" lon="0.97543">
        <ele>124</ele>
        <time>2011-08-25T12:53:20Z</time>
      </trkpt>
      <trkpt lat="49.75442" lon="0.9753">
        <ele>125.1</ele>
        <time>2011-08-25T12:53:28Z</time>
      </trkpt>
      <trkpt lat="49.7544" lon="0.97517">
        <ele>124.6</ele>
        <time>2011-08-25T12:53:35Z</time>
      </trkpt>
      <trkpt lat="49.75438" lon="0.97505">
        <ele>125.4</ele>
        <time>2011-08-25T12:53:41Z</time>
      </trkpt>
      <trkpt lat="49.75437" lon="0.97493">
        <ele>125.6</ele>
        <time>2011-08-25T12:53:47Z</time>
      </trkpt>
      <trkpt lat="49.75436" lon="0.97491">
        <ele>125.6</ele>
        <time>2011-08-25T12:53:48Z</time>
      </trkpt>
      <trkpt lat="49.75434" lon="0.97467">
        <ele>125</ele>
        <time>2011-08-25T12:54:01Z</time>
      </trkpt>
      <trkpt lat="49.75432" lon="0.97454">
        <ele>123.9</ele>
        <time>2011-08-25T12:54:08Z</time>
      </trkpt>
      <trkpt lat="49.7543" lon="0.97442">
        <ele>123.5</ele>
        <time>2011-08-25T12:54:14Z</time>
      </trkpt>
      <trkpt lat="49.75428" lon="0.97429">
        <ele>123.8</ele>
        <time>2011-08-25T12:54:21Z</time>
      </trkpt>
      <trkpt lat="49.75426" lon="0.97416">
        <ele>124.5</ele>
        <time>2011-08-25T12:54:28Z</time>
      </trkpt>
      <trkpt lat="49.75425" lon="0.97404">
        <ele>124.5</ele>
        <time>2011-08-25T12:54:35Z</time>
      </trkpt>
      <trkpt lat="49.75423" lon="0.97391">
        <ele>125.1</ele>
        <time>2011-08-25T12:54:42Z</time>
      </trkpt>
      <trkpt lat="49.7542" lon="0.97379">
        <ele>125.4</ele>
        <time>2011-08-25T12:54:48Z</time>
      </trkpt>
      <trkpt lat="49.7542" lon="0.97378">
        <ele>125.5</ele>
        <time>2011-08-25T12:54:49Z</time>
      </trkpt>
      <trkpt lat="49.75416" lon="0.97354">
        <ele>126.8</ele>
        <time>2011-08-25T12:55:02Z</time>
      </trkpt>
      <trkpt lat="49.75414" lon="0.97342">
        <ele>127</ele>
        <time>2011-08-25T12:55:08Z</time>
      </trkpt>
      <trkpt lat="49.75413" lon="0.9733">
        <ele>126.8</ele>
        <time>2011-08-25T12:55:14Z</time>
      </trkpt>
      <trkpt lat="49.7541" lon="0.97318">
        <ele>127.4</ele>
        <time>2011-08-25T12:55:20Z</time>
      </trkpt>
      <trkpt lat="49.75409" lon="0.97306">
        <ele>126.8</ele>
        <time>2011-08-25T12:55:26Z</time>
      </trkpt>
      <trkpt lat="49.75407" lon="0.97293">
        <ele>127.3</ele>
        <time>2011-08-25T12:55:33Z</time>
      </trkpt>
      <trkpt lat="49.75404" lon="0.97281">
        <ele>127</ele>
        <time>2011-08-25T12:55:40Z</time>
      </trkpt>
      <trkpt lat="49.75402" lon="0.97269">
        <ele>126</ele>
        <time>2011-08-25T12:55:46Z</time>
      </trkpt>
      <trkpt lat="49.75399" lon="0.97256">
        <ele>125.9</ele>
        <time>2011-08-25T12:55:53Z</time>
      </trkpt>
      <trkpt lat="49.75399" lon="0.97254">
        <ele>125.9</ele>
        <time>2011-08-25T12:55:54Z</time>
      </trkpt>
      <trkpt lat="49.75394" lon="0.97231">
        <ele>125</ele>
        <time>2011-08-25T12:56:05Z</time>
      </trkpt>
      <trkpt lat="49.75391" lon="0.97218">
        <ele>125.1</ele>
        <time>2011-08-25T12:56:12Z</time>
      </trkpt>
      <trkpt lat="49.75389" lon="0.97205">
        <ele>125.6</ele>
        <time>2011-08-25T12:56:19Z</time>
      </trkpt>
      <trkpt lat="49.75387" lon="0.97193">
        <ele>125.6</ele>
        <time>2011-08-25T12:56:25Z</time>
      </trkpt>
      <trkpt lat="49.75384" lon="0.9718">
        <ele>125</ele>
        <time>2011-08-25T12:56:32Z</time>
      </trkpt>
      <trkpt lat="49.75382" lon="0.97167">
        <ele>124.8</ele>
        <time>2011-08-25T12:56:39Z</time>
      </trkpt>
      <trkpt lat="49.7538" lon="0.97155">
        <ele>125</ele>
        <time>2011-08-25T12:56:45Z</time>
      </trkpt>
      <trkpt lat="49.75379" lon="0.97143">
        <ele>124.8</ele>
        <time>2011-08-25T12:56:51Z</time>
      </trkpt>
      <trkpt lat="49.75377" lon="0.97131">
        <ele>124.3</ele>
        <time>2011-08-25T12:56:58Z</time>
      </trkpt>
      <trkpt lat="49.75377" lon="0.97129">
        <ele>124.4</ele>
        <time>2011-08-25T12:56:59Z</time>
      </trkpt>
      <trkpt lat="49.75372" lon="0.97105">
        <ele>124.3</ele>
        <time>2011-08-25T12:57:11Z</time>
      </trkpt>
      <trkpt lat="49.75371" lon="0.97092">
        <ele>123.5</ele>
        <time>2011-08-25T12:57:17Z</time>
      </trkpt>
      <trkpt lat="49.75368" lon="0.9708">
        <ele>124</ele>
        <time>2011-08-25T12:57:35Z</time>
      </trkpt>
      <trkpt lat="49.75367" lon="0.97067">
        <ele>124.3</ele>
        <time>2011-08-25T12:57:44Z</time>
      </trkpt>
      <trkpt lat="49.75365" lon="0.97055">
        <ele>124.3</ele>
        <time>2011-08-25T12:57:50Z</time>
      </trkpt>
      <trkpt lat="49.75362" lon="0.97041">
        <ele>124</ele>
        <time>2011-08-25T12:57:57Z</time>
      </trkpt>
      <trkpt lat="49.75361" lon="0.97029">
        <ele>124.5</ele>
        <time>2011-08-25T12:58:03Z</time>
      </trkpt>
      <trkpt lat="49.7536" lon="0.97027">
        <ele>124.6</ele>
        <time>2011-08-25T12:58:04Z</time>
      </trkpt>
      <trkpt lat="49.75356" lon="0.97006">
        <ele>125</ele>
        <time>2011-08-25T12:58:15Z</time>
      </trkpt>
      <trkpt lat="49.75353" lon="0.96993">
        <ele>125.4</ele>
        <time>2011-08-25T12:58:23Z</time>
      </trkpt>
      <trkpt lat="49.7535" lon="0.96981">
        <ele>125.9</ele>
        <time>2011-08-25T12:58:29Z</time>
      </trkpt>
      <trkpt lat="49.75346" lon="0.96969">
        <ele>126.5</ele>
        <time>2011-08-25T12:58:36Z</time>
      </trkpt>
      <trkpt lat="49.75342" lon="0.96957">
        <ele>127</ele>
        <time>2011-08-25T12:58:42Z</time>
      </trkpt>
      <trkpt lat="49.75338" lon="0.96946">
        <ele>127.4</ele>
        <time>2011-08-25T12:58:48Z</time>
      </trkpt>
      <trkpt lat="49.75334" lon="0.96936">
        <ele>127.3</ele>
        <time>2011-08-25T12:58:54Z</time>
      </trkpt>
      <trkpt lat="49.7533" lon="0.96925">
        <ele>127.9</ele>
        <time>2011-08-25T12:59:00Z</time>
      </trkpt>
      <trkpt lat="49.75326" lon="0.96913">
        <ele>128.1</ele>
        <time>2011-08-25T12:59:07Z</time>
      </trkpt>
      <trkpt lat="49.75325" lon="0.96911">
        <ele>128</ele>
        <time>2011-08-25T12:59:08Z</time>
      </trkpt>
      <trkpt lat="49.75319" lon="0.96891">
        <ele>128.6</ele>
        <time>2011-08-25T12:59:19Z</time>
      </trkpt>
      <trkpt lat="49.75315" lon="0.96878">
        <ele>128.8</ele>
        <time>2011-08-25T12:59:26Z</time>
      </trkpt>
      <trkpt lat="49.75313" lon="0.96866">
        <ele>129.1</ele>
        <time>2011-08-25T12:59:32Z</time>
      </trkpt>
      <trkpt lat="49.75311" lon="0.96854">
        <ele>128.8</ele>
        <time>2011-08-25T12:59:38Z</time>
      </trkpt>
      <trkpt lat="49.75309" lon="0.96842">
        <ele>128.1</ele>
        <time>2011-08-25T12:59:45Z</time>
      </trkpt>
      <trkpt lat="49.75309" lon="0.96829">
        <ele>128.8</ele>
        <time>2011-08-25T12:59:52Z</time>
      </trkpt>
      <trkpt lat="49.75307" lon="0.96817">
        <ele>129.1</ele>
        <time>2011-08-25T12:59:57Z</time>
      </trkpt>
      <trkpt lat="49.75305" lon="0.96805">
        <ele>129.1</ele>
        <time>2011-08-25T13:00:02Z</time>
      </trkpt>
      <trkpt lat="49.75304" lon="0.96793">
        <ele>129</ele>
        <time>2011-08-25T13:00:08Z</time>
      </trkpt>
      <trkpt lat="49.75304" lon="0.96791">
        <ele>129.1</ele>
        <time>2011-08-25T13:00:09Z</time>
      </trkpt>
      <trkpt lat="49.75301" lon="0.96769">
        <ele>129.3</ele>
        <time>2011-08-25T13:00:19Z</time>
      </trkpt>
      <trkpt lat="49.753" lon="0.96756">
        <ele>129.3</ele>
        <time>2011-08-25T13:00:25Z</time>
      </trkpt>
      <trkpt lat="49.75298" lon="0.96743">
        <ele>129.3</ele>
        <time>2011-08-25T13:00:34Z</time>
      </trkpt>
      <trkpt lat="49.75297" lon="0.96729">
        <ele>129.3</ele>
        <time>2011-08-25T13:00:41Z</time>
      </trkpt>
      <trkpt lat="49.75297" lon="0.96717">
        <ele>129.5</ele>
        <time>2011-08-25T13:00:48Z</time>
      </trkpt>
      <trkpt lat="49.75298" lon="0.96704">
        <ele>129.8</ele>
        <time>2011-08-25T13:00:52Z</time>
      </trkpt>
      <trkpt lat="49.75297" lon="0.96691">
        <ele>130.1</ele>
        <time>2011-08-25T13:01:02Z</time>
      </trkpt>
      <trkpt lat="49.75297" lon="0.96679">
        <ele>130.3</ele>
        <time>2011-08-25T13:01:07Z</time>
      </trkpt>
      <trkpt lat="49.75298" lon="0.96665">
        <ele>131.3</ele>
        <time>2011-08-25T13:01:13Z</time>
      </trkpt>
      <trkpt lat="49.75298" lon="0.96663">
        <ele>131.3</ele>
        <time>2011-08-25T13:01:14Z</time>
      </trkpt>
      <trkpt lat="49.75296" lon="0.9664">
        <ele>132.5</ele>
        <time>2011-08-25T13:01:26Z</time>
      </trkpt>
      <trkpt lat="49.75296" lon="0.96628">
        <ele>131.3</ele>
        <time>2011-08-25T13:01:31Z</time>
      </trkpt>
      <trkpt lat="49.75297" lon="0.96614">
        <ele>131.6</ele>
        <time>2011-08-25T13:01:37Z</time>
      </trkpt>
      <trkpt lat="49.75296" lon="0.96601">
        <ele>130.3</ele>
        <time>2011-08-25T13:01:43Z</time>
      </trkpt>
      <trkpt lat="49.75298" lon="0.96588">
        <ele>128.6</ele>
        <time>2011-08-25T13:01:48Z</time>
      </trkpt>
      <trkpt lat="49.75298" lon="0.96575">
        <ele>126.5</ele>
        <time>2011-08-25T13:01:54Z</time>
      </trkpt>
      <trkpt lat="49.75297" lon="0.96561">
        <ele>124.9</ele>
        <time>2011-08-25T13:02:01Z</time>
      </trkpt>
      <trkpt lat="49.75297" lon="0.96548">
        <ele>124.5</ele>
        <time>2011-08-25T13:02:08Z</time>
      </trkpt>
      <trkpt lat="49.75296" lon="0.96535">
        <ele>125.4</ele>
        <time>2011-08-25T13:02:15Z</time>
      </trkpt>
      <trkpt lat="49.75296" lon="0.96534">
        <ele>125.8</ele>
        <time>2011-08-25T13:02:16Z</time>
      </trkpt>
      <trkpt lat="49.75295" lon="0.96509">
        <ele>125</ele>
        <time>2011-08-25T13:02:27Z</time>
      </trkpt>
      <trkpt lat="49.75295" lon="0.96495">
        <ele>123.9</ele>
        <time>2011-08-25T13:02:33Z</time>
      </trkpt>
      <trkpt lat="49.75296" lon="0.96483">
        <ele>124.6</ele>
        <time>2011-08-25T13:02:39Z</time>
      </trkpt>
      <trkpt lat="49.75296" lon="0.96469">
        <ele>123.9</ele>
        <time>2011-08-25T13:02:45Z</time>
      </trkpt>
      <trkpt lat="49.75294" lon="0.96457">
        <ele>123.8</ele>
        <time>2011-08-25T13:02:51Z</time>
      </trkpt>
      <trkpt lat="49.75295" lon="0.96445">
        <ele>124</ele>
        <time>2011-08-25T13:02:57Z</time>
      </trkpt>
      <trkpt lat="49.75291" lon="0.96432">
        <ele>125.6</ele>
        <time>2011-08-25T13:03:33Z</time>
      </trkpt>
      <trkpt lat="49.75292" lon="0.9643">
        <ele>125.5</ele>
        <time>2011-08-25T13:03:34Z</time>
      </trkpt>
      <trkpt lat="49.75292" lon="0.96406">
        <ele>125</ele>
        <time>2011-08-25T13:03:47Z</time>
      </trkpt>
      <trkpt lat="49.75293" lon="0.96392">
        <ele>125.4</ele>
        <time>2011-08-25T13:03:54Z</time>
      </trkpt>
      <trkpt lat="49.75295" lon="0.96379">
        <ele>126.6</ele>
        <time>2011-08-25T13:04:07Z</time>
      </trkpt>
      <trkpt lat="49.75295" lon="0.96366">
        <ele>127.5</ele>
        <time>2011-08-25T13:04:15Z</time>
      </trkpt>
      <trkpt lat="49.75294" lon="0.96354">
        <ele>128.1</ele>
        <time>2011-08-25T13:04:20Z</time>
      </trkpt>
      <trkpt lat="49.75289" lon="0.96344">
        <ele>129.6</ele>
        <time>2011-08-25T13:04:27Z</time>
      </trkpt>
      <trkpt lat="49.75285" lon="0.96334">
        <ele>130.3</ele>
        <time>2011-08-25T13:04:32Z</time>
      </trkpt>
      <trkpt lat="49.7528" lon="0.96324">
        <ele>130.3</ele>
        <time>2011-08-25T13:04:40Z</time>
      </trkpt>
      <trkpt lat="49.7528" lon="0.96321">
        <ele>130.6</ele>
        <time>2011-08-25T13:04:41Z</time>
      </trkpt>
      <trkpt lat="49.75271" lon="0.96303">
        <ele>130.3</ele>
        <time>2011-08-25T13:04:54Z</time>
      </trkpt>
      <trkpt lat="49.75267" lon="0.96291">
        <ele>130.3</ele>
        <time>2011-08-25T13:05:01Z</time>
      </trkpt>
      <trkpt lat="49.75261" lon="0.96282">
        <ele>131.5</ele>
        <time>2011-08-25T13:05:13Z</time>
      </trkpt>
      <trkpt lat="49.75259" lon="0.96269">
        <ele>134.1</ele>
        <time>2011-08-25T13:05:22Z</time>
      </trkpt>
      <trkpt lat="49.75254" lon="0.96259">
        <ele>132.8</ele>
        <time>2011-08-25T13:05:27Z</time>
      </trkpt>
      <trkpt lat="49.75247" lon="0.96253">
        <ele>129.8</ele>
        <time>2011-08-25T13:05:31Z</time>
      </trkpt>
      <trkpt lat="49.75246" lon="0.96239">
        <ele>130.6</ele>
        <time>2011-08-25T13:05:40Z</time>
      </trkpt>
      <trkpt lat="49.7524" lon="0.96232">
        <ele>131.8</ele>
        <time>2011-08-25T13:05:45Z</time>
      </trkpt>
      <trkpt lat="49.75239" lon="0.96231">
        <ele>131.8</ele>
        <time>2011-08-25T13:05:46Z</time>
      </trkpt>
      <trkpt lat="49.75224" lon="0.96225">
        <ele>131.6</ele>
        <time>2011-08-25T13:05:56Z</time>
      </trkpt>
      <trkpt lat="49.75217" lon="0.96227">
        <ele>132.5</ele>
        <time>2011-08-25T13:06:00Z</time>
      </trkpt>
      <trkpt lat="49.75209" lon="0.96226">
        <ele>132.3</ele>
        <time>2011-08-25T13:06:05Z</time>
      </trkpt>
      <trkpt lat="49.752" lon="0.96228">
        <ele>132.3</ele>
        <time>2011-08-25T13:06:11Z</time>
      </trkpt>
      <trkpt lat="49.75192" lon="0.96226">
        <ele>132.8</ele>
        <time>2011-08-25T13:06:19Z</time>
      </trkpt>
      <trkpt lat="49.75186" lon="0.96218">
        <ele>133</ele>
        <time>2011-08-25T13:06:24Z</time>
      </trkpt>
      <trkpt lat="49.75178" lon="0.96213">
        <ele>133</ele>
        <time>2011-08-25T13:06:29Z</time>
      </trkpt>
      <trkpt lat="49.75172" lon="0.96206">
        <ele>132.5</ele>
        <time>2011-08-25T13:06:37Z</time>
      </trkpt>
      <trkpt lat="49.75164" lon="0.962">
        <ele>133.6</ele>
        <time>2011-08-25T13:06:45Z</time>
      </trkpt>
      <trkpt lat="49.75156" lon="0.96196">
        <ele>134.6</ele>
        <time>2011-08-25T13:06:52Z</time>
      </trkpt>
      <trkpt lat="49.75154" lon="0.96196">
        <ele>134.8</ele>
        <time>2011-08-25T13:06:53Z</time>
      </trkpt>
      <trkpt lat="49.75139" lon="0.96197">
        <ele>134.8</ele>
        <time>2011-08-25T13:07:23Z</time>
      </trkpt>
      <trkpt lat="49.75132" lon="0.96198">
        <ele>134.3</ele>
        <time>2011-08-25T13:07:31Z</time>
      </trkpt>
      <trkpt lat="49.75124" lon="0.96204">
        <ele>136.1</ele>
        <time>2011-08-25T13:07:37Z</time>
      </trkpt>
      <trkpt lat="49.75116" lon="0.96207">
        <ele>135.6</ele>
        <time>2011-08-25T13:07:42Z</time>
      </trkpt>
      <trkpt lat="49.75109" lon="0.96209">
        <ele>134.3</ele>
        <time>2011-08-25T13:07:48Z</time>
      </trkpt>
      <trkpt lat="49.751" lon="0.96212">
        <ele>135.8</ele>
        <time>2011-08-25T13:07:55Z</time>
      </trkpt>
      <trkpt lat="49.75099" lon="0.96213">
        <ele>136.1</ele>
        <time>2011-08-25T13:07:56Z</time>
      </trkpt>
      <trkpt lat="49.75084" lon="0.96216">
        <ele>134</ele>
        <time>2011-08-25T13:08:06Z</time>
      </trkpt>
      <trkpt lat="49.75076" lon="0.96217">
        <ele>132.3</ele>
        <time>2011-08-25T13:08:14Z</time>
      </trkpt>
      <trkpt lat="49.75068" lon="0.96219">
        <ele>132.6</ele>
        <time>2011-08-25T13:08:19Z</time>
      </trkpt>
      <trkpt lat="49.75059" lon="0.96219">
        <ele>132.3</ele>
        <time>2011-08-25T13:08:25Z</time>
      </trkpt>
      <trkpt lat="49.75052" lon="0.96217">
        <ele>133.8</ele>
        <time>2011-08-25T13:08:31Z</time>
      </trkpt>
      <trkpt lat="49.75045" lon="0.9621">
        <ele>133.1</ele>
        <time>2011-08-25T13:08:36Z</time>
      </trkpt>
      <trkpt lat="49.7504" lon="0.96201">
        <ele>133.1</ele>
        <time>2011-08-25T13:08:41Z</time>
      </trkpt>
      <trkpt lat="49.75035" lon="0.96191">
        <ele>133.5</ele>
        <time>2011-08-25T13:08:46Z</time>
      </trkpt>
      <trkpt lat="49.75032" lon="0.9618">
        <ele>132.3</ele>
        <time>2011-08-25T13:08:51Z</time>
      </trkpt>
      <trkpt lat="49.75029" lon="0.96168">
        <ele>132.6</ele>
        <time>2011-08-25T13:08:57Z</time>
      </trkpt>
      <trkpt lat="49.75029" lon="0.96166">
        <ele>132</ele>
        <time>2011-08-25T13:08:58Z</time>
      </trkpt>
      <trkpt lat="49.75021" lon="0.96145">
        <ele>131.3</ele>
        <time>2011-08-25T13:09:16Z</time>
      </trkpt>
      <trkpt lat="49.75015" lon="0.96137">
        <ele>132.1</ele>
        <time>2011-08-25T13:09:22Z</time>
      </trkpt>
      <trkpt lat="49.75007" lon="0.9613">
        <ele>132.8</ele>
        <time>2011-08-25T13:09:29Z</time>
      </trkpt>
      <trkpt lat="49.75" lon="0.96132">
        <ele>133.5</ele>
        <time>2011-08-25T13:09:37Z</time>
      </trkpt>
      <trkpt lat="49.74992" lon="0.96138">
        <ele>135.1</ele>
        <time>2011-08-25T13:09:45Z</time>
      </trkpt>
      <trkpt lat="49.74984" lon="0.96145">
        <ele>136.8</ele>
        <time>2011-08-25T13:09:52Z</time>
      </trkpt>
      <trkpt lat="49.74977" lon="0.96152">
        <ele>136.6</ele>
        <time>2011-08-25T13:09:58Z</time>
      </trkpt>
      <trkpt lat="49.74976" lon="0.96153">
        <ele>136.6</ele>
        <time>2011-08-25T13:09:59Z</time>
      </trkpt>
      <trkpt lat="49.74964" lon="0.96164">
        <ele>136.8</ele>
        <time>2011-08-25T13:10:09Z</time>
      </trkpt>
      <trkpt lat="49.74956" lon="0.96169">
        <ele>136</ele>
        <time>2011-08-25T13:10:15Z</time>
      </trkpt>
      <trkpt lat="49.74949" lon="0.96175">
        <ele>136.8</ele>
        <time>2011-08-25T13:10:21Z</time>
      </trkpt>
      <trkpt lat="49.74942" lon="0.96183">
        <ele>137.1</ele>
        <time>2011-08-25T13:10:37Z</time>
      </trkpt>
      <trkpt lat="49.74935" lon="0.96189">
        <ele>137.3</ele>
        <time>2011-08-25T13:10:46Z</time>
      </trkpt>
      <trkpt lat="49.74928" lon="0.96196">
        <ele>137.1</ele>
        <time>2011-08-25T13:10:52Z</time>
      </trkpt>
      <trkpt lat="49.74921" lon="0.96201">
        <ele>137.3</ele>
        <time>2011-08-25T13:11:00Z</time>
      </trkpt>
      <trkpt lat="49.74913" lon="0.96208">
        <ele>137.3</ele>
        <time>2011-08-25T13:11:07Z</time>
      </trkpt>
      <trkpt lat="49.74912" lon="0.96209">
        <ele>137.6</ele>
        <time>2011-08-25T13:11:08Z</time>
      </trkpt>
      <trkpt lat="49.74899" lon="0.96223">
        <ele>138.3</ele>
        <time>2011-08-25T13:11:21Z</time>
      </trkpt>
      <trkpt lat="49.74892" lon="0.96229">
        <ele>138.6</ele>
        <time>2011-08-25T13:11:29Z</time>
      </trkpt>
      <trkpt lat="49.74885" lon="0.96237">
        <ele>137.8</ele>
        <time>2011-08-25T13:11:35Z</time>
      </trkpt>
      <trkpt lat="49.74878" lon="0.96244">
        <ele>137.6</ele>
        <time>2011-08-25T13:11:41Z</time>
      </trkpt>
      <trkpt lat="49.7487" lon="0.9625">
        <ele>138.1</ele>
        <time>2011-08-25T13:11:47Z</time>
      </trkpt>
      <trkpt lat="49.74863" lon="0.96257">
        <ele>138</ele>
        <time>2011-08-25T13:11:52Z</time>
      </trkpt>
      <trkpt lat="49.74856" lon="0.96263">
        <ele>137.5</ele>
        <time>2011-08-25T13:11:58Z</time>
      </trkpt>
      <trkpt lat="49.74848" lon="0.96269">
        <ele>137.1</ele>
        <time>2011-08-25T13:12:05Z</time>
      </trkpt>
      <trkpt lat="49.74841" lon="0.96273">
        <ele>137.5</ele>
        <time>2011-08-25T13:12:12Z</time>
      </trkpt>
      <trkpt lat="49.7484" lon="0.96274">
        <ele>137.1</ele>
        <time>2011-08-25T13:12:13Z</time>
      </trkpt>
      <trkpt lat="49.74829" lon="0.96289">
        <ele>139.3</ele>
        <time>2011-08-25T13:13:02Z</time>
      </trkpt>
      <trkpt lat="49.74821" lon="0.96297">
        <ele>139.3</ele>
        <time>2011-08-25T13:13:08Z</time>
      </trkpt>
      <trkpt lat="49.74814" lon="0.96303">
        <ele>139.3</ele>
        <time>2011-08-25T13:13:14Z</time>
      </trkpt>
      <trkpt lat="49.74813" lon="0.96304">
        <ele>139.1</ele>
        <time>2011-08-25T13:13:15Z</time>
      </trkpt>
      <trkpt lat="49.74798" lon="0.96311">
        <ele>138.1</ele>
        <time>2011-08-25T13:13:25Z</time>
      </trkpt>
      <trkpt lat="49.74791" lon="0.96316">
        <ele>136.8</ele>
        <time>2011-08-25T13:13:30Z</time>
      </trkpt>
      <trkpt lat="49.74783" lon="0.9632">
        <ele>136.3</ele>
        <time>2011-08-25T13:13:36Z</time>
      </trkpt>
      <trkpt lat="49.74776" lon="0.96325">
        <ele>136.1</ele>
        <time>2011-08-25T13:13:42Z</time>
      </trkpt>
      <trkpt lat="49.74768" lon="0.96331">
        <ele>136.3</ele>
        <time>2011-08-25T13:13:48Z</time>
      </trkpt>
      <trkpt lat="49.74761" lon="0.96337">
        <ele>136.3</ele>
        <time>2011-08-25T13:13:53Z</time>
      </trkpt>
      <trkpt lat="49.74753" lon="0.96341">
        <ele>136.6</ele>
        <time>2011-08-25T13:13:59Z</time>
      </trkpt>
      <trkpt lat="49.74745" lon="0.96346">
        <ele>136.3</ele>
        <time>2011-08-25T13:14:08Z</time>
      </trkpt>
      <trkpt lat="49.74738" lon="0.96352">
        <ele>136.3</ele>
        <time>2011-08-25T13:14:13Z</time>
      </trkpt>
      <trkpt lat="49.7473" lon="0.96357">
        <ele>137.3</ele>
        <time>2011-08-25T13:14:19Z</time>
      </trkpt>
      <trkpt lat="49.74728" lon="0.96358">
        <ele>137.6</ele>
        <time>2011-08-25T13:14:20Z</time>
      </trkpt>
      <trkpt lat="49.74715" lon="0.96369">
        <ele>139.8</ele>
        <time>2011-08-25T13:14:35Z</time>
      </trkpt>
      <trkpt lat="49.74707" lon="0.96375">
        <ele>140.1</ele>
        <time>2011-08-25T13:14:41Z</time>
      </trkpt>
      <trkpt lat="49.747" lon="0.96381">
        <ele>141.1</ele>
        <time>2011-08-25T13:14:48Z</time>
      </trkpt>
      <trkpt lat="49.74692" lon="0.96387">
        <ele>141.1</ele>
        <time>2011-08-25T13:14:54Z</time>
      </trkpt>
      <trkpt lat="49.74684" lon="0.96392">
        <ele>142.1</ele>
        <time>2011-08-25T13:15:01Z</time>
      </trkpt>
      <trkpt lat="49.74678" lon="0.96401">
        <ele>143.8</ele>
        <time>2011-08-25T13:15:08Z</time>
      </trkpt>
      <trkpt lat="49.74671" lon="0.9641">
        <ele>145</ele>
        <time>2011-08-25T13:15:16Z</time>
      </trkpt>
      <trkpt lat="49.74664" lon="0.96419">
        <ele>146.3</ele>
        <time>2011-08-25T13:15:24Z</time>
      </trkpt>
      <trkpt lat="49.74663" lon="0.9642">
        <ele>146.3</ele>
        <time>2011-08-25T13:15:25Z</time>
      </trkpt>
      <trkpt lat="49.74649" lon="0.96432">
        <ele>148.6</ele>
        <time>2011-08-25T13:15:39Z</time>
      </trkpt>
      <trkpt lat="49.74641" lon="0.96433">
        <ele>148.3</ele>
        <time>2011-08-25T13:15:45Z</time>
      </trkpt>
      <trkpt lat="49.74634" lon="0.96427">
        <ele>147.3</ele>
        <time>2011-08-25T13:15:51Z</time>
      </trkpt>
      <trkpt lat="49.74629" lon="0.96417">
        <ele>145.6</ele>
        <time>2011-08-25T13:15:58Z</time>
      </trkpt>
      <trkpt lat="49.74626" lon="0.96404">
        <ele>144.1</ele>
        <time>2011-08-25T13:16:04Z</time>
      </trkpt>
      <trkpt lat="49.74622" lon="0.96393">
        <ele>141.5</ele>
        <time>2011-08-25T13:16:10Z</time>
      </trkpt>
      <trkpt lat="49.74618" lon="0.96381">
        <ele>139.3</ele>
        <time>2011-08-25T13:16:16Z</time>
      </trkpt>
      <trkpt lat="49.74615" lon="0.9637">
        <ele>137.3</ele>
        <time>2011-08-25T13:16:21Z</time>
      </trkpt>
      <trkpt lat="49.74613" lon="0.96358">
        <ele>136.3</ele>
        <time>2011-08-25T13:16:26Z</time>
      </trkpt>
      <trkpt lat="49.74612" lon="0.96355">
        <ele>136.1</ele>
        <time>2011-08-25T13:16:27Z</time>
      </trkpt>
      <trkpt lat="49.74608" lon="0.96334">
        <ele>135.8</ele>
        <time>2011-08-25T13:16:38Z</time>
      </trkpt>
      <trkpt lat="49.74605" lon="0.96323">
        <ele>135.8</ele>
        <time>2011-08-25T13:16:44Z</time>
      </trkpt>
      <trkpt lat="49.74601" lon="0.96311">
        <ele>135.3</ele>
        <time>2011-08-25T13:16:50Z</time>
      </trkpt>
      <trkpt lat="49.74598" lon="0.96299">
        <ele>133.6</ele>
        <time>2011-08-25T13:16:56Z</time>
      </trkpt>
      <trkpt lat="49.74595" lon="0.96287">
        <ele>133</ele>
        <time>2011-08-25T13:17:02Z</time>
      </trkpt>
      <trkpt lat="49.74591" lon="0.96277">
        <ele>133.1</ele>
        <time>2011-08-25T13:17:07Z</time>
      </trkpt>
      <trkpt lat="49.74587" lon="0.96264">
        <ele>133.6</ele>
        <time>2011-08-25T13:17:13Z</time>
      </trkpt>
      <trkpt lat="49.74584" lon="0.96252">
        <ele>133.3</ele>
        <time>2011-08-25T13:17:19Z</time>
      </trkpt>
      <trkpt lat="49.74579" lon="0.96241">
        <ele>132.1</ele>
        <time>2011-08-25T13:17:25Z</time>
      </trkpt>
      <trkpt lat="49.74574" lon="0.96231">
        <ele>134.6</ele>
        <time>2011-08-25T13:17:32Z</time>
      </trkpt>
      <trkpt lat="49.74573" lon="0.96229">
        <ele>134.5</ele>
        <time>2011-08-25T13:17:33Z</time>
      </trkpt>
      <trkpt lat="49.74564" lon="0.9621">
        <ele>136</ele>
        <time>2011-08-25T13:17:45Z</time>
      </trkpt>
      <trkpt lat="49.7456" lon="0.96201">
        <ele>137.6</ele>
        <time>2011-08-25T13:17:51Z</time>
      </trkpt>
      <trkpt lat="49.74555" lon="0.9619">
        <ele>138.3</ele>
        <time>2011-08-25T13:17:58Z</time>
      </trkpt>
      <trkpt lat="49.7455" lon="0.9618">
        <ele>138.6</ele>
        <time>2011-08-25T13:18:05Z</time>
      </trkpt>
      <trkpt lat="49.74546" lon="0.9617">
        <ele>138.1</ele>
        <time>2011-08-25T13:18:11Z</time>
      </trkpt>
      <trkpt lat="49.74542" lon="0.96159">
        <ele>137.6</ele>
        <time>2011-08-25T13:18:18Z</time>
      </trkpt>
      <trkpt lat="49.74537" lon="0.96149">
        <ele>137.5</ele>
        <time>2011-08-25T13:18:26Z</time>
      </trkpt>
      <trkpt lat="49.74533" lon="0.96137">
        <ele>137.8</ele>
        <time>2011-08-25T13:18:32Z</time>
      </trkpt>
      <trkpt lat="49.74527" lon="0.96128">
        <ele>137.8</ele>
        <time>2011-08-25T13:18:38Z</time>
      </trkpt>
      <trkpt lat="49.74526" lon="0.96127">
        <ele>138.1</ele>
        <time>2011-08-25T13:18:39Z</time>
      </trkpt>
      <trkpt lat="49.74518" lon="0.96108">
        <ele>138.1</ele>
        <time>2011-08-25T13:18:50Z</time>
      </trkpt>
      <trkpt lat="49.74513" lon="0.96097">
        <ele>139</ele>
        <time>2011-08-25T13:18:57Z</time>
      </trkpt>
      <trkpt lat="49.74509" lon="0.96086">
        <ele>139.1</ele>
        <time>2011-08-25T13:19:03Z</time>
      </trkpt>
      <trkpt lat="49.74504" lon="0.96075">
        <ele>139</ele>
        <time>2011-08-25T13:19:10Z</time>
      </trkpt>
      <trkpt lat="49.745" lon="0.96064">
        <ele>138.1</ele>
        <time>2011-08-25T13:19:26Z</time>
      </trkpt>
      <trkpt lat="49.74495" lon="0.96054">
        <ele>138.5</ele>
        <time>2011-08-25T13:19:32Z</time>
      </trkpt>
      <trkpt lat="49.74491" lon="0.96043">
        <ele>138.1</ele>
        <time>2011-08-25T13:19:38Z</time>
      </trkpt>
      <trkpt lat="49.74487" lon="0.96031">
        <ele>138</ele>
        <time>2011-08-25T13:19:44Z</time>
      </trkpt>
      <trkpt lat="49.74486" lon="0.9603">
        <ele>137.8</ele>
        <time>2011-08-25T13:19:45Z</time>
      </trkpt>
      <trkpt lat="49.7448" lon="0.96009">
        <ele>137.8</ele>
        <time>2011-08-25T13:19:57Z</time>
      </trkpt>
      <trkpt lat="49.74476" lon="0.95998">
        <ele>138.3</ele>
        <time>2011-08-25T13:20:03Z</time>
      </trkpt>
      <trkpt lat="49.74473" lon="0.95986">
        <ele>138.6</ele>
        <time>2011-08-25T13:20:10Z</time>
      </trkpt>
      <trkpt lat="49.74469" lon="0.95975">
        <ele>138.3</ele>
        <time>2011-08-25T13:20:16Z</time>
      </trkpt>
      <trkpt lat="49.74466" lon="0.95964">
        <ele>138.1</ele>
        <time>2011-08-25T13:20:23Z</time>
      </trkpt>
      <trkpt lat="49.74463" lon="0.95951">
        <ele>138.1</ele>
        <time>2011-08-25T13:20:30Z</time>
      </trkpt>
      <trkpt lat="49.7446" lon="0.9594">
        <ele>137.6</ele>
        <time>2011-08-25T13:20:36Z</time>
      </trkpt>
      <trkpt lat="49.74457" lon="0.95927">
        <ele>138.3</ele>
        <time>2011-08-25T13:20:43Z</time>
      </trkpt>
      <trkpt lat="49.74454" lon="0.95915">
        <ele>137.6</ele>
        <time>2011-08-25T13:20:50Z</time>
      </trkpt>
      <trkpt lat="49.74453" lon="0.95913">
        <ele>137.6</ele>
        <time>2011-08-25T13:20:51Z</time>
      </trkpt>
      <trkpt lat="49.74447" lon="0.9589">
        <ele>136.3</ele>
        <time>2011-08-25T13:21:03Z</time>
      </trkpt>
      <trkpt lat="49.74445" lon="0.95878">
        <ele>135.6</ele>
        <time>2011-08-25T13:21:10Z</time>
      </trkpt>
      <trkpt lat="49.74442" lon="0.95866">
        <ele>135.1</ele>
        <time>2011-08-25T13:21:16Z</time>
      </trkpt>
      <trkpt lat="49.7444" lon="0.95853">
        <ele>134.8</ele>
        <time>2011-08-25T13:21:22Z</time>
      </trkpt>
      <trkpt lat="49.74437" lon="0.95842">
        <ele>134.8</ele>
        <time>2011-08-25T13:21:28Z</time>
      </trkpt>
      <trkpt lat="49.74435" lon="0.95831">
        <ele>134.8</ele>
        <time>2011-08-25T13:21:34Z</time>
      </trkpt>
      <trkpt lat="49.74433" lon="0.95818">
        <ele>134.8</ele>
        <time>2011-08-25T13:21:40Z</time>
      </trkpt>
      <trkpt lat="49.74431" lon="0.95806">
        <ele>133.8</ele>
        <time>2011-08-25T13:21:46Z</time>
      </trkpt>
      <trkpt lat="49.74428" lon="0.95793">
        <ele>133.8</ele>
        <time>2011-08-25T13:21:52Z</time>
      </trkpt>
      <trkpt lat="49.74428" lon="0.95792">
        <ele>133.5</ele>
        <time>2011-08-25T13:21:53Z</time>
      </trkpt>
      <trkpt lat="49.74423" lon="0.95768">
        <ele>132.3</ele>
        <time>2011-08-25T13:22:05Z</time>
      </trkpt>
      <trkpt lat="49.74421" lon="0.95757">
        <ele>132.1</ele>
        <time>2011-08-25T13:22:11Z</time>
      </trkpt>
      <trkpt lat="49.74418" lon="0.95745">
        <ele>132.1</ele>
        <time>2011-08-25T13:22:17Z</time>
      </trkpt>
      <trkpt lat="49.74416" lon="0.95733">
        <ele>132.1</ele>
        <time>2011-08-25T13:22:24Z</time>
      </trkpt>
      <trkpt lat="49.74414" lon="0.9572">
        <ele>132.3</ele>
        <time>2011-08-25T13:22:32Z</time>
      </trkpt>
      <trkpt lat="49.7441" lon="0.95708">
        <ele>132.3</ele>
        <time>2011-08-25T13:22:40Z</time>
      </trkpt>
      <trkpt lat="49.74407" lon="0.95695">
        <ele>132.5</ele>
        <time>2011-08-25T13:22:47Z</time>
      </trkpt>
      <trkpt lat="49.74404" lon="0.95682">
        <ele>133.1</ele>
        <time>2011-08-25T13:22:54Z</time>
      </trkpt>
      <trkpt lat="49.74404" lon="0.95679">
        <ele>132.8</ele>
        <time>2011-08-25T13:22:55Z</time>
      </trkpt>
      <trkpt lat="49.744" lon="0.95657">
        <ele>132.8</ele>
        <time>2011-08-25T13:23:07Z</time>
      </trkpt>
      <trkpt lat="49.74398" lon="0.95645">
        <ele>132.6</ele>
        <time>2011-08-25T13:23:13Z</time>
      </trkpt>
      <trkpt lat="49.74394" lon="0.95633">
        <ele>132.8</ele>
        <time>2011-08-25T13:23:19Z</time>
      </trkpt>
      <trkpt lat="49.74391" lon="0.9562">
        <ele>132.6</ele>
        <time>2011-08-25T13:23:26Z</time>
      </trkpt>
      <trkpt lat="49.74388" lon="0.95608">
        <ele>133.8</ele>
        <time>2011-08-25T13:23:34Z</time>
      </trkpt>
      <trkpt lat="49.74385" lon="0.95596">
        <ele>133.3</ele>
        <time>2011-08-25T13:23:40Z</time>
      </trkpt>
      <trkpt lat="49.74382" lon="0.95584">
        <ele>134.6</ele>
        <time>2011-08-25T13:23:47Z</time>
      </trkpt>
      <trkpt lat="49.74379" lon="0.95573">
        <ele>134.5</ele>
        <time>2011-08-25T13:23:56Z</time>
      </trkpt>
      <trkpt lat="49.74378" lon="0.95571">
        <ele>134.6</ele>
        <time>2011-08-25T13:23:57Z</time>
      </trkpt>
      <trkpt lat="49.74372" lon="0.9555">
        <ele>135.1</ele>
        <time>2011-08-25T13:24:10Z</time>
      </trkpt>
      <trkpt lat="49.74369" lon="0.95539">
        <ele>134.8</ele>
        <time>2011-08-25T13:24:17Z</time>
      </trkpt>
      <trkpt lat="49.74365" lon="0.95528">
        <ele>134.8</ele>
        <time>2011-08-25T13:24:22Z</time>
      </trkpt>
      <trkpt lat="49.74361" lon="0.95518">
        <ele>135</ele>
        <time>2011-08-25T13:24:29Z</time>
      </trkpt>
      <trkpt lat="49.74357" lon="0.95506">
        <ele>135.6</ele>
        <time>2011-08-25T13:24:35Z</time>
      </trkpt>
      <trkpt lat="49.74354" lon="0.95494">
        <ele>135.3</ele>
        <time>2011-08-25T13:24:40Z</time>
      </trkpt>
      <trkpt lat="49.74351" lon="0.95483">
        <ele>135.1</ele>
        <time>2011-08-25T13:24:45Z</time>
      </trkpt>
      <trkpt lat="49.74348" lon="0.95472">
        <ele>134.3</ele>
        <time>2011-08-25T13:24:51Z</time>
      </trkpt>
      <trkpt lat="49.74344" lon="0.95461">
        <ele>135.6</ele>
        <time>2011-08-25T13:24:57Z</time>
      </trkpt>
      <trkpt lat="49.74344" lon="0.95459">
        <ele>135.6</ele>
        <time>2011-08-25T13:24:58Z</time>
      </trkpt>
      <trkpt lat="49.74339" lon="0.95436">
        <ele>137.8</ele>
        <time>2011-08-25T13:25:11Z</time>
      </trkpt>
      <trkpt lat="49.74335" lon="0.95425">
        <ele>138.3</ele>
        <time>2011-08-25T13:29:22Z</time>
      </trkpt>
      <trkpt lat="49.74335" lon="0.95423">
        <ele>138.1</ele>
        <time>2011-08-25T13:29:23Z</time>
      </trkpt>
      <trkpt lat="49.7433" lon="0.95401">
        <ele>137.8</ele>
        <time>2011-08-25T13:29:34Z</time>
      </trkpt>
      <trkpt lat="49.74326" lon="0.95389">
        <ele>138.3</ele>
        <time>2011-08-25T13:29:41Z</time>
      </trkpt>
      <trkpt lat="49.74324" lon="0.95376">
        <ele>138</ele>
        <time>2011-08-25T13:29:48Z</time>
      </trkpt>
      <trkpt lat="49.74321" lon="0.95364">
        <ele>136.8</ele>
        <time>2011-08-25T13:29:56Z</time>
      </trkpt>
      <trkpt lat="49.74317" lon="0.95352">
        <ele>137</ele>
        <time>2011-08-25T13:30:02Z</time>
      </trkpt>
      <trkpt lat="49.74314" lon="0.9534">
        <ele>136</ele>
        <time>2011-08-25T13:30:07Z</time>
      </trkpt>
      <trkpt lat="49.7431" lon="0.95328">
        <ele>134.1</ele>
        <time>2011-08-25T13:30:13Z</time>
      </trkpt>
      <trkpt lat="49.74307" lon="0.95317">
        <ele>134.3</ele>
        <time>2011-08-25T13:30:18Z</time>
      </trkpt>
      <trkpt lat="49.74304" lon="0.95306">
        <ele>134</ele>
        <time>2011-08-25T13:30:23Z</time>
      </trkpt>
      <trkpt lat="49.74304" lon="0.95304">
        <ele>134</ele>
        <time>2011-08-25T13:30:24Z</time>
      </trkpt>
      <trkpt lat="49.74297" lon="0.95282">
        <ele>133.5</ele>
        <time>2011-08-25T13:30:36Z</time>
      </trkpt>
      <trkpt lat="49.74292" lon="0.95271">
        <ele>130.8</ele>
        <time>2011-08-25T13:30:42Z</time>
      </trkpt>
      <trkpt lat="49.74288" lon="0.95259">
        <ele>130.3</ele>
        <time>2011-08-25T13:30:48Z</time>
      </trkpt>
      <trkpt lat="49.74284" lon="0.95248">
        <ele>130</ele>
        <time>2011-08-25T13:30:54Z</time>
      </trkpt>
      <trkpt lat="49.7428" lon="0.95236">
        <ele>129.6</ele>
        <time>2011-08-25T13:31:00Z</time>
      </trkpt>
      <trkpt lat="49.74277" lon="0.95225">
        <ele>129.3</ele>
        <time>2011-08-25T13:31:06Z</time>
      </trkpt>
      <trkpt lat="49.74272" lon="0.95214">
        <ele>129.1</ele>
        <time>2011-08-25T13:31:12Z</time>
      </trkpt>
      <trkpt lat="49.74265" lon="0.95206">
        <ele>128.1</ele>
        <time>2011-08-25T13:31:19Z</time>
      </trkpt>
      <trkpt lat="49.74259" lon="0.95198">
        <ele>128.3</ele>
        <time>2011-08-25T13:31:25Z</time>
      </trkpt>
      <trkpt lat="49.74258" lon="0.95196">
        <ele>128.3</ele>
        <time>2011-08-25T13:31:26Z</time>
      </trkpt>
      <trkpt lat="49.74249" lon="0.95177">
        <ele>127.1</ele>
        <time>2011-08-25T13:31:38Z</time>
      </trkpt>
      <trkpt lat="49.74244" lon="0.95168">
        <ele>127</ele>
        <time>2011-08-25T13:31:44Z</time>
      </trkpt>
      <trkpt lat="49.74238" lon="0.9516">
        <ele>127.6</ele>
        <time>2011-08-25T13:31:54Z</time>
      </trkpt>
      <trkpt lat="49.74235" lon="0.95148">
        <ele>128.3</ele>
        <time>2011-08-25T13:32:06Z</time>
      </trkpt>
      <trkpt lat="49.74231" lon="0.95136">
        <ele>129.6</ele>
        <time>2011-08-25T13:32:15Z</time>
      </trkpt>
      <trkpt lat="49.74227" lon="0.95125">
        <ele>129.3</ele>
        <time>2011-08-25T13:32:21Z</time>
      </trkpt>
      <trkpt lat="49.74223" lon="0.95113">
        <ele>128.3</ele>
        <time>2011-08-25T13:32:28Z</time>
      </trkpt>
      <trkpt lat="49.74222" lon="0.95111">
        <ele>128.1</ele>
        <time>2011-08-25T13:32:29Z</time>
      </trkpt>
      <trkpt lat="49.74215" lon="0.95089">
        <ele>128.1</ele>
        <time>2011-08-25T13:32:41Z</time>
      </trkpt>
      <trkpt lat="49.74212" lon="0.95078">
        <ele>128.6</ele>
        <time>2011-08-25T13:32:47Z</time>
      </trkpt>
      <trkpt lat="49.74209" lon="0.95067">
        <ele>128.3</ele>
        <time>2011-08-25T13:32:53Z</time>
      </trkpt>
      <trkpt lat="49.74204" lon="0.95057">
        <ele>127.8</ele>
        <time>2011-08-25T13:32:59Z</time>
      </trkpt>
      <trkpt lat="49.74201" lon="0.95045">
        <ele>127.6</ele>
        <time>2011-08-25T13:33:06Z</time>
      </trkpt>
      <trkpt lat="49.74198" lon="0.95033">
        <ele>127.9</ele>
        <time>2011-08-25T13:33:13Z</time>
      </trkpt>
      <trkpt lat="49.74194" lon="0.95023">
        <ele>127.8</ele>
        <time>2011-08-25T13:33:19Z</time>
      </trkpt>
      <trkpt lat="49.7419" lon="0.95011">
        <ele>127.8</ele>
        <time>2011-08-25T13:33:25Z</time>
      </trkpt>
      <trkpt lat="49.74187" lon="0.95">
        <ele>127</ele>
        <time>2011-08-25T13:33:32Z</time>
      </trkpt>
      <trkpt lat="49.74186" lon="0.94998">
        <ele>126.6</ele>
        <time>2011-08-25T13:33:33Z</time>
      </trkpt>
      <trkpt lat="49.74178" lon="0.94975">
        <ele>125</ele>
        <time>2011-08-25T13:33:46Z</time>
      </trkpt>
      <trkpt lat="49.74175" lon="0.94963">
        <ele>124.5</ele>
        <time>2011-08-25T13:33:53Z</time>
      </trkpt>
      <trkpt lat="49.74171" lon="0.94951">
        <ele>124.1</ele>
        <time>2011-08-25T13:34:00Z</time>
      </trkpt>
      <trkpt lat="49.74167" lon="0.9494">
        <ele>124</ele>
        <time>2011-08-25T13:34:07Z</time>
      </trkpt>
      <trkpt lat="49.74164" lon="0.94929">
        <ele>124.4</ele>
        <time>2011-08-25T13:34:13Z</time>
      </trkpt>
      <trkpt lat="49.74159" lon="0.94918">
        <ele>124</ele>
        <time>2011-08-25T13:34:19Z</time>
      </trkpt>
      <trkpt lat="49.74154" lon="0.94909">
        <ele>123.4</ele>
        <time>2011-08-25T13:34:25Z</time>
      </trkpt>
      <trkpt lat="49.74148" lon="0.94899">
        <ele>124</ele>
        <time>2011-08-25T13:34:32Z</time>
      </trkpt>
      <trkpt lat="49.74142" lon="0.94891">
        <ele>123.3</ele>
        <time>2011-08-25T13:34:39Z</time>
      </trkpt>
      <trkpt lat="49.74141" lon="0.94889">
        <ele>123.3</ele>
        <time>2011-08-25T13:34:40Z</time>
      </trkpt>
      <trkpt lat="49.74131" lon="0.94871">
        <ele>122.5</ele>
        <time>2011-08-25T13:34:52Z</time>
      </trkpt>
      <trkpt lat="49.74126" lon="0.94862">
        <ele>122.3</ele>
        <time>2011-08-25T13:34:59Z</time>
      </trkpt>
      <trkpt lat="49.74121" lon="0.94852">
        <ele>121.5</ele>
        <time>2011-08-25T13:35:06Z</time>
      </trkpt>
      <trkpt lat="49.74116" lon="0.94842">
        <ele>120.9</ele>
        <time>2011-08-25T13:35:12Z</time>
      </trkpt>
      <trkpt lat="49.7411" lon="0.94831">
        <ele>120.5</ele>
        <time>2011-08-25T13:35:19Z</time>
      </trkpt>
      <trkpt lat="49.74108" lon="0.94818">
        <ele>119.4</ele>
        <time>2011-08-25T13:35:27Z</time>
      </trkpt>
      <trkpt lat="49.74105" lon="0.94807">
        <ele>118</ele>
        <time>2011-08-25T13:35:33Z</time>
      </trkpt>
      <trkpt lat="49.74102" lon="0.94795">
        <ele>116.9</ele>
        <time>2011-08-25T13:35:39Z</time>
      </trkpt>
      <trkpt lat="49.741" lon="0.94783">
        <ele>116.5</ele>
        <time>2011-08-25T13:35:45Z</time>
      </trkpt>
      <trkpt lat="49.74099" lon="0.94781">
        <ele>116.4</ele>
        <time>2011-08-25T13:35:46Z</time>
      </trkpt>
      <trkpt lat="49.74099" lon="0.94757">
        <ele>115.9</ele>
        <time>2011-08-25T13:36:00Z</time>
      </trkpt>
      <trkpt lat="49.74101" lon="0.94744">
        <ele>115.6</ele>
        <time>2011-08-25T13:36:09Z</time>
      </trkpt>
      <trkpt lat="49.74103" lon="0.94732">
        <ele>114.8</ele>
        <time>2011-08-25T13:36:18Z</time>
      </trkpt>
      <trkpt lat="49.74106" lon="0.9472">
        <ele>114.4</ele>
        <time>2011-08-25T13:36:26Z</time>
      </trkpt>
      <trkpt lat="49.74111" lon="0.94709">
        <ele>113</ele>
        <time>2011-08-25T13:36:39Z</time>
      </trkpt>
      <trkpt lat="49.74116" lon="0.94698">
        <ele>113.9</ele>
        <time>2011-08-25T13:36:47Z</time>
      </trkpt>
      <trkpt lat="49.74117" lon="0.94697">
        <ele>113.6</ele>
        <time>2011-08-25T13:36:48Z</time>
      </trkpt>
      <trkpt lat="49.74125" lon="0.94677">
        <ele>113.5</ele>
        <time>2011-08-25T13:37:09Z</time>
      </trkpt>
      <trkpt lat="49.74128" lon="0.94665">
        <ele>111.5</ele>
        <time>2011-08-25T13:37:16Z</time>
      </trkpt>
      <trkpt lat="49.74133" lon="0.94654">
        <ele>107.5</ele>
        <time>2011-08-25T13:37:24Z</time>
      </trkpt>
      <trkpt lat="49.74137" lon="0.94642">
        <ele>105.5</ele>
        <time>2011-08-25T13:37:33Z</time>
      </trkpt>
      <trkpt lat="49.74142" lon="0.94631">
        <ele>104.6</ele>
        <time>2011-08-25T13:37:46Z</time>
      </trkpt>
      <trkpt lat="49.74149" lon="0.94625">
        <ele>104</ele>
        <time>2011-08-25T13:37:55Z</time>
      </trkpt>
      <trkpt lat="49.7415" lon="0.94623">
        <ele>104</ele>
        <time>2011-08-25T13:37:56Z</time>
      </trkpt>
      <trkpt lat="49.74159" lon="0.94607">
        <ele>103.6</ele>
        <time>2011-08-25T13:38:04Z</time>
      </trkpt>
      <trkpt lat="49.74166" lon="0.94599">
        <ele>104.4</ele>
        <time>2011-08-25T13:38:11Z</time>
      </trkpt>
      <trkpt lat="49.74172" lon="0.94591">
        <ele>103.8</ele>
        <time>2011-08-25T13:38:19Z</time>
      </trkpt>
      <trkpt lat="49.74179" lon="0.94583">
        <ele>103.6</ele>
        <time>2011-08-25T13:38:26Z</time>
      </trkpt>
      <trkpt lat="49.74184" lon="0.94573">
        <ele>103.4</ele>
        <time>2011-08-25T13:38:30Z</time>
      </trkpt>
      <trkpt lat="49.7419" lon="0.94566">
        <ele>103.3</ele>
        <time>2011-08-25T13:38:35Z</time>
      </trkpt>
      <trkpt lat="49.74196" lon="0.94556">
        <ele>103.3</ele>
        <time>2011-08-25T13:38:43Z</time>
      </trkpt>
      <trkpt lat="49.74203" lon="0.9455">
        <ele>103.4</ele>
        <time>2011-08-25T13:38:50Z</time>
      </trkpt>
      <trkpt lat="49.74209" lon="0.94542">
        <ele>101.4</ele>
        <time>2011-08-25T13:38:57Z</time>
      </trkpt>
      <trkpt lat="49.74211" lon="0.9454">
        <ele>100.8</ele>
        <time>2011-08-25T13:38:58Z</time>
      </trkpt>
      <trkpt lat="49.74224" lon="0.9453">
        <ele>98.5</ele>
        <time>2011-08-25T13:39:13Z</time>
      </trkpt>
      <trkpt lat="49.74231" lon="0.94526">
        <ele>100.1</ele>
        <time>2011-08-25T13:39:19Z</time>
      </trkpt>
      <trkpt lat="49.74239" lon="0.9452">
        <ele>100.8</ele>
        <time>2011-08-25T13:39:25Z</time>
      </trkpt>
      <trkpt lat="49.74247" lon="0.94515">
        <ele>102.4</ele>
        <time>2011-08-25T13:39:37Z</time>
      </trkpt>
      <trkpt lat="49.74253" lon="0.94507">
        <ele>102.5</ele>
        <time>2011-08-25T13:39:48Z</time>
      </trkpt>
      <trkpt lat="49.7426" lon="0.94501">
        <ele>103.9</ele>
        <time>2011-08-25T13:39:58Z</time>
      </trkpt>
      <trkpt lat="49.74261" lon="0.945">
        <ele>103.8</ele>
        <time>2011-08-25T13:39:59Z</time>
      </trkpt>
      <trkpt lat="49.74275" lon="0.94488">
        <ele>101.8</ele>
        <time>2011-08-25T13:40:13Z</time>
      </trkpt>
      <trkpt lat="49.74282" lon="0.94481">
        <ele>101.6</ele>
        <time>2011-08-25T13:40:19Z</time>
      </trkpt>
      <trkpt lat="49.7429" lon="0.94474">
        <ele>102</ele>
        <time>2011-08-25T13:40:27Z</time>
      </trkpt>
      <trkpt lat="49.74297" lon="0.94466">
        <ele>100.9</ele>
        <time>2011-08-25T13:40:35Z</time>
      </trkpt>
      <trkpt lat="49.74298" lon="0.94453">
        <ele>99.6</ele>
        <time>2011-08-25T13:41:06Z</time>
      </trkpt>
      <trkpt lat="49.74298" lon="0.94452">
        <ele>100.3</ele>
        <time>2011-08-25T13:41:07Z</time>
      </trkpt>
      <trkpt lat="49.74287" lon="0.94434">
        <ele>102</ele>
        <time>2011-08-25T13:41:39Z</time>
      </trkpt>
      <trkpt lat="49.74278" lon="0.94434">
        <ele>101.6</ele>
        <time>2011-08-25T13:41:51Z</time>
      </trkpt>
      <trkpt lat="49.74275" lon="0.94422">
        <ele>104.5</ele>
        <time>2011-08-25T13:42:04Z</time>
      </trkpt>
      <trkpt lat="49.74268" lon="0.94422">
        <ele>104.5</ele>
        <time>2011-08-25T13:42:10Z</time>
      </trkpt>
      <trkpt lat="49.74264" lon="0.94422">
        <ele>103.1</ele>
        <time>2011-08-25T13:42:11Z</time>
      </trkpt>
      <trkpt lat="49.74252" lon="0.9442">
        <ele>101.1</ele>
        <time>2011-08-25T13:42:18Z</time>
      </trkpt>
      <trkpt lat="49.74244" lon="0.94417">
        <ele>100.4</ele>
        <time>2011-08-25T13:42:22Z</time>
      </trkpt>
      <trkpt lat="49.74237" lon="0.94418">
        <ele>98.9</ele>
        <time>2011-08-25T13:42:28Z</time>
      </trkpt>
      <trkpt lat="49.7423" lon="0.94422">
        <ele>97.1</ele>
        <time>2011-08-25T13:42:39Z</time>
      </trkpt>
      <trkpt lat="49.74221" lon="0.94419">
        <ele>97.6</ele>
        <time>2011-08-25T13:42:47Z</time>
      </trkpt>
      <trkpt lat="49.74213" lon="0.94417">
        <ele>96.9</ele>
        <time>2011-08-25T13:42:51Z</time>
      </trkpt>
      <trkpt lat="49.74205" lon="0.94415">
        <ele>94.9</ele>
        <time>2011-08-25T13:42:56Z</time>
      </trkpt>
      <trkpt lat="49.74198" lon="0.9441">
        <ele>94</ele>
        <time>2011-08-25T13:43:00Z</time>
      </trkpt>
      <trkpt lat="49.7419" lon="0.94406">
        <ele>93.1</ele>
        <time>2011-08-25T13:43:07Z</time>
      </trkpt>
      <trkpt lat="49.74182" lon="0.94404">
        <ele>91.5</ele>
        <time>2011-08-25T13:43:18Z</time>
      </trkpt>
      <trkpt lat="49.74181" lon="0.94404">
        <ele>91.1</ele>
        <time>2011-08-25T13:43:19Z</time>
      </trkpt>
      <trkpt lat="49.74165" lon="0.94402">
        <ele>90</ele>
        <time>2011-08-25T13:43:50Z</time>
      </trkpt>
      <trkpt lat="49.74157" lon="0.94398">
        <ele>89.3</ele>
        <time>2011-08-25T13:43:56Z</time>
      </trkpt>
      <trkpt lat="49.74149" lon="0.94394">
        <ele>89.4</ele>
        <time>2011-08-25T13:44:05Z</time>
      </trkpt>
      <trkpt lat="49.7414" lon="0.94393">
        <ele>88.4</ele>
        <time>2011-08-25T13:44:11Z</time>
      </trkpt>
      <trkpt lat="49.74134" lon="0.94392">
        <ele>87.3</ele>
        <time>2011-08-25T13:44:14Z</time>
      </trkpt>
      <trkpt lat="49.74127" lon="0.94389">
        <ele>85</ele>
        <time>2011-08-25T13:44:16Z</time>
      </trkpt>
      <trkpt lat="49.74119" lon="0.94387">
        <ele>83.3</ele>
        <time>2011-08-25T13:44:18Z</time>
      </trkpt>
      <trkpt lat="49.74113" lon="0.94389">
        <ele>82</ele>
        <time>2011-08-25T13:44:21Z</time>
      </trkpt>
      <trkpt lat="49.7411" lon="0.9439">
        <ele>81.4</ele>
        <time>2011-08-25T13:44:22Z</time>
      </trkpt>
      <trkpt lat="49.74098" lon="0.94399">
        <ele>80.9</ele>
        <time>2011-08-25T13:44:38Z</time>
      </trkpt>
      <trkpt lat="49.7409" lon="0.94404">
        <ele>79.8</ele>
        <time>2011-08-25T13:44:48Z</time>
      </trkpt>
      <trkpt lat="49.74082" lon="0.94408">
        <ele>77.4</ele>
        <time>2011-08-25T13:45:08Z</time>
      </trkpt>
      <trkpt lat="49.74075" lon="0.94412">
        <ele>73</ele>
        <time>2011-08-25T13:46:39Z</time>
      </trkpt>
      <trkpt lat="49.74073" lon="0.94413">
        <ele>73.5</ele>
        <time>2011-08-25T13:46:40Z</time>
      </trkpt>
      <trkpt lat="49.7406" lon="0.94423">
        <ele>73</ele>
        <time>2011-08-25T13:47:04Z</time>
      </trkpt>
      <trkpt lat="49.74052" lon="0.94428">
        <ele>74.5</ele>
        <time>2011-08-25T13:47:56Z</time>
      </trkpt>
      <trkpt lat="49.74051" lon="0.94428">
        <ele>74.5</ele>
        <time>2011-08-25T13:47:57Z</time>
      </trkpt>
      <trkpt lat="49.74043" lon="0.94433">
        <ele>76.6</ele>
        <time>2011-08-25T13:49:40Z</time>
      </trkpt>
      <trkpt lat="49.74031" lon="0.94445">
        <ele>79.1</ele>
        <time>2011-08-25T13:50:37Z</time>
      </trkpt>
      <trkpt lat="49.74023" lon="0.94451">
        <ele>81.5</ele>
        <time>2011-08-25T13:50:46Z</time>
      </trkpt>
      <trkpt lat="49.74022" lon="0.94452">
        <ele>81.5</ele>
        <time>2011-08-25T13:50:47Z</time>
      </trkpt>
      <trkpt lat="49.74007" lon="0.94461">
        <ele>80</ele>
        <time>2011-08-25T13:50:59Z</time>
      </trkpt>
      <trkpt lat="49.74" lon="0.94468">
        <ele>80.8</ele>
        <time>2011-08-25T13:51:06Z</time>
      </trkpt>
      <trkpt lat="49.73992" lon="0.94474">
        <ele>80.4</ele>
        <time>2011-08-25T13:51:14Z</time>
      </trkpt>
      <trkpt lat="49.73984" lon="0.94479">
        <ele>81.3</ele>
        <time>2011-08-25T13:51:22Z</time>
      </trkpt>
      <trkpt lat="49.73977" lon="0.94487">
        <ele>78.8</ele>
        <time>2011-08-25T13:51:28Z</time>
      </trkpt>
      <trkpt lat="49.7397" lon="0.94494">
        <ele>79.3</ele>
        <time>2011-08-25T13:51:38Z</time>
      </trkpt>
      <trkpt lat="49.73968" lon="0.94506">
        <ele>79.5</ele>
        <time>2011-08-25T13:51:49Z</time>
      </trkpt>
      <trkpt lat="49.73967" lon="0.94508">
        <ele>79</ele>
        <time>2011-08-25T13:51:50Z</time>
      </trkpt>
      <trkpt lat="49.73958" lon="0.94526">
        <ele>77.6</ele>
        <time>2011-08-25T13:51:58Z</time>
      </trkpt>
      <trkpt lat="49.73955" lon="0.94538">
        <ele>77.9</ele>
        <time>2011-08-25T13:52:05Z</time>
      </trkpt>
      <trkpt lat="49.7395" lon="0.94548">
        <ele>77.4</ele>
        <time>2011-08-25T13:52:11Z</time>
      </trkpt>
      <trkpt lat="49.73942" lon="0.94554">
        <ele>78</ele>
        <time>2011-08-25T13:52:17Z</time>
      </trkpt>
      <trkpt lat="49.73936" lon="0.94561">
        <ele>80.4</ele>
        <time>2011-08-25T13:52:25Z</time>
      </trkpt>
      <trkpt lat="49.73929" lon="0.94568">
        <ele>81.3</ele>
        <time>2011-08-25T13:52:30Z</time>
      </trkpt>
      <trkpt lat="49.73923" lon="0.94576">
        <ele>80</ele>
        <time>2011-08-25T13:52:34Z</time>
      </trkpt>
      <trkpt lat="49.73921" lon="0.94586">
        <ele>80.5</ele>
        <time>2011-08-25T13:52:40Z</time>
      </trkpt>
      <trkpt lat="49.73916" lon="0.94597">
        <ele>79.1</ele>
        <time>2011-08-25T13:52:45Z</time>
      </trkpt>
      <trkpt lat="49.73911" lon="0.94607">
        <ele>78.9</ele>
        <time>2011-08-25T13:52:51Z</time>
      </trkpt>
      <trkpt lat="49.73909" lon="0.94607">
        <ele>78.6</ele>
        <time>2011-08-25T13:52:52Z</time>
      </trkpt>
      <trkpt lat="49.739" lon="0.94626">
        <ele>75.9</ele>
        <time>2011-08-25T13:53:04Z</time>
      </trkpt>
      <trkpt lat="49.73894" lon="0.94633">
        <ele>77.1</ele>
        <time>2011-08-25T13:53:14Z</time>
      </trkpt>
      <trkpt lat="49.73887" lon="0.94641">
        <ele>77</ele>
        <time>2011-08-25T13:53:19Z</time>
      </trkpt>
      <trkpt lat="49.7388" lon="0.94649">
        <ele>79.6</ele>
        <time>2011-08-25T13:53:26Z</time>
      </trkpt>
      <trkpt lat="49.73872" lon="0.94653">
        <ele>81.8</ele>
        <time>2011-08-25T13:53:36Z</time>
      </trkpt>
      <trkpt lat="49.73868" lon="0.94665">
        <ele>81.6</ele>
        <time>2011-08-25T13:53:48Z</time>
      </trkpt>
      <trkpt lat="49.73863" lon="0.94673">
        <ele>80.9</ele>
        <time>2011-08-25T13:53:52Z</time>
      </trkpt>
      <trkpt lat="49.73862" lon="0.94676">
        <ele>80.5</ele>
        <time>2011-08-25T13:53:53Z</time>
      </trkpt>
      <trkpt lat="49.73851" lon="0.94689">
        <ele>81.4</ele>
        <time>2011-08-25T13:54:03Z</time>
      </trkpt>
      <trkpt lat="49.73845" lon="0.94697">
        <ele>81.9</ele>
        <time>2011-08-25T13:54:08Z</time>
      </trkpt>
      <trkpt lat="49.73841" lon="0.94709">
        <ele>80</ele>
        <time>2011-08-25T13:54:12Z</time>
      </trkpt>
      <trkpt lat="49.73839" lon="0.94722">
        <ele>81.5</ele>
        <time>2011-08-25T13:54:19Z</time>
      </trkpt>
      <trkpt lat="49.73836" lon="0.94734">
        <ele>82</ele>
        <time>2011-08-25T13:54:25Z</time>
      </trkpt>
      <trkpt lat="49.73835" lon="0.94746">
        <ele>80</ele>
        <time>2011-08-25T13:54:28Z</time>
      </trkpt>
      <trkpt lat="49.73835" lon="0.9476">
        <ele>80.8</ele>
        <time>2011-08-25T13:54:33Z</time>
      </trkpt>
      <trkpt lat="49.73831" lon="0.94771">
        <ele>77.6</ele>
        <time>2011-08-25T13:54:37Z</time>
      </trkpt>
      <trkpt lat="49.73828" lon="0.94783">
        <ele>76.3</ele>
        <time>2011-08-25T13:54:42Z</time>
      </trkpt>
      <trkpt lat="49.73822" lon="0.94793">
        <ele>73.5</ele>
        <time>2011-08-25T13:54:49Z</time>
      </trkpt>
      <trkpt lat="49.73822" lon="0.94806">
        <ele>75.9</ele>
        <time>2011-08-25T13:55:01Z</time>
      </trkpt>
      <trkpt lat="49.73822" lon="0.94808">
        <ele>76</ele>
        <time>2011-08-25T13:55:02Z</time>
      </trkpt>
      <trkpt lat="49.73812" lon="0.94825">
        <ele>76.6</ele>
        <time>2011-08-25T13:55:13Z</time>
      </trkpt>
      <trkpt lat="49.73808" lon="0.94837">
        <ele>76.4</ele>
        <time>2011-08-25T13:55:20Z</time>
      </trkpt>
      <trkpt lat="49.73802" lon="0.94844">
        <ele>77.6</ele>
        <time>2011-08-25T13:55:33Z</time>
      </trkpt>
      <trkpt lat="49.73795" lon="0.94843">
        <ele>77.8</ele>
        <time>2011-08-25T13:55:36Z</time>
      </trkpt>
      <trkpt lat="49.73787" lon="0.94847">
        <ele>78</ele>
        <time>2011-08-25T13:55:40Z</time>
      </trkpt>
      <trkpt lat="49.7378" lon="0.94854">
        <ele>77.9</ele>
        <time>2011-08-25T13:55:45Z</time>
      </trkpt>
      <trkpt lat="49.73775" lon="0.94863">
        <ele>78.4</ele>
        <time>2011-08-25T13:55:50Z</time>
      </trkpt>
      <trkpt lat="49.73768" lon="0.9487">
        <ele>78.6</ele>
        <time>2011-08-25T13:55:56Z</time>
      </trkpt>
      <trkpt lat="49.73767" lon="0.94882">
        <ele>78.5</ele>
        <time>2011-08-25T13:56:00Z</time>
      </trkpt>
      <trkpt lat="49.73769" lon="0.94895">
        <ele>77.3</ele>
        <time>2011-08-25T13:56:06Z</time>
      </trkpt>
      <trkpt lat="49.73768" lon="0.94898">
        <ele>77.3</ele>
        <time>2011-08-25T13:56:07Z</time>
      </trkpt>
      <trkpt lat="49.73764" lon="0.94919">
        <ele>79.4</ele>
        <time>2011-08-25T13:56:29Z</time>
      </trkpt>
      <trkpt lat="49.73757" lon="0.94929">
        <ele>80</ele>
        <time>2011-08-25T13:56:39Z</time>
      </trkpt>
      <trkpt lat="49.73751" lon="0.94935">
        <ele>80.5</ele>
        <time>2011-08-25T13:56:51Z</time>
      </trkpt>
      <trkpt lat="49.73743" lon="0.94941">
        <ele>80</ele>
        <time>2011-08-25T13:56:58Z</time>
      </trkpt>
      <trkpt lat="49.73737" lon="0.9495">
        <ele>79.5</ele>
        <time>2011-08-25T13:57:05Z</time>
      </trkpt>
      <trkpt lat="49.73731" lon="0.94959">
        <ele>79.4</ele>
        <time>2011-08-25T13:57:09Z</time>
      </trkpt>
      <trkpt lat="49.7373" lon="0.9496">
        <ele>79.5</ele>
        <time>2011-08-25T13:57:10Z</time>
      </trkpt>
      <trkpt lat="49.73722" lon="0.9498">
        <ele>77.4</ele>
        <time>2011-08-25T13:57:21Z</time>
      </trkpt>
      <trkpt lat="49.73717" lon="0.9499">
        <ele>77.4</ele>
        <time>2011-08-25T13:57:26Z</time>
      </trkpt>
      <trkpt lat="49.73709" lon="0.94998">
        <ele>82.4</ele>
        <time>2011-08-25T13:57:40Z</time>
      </trkpt>
      <trkpt lat="49.73703" lon="0.95003">
        <ele>84.8</ele>
        <time>2011-08-25T13:57:43Z</time>
      </trkpt>
      <trkpt lat="49.73698" lon="0.95014">
        <ele>86.9</ele>
        <time>2011-08-25T13:57:48Z</time>
      </trkpt>
      <trkpt lat="49.73693" lon="0.95024">
        <ele>88.4</ele>
        <time>2011-08-25T13:57:53Z</time>
      </trkpt>
      <trkpt lat="49.73687" lon="0.95029">
        <ele>89.1</ele>
        <time>2011-08-25T13:57:56Z</time>
      </trkpt>
      <trkpt lat="49.73681" lon="0.95036">
        <ele>92.4</ele>
        <time>2011-08-25T13:58:04Z</time>
      </trkpt>
      <trkpt lat="49.73673" lon="0.9504">
        <ele>90.1</ele>
        <time>2011-08-25T13:58:11Z</time>
      </trkpt>
      <trkpt lat="49.73672" lon="0.95041">
        <ele>90.8</ele>
        <time>2011-08-25T13:58:12Z</time>
      </trkpt>
      <trkpt lat="49.73672" lon="0.95065">
        <ele>84</ele>
        <time>2011-08-25T13:58:30Z</time>
      </trkpt>
      <trkpt lat="49.73666" lon="0.95072">
        <ele>81.9</ele>
        <time>2011-08-25T13:58:34Z</time>
      </trkpt>
      <trkpt lat="49.7366" lon="0.95082">
        <ele>84.5</ele>
        <time>2011-08-25T13:58:45Z</time>
      </trkpt>
      <trkpt lat="49.73653" lon="0.95089">
        <ele>83</ele>
        <time>2011-08-25T13:59:02Z</time>
      </trkpt>
      <trkpt lat="49.73646" lon="0.95096">
        <ele>82.9</ele>
        <time>2011-08-25T13:59:08Z</time>
      </trkpt>
      <trkpt lat="49.73641" lon="0.95106">
        <ele>81.3</ele>
        <time>2011-08-25T13:59:13Z</time>
      </trkpt>
      <trkpt lat="49.73639" lon="0.95109">
        <ele>81</ele>
        <time>2011-08-25T13:59:14Z</time>
      </trkpt>
      <trkpt lat="49.73629" lon="0.95123">
        <ele>78.5</ele>
        <time>2011-08-25T13:59:21Z</time>
      </trkpt>
      <trkpt lat="49.73625" lon="0.95134">
        <ele>76.9</ele>
        <time>2011-08-25T13:59:27Z</time>
      </trkpt>
      <trkpt lat="49.73619" lon="0.95143">
        <ele>75.5</ele>
        <time>2011-08-25T13:59:33Z</time>
      </trkpt>
      <trkpt lat="49.73611" lon="0.95149">
        <ele>76.6</ele>
        <time>2011-08-25T13:59:46Z</time>
      </trkpt>
      <trkpt lat="49.73605" lon="0.95153">
        <ele>77</ele>
        <time>2011-08-25T13:59:51Z</time>
      </trkpt>
      <trkpt lat="49.73596" lon="0.95154">
        <ele>78.5</ele>
        <time>2011-08-25T13:59:56Z</time>
      </trkpt>
      <trkpt lat="49.73587" lon="0.95155">
        <ele>81.3</ele>
        <time>2011-08-25T14:00:10Z</time>
      </trkpt>
      <trkpt lat="49.73581" lon="0.95159">
        <ele>82.5</ele>
        <time>2011-08-25T14:00:13Z</time>
      </trkpt>
      <trkpt lat="49.73574" lon="0.95162">
        <ele>85.4</ele>
        <time>2011-08-25T14:00:18Z</time>
      </trkpt>
      <trkpt lat="49.73572" lon="0.95163">
        <ele>85.1</ele>
        <time>2011-08-25T14:00:19Z</time>
      </trkpt>
      <trkpt lat="49.73559" lon="0.95171">
        <ele>86</ele>
        <time>2011-08-25T14:00:28Z</time>
      </trkpt>
      <trkpt lat="49.73551" lon="0.95175">
        <ele>85.9</ele>
        <time>2011-08-25T14:00:33Z</time>
      </trkpt>
      <trkpt lat="49.73543" lon="0.95179">
        <ele>84.9</ele>
        <time>2011-08-25T14:00:40Z</time>
      </trkpt>
      <trkpt lat="49.73536" lon="0.95184">
        <ele>83.9</ele>
        <time>2011-08-25T14:00:45Z</time>
      </trkpt>
      <trkpt lat="49.73528" lon="0.95187">
        <ele>85.3</ele>
        <time>2011-08-25T14:00:53Z</time>
      </trkpt>
      <trkpt lat="49.7352" lon="0.95188">
        <ele>85.4</ele>
        <time>2011-08-25T14:00:58Z</time>
      </trkpt>
      <trkpt lat="49.73512" lon="0.95191">
        <ele>87.3</ele>
        <time>2011-08-25T14:01:06Z</time>
      </trkpt>
      <trkpt lat="49.73504" lon="0.95195">
        <ele>88.6</ele>
        <time>2011-08-25T14:01:18Z</time>
      </trkpt>
      <trkpt lat="49.73497" lon="0.95199">
        <ele>88</ele>
        <time>2011-08-25T14:01:24Z</time>
      </trkpt>
      <trkpt lat="49.73496" lon="0.952">
        <ele>88</ele>
        <time>2011-08-25T14:01:25Z</time>
      </trkpt>
      <trkpt lat="49.73483" lon="0.95213">
        <ele>85.1</ele>
        <time>2011-08-25T14:01:34Z</time>
      </trkpt>
      <trkpt lat="49.73476" lon="0.95219">
        <ele>83.5</ele>
        <time>2011-08-25T14:01:40Z</time>
      </trkpt>
      <trkpt lat="49.73468" lon="0.95224">
        <ele>82</ele>
        <time>2011-08-25T14:02:08Z</time>
      </trkpt>
      <trkpt lat="49.73462" lon="0.9523">
        <ele>79.3</ele>
        <time>2011-08-25T14:02:14Z</time>
      </trkpt>
      <trkpt lat="49.73453" lon="0.95233">
        <ele>77.5</ele>
        <time>2011-08-25T14:02:26Z</time>
      </trkpt>
      <trkpt lat="49.73452" lon="0.95234">
        <ele>76.6</ele>
        <time>2011-08-25T14:02:27Z</time>
      </trkpt>
      <trkpt lat="49.7344" lon="0.95243">
        <ele>75.5</ele>
        <time>2011-08-25T14:02:45Z</time>
      </trkpt>
      <trkpt lat="49.73432" lon="0.95247">
        <ele>75.5</ele>
        <time>2011-08-25T14:02:50Z</time>
      </trkpt>
      <trkpt lat="49.73425" lon="0.95253">
        <ele>76.4</ele>
        <time>2011-08-25T14:02:55Z</time>
      </trkpt>
      <trkpt lat="49.73418" lon="0.95259">
        <ele>74</ele>
        <time>2011-08-25T14:03:00Z</time>
      </trkpt>
      <trkpt lat="49.7341" lon="0.95263">
        <ele>72.5</ele>
        <time>2011-08-25T14:03:06Z</time>
      </trkpt>
      <trkpt lat="49.73402" lon="0.95267">
        <ele>72.6</ele>
        <time>2011-08-25T14:03:11Z</time>
      </trkpt>
      <trkpt lat="49.73394" lon="0.9527">
        <ele>72.9</ele>
        <time>2011-08-25T14:03:16Z</time>
      </trkpt>
      <trkpt lat="49.73386" lon="0.95272">
        <ele>73</ele>
        <time>2011-08-25T14:03:20Z</time>
      </trkpt>
      <trkpt lat="49.73378" lon="0.95276">
        <ele>72.6</ele>
        <time>2011-08-25T14:03:26Z</time>
      </trkpt>
      <trkpt lat="49.7337" lon="0.95279">
        <ele>74.9</ele>
        <time>2011-08-25T14:04:18Z</time>
      </trkpt>
      <trkpt lat="49.73369" lon="0.95281">
        <ele>74.8</ele>
        <time>2011-08-25T14:04:19Z</time>
      </trkpt>
      <trkpt lat="49.73355" lon="0.95291">
        <ele>75</ele>
        <time>2011-08-25T14:04:37Z</time>
      </trkpt>
      <trkpt lat="49.73348" lon="0.95298">
        <ele>76</ele>
        <time>2011-08-25T14:04:43Z</time>
      </trkpt>
      <trkpt lat="49.7334" lon="0.95301">
        <ele>76.5</ele>
        <time>2011-08-25T14:04:50Z</time>
      </trkpt>
      <trkpt lat="49.73332" lon="0.95306">
        <ele>76.4</ele>
        <time>2011-08-25T14:04:55Z</time>
      </trkpt>
      <trkpt lat="49.73325" lon="0.95313">
        <ele>74.9</ele>
        <time>2011-08-25T14:05:02Z</time>
      </trkpt>
      <trkpt lat="49.73318" lon="0.95317">
        <ele>74.5</ele>
        <time>2011-08-25T14:05:07Z</time>
      </trkpt>
      <trkpt lat="49.7331" lon="0.95323">
        <ele>74.5</ele>
        <time>2011-08-25T14:05:12Z</time>
      </trkpt>
      <trkpt lat="49.73302" lon="0.95327">
        <ele>74.4</ele>
        <time>2011-08-25T14:05:18Z</time>
      </trkpt>
      <trkpt lat="49.73295" lon="0.95328">
        <ele>75.1</ele>
        <time>2011-08-25T14:05:22Z</time>
      </trkpt>
      <trkpt lat="49.73293" lon="0.95328">
        <ele>75</ele>
        <time>2011-08-25T14:05:23Z</time>
      </trkpt>
      <trkpt lat="49.73278" lon="0.95335">
        <ele>73.4</ele>
        <time>2011-08-25T14:05:33Z</time>
      </trkpt>
      <trkpt lat="49.73271" lon="0.95339">
        <ele>73.5</ele>
        <time>2011-08-25T14:05:39Z</time>
      </trkpt>
      <trkpt lat="49.73264" lon="0.95339">
        <ele>73.1</ele>
        <time>2011-08-25T14:05:44Z</time>
      </trkpt>
      <trkpt lat="49.73256" lon="0.95341">
        <ele>73.1</ele>
        <time>2011-08-25T14:05:49Z</time>
      </trkpt>
      <trkpt lat="49.73248" lon="0.95345">
        <ele>73</ele>
        <time>2011-08-25T14:05:54Z</time>
      </trkpt>
      <trkpt lat="49.73241" lon="0.9535">
        <ele>73.3</ele>
        <time>2011-08-25T14:06:00Z</time>
      </trkpt>
      <trkpt lat="49.73234" lon="0.95357">
        <ele>73.3</ele>
        <time>2011-08-25T14:06:08Z</time>
      </trkpt>
      <trkpt lat="49.73226" lon="0.95365">
        <ele>73.8</ele>
        <time>2011-08-25T14:06:17Z</time>
      </trkpt>
      <trkpt lat="49.73219" lon="0.9537">
        <ele>74.9</ele>
        <time>2011-08-25T14:06:24Z</time>
      </trkpt>
      <trkpt lat="49.73218" lon="0.9537">
        <ele>75</ele>
        <time>2011-08-25T14:06:25Z</time>
      </trkpt>
      <trkpt lat="49.73204" lon="0.9538">
        <ele>74.8</ele>
        <time>2011-08-25T14:06:38Z</time>
      </trkpt>
      <trkpt lat="49.73197" lon="0.95388">
        <ele>75.5</ele>
        <time>2011-08-25T14:06:45Z</time>
      </trkpt>
      <trkpt lat="49.73189" lon="0.95392">
        <ele>76.5</ele>
        <time>2011-08-25T14:06:51Z</time>
      </trkpt>
      <trkpt lat="49.73182" lon="0.95399">
        <ele>77.6</ele>
        <time>2011-08-25T14:06:58Z</time>
      </trkpt>
      <trkpt lat="49.73175" lon="0.95404">
        <ele>78.3</ele>
        <time>2011-08-25T14:07:05Z</time>
      </trkpt>
      <trkpt lat="49.73168" lon="0.95412">
        <ele>78.5</ele>
        <time>2011-08-25T14:07:12Z</time>
      </trkpt>
      <trkpt lat="49.73162" lon="0.95421">
        <ele>76.5</ele>
        <time>2011-08-25T14:07:32Z</time>
      </trkpt>
      <trkpt lat="49.73161" lon="0.95422">
        <ele>76.5</ele>
        <time>2011-08-25T14:07:33Z</time>
      </trkpt>
      <trkpt lat="49.73159" lon="0.95435">
        <ele>75.5</ele>
        <time>2011-08-25T14:10:07Z</time>
      </trkpt>
      <trkpt lat="49.73155" lon="0.95459">
        <ele>76.3</ele>
        <time>2011-08-25T14:10:20Z</time>
      </trkpt>
      <trkpt lat="49.73152" lon="0.9547">
        <ele>75.5</ele>
        <time>2011-08-25T14:10:26Z</time>
      </trkpt>
      <trkpt lat="49.73148" lon="0.95482">
        <ele>75.3</ele>
        <time>2011-08-25T14:10:32Z</time>
      </trkpt>
      <trkpt lat="49.73144" lon="0.95493">
        <ele>75.3</ele>
        <time>2011-08-25T14:10:38Z</time>
      </trkpt>
      <trkpt lat="49.73138" lon="0.95503">
        <ele>74.5</ele>
        <time>2011-08-25T14:10:44Z</time>
      </trkpt>
      <trkpt lat="49.73132" lon="0.95512">
        <ele>72.5</ele>
        <time>2011-08-25T14:10:55Z</time>
      </trkpt>
      <trkpt lat="49.7313" lon="0.95525">
        <ele>73.4</ele>
        <time>2011-08-25T14:11:10Z</time>
      </trkpt>
      <trkpt lat="49.73129" lon="0.95526">
        <ele>73.5</ele>
        <time>2011-08-25T14:11:11Z</time>
      </trkpt>
      <trkpt lat="49.7312" lon="0.95548">
        <ele>75.4</ele>
        <time>2011-08-25T14:11:38Z</time>
      </trkpt>
      <trkpt lat="49.73116" lon="0.95559">
        <ele>78</ele>
        <time>2011-08-25T14:11:46Z</time>
      </trkpt>
      <trkpt lat="49.7311" lon="0.95569">
        <ele>79.8</ele>
        <time>2011-08-25T14:12:10Z</time>
      </trkpt>
      <trkpt lat="49.73107" lon="0.95581">
        <ele>81.1</ele>
        <time>2011-08-25T14:12:20Z</time>
      </trkpt>
      <trkpt lat="49.73106" lon="0.95582">
        <ele>81.3</ele>
        <time>2011-08-25T14:12:21Z</time>
      </trkpt>
      <trkpt lat="49.73099" lon="0.95605">
        <ele>81.3</ele>
        <time>2011-08-25T14:12:41Z</time>
      </trkpt>
      <trkpt lat="49.73094" lon="0.95616">
        <ele>80.4</ele>
        <time>2011-08-25T14:12:48Z</time>
      </trkpt>
      <trkpt lat="49.73088" lon="0.95626">
        <ele>79.4</ele>
        <time>2011-08-25T14:12:57Z</time>
      </trkpt>
      <trkpt lat="49.73082" lon="0.95634">
        <ele>81.1</ele>
        <time>2011-08-25T14:13:07Z</time>
      </trkpt>
      <trkpt lat="49.73075" lon="0.95642">
        <ele>83.6</ele>
        <time>2011-08-25T14:13:19Z</time>
      </trkpt>
      <trkpt lat="49.7307" lon="0.95652">
        <ele>84.3</ele>
        <time>2011-08-25T14:13:30Z</time>
      </trkpt>
      <trkpt lat="49.73069" lon="0.95654">
        <ele>84.4</ele>
        <time>2011-08-25T14:13:31Z</time>
      </trkpt>
      <trkpt lat="49.73059" lon="0.95671">
        <ele>88.9</ele>
        <time>2011-08-25T14:13:54Z</time>
      </trkpt>
      <trkpt lat="49.73053" lon="0.95681">
        <ele>89</ele>
        <time>2011-08-25T14:13:59Z</time>
      </trkpt>
      <trkpt lat="49.73047" lon="0.9569">
        <ele>91</ele>
        <time>2011-08-25T14:14:05Z</time>
      </trkpt>
      <trkpt lat="49.73041" lon="0.95699">
        <ele>92.8</ele>
        <time>2011-08-25T14:14:13Z</time>
      </trkpt>
      <trkpt lat="49.73037" lon="0.95712">
        <ele>92.3</ele>
        <time>2011-08-25T14:14:20Z</time>
      </trkpt>
      <trkpt lat="49.73032" lon="0.95721">
        <ele>95</ele>
        <time>2011-08-25T14:14:27Z</time>
      </trkpt>
      <trkpt lat="49.7303" lon="0.95734">
        <ele>96.6</ele>
        <time>2011-08-25T14:14:37Z</time>
      </trkpt>
      <trkpt lat="49.7303" lon="0.95736">
        <ele>96.6</ele>
        <time>2011-08-25T14:14:38Z</time>
      </trkpt>
      <trkpt lat="49.73029" lon="0.9576">
        <ele>101.5</ele>
        <time>2011-08-25T14:14:55Z</time>
      </trkpt>
      <trkpt lat="49.73028" lon="0.95774">
        <ele>106</ele>
        <time>2011-08-25T14:15:02Z</time>
      </trkpt>
      <trkpt lat="49.73025" lon="0.95785">
        <ele>108</ele>
        <time>2011-08-25T14:15:08Z</time>
      </trkpt>
      <trkpt lat="49.73021" lon="0.95797">
        <ele>108.3</ele>
        <time>2011-08-25T14:15:13Z</time>
      </trkpt>
      <trkpt lat="49.73018" lon="0.95809">
        <ele>107.8</ele>
        <time>2011-08-25T14:15:23Z</time>
      </trkpt>
      <trkpt lat="49.73011" lon="0.95817">
        <ele>104.5</ele>
        <time>2011-08-25T14:16:05Z</time>
      </trkpt>
      <trkpt lat="49.7301" lon="0.95816">
        <ele>104.5</ele>
        <time>2011-08-25T14:16:06Z</time>
      </trkpt>
      <trkpt lat="49.72996" lon="0.95806">
        <ele>106</ele>
        <time>2011-08-25T14:16:27Z</time>
      </trkpt>
      <trkpt lat="49.72989" lon="0.958">
        <ele>106.8</ele>
        <time>2011-08-25T14:16:33Z</time>
      </trkpt>
      <trkpt lat="49.72981" lon="0.95795">
        <ele>107.9</ele>
        <time>2011-08-25T14:16:45Z</time>
      </trkpt>
      <trkpt lat="49.72972" lon="0.95792">
        <ele>107.1</ele>
        <time>2011-08-25T14:16:55Z</time>
      </trkpt>
      <trkpt lat="49.72963" lon="0.95791">
        <ele>104.1</ele>
        <time>2011-08-25T14:17:01Z</time>
      </trkpt>
      <trkpt lat="49.72955" lon="0.95786">
        <ele>102</ele>
        <time>2011-08-25T14:17:08Z</time>
      </trkpt>
      <trkpt lat="49.72954" lon="0.95786">
        <ele>101.5</ele>
        <time>2011-08-25T14:17:09Z</time>
      </trkpt>
      <trkpt lat="49.72939" lon="0.95782">
        <ele>94.1</ele>
        <time>2011-08-25T14:17:23Z</time>
      </trkpt>
      <trkpt lat="49.72931" lon="0.9578">
        <ele>94.6</ele>
        <time>2011-08-25T14:17:30Z</time>
      </trkpt>
      <trkpt lat="49.72923" lon="0.95777">
        <ele>92.1</ele>
        <time>2011-08-25T14:17:36Z</time>
      </trkpt>
      <trkpt lat="49.72916" lon="0.95769">
        <ele>94.1</ele>
        <time>2011-08-25T14:17:45Z</time>
      </trkpt>
      <trkpt lat="49.72908" lon="0.95764">
        <ele>96</ele>
        <time>2011-08-25T14:17:50Z</time>
      </trkpt>
      <trkpt lat="49.729" lon="0.9576">
        <ele>96.8</ele>
        <time>2011-08-25T14:17:58Z</time>
      </trkpt>
      <trkpt lat="49.72891" lon="0.95758">
        <ele>99.5</ele>
        <time>2011-08-25T14:18:05Z</time>
      </trkpt>
      <trkpt lat="49.72883" lon="0.95754">
        <ele>103.4</ele>
        <time>2011-08-25T14:18:13Z</time>
      </trkpt>
      <trkpt lat="49.72882" lon="0.95753">
        <ele>103.4</ele>
        <time>2011-08-25T14:18:14Z</time>
      </trkpt>
      <trkpt lat="49.72868" lon="0.9576">
        <ele>102.8</ele>
        <time>2011-08-25T14:18:29Z</time>
      </trkpt>
      <trkpt lat="49.72861" lon="0.95763">
        <ele>102.8</ele>
        <time>2011-08-25T14:18:34Z</time>
      </trkpt>
      <trkpt lat="49.72852" lon="0.95763">
        <ele>102.3</ele>
        <time>2011-08-25T14:18:40Z</time>
      </trkpt>
      <trkpt lat="49.72845" lon="0.95764">
        <ele>105.6</ele>
        <time>2011-08-25T14:18:48Z</time>
      </trkpt>
      <trkpt lat="49.72836" lon="0.95767">
        <ele>106.5</ele>
        <time>2011-08-25T14:18:54Z</time>
      </trkpt>
      <trkpt lat="49.72829" lon="0.9577">
        <ele>104.4</ele>
        <time>2011-08-25T14:18:59Z</time>
      </trkpt>
      <trkpt lat="49.7282" lon="0.95775">
        <ele>100</ele>
        <time>2011-08-25T14:19:04Z</time>
      </trkpt>
      <trkpt lat="49.72813" lon="0.95781">
        <ele>99.3</ele>
        <time>2011-08-25T14:19:10Z</time>
      </trkpt>
      <trkpt lat="49.72804" lon="0.95782">
        <ele>102.3</ele>
        <time>2011-08-25T14:19:17Z</time>
      </trkpt>
      <trkpt lat="49.72803" lon="0.95782">
        <ele>102.6</ele>
        <time>2011-08-25T14:19:18Z</time>
      </trkpt>
      <trkpt lat="49.72789" lon="0.95789">
        <ele>100</ele>
        <time>2011-08-25T14:19:28Z</time>
      </trkpt>
      <trkpt lat="49.7278" lon="0.9579">
        <ele>100.3</ele>
        <time>2011-08-25T14:19:35Z</time>
      </trkpt>
      <trkpt lat="49.72773" lon="0.95789">
        <ele>101.8</ele>
        <time>2011-08-25T14:19:44Z</time>
      </trkpt>
      <trkpt lat="49.72765" lon="0.9579">
        <ele>104.3</ele>
        <time>2011-08-25T14:19:49Z</time>
      </trkpt>
      <trkpt lat="49.72757" lon="0.95795">
        <ele>104.5</ele>
        <time>2011-08-25T14:19:56Z</time>
      </trkpt>
      <trkpt lat="49.72749" lon="0.95799">
        <ele>103</ele>
        <time>2011-08-25T14:20:02Z</time>
      </trkpt>
      <trkpt lat="49.72741" lon="0.95801">
        <ele>101.5</ele>
        <time>2011-08-25T14:20:09Z</time>
      </trkpt>
      <trkpt lat="49.72734" lon="0.95805">
        <ele>97.5</ele>
        <time>2011-08-25T14:20:15Z</time>
      </trkpt>
      <trkpt lat="49.72726" lon="0.95809">
        <ele>97</ele>
        <time>2011-08-25T14:20:21Z</time>
      </trkpt>
      <trkpt lat="49.72725" lon="0.9581">
        <ele>97.8</ele>
        <time>2011-08-25T14:20:22Z</time>
      </trkpt>
      <trkpt lat="49.72709" lon="0.95811">
        <ele>99.9</ele>
        <time>2011-08-25T14:20:38Z</time>
      </trkpt>
      <trkpt lat="49.727" lon="0.95814">
        <ele>98.4</ele>
        <time>2011-08-25T14:20:47Z</time>
      </trkpt>
      <trkpt lat="49.72692" lon="0.95814">
        <ele>98.8</ele>
        <time>2011-08-25T14:20:55Z</time>
      </trkpt>
      <trkpt lat="49.72683" lon="0.95815">
        <ele>101</ele>
        <time>2011-08-25T14:21:04Z</time>
      </trkpt>
      <trkpt lat="49.72675" lon="0.95817">
        <ele>102</ele>
        <time>2011-08-25T14:21:13Z</time>
      </trkpt>
      <trkpt lat="49.72668" lon="0.95823">
        <ele>99.1</ele>
        <time>2011-08-25T14:21:20Z</time>
      </trkpt>
      <trkpt lat="49.7266" lon="0.95828">
        <ele>97.6</ele>
        <time>2011-08-25T14:21:26Z</time>
      </trkpt>
      <trkpt lat="49.72658" lon="0.95829">
        <ele>96.5</ele>
        <time>2011-08-25T14:21:27Z</time>
      </trkpt>
      <trkpt lat="49.72644" lon="0.95831">
        <ele>86.6</ele>
        <time>2011-08-25T14:22:50Z</time>
      </trkpt>
      <trkpt lat="49.72643" lon="0.9583">
        <ele>86.4</ele>
        <time>2011-08-25T14:22:51Z</time>
      </trkpt>
      <trkpt lat="49.72631" lon="0.95813">
        <ele>84.6</ele>
        <time>2011-08-25T14:23:05Z</time>
      </trkpt>
      <trkpt lat="49.72625" lon="0.95805">
        <ele>84.3</ele>
        <time>2011-08-25T14:23:13Z</time>
      </trkpt>
      <trkpt lat="49.72617" lon="0.95797">
        <ele>82.5</ele>
        <time>2011-08-25T14:23:22Z</time>
      </trkpt>
      <trkpt lat="49.72609" lon="0.95793">
        <ele>83.1</ele>
        <time>2011-08-25T14:23:30Z</time>
      </trkpt>
      <trkpt lat="49.72601" lon="0.95791">
        <ele>81.5</ele>
        <time>2011-08-25T14:23:38Z</time>
      </trkpt>
      <trkpt lat="49.72593" lon="0.95786">
        <ele>80.9</ele>
        <time>2011-08-25T14:23:45Z</time>
      </trkpt>
      <trkpt lat="49.72586" lon="0.95779">
        <ele>80</ele>
        <time>2011-08-25T14:23:54Z</time>
      </trkpt>
      <trkpt lat="49.72585" lon="0.95778">
        <ele>80</ele>
        <time>2011-08-25T14:23:55Z</time>
      </trkpt>
      <trkpt lat="49.7257" lon="0.9577">
        <ele>80.1</ele>
        <time>2011-08-25T14:24:21Z</time>
      </trkpt>
      <trkpt lat="49.72562" lon="0.95766">
        <ele>79.3</ele>
        <time>2011-08-25T14:24:28Z</time>
      </trkpt>
      <trkpt lat="49.72554" lon="0.95763">
        <ele>77</ele>
        <time>2011-08-25T14:24:34Z</time>
      </trkpt>
      <trkpt lat="49.72546" lon="0.9576">
        <ele>74.9</ele>
        <time>2011-08-25T14:24:39Z</time>
      </trkpt>
      <trkpt lat="49.72538" lon="0.95757">
        <ele>75</ele>
        <time>2011-08-25T14:24:46Z</time>
      </trkpt>
      <trkpt lat="49.7253" lon="0.95753">
        <ele>73.5</ele>
        <time>2011-08-25T14:24:53Z</time>
      </trkpt>
      <trkpt lat="49.72522" lon="0.95751">
        <ele>71.5</ele>
        <time>2011-08-25T14:25:00Z</time>
      </trkpt>
      <trkpt lat="49.7252" lon="0.9575">
        <ele>71</ele>
        <time>2011-08-25T14:25:01Z</time>
      </trkpt>
      <trkpt lat="49.72505" lon="0.95746">
        <ele>69.1</ele>
        <time>2011-08-25T14:25:16Z</time>
      </trkpt>
      <trkpt lat="49.72497" lon="0.95745">
        <ele>68.3</ele>
        <time>2011-08-25T14:25:23Z</time>
      </trkpt>
      <trkpt lat="49.72488" lon="0.95742">
        <ele>68.4</ele>
        <time>2011-08-25T14:25:30Z</time>
      </trkpt>
      <trkpt lat="49.7248" lon="0.9574">
        <ele>68</ele>
        <time>2011-08-25T14:25:39Z</time>
      </trkpt>
      <trkpt lat="49.72472" lon="0.95737">
        <ele>67.6</ele>
        <time>2011-08-25T14:25:47Z</time>
      </trkpt>
      <trkpt lat="49.72464" lon="0.95734">
        <ele>67.6</ele>
        <time>2011-08-25T14:25:53Z</time>
      </trkpt>
      <trkpt lat="49.72456" lon="0.95731">
        <ele>67.3</ele>
        <time>2011-08-25T14:25:59Z</time>
      </trkpt>
      <trkpt lat="49.72449" lon="0.95728">
        <ele>67.6</ele>
        <time>2011-08-25T14:26:05Z</time>
      </trkpt>
      <trkpt lat="49.72447" lon="0.95728">
        <ele>67.9</ele>
        <time>2011-08-25T14:26:06Z</time>
      </trkpt>
      <trkpt lat="49.72433" lon="0.95721">
        <ele>68.3</ele>
        <time>2011-08-25T14:26:19Z</time>
      </trkpt>
      <trkpt lat="49.72424" lon="0.95715">
        <ele>67.3</ele>
        <time>2011-08-25T14:26:27Z</time>
      </trkpt>
      <trkpt lat="49.72416" lon="0.95711">
        <ele>66</ele>
        <time>2011-08-25T14:26:35Z</time>
      </trkpt>
      <trkpt lat="49.72407" lon="0.95708">
        <ele>65.5</ele>
        <time>2011-08-25T14:26:44Z</time>
      </trkpt>
      <trkpt lat="49.724" lon="0.95703">
        <ele>65.5</ele>
        <time>2011-08-25T14:26:51Z</time>
      </trkpt>
      <trkpt lat="49.72392" lon="0.95697">
        <ele>66.8</ele>
        <time>2011-08-25T14:27:01Z</time>
      </trkpt>
      <trkpt lat="49.72385" lon="0.95691">
        <ele>68.9</ele>
        <time>2011-08-25T14:27:08Z</time>
      </trkpt>
      <trkpt lat="49.72384" lon="0.95691">
        <ele>69</ele>
        <time>2011-08-25T14:27:09Z</time>
      </trkpt>
      <trkpt lat="49.72368" lon="0.95688">
        <ele>72</ele>
        <time>2011-08-25T14:27:23Z</time>
      </trkpt>
      <trkpt lat="49.72361" lon="0.95685">
        <ele>73</ele>
        <time>2011-08-25T14:27:30Z</time>
      </trkpt>
      <trkpt lat="49.72352" lon="0.95686">
        <ele>75.3</ele>
        <time>2011-08-25T14:27:38Z</time>
      </trkpt>
      <trkpt lat="49.72344" lon="0.95688">
        <ele>77.1</ele>
        <time>2011-08-25T14:27:53Z</time>
      </trkpt>
      <trkpt lat="49.72341" lon="0.95675">
        <ele>78</ele>
        <time>2011-08-25T14:29:07Z</time>
      </trkpt>
      <trkpt lat="49.7234" lon="0.95673">
        <ele>78</ele>
        <time>2011-08-25T14:29:08Z</time>
      </trkpt>
      <trkpt lat="49.72341" lon="0.95649">
        <ele>81.9</ele>
        <time>2011-08-25T14:29:39Z</time>
      </trkpt>
      <trkpt lat="49.72336" lon="0.95639">
        <ele>80.4</ele>
        <time>2011-08-25T14:29:55Z</time>
      </trkpt>
      <trkpt lat="49.72334" lon="0.95627">
        <ele>81.3</ele>
        <time>2011-08-25T14:30:02Z</time>
      </trkpt>
      <trkpt lat="49.72332" lon="0.95614">
        <ele>81.9</ele>
        <time>2011-08-25T14:30:09Z</time>
      </trkpt>
      <trkpt lat="49.72332" lon="0.95612">
        <ele>81.9</ele>
        <time>2011-08-25T14:30:10Z</time>
      </trkpt>
      <trkpt lat="49.72327" lon="0.95588">
        <ele>77.5</ele>
        <time>2011-08-25T14:30:31Z</time>
      </trkpt>
      <trkpt lat="49.72325" lon="0.95576">
        <ele>75</ele>
        <time>2011-08-25T14:30:46Z</time>
      </trkpt>
      <trkpt lat="49.7232" lon="0.95564">
        <ele>74.5</ele>
        <time>2011-08-25T14:31:08Z</time>
      </trkpt>
      <trkpt lat="49.72321" lon="0.95578">
        <ele>72.5</ele>
        <time>2011-08-25T14:35:53Z</time>
      </trkpt>
      <trkpt lat="49.72321" lon="0.95579">
        <ele>72.5</ele>
        <time>2011-08-25T14:35:54Z</time>
      </trkpt>
      <trkpt lat="49.72323" lon="0.95603">
        <ele>72.4</ele>
        <time>2011-08-25T14:36:10Z</time>
      </trkpt>
      <trkpt lat="49.72324" lon="0.95617">
        <ele>72.5</ele>
        <time>2011-08-25T14:36:18Z</time>
      </trkpt>
      <trkpt lat="49.72326" lon="0.95629">
        <ele>70.9</ele>
        <time>2011-08-25T14:36:27Z</time>
      </trkpt>
      <trkpt lat="49.72327" lon="0.95642">
        <ele>69.8</ele>
        <time>2011-08-25T14:36:35Z</time>
      </trkpt>
      <trkpt lat="49.72323" lon="0.95654">
        <ele>70.4</ele>
        <time>2011-08-25T14:36:51Z</time>
      </trkpt>
      <trkpt lat="49.72324" lon="0.95668">
        <ele>71</ele>
        <time>2011-08-25T14:37:02Z</time>
      </trkpt>
      <trkpt lat="49.72325" lon="0.9567">
        <ele>71</ele>
        <time>2011-08-25T14:37:03Z</time>
      </trkpt>
      <trkpt lat="49.72316" lon="0.95684">
        <ele>73.9</ele>
        <time>2011-08-25T14:37:22Z</time>
      </trkpt>
      <trkpt lat="49.72307" lon="0.95687">
        <ele>74.5</ele>
        <time>2011-08-25T14:37:33Z</time>
      </trkpt>
      <trkpt lat="49.72299" lon="0.95688">
        <ele>75.3</ele>
        <time>2011-08-25T14:37:41Z</time>
      </trkpt>
      <trkpt lat="49.72291" lon="0.95694">
        <ele>78</ele>
        <time>2011-08-25T14:37:47Z</time>
      </trkpt>
      <trkpt lat="49.72283" lon="0.957">
        <ele>82</ele>
        <time>2011-08-25T14:39:02Z</time>
      </trkpt>
      <trkpt lat="49.72283" lon="0.957">
        <ele>81.6</ele>
        <time>2011-08-25T14:39:03Z</time>
      </trkpt>
      <trkpt lat="49.72273" lon="0.95698">
        <ele>83.1</ele>
        <time>2011-08-25T14:40:44Z</time>
      </trkpt>
      <trkpt lat="49.72259" lon="0.95699">
        <ele>83.3</ele>
        <time>2011-08-25T14:40:54Z</time>
      </trkpt>
      <trkpt lat="49.72253" lon="0.95706">
        <ele>84.9</ele>
        <time>2011-08-25T14:41:00Z</time>
      </trkpt>
      <trkpt lat="49.72245" lon="0.95708">
        <ele>86.6</ele>
        <time>2011-08-25T14:41:06Z</time>
      </trkpt>
      <trkpt lat="49.72236" lon="0.95707">
        <ele>87</ele>
        <time>2011-08-25T14:41:12Z</time>
      </trkpt>
      <trkpt lat="49.72229" lon="0.95711">
        <ele>87.5</ele>
        <time>2011-08-25T14:41:19Z</time>
      </trkpt>
      <trkpt lat="49.7222" lon="0.95711">
        <ele>87.5</ele>
        <time>2011-08-25T14:41:26Z</time>
      </trkpt>
      <trkpt lat="49.72212" lon="0.95711">
        <ele>86.4</ele>
        <time>2011-08-25T14:41:36Z</time>
      </trkpt>
      <trkpt lat="49.72204" lon="0.95709">
        <ele>88.3</ele>
        <time>2011-08-25T14:41:42Z</time>
      </trkpt>
      <trkpt lat="49.72196" lon="0.95712">
        <ele>87.8</ele>
        <time>2011-08-25T14:41:48Z</time>
      </trkpt>
      <trkpt lat="49.72194" lon="0.95712">
        <ele>87.8</ele>
        <time>2011-08-25T14:41:49Z</time>
      </trkpt>
      <trkpt lat="49.7218" lon="0.95718">
        <ele>89.9</ele>
        <time>2011-08-25T14:42:05Z</time>
      </trkpt>
      <trkpt lat="49.72172" lon="0.95718">
        <ele>92.4</ele>
        <time>2011-08-25T14:42:11Z</time>
      </trkpt>
      <trkpt lat="49.72163" lon="0.9572">
        <ele>91.5</ele>
        <time>2011-08-25T14:42:19Z</time>
      </trkpt>
      <trkpt lat="49.72155" lon="0.95719">
        <ele>94</ele>
        <time>2011-08-25T14:42:28Z</time>
      </trkpt>
      <trkpt lat="49.72147" lon="0.95717">
        <ele>96</ele>
        <time>2011-08-25T14:42:34Z</time>
      </trkpt>
      <trkpt lat="49.72139" lon="0.95714">
        <ele>99.3</ele>
        <time>2011-08-25T14:42:40Z</time>
      </trkpt>
      <trkpt lat="49.7213" lon="0.95713">
        <ele>102.4</ele>
        <time>2011-08-25T14:42:48Z</time>
      </trkpt>
      <trkpt lat="49.72122" lon="0.95708">
        <ele>104.5</ele>
        <time>2011-08-25T14:42:54Z</time>
      </trkpt>
      <trkpt lat="49.7212" lon="0.95707">
        <ele>104.6</ele>
        <time>2011-08-25T14:42:55Z</time>
      </trkpt>
      <trkpt lat="49.72107" lon="0.957">
        <ele>104.4</ele>
        <time>2011-08-25T14:43:05Z</time>
      </trkpt>
      <trkpt lat="49.72099" lon="0.95693">
        <ele>106.9</ele>
        <time>2011-08-25T14:43:15Z</time>
      </trkpt>
      <trkpt lat="49.72092" lon="0.95688">
        <ele>107.6</ele>
        <time>2011-08-25T14:43:27Z</time>
      </trkpt>
      <trkpt lat="49.72084" lon="0.95684">
        <ele>106.1</ele>
        <time>2011-08-25T14:43:35Z</time>
      </trkpt>
      <trkpt lat="49.72076" lon="0.95682">
        <ele>104.5</ele>
        <time>2011-08-25T14:43:40Z</time>
      </trkpt>
      <trkpt lat="49.7207" lon="0.95675">
        <ele>103.4</ele>
        <time>2011-08-25T14:43:43Z</time>
      </trkpt>
      <trkpt lat="49.72061" lon="0.95671">
        <ele>101.5</ele>
        <time>2011-08-25T14:43:48Z</time>
      </trkpt>
      <trkpt lat="49.72053" lon="0.95665">
        <ele>103.5</ele>
        <time>2011-08-25T14:43:54Z</time>
      </trkpt>
      <trkpt lat="49.72045" lon="0.95665">
        <ele>104</ele>
        <time>2011-08-25T14:44:00Z</time>
      </trkpt>
      <trkpt lat="49.72044" lon="0.95666">
        <ele>103.6</ele>
        <time>2011-08-25T14:44:01Z</time>
      </trkpt>
      <trkpt lat="49.72029" lon="0.95663">
        <ele>98.9</ele>
        <time>2011-08-25T14:44:11Z</time>
      </trkpt>
      <trkpt lat="49.7202" lon="0.95662">
        <ele>97.6</ele>
        <time>2011-08-25T14:44:18Z</time>
      </trkpt>
      <trkpt lat="49.72013" lon="0.95659">
        <ele>95.8</ele>
        <time>2011-08-25T14:44:30Z</time>
      </trkpt>
      <trkpt lat="49.72006" lon="0.95653">
        <ele>96.4</ele>
        <time>2011-08-25T14:44:34Z</time>
      </trkpt>
      <trkpt lat="49.71997" lon="0.95655">
        <ele>97.9</ele>
        <time>2011-08-25T14:44:43Z</time>
      </trkpt>
      <trkpt lat="49.71989" lon="0.95652">
        <ele>97.6</ele>
        <time>2011-08-25T14:44:49Z</time>
      </trkpt>
      <trkpt lat="49.71981" lon="0.95648">
        <ele>96.5</ele>
        <time>2011-08-25T14:44:54Z</time>
      </trkpt>
      <trkpt lat="49.71973" lon="0.95647">
        <ele>97.3</ele>
        <time>2011-08-25T14:45:01Z</time>
      </trkpt>
      <trkpt lat="49.71972" lon="0.95647">
        <ele>97.5</ele>
        <time>2011-08-25T14:45:02Z</time>
      </trkpt>
      <trkpt lat="49.71956" lon="0.95645">
        <ele>98</ele>
        <time>2011-08-25T14:45:17Z</time>
      </trkpt>
      <trkpt lat="49.71948" lon="0.95645">
        <ele>98.3</ele>
        <time>2011-08-25T14:45:23Z</time>
      </trkpt>
      <trkpt lat="49.71939" lon="0.95643">
        <ele>99.5</ele>
        <time>2011-08-25T14:45:29Z</time>
      </trkpt>
      <trkpt lat="49.7193" lon="0.95642">
        <ele>99.5</ele>
        <time>2011-08-25T14:45:36Z</time>
      </trkpt>
      <trkpt lat="49.71923" lon="0.95644">
        <ele>100.5</ele>
        <time>2011-08-25T14:45:43Z</time>
      </trkpt>
      <trkpt lat="49.71915" lon="0.95647">
        <ele>101.4</ele>
        <time>2011-08-25T14:45:51Z</time>
      </trkpt>
      <trkpt lat="49.71907" lon="0.95646">
        <ele>100.9</ele>
        <time>2011-08-25T14:45:57Z</time>
      </trkpt>
      <trkpt lat="49.71899" lon="0.95643">
        <ele>103.9</ele>
        <time>2011-08-25T14:46:03Z</time>
      </trkpt>
      <trkpt lat="49.71898" lon="0.95642">
        <ele>104</ele>
        <time>2011-08-25T14:46:04Z</time>
      </trkpt>
      <trkpt lat="49.71882" lon="0.95639">
        <ele>101.5</ele>
        <time>2011-08-25T14:46:16Z</time>
      </trkpt>
      <trkpt lat="49.71873" lon="0.95638">
        <ele>102.1</ele>
        <time>2011-08-25T14:46:25Z</time>
      </trkpt>
      <trkpt lat="49.71865" lon="0.95637">
        <ele>104</ele>
        <time>2011-08-25T14:46:32Z</time>
      </trkpt>
      <trkpt lat="49.71856" lon="0.95638">
        <ele>103.8</ele>
        <time>2011-08-25T14:46:39Z</time>
      </trkpt>
      <trkpt lat="49.71848" lon="0.95639">
        <ele>104.3</ele>
        <time>2011-08-25T14:46:48Z</time>
      </trkpt>
      <trkpt lat="49.7184" lon="0.95635">
        <ele>105.9</ele>
        <time>2011-08-25T14:46:58Z</time>
      </trkpt>
      <trkpt lat="49.71832" lon="0.95635">
        <ele>106.6</ele>
        <time>2011-08-25T14:47:03Z</time>
      </trkpt>
      <trkpt lat="49.71824" lon="0.95632">
        <ele>109</ele>
        <time>2011-08-25T14:47:09Z</time>
      </trkpt>
      <trkpt lat="49.71823" lon="0.95632">
        <ele>108.8</ele>
        <time>2011-08-25T14:47:10Z</time>
      </trkpt>
      <trkpt lat="49.71808" lon="0.9563">
        <ele>108.6</ele>
        <time>2011-08-25T14:47:22Z</time>
      </trkpt>
      <trkpt lat="49.71801" lon="0.95629">
        <ele>109.1</ele>
        <time>2011-08-25T14:47:26Z</time>
      </trkpt>
      <trkpt lat="49.71792" lon="0.95627">
        <ele>108.5</ele>
        <time>2011-08-25T14:47:36Z</time>
      </trkpt>
      <trkpt lat="49.71785" lon="0.95623">
        <ele>106.4</ele>
        <time>2011-08-25T14:47:42Z</time>
      </trkpt>
      <trkpt lat="49.71777" lon="0.95623">
        <ele>105.1</ele>
        <time>2011-08-25T14:47:48Z</time>
      </trkpt>
      <trkpt lat="49.71769" lon="0.9562">
        <ele>106</ele>
        <time>2011-08-25T14:47:57Z</time>
      </trkpt>
      <trkpt lat="49.71761" lon="0.9562">
        <ele>106</ele>
        <time>2011-08-25T14:48:03Z</time>
      </trkpt>
      <trkpt lat="49.71753" lon="0.95619">
        <ele>105.5</ele>
        <time>2011-08-25T14:48:08Z</time>
      </trkpt>
      <trkpt lat="49.71744" lon="0.95623">
        <ele>104.8</ele>
        <time>2011-08-25T14:48:14Z</time>
      </trkpt>
      <trkpt lat="49.71743" lon="0.95623">
        <ele>105.4</ele>
        <time>2011-08-25T14:48:15Z</time>
      </trkpt>
      <trkpt lat="49.71728" lon="0.95628">
        <ele>104.5</ele>
        <time>2011-08-25T14:48:27Z</time>
      </trkpt>
      <trkpt lat="49.7172" lon="0.9563">
        <ele>102.3</ele>
        <time>2011-08-25T14:48:33Z</time>
      </trkpt>
      <trkpt lat="49.71712" lon="0.9563">
        <ele>102.6</ele>
        <time>2011-08-25T14:48:39Z</time>
      </trkpt>
      <trkpt lat="49.71705" lon="0.95635">
        <ele>101.9</ele>
        <time>2011-08-25T14:48:46Z</time>
      </trkpt>
      <trkpt lat="49.71697" lon="0.95641">
        <ele>100.9</ele>
        <time>2011-08-25T14:48:53Z</time>
      </trkpt>
      <trkpt lat="49.71689" lon="0.95641">
        <ele>100</ele>
        <time>2011-08-25T14:48:58Z</time>
      </trkpt>
      <trkpt lat="49.71681" lon="0.95641">
        <ele>100.9</ele>
        <time>2011-08-25T14:49:03Z</time>
      </trkpt>
      <trkpt lat="49.71673" lon="0.95645">
        <ele>100</ele>
        <time>2011-08-25T14:49:10Z</time>
      </trkpt>
      <trkpt lat="49.71665" lon="0.95644">
        <ele>100.1</ele>
        <time>2011-08-25T14:49:17Z</time>
      </trkpt>
      <trkpt lat="49.71664" lon="0.95644">
        <ele>100.1</ele>
        <time>2011-08-25T14:49:18Z</time>
      </trkpt>
      <trkpt lat="49.7165" lon="0.95643">
        <ele>101.8</ele>
        <time>2011-08-25T14:49:28Z</time>
      </trkpt>
      <trkpt lat="49.71642" lon="0.95643">
        <ele>100.5</ele>
        <time>2011-08-25T14:49:33Z</time>
      </trkpt>
      <trkpt lat="49.71634" lon="0.95642">
        <ele>98.8</ele>
        <time>2011-08-25T14:49:39Z</time>
      </trkpt>
      <trkpt lat="49.71625" lon="0.95642">
        <ele>99</ele>
        <time>2011-08-25T14:49:47Z</time>
      </trkpt>
      <trkpt lat="49.71617" lon="0.95643">
        <ele>98.5</ele>
        <time>2011-08-25T14:49:55Z</time>
      </trkpt>
      <trkpt lat="49.71609" lon="0.95642">
        <ele>98.8</ele>
        <time>2011-08-25T14:50:01Z</time>
      </trkpt>
      <trkpt lat="49.71601" lon="0.95642">
        <ele>97.1</ele>
        <time>2011-08-25T14:50:07Z</time>
      </trkpt>
      <trkpt lat="49.71593" lon="0.95642">
        <ele>98.4</ele>
        <time>2011-08-25T14:50:18Z</time>
      </trkpt>
      <trkpt lat="49.71592" lon="0.95643">
        <ele>98.1</ele>
        <time>2011-08-25T14:50:19Z</time>
      </trkpt>
      <trkpt lat="49.71576" lon="0.95646">
        <ele>96.1</ele>
        <time>2011-08-25T14:50:32Z</time>
      </trkpt>
      <trkpt lat="49.71568" lon="0.95645">
        <ele>95.3</ele>
        <time>2011-08-25T14:50:38Z</time>
      </trkpt>
      <trkpt lat="49.71559" lon="0.95644">
        <ele>94.1</ele>
        <time>2011-08-25T14:50:46Z</time>
      </trkpt>
      <trkpt lat="49.71552" lon="0.95642">
        <ele>94.8</ele>
        <time>2011-08-25T14:50:54Z</time>
      </trkpt>
      <trkpt lat="49.71544" lon="0.95642">
        <ele>94.5</ele>
        <time>2011-08-25T14:51:00Z</time>
      </trkpt>
      <trkpt lat="49.71536" lon="0.95646">
        <ele>94.5</ele>
        <time>2011-08-25T14:51:09Z</time>
      </trkpt>
      <trkpt lat="49.71527" lon="0.95647">
        <ele>93.6</ele>
        <time>2011-08-25T14:51:16Z</time>
      </trkpt>
      <trkpt lat="49.71519" lon="0.95648">
        <ele>89.4</ele>
        <time>2011-08-25T14:51:24Z</time>
      </trkpt>
      <trkpt lat="49.71517" lon="0.95648">
        <ele>89.4</ele>
        <time>2011-08-25T14:51:25Z</time>
      </trkpt>
      <trkpt lat="49.71502" lon="0.95647">
        <ele>90.1</ele>
        <time>2011-08-25T14:51:38Z</time>
      </trkpt>
      <trkpt lat="49.71494" lon="0.95647">
        <ele>89.6</ele>
        <time>2011-08-25T14:51:49Z</time>
      </trkpt>
      <trkpt lat="49.71486" lon="0.95647">
        <ele>90</ele>
        <time>2011-08-25T14:51:54Z</time>
      </trkpt>
      <trkpt lat="49.71478" lon="0.95647">
        <ele>90.1</ele>
        <time>2011-08-25T14:53:15Z</time>
      </trkpt>
      <trkpt lat="49.71477" lon="0.95646">
        <ele>89.6</ele>
        <time>2011-08-25T14:53:16Z</time>
      </trkpt>
      <trkpt lat="49.71461" lon="0.95651">
        <ele>90.1</ele>
        <time>2011-08-25T14:53:32Z</time>
      </trkpt>
      <trkpt lat="49.71454" lon="0.95653">
        <ele>90.9</ele>
        <time>2011-08-25T14:53:37Z</time>
      </trkpt>
      <trkpt lat="49.71446" lon="0.95656">
        <ele>94.1</ele>
        <time>2011-08-25T14:53:42Z</time>
      </trkpt>
      <trkpt lat="49.71439" lon="0.95662">
        <ele>92.5</ele>
        <time>2011-08-25T14:53:48Z</time>
      </trkpt>
      <trkpt lat="49.71432" lon="0.95662">
        <ele>93.3</ele>
        <time>2011-08-25T14:53:52Z</time>
      </trkpt>
      <trkpt lat="49.71423" lon="0.95663">
        <ele>92.5</ele>
        <time>2011-08-25T14:53:58Z</time>
      </trkpt>
      <trkpt lat="49.71415" lon="0.95665">
        <ele>94.6</ele>
        <time>2011-08-25T14:54:04Z</time>
      </trkpt>
      <trkpt lat="49.71407" lon="0.95668">
        <ele>94.4</ele>
        <time>2011-08-25T14:54:12Z</time>
      </trkpt>
      <trkpt lat="49.71399" lon="0.9567">
        <ele>94.1</ele>
        <time>2011-08-25T14:54:18Z</time>
      </trkpt>
      <trkpt lat="49.71398" lon="0.9567">
        <ele>94</ele>
        <time>2011-08-25T14:54:19Z</time>
      </trkpt>
      <trkpt lat="49.71382" lon="0.95672">
        <ele>94.4</ele>
        <time>2011-08-25T14:54:31Z</time>
      </trkpt>
      <trkpt lat="49.71374" lon="0.95674">
        <ele>95</ele>
        <time>2011-08-25T14:54:38Z</time>
      </trkpt>
      <trkpt lat="49.71365" lon="0.95676">
        <ele>93.9</ele>
        <time>2011-08-25T14:54:45Z</time>
      </trkpt>
      <trkpt lat="49.71357" lon="0.9568">
        <ele>93.1</ele>
        <time>2011-08-25T14:54:53Z</time>
      </trkpt>
      <trkpt lat="49.71348" lon="0.95684">
        <ele>93</ele>
        <time>2011-08-25T14:55:01Z</time>
      </trkpt>
      <trkpt lat="49.71341" lon="0.95687">
        <ele>94.6</ele>
        <time>2011-08-25T14:55:09Z</time>
      </trkpt>
      <trkpt lat="49.71333" lon="0.95691">
        <ele>96.3</ele>
        <time>2011-08-25T14:55:17Z</time>
      </trkpt>
      <trkpt lat="49.71326" lon="0.95694">
        <ele>95.3</ele>
        <time>2011-08-25T14:55:25Z</time>
      </trkpt>
      <trkpt lat="49.71324" lon="0.95694">
        <ele>95.5</ele>
        <time>2011-08-25T14:55:26Z</time>
      </trkpt>
      <trkpt lat="49.7131" lon="0.957">
        <ele>92.8</ele>
        <time>2011-08-25T14:55:39Z</time>
      </trkpt>
      <trkpt lat="49.71302" lon="0.95702">
        <ele>90.9</ele>
        <time>2011-08-25T14:55:45Z</time>
      </trkpt>
      <trkpt lat="49.71295" lon="0.95705">
        <ele>88.6</ele>
        <time>2011-08-25T14:55:51Z</time>
      </trkpt>
      <trkpt lat="49.71286" lon="0.95706">
        <ele>88.5</ele>
        <time>2011-08-25T14:55:57Z</time>
      </trkpt>
      <trkpt lat="49.71277" lon="0.9571">
        <ele>88.5</ele>
        <time>2011-08-25T14:56:05Z</time>
      </trkpt>
      <trkpt lat="49.71269" lon="0.95714">
        <ele>86.9</ele>
        <time>2011-08-25T14:56:19Z</time>
      </trkpt>
      <trkpt lat="49.71261" lon="0.95717">
        <ele>86.6</ele>
        <time>2011-08-25T14:56:26Z</time>
      </trkpt>
      <trkpt lat="49.7126" lon="0.95718">
        <ele>86.1</ele>
        <time>2011-08-25T14:56:27Z</time>
      </trkpt>
      <trkpt lat="49.71245" lon="0.95725">
        <ele>87.1</ele>
        <time>2011-08-25T14:56:41Z</time>
      </trkpt>
      <trkpt lat="49.71237" lon="0.95729">
        <ele>87.6</ele>
        <time>2011-08-25T14:56:47Z</time>
      </trkpt>
      <trkpt lat="49.71228" lon="0.95733">
        <ele>87</ele>
        <time>2011-08-25T14:56:53Z</time>
      </trkpt>
      <trkpt lat="49.71221" lon="0.9574">
        <ele>88.3</ele>
        <time>2011-08-25T14:57:00Z</time>
      </trkpt>
      <trkpt lat="49.71213" lon="0.95746">
        <ele>89.8</ele>
        <time>2011-08-25T14:57:08Z</time>
      </trkpt>
      <trkpt lat="49.71205" lon="0.95751">
        <ele>89.5</ele>
        <time>2011-08-25T14:57:15Z</time>
      </trkpt>
      <trkpt lat="49.71198" lon="0.95758">
        <ele>90.1</ele>
        <time>2011-08-25T14:57:22Z</time>
      </trkpt>
      <trkpt lat="49.7119" lon="0.95763">
        <ele>90.3</ele>
        <time>2011-08-25T14:57:29Z</time>
      </trkpt>
      <trkpt lat="49.7119" lon="0.95764">
        <ele>90</ele>
        <time>2011-08-25T14:57:30Z</time>
      </trkpt>
      <trkpt lat="49.71176" lon="0.95776">
        <ele>92.4</ele>
        <time>2011-08-25T14:57:46Z</time>
      </trkpt>
      <trkpt lat="49.71169" lon="0.95783">
        <ele>92.8</ele>
        <time>2011-08-25T14:57:54Z</time>
      </trkpt>
      <trkpt lat="49.71161" lon="0.95787">
        <ele>94.3</ele>
        <time>2011-08-25T14:58:01Z</time>
      </trkpt>
      <trkpt lat="49.71153" lon="0.95794">
        <ele>94.9</ele>
        <time>2011-08-25T14:58:09Z</time>
      </trkpt>
      <trkpt lat="49.71146" lon="0.95801">
        <ele>95.6</ele>
        <time>2011-08-25T14:58:16Z</time>
      </trkpt>
      <trkpt lat="49.71139" lon="0.95809">
        <ele>96.3</ele>
        <time>2011-08-25T14:58:23Z</time>
      </trkpt>
      <trkpt lat="49.71133" lon="0.95818">
        <ele>95.5</ele>
        <time>2011-08-25T14:58:30Z</time>
      </trkpt>
      <trkpt lat="49.71127" lon="0.95827">
        <ele>94.1</ele>
        <time>2011-08-25T14:58:37Z</time>
      </trkpt>
      <trkpt lat="49.71126" lon="0.95828">
        <ele>93.8</ele>
        <time>2011-08-25T14:58:38Z</time>
      </trkpt>
      <trkpt lat="49.71117" lon="0.95848">
        <ele>93.8</ele>
        <time>2011-08-25T14:58:52Z</time>
      </trkpt>
      <trkpt lat="49.71111" lon="0.95857">
        <ele>94.5</ele>
        <time>2011-08-25T14:59:00Z</time>
      </trkpt>
      <trkpt lat="49.71105" lon="0.95865">
        <ele>96.1</ele>
        <time>2011-08-25T14:59:10Z</time>
      </trkpt>
      <trkpt lat="49.71098" lon="0.95872">
        <ele>95.9</ele>
        <time>2011-08-25T14:59:16Z</time>
      </trkpt>
      <trkpt lat="49.71091" lon="0.95881">
        <ele>95.9</ele>
        <time>2011-08-25T14:59:23Z</time>
      </trkpt>
      <trkpt lat="49.71084" lon="0.95886">
        <ele>96</ele>
        <time>2011-08-25T14:59:30Z</time>
      </trkpt>
      <trkpt lat="49.71077" lon="0.95891">
        <ele>95.5</ele>
        <time>2011-08-25T14:59:36Z</time>
      </trkpt>
      <trkpt lat="49.71069" lon="0.95898">
        <ele>94</ele>
        <time>2011-08-25T14:59:44Z</time>
      </trkpt>
      <trkpt lat="49.71068" lon="0.95898">
        <ele>93.8</ele>
        <time>2011-08-25T14:59:45Z</time>
      </trkpt>
      <trkpt lat="49.71054" lon="0.95908">
        <ele>92.3</ele>
        <time>2011-08-25T14:59:58Z</time>
      </trkpt>
      <trkpt lat="49.71046" lon="0.95913">
        <ele>92.1</ele>
        <time>2011-08-25T15:00:05Z</time>
      </trkpt>
      <trkpt lat="49.71038" lon="0.95919">
        <ele>93</ele>
        <time>2011-08-25T15:00:14Z</time>
      </trkpt>
      <trkpt lat="49.7103" lon="0.95923">
        <ele>92.1</ele>
        <time>2011-08-25T15:00:24Z</time>
      </trkpt>
      <trkpt lat="49.71022" lon="0.95928">
        <ele>93</ele>
        <time>2011-08-25T15:00:33Z</time>
      </trkpt>
      <trkpt lat="49.71015" lon="0.95934">
        <ele>91.8</ele>
        <time>2011-08-25T15:01:01Z</time>
      </trkpt>
      <trkpt lat="49.71014" lon="0.95935">
        <ele>91.5</ele>
        <time>2011-08-25T15:01:02Z</time>
      </trkpt>
      <trkpt lat="49.71" lon="0.95946">
        <ele>92</ele>
        <time>2011-08-25T15:01:42Z</time>
      </trkpt>
      <trkpt lat="49.70993" lon="0.95948">
        <ele>91.5</ele>
        <time>2011-08-25T15:01:48Z</time>
      </trkpt>
      <trkpt lat="49.70984" lon="0.95952">
        <ele>91.5</ele>
        <time>2011-08-25T15:01:54Z</time>
      </trkpt>
      <trkpt lat="49.70976" lon="0.95959">
        <ele>92</ele>
        <time>2011-08-25T15:02:01Z</time>
      </trkpt>
      <trkpt lat="49.70969" lon="0.95966">
        <ele>91.9</ele>
        <time>2011-08-25T15:02:09Z</time>
      </trkpt>
      <trkpt lat="49.70968" lon="0.95967">
        <ele>91.5</ele>
        <time>2011-08-25T15:02:10Z</time>
      </trkpt>
      <trkpt lat="49.70953" lon="0.95974">
        <ele>91.5</ele>
        <time>2011-08-25T15:02:58Z</time>
      </trkpt>
      <trkpt lat="49.70945" lon="0.95977">
        <ele>92.9</ele>
        <time>2011-08-25T15:03:04Z</time>
      </trkpt>
      <trkpt lat="49.70936" lon="0.95981">
        <ele>93.9</ele>
        <time>2011-08-25T15:03:10Z</time>
      </trkpt>
      <trkpt lat="49.70928" lon="0.95984">
        <ele>95</ele>
        <time>2011-08-25T15:03:17Z</time>
      </trkpt>
      <trkpt lat="49.70927" lon="0.95985">
        <ele>95</ele>
        <time>2011-08-25T15:03:18Z</time>
      </trkpt>
      <trkpt lat="49.7091" lon="0.9599">
        <ele>93.4</ele>
        <time>2011-08-25T15:03:45Z</time>
      </trkpt>
      <trkpt lat="49.70904" lon="0.95997">
        <ele>93.1</ele>
        <time>2011-08-25T15:03:57Z</time>
      </trkpt>
      <trkpt lat="49.70898" lon="0.96007">
        <ele>92.4</ele>
        <time>2011-08-25T15:04:04Z</time>
      </trkpt>
      <trkpt lat="49.70893" lon="0.96017">
        <ele>91</ele>
        <time>2011-08-25T15:04:11Z</time>
      </trkpt>
      <trkpt lat="49.70887" lon="0.96028">
        <ele>90.3</ele>
        <time>2011-08-25T15:04:19Z</time>
      </trkpt>
      <trkpt lat="49.70887" lon="0.96029">
        <ele>90.1</ele>
        <time>2011-08-25T15:04:20Z</time>
      </trkpt>
      <trkpt lat="49.70879" lon="0.9605">
        <ele>89.6</ele>
        <time>2011-08-25T15:04:32Z</time>
      </trkpt>
      <trkpt lat="49.70875" lon="0.96061">
        <ele>89.5</ele>
        <time>2011-08-25T15:04:39Z</time>
      </trkpt>
      <trkpt lat="49.70871" lon="0.96072">
        <ele>88.5</ele>
        <time>2011-08-25T15:04:46Z</time>
      </trkpt>
      <trkpt lat="49.70866" lon="0.96083">
        <ele>89.3</ele>
        <time>2011-08-25T15:04:53Z</time>
      </trkpt>
      <trkpt lat="49.70862" lon="0.96093">
        <ele>90.6</ele>
        <time>2011-08-25T15:05:00Z</time>
      </trkpt>
      <trkpt lat="49.70857" lon="0.96104">
        <ele>90.8</ele>
        <time>2011-08-25T15:05:07Z</time>
      </trkpt>
      <trkpt lat="49.70852" lon="0.96114">
        <ele>91.6</ele>
        <time>2011-08-25T15:05:14Z</time>
      </trkpt>
      <trkpt lat="49.70847" lon="0.96125">
        <ele>92.6</ele>
        <time>2011-08-25T15:05:22Z</time>
      </trkpt>
      <trkpt lat="49.70846" lon="0.96127">
        <ele>92.5</ele>
        <time>2011-08-25T15:05:23Z</time>
      </trkpt>
      <trkpt lat="49.70836" lon="0.96145">
        <ele>94</ele>
        <time>2011-08-25T15:05:36Z</time>
      </trkpt>
      <trkpt lat="49.7083" lon="0.96155">
        <ele>95</ele>
        <time>2011-08-25T15:05:43Z</time>
      </trkpt>
      <trkpt lat="49.70824" lon="0.96164">
        <ele>96.3</ele>
        <time>2011-08-25T15:05:51Z</time>
      </trkpt>
      <trkpt lat="49.70817" lon="0.96172">
        <ele>98.4</ele>
        <time>2011-08-25T15:05:58Z</time>
      </trkpt>
      <trkpt lat="49.7081" lon="0.96179">
        <ele>98.6</ele>
        <time>2011-08-25T15:06:04Z</time>
      </trkpt>
      <trkpt lat="49.70803" lon="0.96185">
        <ele>98</ele>
        <time>2011-08-25T15:06:11Z</time>
      </trkpt>
      <trkpt lat="49.70795" lon="0.9619">
        <ele>98</ele>
        <time>2011-08-25T15:06:18Z</time>
      </trkpt>
      <trkpt lat="49.70788" lon="0.96195">
        <ele>97.5</ele>
        <time>2011-08-25T15:06:24Z</time>
      </trkpt>
      <trkpt lat="49.70787" lon="0.96196">
        <ele>97.6</ele>
        <time>2011-08-25T15:06:25Z</time>
      </trkpt>
      <trkpt lat="49.70771" lon="0.96203">
        <ele>98.9</ele>
        <time>2011-08-25T15:06:38Z</time>
      </trkpt>
      <trkpt lat="49.70763" lon="0.96204">
        <ele>98.6</ele>
        <time>2011-08-25T15:06:45Z</time>
      </trkpt>
      <trkpt lat="49.70755" lon="0.96206">
        <ele>99</ele>
        <time>2011-08-25T15:06:52Z</time>
      </trkpt>
      <trkpt lat="49.70746" lon="0.96208">
        <ele>99.6</ele>
        <time>2011-08-25T15:07:00Z</time>
      </trkpt>
      <trkpt lat="49.70738" lon="0.96209">
        <ele>101.1</ele>
        <time>2011-08-25T15:07:07Z</time>
      </trkpt>
      <trkpt lat="49.7073" lon="0.9621">
        <ele>102</ele>
        <time>2011-08-25T15:07:13Z</time>
      </trkpt>
      <trkpt lat="49.70722" lon="0.96211">
        <ele>101.9</ele>
        <time>2011-08-25T15:07:19Z</time>
      </trkpt>
      <trkpt lat="49.70714" lon="0.96214">
        <ele>102.1</ele>
        <time>2011-08-25T15:07:25Z</time>
      </trkpt>
      <trkpt lat="49.70713" lon="0.96215">
        <ele>102.4</ele>
        <time>2011-08-25T15:07:26Z</time>
      </trkpt>
      <trkpt lat="49.70699" lon="0.96223">
        <ele>103.5</ele>
        <time>2011-08-25T15:07:37Z</time>
      </trkpt>
      <trkpt lat="49.70691" lon="0.96228">
        <ele>103.5</ele>
        <time>2011-08-25T15:07:44Z</time>
      </trkpt>
      <trkpt lat="49.70684" lon="0.96235">
        <ele>104.5</ele>
        <time>2011-08-25T15:07:51Z</time>
      </trkpt>
      <trkpt lat="49.70677" lon="0.96242">
        <ele>105</ele>
        <time>2011-08-25T15:07:59Z</time>
      </trkpt>
      <trkpt lat="49.70674" lon="0.96254">
        <ele>104.5</ele>
        <time>2011-08-25T15:08:07Z</time>
      </trkpt>
      <trkpt lat="49.70675" lon="0.96268">
        <ele>103.4</ele>
        <time>2011-08-25T15:08:27Z</time>
      </trkpt>
      <trkpt lat="49.70675" lon="0.96269">
        <ele>103.5</ele>
        <time>2011-08-25T15:08:28Z</time>
      </trkpt>
      <trkpt lat="49.70673" lon="0.96292">
        <ele>102.4</ele>
        <time>2011-08-25T15:08:40Z</time>
      </trkpt>
      <trkpt lat="49.70675" lon="0.96303">
        <ele>101.4</ele>
        <time>2011-08-25T15:08:46Z</time>
      </trkpt>
      <trkpt lat="49.70679" lon="0.96314">
        <ele>99.9</ele>
        <time>2011-08-25T15:08:52Z</time>
      </trkpt>
      <trkpt lat="49.70682" lon="0.96327">
        <ele>97.4</ele>
        <time>2011-08-25T15:08:59Z</time>
      </trkpt>
      <trkpt lat="49.70684" lon="0.96339">
        <ele>96.5</ele>
        <time>2011-08-25T15:09:06Z</time>
      </trkpt>
      <trkpt lat="49.70688" lon="0.96351">
        <ele>96.3</ele>
        <time>2011-08-25T15:09:13Z</time>
      </trkpt>
      <trkpt lat="49.70691" lon="0.96364">
        <ele>94.9</ele>
        <time>2011-08-25T15:09:20Z</time>
      </trkpt>
      <trkpt lat="49.70694" lon="0.96377">
        <ele>94.4</ele>
        <time>2011-08-25T15:09:27Z</time>
      </trkpt>
      <trkpt lat="49.70696" lon="0.96389">
        <ele>95</ele>
        <time>2011-08-25T15:09:34Z</time>
      </trkpt>
      <trkpt lat="49.70697" lon="0.96391">
        <ele>95</ele>
        <time>2011-08-25T15:09:35Z</time>
      </trkpt>
      <trkpt lat="49.70693" lon="0.96411">
        <ele>94.9</ele>
        <time>2011-08-25T15:09:50Z</time>
      </trkpt>
      <trkpt lat="49.70687" lon="0.96421">
        <ele>97.3</ele>
        <time>2011-08-25T15:10:02Z</time>
      </trkpt>
      <trkpt lat="49.70679" lon="0.96425">
        <ele>99.8</ele>
        <time>2011-08-25T15:10:16Z</time>
      </trkpt>
      <trkpt lat="49.70672" lon="0.96431">
        <ele>101.3</ele>
        <time>2011-08-25T15:10:28Z</time>
      </trkpt>
      <trkpt lat="49.70665" lon="0.96437">
        <ele>103.3</ele>
        <time>2011-08-25T15:10:36Z</time>
      </trkpt>
      <trkpt lat="49.70663" lon="0.96438">
        <ele>103.3</ele>
        <time>2011-08-25T15:10:37Z</time>
      </trkpt>
      <trkpt lat="49.70649" lon="0.96448">
        <ele>103.1</ele>
        <time>2011-08-25T15:10:48Z</time>
      </trkpt>
      <trkpt lat="49.70641" lon="0.96453">
        <ele>104.6</ele>
        <time>2011-08-25T15:10:55Z</time>
      </trkpt>
      <trkpt lat="49.70634" lon="0.96461">
        <ele>103.4</ele>
        <time>2011-08-25T15:11:01Z</time>
      </trkpt>
      <trkpt lat="49.70627" lon="0.9647">
        <ele>102</ele>
        <time>2011-08-25T15:11:09Z</time>
      </trkpt>
      <trkpt lat="49.70619" lon="0.96472">
        <ele>99.4</ele>
        <time>2011-08-25T15:11:17Z</time>
      </trkpt>
      <trkpt lat="49.70611" lon="0.96479">
        <ele>101.8</ele>
        <time>2011-08-25T15:11:29Z</time>
      </trkpt>
      <trkpt lat="49.70604" lon="0.96486">
        <ele>100.9</ele>
        <time>2011-08-25T15:11:37Z</time>
      </trkpt>
      <trkpt lat="49.70603" lon="0.96488">
        <ele>100.9</ele>
        <time>2011-08-25T15:11:38Z</time>
      </trkpt>
      <trkpt lat="49.70595" lon="0.9651">
        <ele>101</ele>
        <time>2011-08-25T15:11:53Z</time>
      </trkpt>
      <trkpt lat="49.70591" lon="0.96522">
        <ele>101.5</ele>
        <time>2011-08-25T15:12:00Z</time>
      </trkpt>
      <trkpt lat="49.70588" lon="0.96533">
        <ele>100.9</ele>
        <time>2011-08-25T15:12:07Z</time>
      </trkpt>
      <trkpt lat="49.70587" lon="0.96546">
        <ele>101.9</ele>
        <time>2011-08-25T15:12:15Z</time>
      </trkpt>
      <trkpt lat="49.70587" lon="0.96559">
        <ele>101.3</ele>
        <time>2011-08-25T15:12:23Z</time>
      </trkpt>
      <trkpt lat="49.70587" lon="0.96571">
        <ele>102.1</ele>
        <time>2011-08-25T15:12:31Z</time>
      </trkpt>
      <trkpt lat="49.70585" lon="0.96584">
        <ele>103.5</ele>
        <time>2011-08-25T15:12:40Z</time>
      </trkpt>
      <trkpt lat="49.70585" lon="0.96585">
        <ele>103.5</ele>
        <time>2011-08-25T15:12:41Z</time>
      </trkpt>
      <trkpt lat="49.70586" lon="0.9659">
        <ele>104.9</ele>
        <time>2011-08-25T15:13:13Z</time>
      </trkpt>
    </trkseg>
  </trk>
</gpx>